<?xml version="1.0" encoding="UTF-8" standalone="no" ?>
<gpx xmlns="http://www.topografix.com/GPX/1/1" xmlns:xsi="http://www.w3.org/2001/XMLSchema-instance" xsi:schemaLocation="http://www.topografix.com/GPX/1/1 http://www.topografix.com/GPX/1/1/gpx.xsd" version="1.1" creator="VisuGPX - https://www.visugpx.com">
  <metadata>
    <name>Cadières - Cambo - La Fage</name>
    <desc><![CDATA[2019-03 - Cadières - Cambo - Montagne de La Fage

[b]album[/b] : [url]https://photos.app.goo.gl/ugTof7fMqwFdop2T9[/url]
[img]https://3.bp.blogspot.com/-LsvJwKgE4Oo/WNa6mYViQ3I/AAAAAAAARpo/zqsAl76hoMAKavfvFXo9VsRAa_K7muGswCLcB/s1600/2013-06-23_Cambo_Montagne_la_Fage_photos_i.JPG[/img]
[b]Idées de randonnées dans la même région[/b]
Parcours : [url]https://www.visugpx.com/membres/24856/montagne/cevennes/[/url]
Photos : [url]https://jcvertygo.blogspot.com/p/cevennes-meridionales.html[/url]]]></desc>
  </metadata>
  <trk>
    <name><![CDATA[SityTrail - Cadières - Cambo - Montagne de La Fage]]></name>
    <extensions>
      <line xmlns="http://www.topografix.com/GPX/gpx_style/0/2">
        <color>0000FF</color>
        <width>4</width>
      </line>
    </extensions>
    <trkseg>
      <trkpt lat="43.96027" lon="3.80692">
        <ele>265</ele>
        <time>2019-03-12T10:04:09.281Z</time>
      </trkpt>
      <trkpt lat="43.96027" lon="3.80692">
        <ele>265</ele>
        <time>2019-03-12T10:04:10.278Z</time>
      </trkpt>
      <trkpt lat="43.96029" lon="3.80693">
        <ele>265</ele>
        <time>2019-03-12T10:04:15.246Z</time>
      </trkpt>
      <trkpt lat="43.96029" lon="3.80693">
        <ele>265</ele>
        <time>2019-03-12T10:04:28.278Z</time>
      </trkpt>
      <trkpt lat="43.96032" lon="3.80695">
        <ele>265</ele>
        <time>2019-03-12T10:04:32.277Z</time>
      </trkpt>
      <trkpt lat="43.96038" lon="3.807">
        <ele>265</ele>
        <time>2019-03-12T10:04:37.280Z</time>
      </trkpt>
      <trkpt lat="43.96042" lon="3.80704">
        <ele>272</ele>
        <time>2019-03-12T10:04:42.248Z</time>
      </trkpt>
      <trkpt lat="43.96045" lon="3.80704">
        <ele>272</ele>
        <time>2019-03-12T10:04:46.251Z</time>
      </trkpt>
      <trkpt lat="43.96048" lon="3.80701">
        <ele>272</ele>
        <time>2019-03-12T10:04:50.250Z</time>
      </trkpt>
      <trkpt lat="43.96052" lon="3.80697">
        <ele>272</ele>
        <time>2019-03-12T10:04:55.256Z</time>
      </trkpt>
      <trkpt lat="43.96058" lon="3.80695">
        <ele>272</ele>
        <time>2019-03-12T10:05:00.251Z</time>
      </trkpt>
      <trkpt lat="43.9606" lon="3.80696">
        <ele>272</ele>
        <time>2019-03-12T10:05:05.265Z</time>
      </trkpt>
      <trkpt lat="43.96065" lon="3.80695">
        <ele>272</ele>
        <time>2019-03-12T10:05:10.239Z</time>
      </trkpt>
      <trkpt lat="43.96066" lon="3.80695">
        <ele>272</ele>
        <time>2019-03-12T10:05:14.242Z</time>
      </trkpt>
      <trkpt lat="43.96066" lon="3.80688">
        <ele>272</ele>
        <time>2019-03-12T10:05:22.239Z</time>
      </trkpt>
      <trkpt lat="43.9607" lon="3.80681">
        <ele>272</ele>
        <time>2019-03-12T10:05:27.256Z</time>
      </trkpt>
      <trkpt lat="43.96071" lon="3.80678">
        <ele>275</ele>
        <time>2019-03-12T10:05:31.264Z</time>
      </trkpt>
      <trkpt lat="43.96071" lon="3.80675">
        <ele>275</ele>
        <time>2019-03-12T10:05:36.238Z</time>
      </trkpt>
      <trkpt lat="43.96072" lon="3.80675">
        <ele>275</ele>
        <time>2019-03-12T10:05:40.280Z</time>
      </trkpt>
      <trkpt lat="43.96075" lon="3.80669">
        <ele>275</ele>
        <time>2019-03-12T10:05:45.268Z</time>
      </trkpt>
      <trkpt lat="43.96081" lon="3.80669">
        <ele>275</ele>
        <time>2019-03-12T10:05:50.277Z</time>
      </trkpt>
      <trkpt lat="43.96081" lon="3.80669">
        <ele>275</ele>
        <time>2019-03-12T10:05:54.276Z</time>
      </trkpt>
      <trkpt lat="43.96087" lon="3.80664">
        <ele>275</ele>
        <time>2019-03-12T10:05:59.252Z</time>
      </trkpt>
      <trkpt lat="43.96094" lon="3.80661">
        <ele>275</ele>
        <time>2019-03-12T10:06:03.282Z</time>
      </trkpt>
      <trkpt lat="43.96099" lon="3.80668">
        <ele>272</ele>
        <time>2019-03-12T10:06:08.279Z</time>
      </trkpt>
      <trkpt lat="43.96104" lon="3.80673">
        <ele>272</ele>
        <time>2019-03-12T10:06:13.262Z</time>
      </trkpt>
      <trkpt lat="43.96108" lon="3.80671">
        <ele>272</ele>
        <time>2019-03-12T10:06:18.249Z</time>
      </trkpt>
      <trkpt lat="43.96111" lon="3.8067">
        <ele>272</ele>
        <time>2019-03-12T10:06:23.279Z</time>
      </trkpt>
      <trkpt lat="43.96115" lon="3.80669">
        <ele>272</ele>
        <time>2019-03-12T10:06:28.278Z</time>
      </trkpt>
      <trkpt lat="43.9612" lon="3.80675">
        <ele>272</ele>
        <time>2019-03-12T10:06:33.253Z</time>
      </trkpt>
      <trkpt lat="43.96124" lon="3.80675">
        <ele>272</ele>
        <time>2019-03-12T10:06:37.247Z</time>
      </trkpt>
      <trkpt lat="43.96133" lon="3.80673">
        <ele>272</ele>
        <time>2019-03-12T10:06:42.248Z</time>
      </trkpt>
      <trkpt lat="43.96145" lon="3.80668">
        <ele>272</ele>
        <time>2019-03-12T10:07:05.241Z</time>
      </trkpt>
      <trkpt lat="43.96146" lon="3.8066">
        <ele>272</ele>
        <time>2019-03-12T10:07:09.276Z</time>
      </trkpt>
      <trkpt lat="43.9615" lon="3.80654">
        <ele>272</ele>
        <time>2019-03-12T10:07:14.276Z</time>
      </trkpt>
      <trkpt lat="43.96158" lon="3.80654">
        <ele>273</ele>
        <time>2019-03-12T10:07:19.239Z</time>
      </trkpt>
      <trkpt lat="43.96161" lon="3.8066">
        <ele>273</ele>
        <time>2019-03-12T10:07:23.281Z</time>
      </trkpt>
      <trkpt lat="43.96166" lon="3.80661">
        <ele>273</ele>
        <time>2019-03-12T10:07:28.277Z</time>
      </trkpt>
      <trkpt lat="43.9617" lon="3.80665">
        <ele>273</ele>
        <time>2019-03-12T10:07:32.277Z</time>
      </trkpt>
      <trkpt lat="43.96176" lon="3.80669">
        <ele>273</ele>
        <time>2019-03-12T10:07:37.247Z</time>
      </trkpt>
      <trkpt lat="43.9618" lon="3.80671">
        <ele>273</ele>
        <time>2019-03-12T10:07:41.260Z</time>
      </trkpt>
      <trkpt lat="43.96185" lon="3.80674">
        <ele>275</ele>
        <time>2019-03-12T10:07:46.263Z</time>
      </trkpt>
      <trkpt lat="43.96192" lon="3.80673">
        <ele>275</ele>
        <time>2019-03-12T10:07:51.259Z</time>
      </trkpt>
      <trkpt lat="43.96197" lon="3.80671">
        <ele>275</ele>
        <time>2019-03-12T10:07:55.268Z</time>
      </trkpt>
      <trkpt lat="43.96206" lon="3.80666">
        <ele>275</ele>
        <time>2019-03-12T10:08:00.260Z</time>
      </trkpt>
      <trkpt lat="43.96215" lon="3.80665">
        <ele>277</ele>
        <time>2019-03-12T10:08:05.259Z</time>
      </trkpt>
      <trkpt lat="43.96222" lon="3.80668">
        <ele>277</ele>
        <time>2019-03-12T10:08:10.255Z</time>
      </trkpt>
      <trkpt lat="43.96228" lon="3.80672">
        <ele>277</ele>
        <time>2019-03-12T10:08:15.255Z</time>
      </trkpt>
      <trkpt lat="43.96233" lon="3.80673">
        <ele>277</ele>
        <time>2019-03-12T10:08:20.257Z</time>
      </trkpt>
      <trkpt lat="43.96237" lon="3.80674">
        <ele>280</ele>
        <time>2019-03-12T10:08:25.278Z</time>
      </trkpt>
      <trkpt lat="43.9624" lon="3.80681">
        <ele>276</ele>
        <time>2019-03-12T10:08:30.280Z</time>
      </trkpt>
      <trkpt lat="43.96245" lon="3.80689">
        <ele>276</ele>
        <time>2019-03-12T10:08:35.249Z</time>
      </trkpt>
      <trkpt lat="43.96247" lon="3.80694">
        <ele>276</ele>
        <time>2019-03-12T10:08:39.256Z</time>
      </trkpt>
      <trkpt lat="43.96249" lon="3.80702">
        <ele>276</ele>
        <time>2019-03-12T10:08:44.264Z</time>
      </trkpt>
      <trkpt lat="43.96251" lon="3.8071">
        <ele>276</ele>
        <time>2019-03-12T10:08:49.247Z</time>
      </trkpt>
      <trkpt lat="43.96254" lon="3.80717">
        <ele>276</ele>
        <time>2019-03-12T10:08:54.257Z</time>
      </trkpt>
      <trkpt lat="43.96255" lon="3.80723">
        <ele>276</ele>
        <time>2019-03-12T10:08:58.277Z</time>
      </trkpt>
      <trkpt lat="43.96256" lon="3.80728">
        <ele>276</ele>
        <time>2019-03-12T10:09:03.262Z</time>
      </trkpt>
      <trkpt lat="43.96257" lon="3.80738">
        <ele>281</ele>
        <time>2019-03-12T10:09:08.247Z</time>
      </trkpt>
      <trkpt lat="43.96258" lon="3.80745">
        <ele>281</ele>
        <time>2019-03-12T10:09:12.248Z</time>
      </trkpt>
      <trkpt lat="43.9626" lon="3.80752">
        <ele>281</ele>
        <time>2019-03-12T10:09:16.255Z</time>
      </trkpt>
      <trkpt lat="43.96262" lon="3.80755">
        <ele>281</ele>
        <time>2019-03-12T10:09:20.259Z</time>
      </trkpt>
      <trkpt lat="43.96268" lon="3.80759">
        <ele>278</ele>
        <time>2019-03-12T10:09:25.248Z</time>
      </trkpt>
      <trkpt lat="43.96271" lon="3.80764">
        <ele>276</ele>
        <time>2019-03-12T10:09:29.256Z</time>
      </trkpt>
      <trkpt lat="43.96275" lon="3.80769">
        <ele>276</ele>
        <time>2019-03-12T10:09:33.277Z</time>
      </trkpt>
      <trkpt lat="43.96282" lon="3.80772">
        <ele>276</ele>
        <time>2019-03-12T10:09:38.277Z</time>
      </trkpt>
      <trkpt lat="43.96288" lon="3.80776">
        <ele>276</ele>
        <time>2019-03-12T10:09:43.279Z</time>
      </trkpt>
      <trkpt lat="43.96292" lon="3.80778">
        <ele>278</ele>
        <time>2019-03-12T10:09:47.284Z</time>
      </trkpt>
      <trkpt lat="43.96297" lon="3.80782">
        <ele>278</ele>
        <time>2019-03-12T10:09:52.246Z</time>
      </trkpt>
      <trkpt lat="43.96302" lon="3.80788">
        <ele>278</ele>
        <time>2019-03-12T10:09:57.247Z</time>
      </trkpt>
      <trkpt lat="43.96305" lon="3.80792">
        <ele>277</ele>
        <time>2019-03-12T10:10:01.248Z</time>
      </trkpt>
      <trkpt lat="43.96308" lon="3.80798">
        <ele>277</ele>
        <time>2019-03-12T10:10:05.256Z</time>
      </trkpt>
      <trkpt lat="43.96311" lon="3.80806">
        <ele>277</ele>
        <time>2019-03-12T10:10:10.256Z</time>
      </trkpt>
      <trkpt lat="43.96313" lon="3.80812">
        <ele>277</ele>
        <time>2019-03-12T10:10:14.277Z</time>
      </trkpt>
      <trkpt lat="43.96316" lon="3.80818">
        <ele>277</ele>
        <time>2019-03-12T10:10:19.277Z</time>
      </trkpt>
      <trkpt lat="43.96319" lon="3.80823">
        <ele>285</ele>
        <time>2019-03-12T10:10:23.284Z</time>
      </trkpt>
      <trkpt lat="43.96321" lon="3.80829">
        <ele>288</ele>
        <time>2019-03-12T10:10:28.283Z</time>
      </trkpt>
      <trkpt lat="43.96323" lon="3.80836">
        <ele>288</ele>
        <time>2019-03-12T10:10:33.265Z</time>
      </trkpt>
      <trkpt lat="43.96324" lon="3.80841">
        <ele>288</ele>
        <time>2019-03-12T10:10:37.278Z</time>
      </trkpt>
      <trkpt lat="43.96326" lon="3.80848">
        <ele>285</ele>
        <time>2019-03-12T10:10:42.251Z</time>
      </trkpt>
      <trkpt lat="43.96329" lon="3.80856">
        <ele>285</ele>
        <time>2019-03-12T10:10:47.257Z</time>
      </trkpt>
      <trkpt lat="43.96331" lon="3.80863">
        <ele>285</ele>
        <time>2019-03-12T10:10:51.280Z</time>
      </trkpt>
      <trkpt lat="43.96334" lon="3.80871">
        <ele>285</ele>
        <time>2019-03-12T10:10:56.248Z</time>
      </trkpt>
      <trkpt lat="43.96336" lon="3.80878">
        <ele>284</ele>
        <time>2019-03-12T10:11:01.248Z</time>
      </trkpt>
      <trkpt lat="43.96339" lon="3.80886">
        <ele>284</ele>
        <time>2019-03-12T10:11:06.248Z</time>
      </trkpt>
      <trkpt lat="43.96341" lon="3.80893">
        <ele>284</ele>
        <time>2019-03-12T10:11:10.249Z</time>
      </trkpt>
      <trkpt lat="43.96343" lon="3.80899">
        <ele>284</ele>
        <time>2019-03-12T10:11:14.279Z</time>
      </trkpt>
      <trkpt lat="43.96345" lon="3.80907">
        <ele>286</ele>
        <time>2019-03-12T10:11:18.278Z</time>
      </trkpt>
      <trkpt lat="43.96347" lon="3.80915">
        <ele>288</ele>
        <time>2019-03-12T10:11:22.277Z</time>
      </trkpt>
      <trkpt lat="43.96355" lon="3.80919">
        <ele>288</ele>
        <time>2019-03-12T10:11:27.277Z</time>
      </trkpt>
      <trkpt lat="43.96362" lon="3.80922">
        <ele>288</ele>
        <time>2019-03-12T10:11:32.290Z</time>
      </trkpt>
      <trkpt lat="43.96367" lon="3.80925">
        <ele>288</ele>
        <time>2019-03-12T10:11:36.290Z</time>
      </trkpt>
      <trkpt lat="43.96372" lon="3.8093">
        <ele>288</ele>
        <time>2019-03-12T10:11:41.257Z</time>
      </trkpt>
      <trkpt lat="43.96375" lon="3.80936">
        <ele>289</ele>
        <time>2019-03-12T10:11:46.249Z</time>
      </trkpt>
      <trkpt lat="43.96378" lon="3.80942">
        <ele>290</ele>
        <time>2019-03-12T10:11:50.280Z</time>
      </trkpt>
      <trkpt lat="43.96378" lon="3.80951">
        <ele>290</ele>
        <time>2019-03-12T10:11:55.256Z</time>
      </trkpt>
      <trkpt lat="43.96377" lon="3.80956">
        <ele>290</ele>
        <time>2019-03-12T10:11:59.252Z</time>
      </trkpt>
      <trkpt lat="43.96378" lon="3.8096">
        <ele>290</ele>
        <time>2019-03-12T10:12:04.280Z</time>
      </trkpt>
      <trkpt lat="43.96377" lon="3.80968">
        <ele>290</ele>
        <time>2019-03-12T10:12:09.261Z</time>
      </trkpt>
      <trkpt lat="43.96377" lon="3.80976">
        <ele>290</ele>
        <time>2019-03-12T10:12:14.287Z</time>
      </trkpt>
      <trkpt lat="43.96377" lon="3.80983">
        <ele>290</ele>
        <time>2019-03-12T10:12:19.247Z</time>
      </trkpt>
      <trkpt lat="43.96376" lon="3.80991">
        <ele>289</ele>
        <time>2019-03-12T10:12:23.278Z</time>
      </trkpt>
      <trkpt lat="43.96376" lon="3.80997">
        <ele>289</ele>
        <time>2019-03-12T10:12:27.278Z</time>
      </trkpt>
      <trkpt lat="43.96378" lon="3.81005">
        <ele>289</ele>
        <time>2019-03-12T10:12:32.277Z</time>
      </trkpt>
      <trkpt lat="43.96382" lon="3.81011">
        <ele>289</ele>
        <time>2019-03-12T10:12:36.280Z</time>
      </trkpt>
      <trkpt lat="43.96389" lon="3.81019">
        <ele>294</ele>
        <time>2019-03-12T10:12:41.260Z</time>
      </trkpt>
      <trkpt lat="43.96397" lon="3.81024">
        <ele>294</ele>
        <time>2019-03-12T10:12:46.277Z</time>
      </trkpt>
      <trkpt lat="43.96405" lon="3.81024">
        <ele>291</ele>
        <time>2019-03-12T10:12:50.282Z</time>
      </trkpt>
      <trkpt lat="43.96411" lon="3.81025">
        <ele>291</ele>
        <time>2019-03-12T10:12:55.253Z</time>
      </trkpt>
      <trkpt lat="43.96418" lon="3.8103">
        <ele>291</ele>
        <time>2019-03-12T10:13:00.267Z</time>
      </trkpt>
      <trkpt lat="43.96422" lon="3.81035">
        <ele>291</ele>
        <time>2019-03-12T10:13:05.257Z</time>
      </trkpt>
      <trkpt lat="43.96426" lon="3.81039">
        <ele>291</ele>
        <time>2019-03-12T10:13:09.280Z</time>
      </trkpt>
      <trkpt lat="43.96431" lon="3.81042">
        <ele>291</ele>
        <time>2019-03-12T10:13:14.290Z</time>
      </trkpt>
      <trkpt lat="43.96436" lon="3.81045">
        <ele>289</ele>
        <time>2019-03-12T10:13:19.253Z</time>
      </trkpt>
      <trkpt lat="43.96439" lon="3.81048">
        <ele>289</ele>
        <time>2019-03-12T10:13:23.274Z</time>
      </trkpt>
      <trkpt lat="43.96445" lon="3.81052">
        <ele>289</ele>
        <time>2019-03-12T10:13:28.254Z</time>
      </trkpt>
      <trkpt lat="43.9645" lon="3.81057">
        <ele>289</ele>
        <time>2019-03-12T10:13:33.260Z</time>
      </trkpt>
      <trkpt lat="43.96456" lon="3.8106">
        <ele>289</ele>
        <time>2019-03-12T10:13:38.247Z</time>
      </trkpt>
      <trkpt lat="43.9646" lon="3.81063">
        <ele>289</ele>
        <time>2019-03-12T10:13:42.250Z</time>
      </trkpt>
      <trkpt lat="43.96466" lon="3.81064">
        <ele>289</ele>
        <time>2019-03-12T10:13:47.277Z</time>
      </trkpt>
      <trkpt lat="43.96472" lon="3.81068">
        <ele>289</ele>
        <time>2019-03-12T10:13:52.248Z</time>
      </trkpt>
      <trkpt lat="43.96475" lon="3.81072">
        <ele>291</ele>
        <time>2019-03-12T10:13:56.280Z</time>
      </trkpt>
      <trkpt lat="43.96481" lon="3.81076">
        <ele>291</ele>
        <time>2019-03-12T10:14:01.248Z</time>
      </trkpt>
      <trkpt lat="43.96485" lon="3.81079">
        <ele>291</ele>
        <time>2019-03-12T10:14:05.277Z</time>
      </trkpt>
      <trkpt lat="43.9649" lon="3.81081">
        <ele>293</ele>
        <time>2019-03-12T10:14:09.280Z</time>
      </trkpt>
      <trkpt lat="43.96494" lon="3.81081">
        <ele>293</ele>
        <time>2019-03-12T10:14:14.280Z</time>
      </trkpt>
      <trkpt lat="43.96505" lon="3.81075">
        <ele>293</ele>
        <time>2019-03-12T10:14:31.275Z</time>
      </trkpt>
      <trkpt lat="43.96514" lon="3.8107">
        <ele>293</ele>
        <time>2019-03-12T10:14:36.279Z</time>
      </trkpt>
      <trkpt lat="43.9652" lon="3.81067">
        <ele>298</ele>
        <time>2019-03-12T10:14:41.246Z</time>
      </trkpt>
      <trkpt lat="43.96522" lon="3.81065">
        <ele>298</ele>
        <time>2019-03-12T10:14:46.258Z</time>
      </trkpt>
      <trkpt lat="43.96527" lon="3.81061">
        <ele>298</ele>
        <time>2019-03-12T10:14:50.271Z</time>
      </trkpt>
      <trkpt lat="43.96533" lon="3.81059">
        <ele>298</ele>
        <time>2019-03-12T10:14:54.275Z</time>
      </trkpt>
      <trkpt lat="43.96538" lon="3.81056">
        <ele>298</ele>
        <time>2019-03-12T10:14:59.252Z</time>
      </trkpt>
      <trkpt lat="43.96544" lon="3.81056">
        <ele>301</ele>
        <time>2019-03-12T10:15:03.290Z</time>
      </trkpt>
      <trkpt lat="43.9655" lon="3.81057">
        <ele>301</ele>
        <time>2019-03-12T10:15:08.257Z</time>
      </trkpt>
      <trkpt lat="43.96555" lon="3.81057">
        <ele>301</ele>
        <time>2019-03-12T10:15:13.256Z</time>
      </trkpt>
      <trkpt lat="43.9656" lon="3.81059">
        <ele>301</ele>
        <time>2019-03-12T10:15:18.280Z</time>
      </trkpt>
      <trkpt lat="43.96566" lon="3.81058">
        <ele>301</ele>
        <time>2019-03-12T10:15:23.282Z</time>
      </trkpt>
      <trkpt lat="43.9657" lon="3.81057">
        <ele>305</ele>
        <time>2019-03-12T10:15:28.279Z</time>
      </trkpt>
      <trkpt lat="43.96575" lon="3.81054">
        <ele>305</ele>
        <time>2019-03-12T10:15:33.269Z</time>
      </trkpt>
      <trkpt lat="43.96579" lon="3.8105">
        <ele>305</ele>
        <time>2019-03-12T10:15:37.271Z</time>
      </trkpt>
      <trkpt lat="43.96584" lon="3.81047">
        <ele>305</ele>
        <time>2019-03-12T10:15:42.239Z</time>
      </trkpt>
      <trkpt lat="43.96589" lon="3.81045">
        <ele>305</ele>
        <time>2019-03-12T10:15:46.246Z</time>
      </trkpt>
      <trkpt lat="43.96594" lon="3.8104">
        <ele>309</ele>
        <time>2019-03-12T10:15:51.241Z</time>
      </trkpt>
      <trkpt lat="43.96598" lon="3.81037">
        <ele>307</ele>
        <time>2019-03-12T10:15:56.242Z</time>
      </trkpt>
      <trkpt lat="43.96602" lon="3.81034">
        <ele>307</ele>
        <time>2019-03-12T10:16:01.243Z</time>
      </trkpt>
      <trkpt lat="43.96608" lon="3.81029">
        <ele>307</ele>
        <time>2019-03-12T10:16:06.253Z</time>
      </trkpt>
      <trkpt lat="43.96614" lon="3.81026">
        <ele>307</ele>
        <time>2019-03-12T10:16:11.247Z</time>
      </trkpt>
      <trkpt lat="43.96618" lon="3.81021">
        <ele>307</ele>
        <time>2019-03-12T10:16:15.279Z</time>
      </trkpt>
      <trkpt lat="43.96622" lon="3.81019">
        <ele>307</ele>
        <time>2019-03-12T10:16:19.281Z</time>
      </trkpt>
      <trkpt lat="43.96628" lon="3.81015">
        <ele>303</ele>
        <time>2019-03-12T10:16:24.267Z</time>
      </trkpt>
      <trkpt lat="43.96633" lon="3.81014">
        <ele>303</ele>
        <time>2019-03-12T10:16:28.283Z</time>
      </trkpt>
      <trkpt lat="43.9664" lon="3.81012">
        <ele>310</ele>
        <time>2019-03-12T10:16:33.287Z</time>
      </trkpt>
      <trkpt lat="43.96644" lon="3.81011">
        <ele>310</ele>
        <time>2019-03-12T10:16:37.288Z</time>
      </trkpt>
      <trkpt lat="43.96647" lon="3.81012">
        <ele>310</ele>
        <time>2019-03-12T10:16:42.272Z</time>
      </trkpt>
      <trkpt lat="43.9665" lon="3.81011">
        <ele>310</ele>
        <time>2019-03-12T10:16:47.261Z</time>
      </trkpt>
      <trkpt lat="43.96656" lon="3.8101">
        <ele>306</ele>
        <time>2019-03-12T10:16:52.259Z</time>
      </trkpt>
      <trkpt lat="43.96661" lon="3.81009">
        <ele>306</ele>
        <time>2019-03-12T10:16:56.262Z</time>
      </trkpt>
      <trkpt lat="43.96665" lon="3.8101">
        <ele>306</ele>
        <time>2019-03-12T10:17:00.279Z</time>
      </trkpt>
      <trkpt lat="43.9667" lon="3.81011">
        <ele>306</ele>
        <time>2019-03-12T10:17:05.257Z</time>
      </trkpt>
      <trkpt lat="43.96677" lon="3.81009">
        <ele>306</ele>
        <time>2019-03-12T10:17:10.263Z</time>
      </trkpt>
      <trkpt lat="43.96686" lon="3.81003">
        <ele>304</ele>
        <time>2019-03-12T10:17:15.249Z</time>
      </trkpt>
      <trkpt lat="43.96692" lon="3.80998">
        <ele>304</ele>
        <time>2019-03-12T10:17:20.255Z</time>
      </trkpt>
      <trkpt lat="43.96698" lon="3.80992">
        <ele>304</ele>
        <time>2019-03-12T10:17:25.249Z</time>
      </trkpt>
      <trkpt lat="43.96703" lon="3.80989">
        <ele>304</ele>
        <time>2019-03-12T10:17:29.257Z</time>
      </trkpt>
      <trkpt lat="43.96709" lon="3.80985">
        <ele>309</ele>
        <time>2019-03-12T10:17:34.250Z</time>
      </trkpt>
      <trkpt lat="43.96713" lon="3.80981">
        <ele>309</ele>
        <time>2019-03-12T10:17:39.251Z</time>
      </trkpt>
      <trkpt lat="43.96718" lon="3.80977">
        <ele>309</ele>
        <time>2019-03-12T10:17:43.287Z</time>
      </trkpt>
      <trkpt lat="43.96725" lon="3.80971">
        <ele>309</ele>
        <time>2019-03-12T10:17:48.253Z</time>
      </trkpt>
      <trkpt lat="43.96734" lon="3.80967">
        <ele>309</ele>
        <time>2019-03-12T10:17:52.287Z</time>
      </trkpt>
      <trkpt lat="43.96741" lon="3.80964">
        <ele>309</ele>
        <time>2019-03-12T10:17:57.254Z</time>
      </trkpt>
      <trkpt lat="43.96746" lon="3.80963">
        <ele>309</ele>
        <time>2019-03-12T10:18:01.267Z</time>
      </trkpt>
      <trkpt lat="43.96751" lon="3.80962">
        <ele>309</ele>
        <time>2019-03-12T10:18:05.273Z</time>
      </trkpt>
      <trkpt lat="43.96756" lon="3.80959">
        <ele>309</ele>
        <time>2019-03-12T10:18:10.260Z</time>
      </trkpt>
      <trkpt lat="43.96758" lon="3.80961">
        <ele>309</ele>
        <time>2019-03-12T10:18:24.243Z</time>
      </trkpt>
      <trkpt lat="43.96762" lon="3.8096">
        <ele>309</ele>
        <time>2019-03-12T10:18:28.280Z</time>
      </trkpt>
      <trkpt lat="43.9677" lon="3.80962">
        <ele>308</ele>
        <time>2019-03-12T10:18:33.280Z</time>
      </trkpt>
      <trkpt lat="43.96773" lon="3.80963">
        <ele>308</ele>
        <time>2019-03-12T10:18:37.282Z</time>
      </trkpt>
      <trkpt lat="43.96775" lon="3.80965">
        <ele>308</ele>
        <time>2019-03-12T10:18:42.251Z</time>
      </trkpt>
      <trkpt lat="43.9678" lon="3.80968">
        <ele>308</ele>
        <time>2019-03-12T10:18:47.250Z</time>
      </trkpt>
      <trkpt lat="43.96784" lon="3.8097">
        <ele>308</ele>
        <time>2019-03-12T10:18:51.280Z</time>
      </trkpt>
      <trkpt lat="43.96787" lon="3.80972">
        <ele>308</ele>
        <time>2019-03-12T10:18:56.259Z</time>
      </trkpt>
      <trkpt lat="43.96792" lon="3.80975">
        <ele>310</ele>
        <time>2019-03-12T10:19:01.256Z</time>
      </trkpt>
      <trkpt lat="43.96797" lon="3.80978">
        <ele>310</ele>
        <time>2019-03-12T10:19:06.259Z</time>
      </trkpt>
      <trkpt lat="43.968" lon="3.80981">
        <ele>310</ele>
        <time>2019-03-12T10:19:11.270Z</time>
      </trkpt>
      <trkpt lat="43.96804" lon="3.80982">
        <ele>310</ele>
        <time>2019-03-12T10:19:16.252Z</time>
      </trkpt>
      <trkpt lat="43.9681" lon="3.80982">
        <ele>310</ele>
        <time>2019-03-12T10:19:49.250Z</time>
      </trkpt>
      <trkpt lat="43.96817" lon="3.80985">
        <ele>310</ele>
        <time>2019-03-12T10:19:54.237Z</time>
      </trkpt>
      <trkpt lat="43.96822" lon="3.80989">
        <ele>317</ele>
        <time>2019-03-12T10:19:58.245Z</time>
      </trkpt>
      <trkpt lat="43.96825" lon="3.80991">
        <ele>317</ele>
        <time>2019-03-12T10:20:02.263Z</time>
      </trkpt>
      <trkpt lat="43.96831" lon="3.80994">
        <ele>317</ele>
        <time>2019-03-12T10:20:07.245Z</time>
      </trkpt>
      <trkpt lat="43.96836" lon="3.80994">
        <ele>317</ele>
        <time>2019-03-12T10:20:11.250Z</time>
      </trkpt>
      <trkpt lat="43.96841" lon="3.80994">
        <ele>317</ele>
        <time>2019-03-12T10:20:15.258Z</time>
      </trkpt>
      <trkpt lat="43.96845" lon="3.80996">
        <ele>317</ele>
        <time>2019-03-12T10:20:20.260Z</time>
      </trkpt>
      <trkpt lat="43.96851" lon="3.80996">
        <ele>321</ele>
        <time>2019-03-12T10:20:25.249Z</time>
      </trkpt>
      <trkpt lat="43.96855" lon="3.80997">
        <ele>321</ele>
        <time>2019-03-12T10:20:29.257Z</time>
      </trkpt>
      <trkpt lat="43.96859" lon="3.80998">
        <ele>321</ele>
        <time>2019-03-12T10:20:33.262Z</time>
      </trkpt>
      <trkpt lat="43.96864" lon="3.80998">
        <ele>321</ele>
        <time>2019-03-12T10:20:39.247Z</time>
      </trkpt>
      <trkpt lat="43.96866" lon="3.80999">
        <ele>321</ele>
        <time>2019-03-12T10:20:47.278Z</time>
      </trkpt>
      <trkpt lat="43.96874" lon="3.81">
        <ele>321</ele>
        <time>2019-03-12T10:20:51.293Z</time>
      </trkpt>
      <trkpt lat="43.96877" lon="3.81004">
        <ele>322</ele>
        <time>2019-03-12T10:20:56.278Z</time>
      </trkpt>
      <trkpt lat="43.96881" lon="3.81009">
        <ele>322</ele>
        <time>2019-03-12T10:21:01.260Z</time>
      </trkpt>
      <trkpt lat="43.96883" lon="3.81013">
        <ele>322</ele>
        <time>2019-03-12T10:21:05.267Z</time>
      </trkpt>
      <trkpt lat="43.96884" lon="3.81016">
        <ele>324</ele>
        <time>2019-03-12T10:21:10.296Z</time>
      </trkpt>
      <trkpt lat="43.96887" lon="3.8102">
        <ele>324</ele>
        <time>2019-03-12T10:21:15.276Z</time>
      </trkpt>
      <trkpt lat="43.9689" lon="3.81023">
        <ele>324</ele>
        <time>2019-03-12T10:21:20.256Z</time>
      </trkpt>
      <trkpt lat="43.96892" lon="3.81027">
        <ele>324</ele>
        <time>2019-03-12T10:21:24.261Z</time>
      </trkpt>
      <trkpt lat="43.96894" lon="3.8103">
        <ele>324</ele>
        <time>2019-03-12T10:21:28.281Z</time>
      </trkpt>
      <trkpt lat="43.96897" lon="3.81032">
        <ele>324</ele>
        <time>2019-03-12T10:21:33.282Z</time>
      </trkpt>
      <trkpt lat="43.96901" lon="3.81035">
        <ele>324</ele>
        <time>2019-03-12T10:21:38.283Z</time>
      </trkpt>
      <trkpt lat="43.96906" lon="3.81037">
        <ele>322</ele>
        <time>2019-03-12T10:21:42.283Z</time>
      </trkpt>
      <trkpt lat="43.96911" lon="3.81041">
        <ele>322</ele>
        <time>2019-03-12T10:21:47.251Z</time>
      </trkpt>
      <trkpt lat="43.96912" lon="3.81046">
        <ele>323</ele>
        <time>2019-03-12T10:21:51.253Z</time>
      </trkpt>
      <trkpt lat="43.96913" lon="3.81049">
        <ele>323</ele>
        <time>2019-03-12T10:21:56.252Z</time>
      </trkpt>
      <trkpt lat="43.96915" lon="3.81054">
        <ele>323</ele>
        <time>2019-03-12T10:22:00.255Z</time>
      </trkpt>
      <trkpt lat="43.96919" lon="3.81061">
        <ele>323</ele>
        <time>2019-03-12T10:22:05.260Z</time>
      </trkpt>
      <trkpt lat="43.96921" lon="3.81068">
        <ele>323</ele>
        <time>2019-03-12T10:22:10.258Z</time>
      </trkpt>
      <trkpt lat="43.96922" lon="3.81074">
        <ele>321</ele>
        <time>2019-03-12T10:22:14.261Z</time>
      </trkpt>
      <trkpt lat="43.96923" lon="3.81079">
        <ele>321</ele>
        <time>2019-03-12T10:22:18.294Z</time>
      </trkpt>
      <trkpt lat="43.96925" lon="3.81084">
        <ele>321</ele>
        <time>2019-03-12T10:22:22.291Z</time>
      </trkpt>
      <trkpt lat="43.96926" lon="3.81091">
        <ele>321</ele>
        <time>2019-03-12T10:22:27.282Z</time>
      </trkpt>
      <trkpt lat="43.96928" lon="3.81098">
        <ele>318</ele>
        <time>2019-03-12T10:22:32.285Z</time>
      </trkpt>
      <trkpt lat="43.9693" lon="3.81104">
        <ele>318</ele>
        <time>2019-03-12T10:22:37.252Z</time>
      </trkpt>
      <trkpt lat="43.96931" lon="3.81107">
        <ele>324</ele>
        <time>2019-03-12T10:22:41.259Z</time>
      </trkpt>
      <trkpt lat="43.96933" lon="3.81115">
        <ele>324</ele>
        <time>2019-03-12T10:22:45.261Z</time>
      </trkpt>
      <trkpt lat="43.96936" lon="3.81124">
        <ele>324</ele>
        <time>2019-03-12T10:22:50.281Z</time>
      </trkpt>
      <trkpt lat="43.96938" lon="3.81131">
        <ele>320</ele>
        <time>2019-03-12T10:22:55.290Z</time>
      </trkpt>
      <trkpt lat="43.9694" lon="3.81136">
        <ele>320</ele>
        <time>2019-03-12T10:23:00.260Z</time>
      </trkpt>
      <trkpt lat="43.96944" lon="3.81144">
        <ele>320</ele>
        <time>2019-03-12T10:23:05.259Z</time>
      </trkpt>
      <trkpt lat="43.96945" lon="3.81149">
        <ele>320</ele>
        <time>2019-03-12T10:23:09.262Z</time>
      </trkpt>
      <trkpt lat="43.96947" lon="3.81156">
        <ele>319</ele>
        <time>2019-03-12T10:23:13.263Z</time>
      </trkpt>
      <trkpt lat="43.9695" lon="3.81165">
        <ele>319</ele>
        <time>2019-03-12T10:23:18.263Z</time>
      </trkpt>
      <trkpt lat="43.96953" lon="3.81171">
        <ele>319</ele>
        <time>2019-03-12T10:23:23.254Z</time>
      </trkpt>
      <trkpt lat="43.96956" lon="3.81173">
        <ele>319</ele>
        <time>2019-03-12T10:23:27.252Z</time>
      </trkpt>
      <trkpt lat="43.96956" lon="3.81175">
        <ele>319</ele>
        <time>2019-03-12T10:23:31.254Z</time>
      </trkpt>
      <trkpt lat="43.96956" lon="3.81178">
        <ele>319</ele>
        <time>2019-03-12T10:23:40.255Z</time>
      </trkpt>
      <trkpt lat="43.9696" lon="3.81183">
        <ele>321</ele>
        <time>2019-03-12T10:23:49.278Z</time>
      </trkpt>
      <trkpt lat="43.96965" lon="3.81187">
        <ele>321</ele>
        <time>2019-03-12T10:23:54.283Z</time>
      </trkpt>
      <trkpt lat="43.96966" lon="3.81191">
        <ele>321</ele>
        <time>2019-03-12T10:23:59.284Z</time>
      </trkpt>
      <trkpt lat="43.96969" lon="3.81196">
        <ele>321</ele>
        <time>2019-03-12T10:24:04.255Z</time>
      </trkpt>
      <trkpt lat="43.9697" lon="3.81199">
        <ele>321</ele>
        <time>2019-03-12T10:24:09.268Z</time>
      </trkpt>
      <trkpt lat="43.96971" lon="3.81204">
        <ele>321</ele>
        <time>2019-03-12T10:24:14.261Z</time>
      </trkpt>
      <trkpt lat="43.96972" lon="3.81209">
        <ele>322</ele>
        <time>2019-03-12T10:24:19.290Z</time>
      </trkpt>
      <trkpt lat="43.96972" lon="3.81211">
        <ele>322</ele>
        <time>2019-03-12T10:24:24.254Z</time>
      </trkpt>
      <trkpt lat="43.96973" lon="3.81217">
        <ele>322</ele>
        <time>2019-03-12T10:24:28.256Z</time>
      </trkpt>
      <trkpt lat="43.96974" lon="3.81223">
        <ele>322</ele>
        <time>2019-03-12T10:24:32.279Z</time>
      </trkpt>
      <trkpt lat="43.96974" lon="3.81227">
        <ele>322</ele>
        <time>2019-03-12T10:24:37.281Z</time>
      </trkpt>
      <trkpt lat="43.96974" lon="3.81231">
        <ele>322</ele>
        <time>2019-03-12T10:24:47.249Z</time>
      </trkpt>
      <trkpt lat="43.96974" lon="3.81235">
        <ele>322</ele>
        <time>2019-03-12T10:24:51.266Z</time>
      </trkpt>
      <trkpt lat="43.96974" lon="3.81237">
        <ele>326</ele>
        <time>2019-03-12T10:24:56.281Z</time>
      </trkpt>
      <trkpt lat="43.96974" lon="3.81245">
        <ele>326</ele>
        <time>2019-03-12T10:25:06.257Z</time>
      </trkpt>
      <trkpt lat="43.96975" lon="3.8126">
        <ele>326</ele>
        <time>2019-03-12T10:25:11.251Z</time>
      </trkpt>
      <trkpt lat="43.96976" lon="3.81265">
        <ele>335</ele>
        <time>2019-03-12T10:25:15.262Z</time>
      </trkpt>
      <trkpt lat="43.96978" lon="3.8127">
        <ele>335</ele>
        <time>2019-03-12T10:25:20.260Z</time>
      </trkpt>
      <trkpt lat="43.96978" lon="3.81272">
        <ele>335</ele>
        <time>2019-03-12T10:25:30.256Z</time>
      </trkpt>
      <trkpt lat="43.96978" lon="3.8128">
        <ele>335</ele>
        <time>2019-03-12T10:25:35.282Z</time>
      </trkpt>
      <trkpt lat="43.96978" lon="3.81282">
        <ele>335</ele>
        <time>2019-03-12T10:25:40.280Z</time>
      </trkpt>
      <trkpt lat="43.96979" lon="3.81289">
        <ele>335</ele>
        <time>2019-03-12T10:25:45.281Z</time>
      </trkpt>
      <trkpt lat="43.96981" lon="3.81293">
        <ele>342</ele>
        <time>2019-03-12T10:25:50.258Z</time>
      </trkpt>
      <trkpt lat="43.96982" lon="3.81305">
        <ele>342</ele>
        <time>2019-03-12T10:25:54.279Z</time>
      </trkpt>
      <trkpt lat="43.96983" lon="3.81308">
        <ele>342</ele>
        <time>2019-03-12T10:25:58.286Z</time>
      </trkpt>
      <trkpt lat="43.96983" lon="3.81312">
        <ele>342</ele>
        <time>2019-03-12T10:26:03.260Z</time>
      </trkpt>
      <trkpt lat="43.96985" lon="3.81321">
        <ele>348</ele>
        <time>2019-03-12T10:26:08.261Z</time>
      </trkpt>
      <trkpt lat="43.96987" lon="3.81328">
        <ele>340</ele>
        <time>2019-03-12T10:26:12.260Z</time>
      </trkpt>
      <trkpt lat="43.9699" lon="3.81335">
        <ele>340</ele>
        <time>2019-03-12T10:26:17.257Z</time>
      </trkpt>
      <trkpt lat="43.96994" lon="3.81342">
        <ele>340</ele>
        <time>2019-03-12T10:26:22.262Z</time>
      </trkpt>
      <trkpt lat="43.96996" lon="3.81349">
        <ele>348</ele>
        <time>2019-03-12T10:26:26.281Z</time>
      </trkpt>
      <trkpt lat="43.96998" lon="3.81354">
        <ele>348</ele>
        <time>2019-03-12T10:26:31.250Z</time>
      </trkpt>
      <trkpt lat="43.96998" lon="3.81359">
        <ele>348</ele>
        <time>2019-03-12T10:26:35.279Z</time>
      </trkpt>
      <trkpt lat="43.96999" lon="3.81362">
        <ele>348</ele>
        <time>2019-03-12T10:26:40.282Z</time>
      </trkpt>
      <trkpt lat="43.97001" lon="3.81366">
        <ele>348</ele>
        <time>2019-03-12T10:26:45.257Z</time>
      </trkpt>
      <trkpt lat="43.97001" lon="3.81369">
        <ele>348</ele>
        <time>2019-03-12T10:26:49.261Z</time>
      </trkpt>
      <trkpt lat="43.97002" lon="3.81376">
        <ele>355</ele>
        <time>2019-03-12T10:27:04.249Z</time>
      </trkpt>
      <trkpt lat="43.97002" lon="3.81377">
        <ele>355</ele>
        <time>2019-03-12T10:27:08.260Z</time>
      </trkpt>
      <trkpt lat="43.97003" lon="3.81384">
        <ele>355</ele>
        <time>2019-03-12T10:27:12.266Z</time>
      </trkpt>
      <trkpt lat="43.97003" lon="3.81391">
        <ele>355</ele>
        <time>2019-03-12T10:27:17.261Z</time>
      </trkpt>
      <trkpt lat="43.97003" lon="3.81392">
        <ele>355</ele>
        <time>2019-03-12T10:27:22.250Z</time>
      </trkpt>
      <trkpt lat="43.97004" lon="3.81401">
        <ele>355</ele>
        <time>2019-03-12T10:27:30.282Z</time>
      </trkpt>
      <trkpt lat="43.97006" lon="3.81416">
        <ele>355</ele>
        <time>2019-03-12T10:27:35.279Z</time>
      </trkpt>
      <trkpt lat="43.97006" lon="3.8142">
        <ele>355</ele>
        <time>2019-03-12T10:27:40.249Z</time>
      </trkpt>
      <trkpt lat="43.97006" lon="3.81422">
        <ele>355</ele>
        <time>2019-03-12T10:27:44.279Z</time>
      </trkpt>
      <trkpt lat="43.97005" lon="3.81429">
        <ele>355</ele>
        <time>2019-03-12T10:27:58.250Z</time>
      </trkpt>
      <trkpt lat="43.97002" lon="3.81447">
        <ele>358</ele>
        <time>2019-03-12T10:28:02.280Z</time>
      </trkpt>
      <trkpt lat="43.97001" lon="3.81463">
        <ele>361</ele>
        <time>2019-03-12T10:28:07.249Z</time>
      </trkpt>
      <trkpt lat="43.97001" lon="3.81469">
        <ele>361</ele>
        <time>2019-03-12T10:28:11.280Z</time>
      </trkpt>
      <trkpt lat="43.97002" lon="3.81471">
        <ele>361</ele>
        <time>2019-03-12T10:28:16.249Z</time>
      </trkpt>
      <trkpt lat="43.97002" lon="3.81473">
        <ele>361</ele>
        <time>2019-03-12T10:28:20.249Z</time>
      </trkpt>
      <trkpt lat="43.97003" lon="3.81475">
        <ele>361</ele>
        <time>2019-03-12T10:28:25.280Z</time>
      </trkpt>
      <trkpt lat="43.97004" lon="3.81477">
        <ele>361</ele>
        <time>2019-03-12T10:28:30.282Z</time>
      </trkpt>
      <trkpt lat="43.97008" lon="3.81484">
        <ele>361</ele>
        <time>2019-03-12T10:28:50.283Z</time>
      </trkpt>
      <trkpt lat="43.9701" lon="3.81489">
        <ele>367</ele>
        <time>2019-03-12T10:28:55.281Z</time>
      </trkpt>
      <trkpt lat="43.97014" lon="3.81494">
        <ele>367</ele>
        <time>2019-03-12T10:29:00.254Z</time>
      </trkpt>
      <trkpt lat="43.97017" lon="3.815">
        <ele>358</ele>
        <time>2019-03-12T10:29:04.258Z</time>
      </trkpt>
      <trkpt lat="43.9702" lon="3.81503">
        <ele>358</ele>
        <time>2019-03-12T10:29:08.289Z</time>
      </trkpt>
      <trkpt lat="43.97031" lon="3.81502">
        <ele>358</ele>
        <time>2019-03-12T10:29:13.259Z</time>
      </trkpt>
      <trkpt lat="43.97034" lon="3.81501">
        <ele>358</ele>
        <time>2019-03-12T10:29:17.260Z</time>
      </trkpt>
      <trkpt lat="43.97039" lon="3.81503">
        <ele>358</ele>
        <time>2019-03-12T10:29:21.279Z</time>
      </trkpt>
      <trkpt lat="43.97047" lon="3.81507">
        <ele>357</ele>
        <time>2019-03-12T10:29:26.250Z</time>
      </trkpt>
      <trkpt lat="43.9705" lon="3.81509">
        <ele>357</ele>
        <time>2019-03-12T10:29:30.264Z</time>
      </trkpt>
      <trkpt lat="43.97053" lon="3.81512">
        <ele>357</ele>
        <time>2019-03-12T10:29:34.254Z</time>
      </trkpt>
      <trkpt lat="43.97056" lon="3.81515">
        <ele>356</ele>
        <time>2019-03-12T10:29:38.279Z</time>
      </trkpt>
      <trkpt lat="43.97061" lon="3.81518">
        <ele>356</ele>
        <time>2019-03-12T10:29:43.252Z</time>
      </trkpt>
      <trkpt lat="43.97063" lon="3.81518">
        <ele>356</ele>
        <time>2019-03-12T10:29:47.256Z</time>
      </trkpt>
      <trkpt lat="43.97065" lon="3.8152">
        <ele>356</ele>
        <time>2019-03-12T10:29:51.281Z</time>
      </trkpt>
      <trkpt lat="43.97067" lon="3.81522">
        <ele>356</ele>
        <time>2019-03-12T10:29:55.279Z</time>
      </trkpt>
      <trkpt lat="43.97069" lon="3.81523">
        <ele>356</ele>
        <time>2019-03-12T10:30:00.253Z</time>
      </trkpt>
      <trkpt lat="43.97074" lon="3.81528">
        <ele>363</ele>
        <time>2019-03-12T10:30:05.251Z</time>
      </trkpt>
      <trkpt lat="43.97078" lon="3.81532">
        <ele>363</ele>
        <time>2019-03-12T10:30:09.259Z</time>
      </trkpt>
      <trkpt lat="43.97083" lon="3.81535">
        <ele>363</ele>
        <time>2019-03-12T10:30:14.254Z</time>
      </trkpt>
      <trkpt lat="43.97086" lon="3.81537">
        <ele>363</ele>
        <time>2019-03-12T10:30:18.256Z</time>
      </trkpt>
      <trkpt lat="43.97088" lon="3.8154">
        <ele>363</ele>
        <time>2019-03-12T10:30:23.261Z</time>
      </trkpt>
      <trkpt lat="43.9709" lon="3.81541">
        <ele>363</ele>
        <time>2019-03-12T10:30:28.268Z</time>
      </trkpt>
      <trkpt lat="43.97092" lon="3.81544">
        <ele>360</ele>
        <time>2019-03-12T10:30:32.267Z</time>
      </trkpt>
      <trkpt lat="43.97094" lon="3.81545">
        <ele>360</ele>
        <time>2019-03-12T10:30:37.269Z</time>
      </trkpt>
      <trkpt lat="43.97101" lon="3.81552">
        <ele>370</ele>
        <time>2019-03-12T10:30:42.256Z</time>
      </trkpt>
      <trkpt lat="43.97105" lon="3.81557">
        <ele>370</ele>
        <time>2019-03-12T10:30:47.255Z</time>
      </trkpt>
      <trkpt lat="43.97109" lon="3.81559">
        <ele>370</ele>
        <time>2019-03-12T10:30:51.263Z</time>
      </trkpt>
      <trkpt lat="43.97113" lon="3.81564">
        <ele>370</ele>
        <time>2019-03-12T10:30:56.256Z</time>
      </trkpt>
      <trkpt lat="43.97119" lon="3.8157">
        <ele>356</ele>
        <time>2019-03-12T10:31:01.282Z</time>
      </trkpt>
      <trkpt lat="43.97123" lon="3.81574">
        <ele>356</ele>
        <time>2019-03-12T10:31:05.281Z</time>
      </trkpt>
      <trkpt lat="43.97124" lon="3.81578">
        <ele>356</ele>
        <time>2019-03-12T10:31:10.250Z</time>
      </trkpt>
      <trkpt lat="43.97127" lon="3.81583">
        <ele>367</ele>
        <time>2019-03-12T10:31:14.313Z</time>
      </trkpt>
      <trkpt lat="43.9713" lon="3.81589">
        <ele>367</ele>
        <time>2019-03-12T10:31:19.251Z</time>
      </trkpt>
      <trkpt lat="43.97132" lon="3.81593">
        <ele>367</ele>
        <time>2019-03-12T10:31:23.258Z</time>
      </trkpt>
      <trkpt lat="43.97134" lon="3.81597">
        <ele>367</ele>
        <time>2019-03-12T10:31:27.259Z</time>
      </trkpt>
      <trkpt lat="43.97135" lon="3.81602">
        <ele>354</ele>
        <time>2019-03-12T10:31:31.265Z</time>
      </trkpt>
      <trkpt lat="43.97136" lon="3.81605">
        <ele>354</ele>
        <time>2019-03-12T10:31:36.261Z</time>
      </trkpt>
      <trkpt lat="43.97138" lon="3.81609">
        <ele>354</ele>
        <time>2019-03-12T10:31:40.290Z</time>
      </trkpt>
      <trkpt lat="43.97141" lon="3.81612">
        <ele>354</ele>
        <time>2019-03-12T10:31:45.249Z</time>
      </trkpt>
      <trkpt lat="43.97143" lon="3.81618">
        <ele>354</ele>
        <time>2019-03-12T10:31:49.283Z</time>
      </trkpt>
      <trkpt lat="43.97145" lon="3.8162">
        <ele>354</ele>
        <time>2019-03-12T10:31:53.289Z</time>
      </trkpt>
      <trkpt lat="43.97147" lon="3.81624">
        <ele>354</ele>
        <time>2019-03-12T10:31:57.291Z</time>
      </trkpt>
      <trkpt lat="43.97149" lon="3.81627">
        <ele>349</ele>
        <time>2019-03-12T10:32:02.290Z</time>
      </trkpt>
      <trkpt lat="43.97152" lon="3.81635">
        <ele>349</ele>
        <time>2019-03-12T10:32:16.269Z</time>
      </trkpt>
      <trkpt lat="43.97153" lon="3.81639">
        <ele>367</ele>
        <time>2019-03-12T10:32:31.284Z</time>
      </trkpt>
      <trkpt lat="43.97159" lon="3.81654">
        <ele>361</ele>
        <time>2019-03-12T10:32:36.252Z</time>
      </trkpt>
      <trkpt lat="43.97163" lon="3.81664">
        <ele>361</ele>
        <time>2019-03-12T10:32:41.252Z</time>
      </trkpt>
      <trkpt lat="43.97168" lon="3.81667">
        <ele>361</ele>
        <time>2019-03-12T10:32:50.281Z</time>
      </trkpt>
      <trkpt lat="43.97174" lon="3.81673">
        <ele>361</ele>
        <time>2019-03-12T10:32:55.255Z</time>
      </trkpt>
      <trkpt lat="43.97184" lon="3.81689">
        <ele>372</ele>
        <time>2019-03-12T10:33:10.256Z</time>
      </trkpt>
      <trkpt lat="43.97189" lon="3.81695">
        <ele>372</ele>
        <time>2019-03-12T10:33:15.272Z</time>
      </trkpt>
      <trkpt lat="43.97192" lon="3.81699">
        <ele>372</ele>
        <time>2019-03-12T10:33:20.265Z</time>
      </trkpt>
      <trkpt lat="43.97195" lon="3.81703">
        <ele>372</ele>
        <time>2019-03-12T10:33:25.258Z</time>
      </trkpt>
      <trkpt lat="43.97197" lon="3.81708">
        <ele>372</ele>
        <time>2019-03-12T10:33:29.262Z</time>
      </trkpt>
      <trkpt lat="43.97199" lon="3.81712">
        <ele>365</ele>
        <time>2019-03-12T10:33:33.294Z</time>
      </trkpt>
      <trkpt lat="43.97199" lon="3.81713">
        <ele>365</ele>
        <time>2019-03-12T10:33:38.280Z</time>
      </trkpt>
      <trkpt lat="43.97201" lon="3.81716">
        <ele>365</ele>
        <time>2019-03-12T10:33:43.257Z</time>
      </trkpt>
      <trkpt lat="43.97205" lon="3.81725">
        <ele>365</ele>
        <time>2019-03-12T10:33:47.259Z</time>
      </trkpt>
      <trkpt lat="43.97208" lon="3.81731">
        <ele>365</ele>
        <time>2019-03-12T10:33:51.261Z</time>
      </trkpt>
      <trkpt lat="43.9721" lon="3.81732">
        <ele>376</ele>
        <time>2019-03-12T10:33:56.250Z</time>
      </trkpt>
      <trkpt lat="43.97215" lon="3.81736">
        <ele>367</ele>
        <time>2019-03-12T10:34:00.254Z</time>
      </trkpt>
      <trkpt lat="43.97217" lon="3.81738">
        <ele>367</ele>
        <time>2019-03-12T10:34:04.259Z</time>
      </trkpt>
      <trkpt lat="43.97223" lon="3.81742">
        <ele>367</ele>
        <time>2019-03-12T10:34:09.257Z</time>
      </trkpt>
      <trkpt lat="43.97225" lon="3.81743">
        <ele>367</ele>
        <time>2019-03-12T10:34:13.283Z</time>
      </trkpt>
      <trkpt lat="43.97226" lon="3.81743">
        <ele>367</ele>
        <time>2019-03-12T10:34:18.282Z</time>
      </trkpt>
      <trkpt lat="43.97231" lon="3.81744">
        <ele>367</ele>
        <time>2019-03-12T10:34:22.266Z</time>
      </trkpt>
      <trkpt lat="43.97237" lon="3.81747">
        <ele>375</ele>
        <time>2019-03-12T10:34:27.260Z</time>
      </trkpt>
      <trkpt lat="43.97241" lon="3.81749">
        <ele>375</ele>
        <time>2019-03-12T10:34:31.263Z</time>
      </trkpt>
      <trkpt lat="43.97244" lon="3.8175">
        <ele>375</ele>
        <time>2019-03-12T10:34:36.251Z</time>
      </trkpt>
      <trkpt lat="43.97248" lon="3.81752">
        <ele>375</ele>
        <time>2019-03-12T10:34:40.281Z</time>
      </trkpt>
      <trkpt lat="43.97249" lon="3.81753">
        <ele>375</ele>
        <time>2019-03-12T10:34:45.286Z</time>
      </trkpt>
      <trkpt lat="43.97257" lon="3.81755">
        <ele>375</ele>
        <time>2019-03-12T10:34:50.251Z</time>
      </trkpt>
      <trkpt lat="43.97263" lon="3.81755">
        <ele>375</ele>
        <time>2019-03-12T10:34:55.253Z</time>
      </trkpt>
      <trkpt lat="43.97267" lon="3.81756">
        <ele>382</ele>
        <time>2019-03-12T10:35:00.282Z</time>
      </trkpt>
      <trkpt lat="43.97276" lon="3.81754">
        <ele>382</ele>
        <time>2019-03-12T10:35:09.284Z</time>
      </trkpt>
      <trkpt lat="43.97284" lon="3.81753">
        <ele>382</ele>
        <time>2019-03-12T10:35:14.250Z</time>
      </trkpt>
      <trkpt lat="43.97288" lon="3.81749">
        <ele>382</ele>
        <time>2019-03-12T10:35:33.242Z</time>
      </trkpt>
      <trkpt lat="43.97294" lon="3.81744">
        <ele>389</ele>
        <time>2019-03-12T10:35:37.269Z</time>
      </trkpt>
      <trkpt lat="43.97299" lon="3.81742">
        <ele>389</ele>
        <time>2019-03-12T10:35:42.265Z</time>
      </trkpt>
      <trkpt lat="43.97304" lon="3.81737">
        <ele>389</ele>
        <time>2019-03-12T10:35:47.254Z</time>
      </trkpt>
      <trkpt lat="43.97309" lon="3.81737">
        <ele>389</ele>
        <time>2019-03-12T10:35:57.261Z</time>
      </trkpt>
      <trkpt lat="43.9731" lon="3.81735">
        <ele>397</ele>
        <time>2019-03-12T10:36:02.283Z</time>
      </trkpt>
      <trkpt lat="43.9731" lon="3.81732">
        <ele>397</ele>
        <time>2019-03-12T10:36:07.252Z</time>
      </trkpt>
      <trkpt lat="43.97309" lon="3.8173">
        <ele>397</ele>
        <time>2019-03-12T10:36:25.265Z</time>
      </trkpt>
      <trkpt lat="43.97303" lon="3.81723">
        <ele>397</ele>
        <time>2019-03-12T10:36:29.270Z</time>
      </trkpt>
      <trkpt lat="43.97301" lon="3.81719">
        <ele>397</ele>
        <time>2019-03-12T10:36:39.251Z</time>
      </trkpt>
      <trkpt lat="43.97301" lon="3.81718">
        <ele>397</ele>
        <time>2019-03-12T10:36:43.256Z</time>
      </trkpt>
      <trkpt lat="43.97296" lon="3.8171">
        <ele>397</ele>
        <time>2019-03-12T10:36:57.286Z</time>
      </trkpt>
      <trkpt lat="43.97293" lon="3.81704">
        <ele>404</ele>
        <time>2019-03-12T10:37:02.251Z</time>
      </trkpt>
      <trkpt lat="43.97289" lon="3.81696">
        <ele>399</ele>
        <time>2019-03-12T10:37:06.281Z</time>
      </trkpt>
      <trkpt lat="43.97288" lon="3.81695">
        <ele>399</ele>
        <time>2019-03-12T10:37:11.281Z</time>
      </trkpt>
      <trkpt lat="43.97285" lon="3.81691">
        <ele>399</ele>
        <time>2019-03-12T10:37:16.281Z</time>
      </trkpt>
      <trkpt lat="43.97282" lon="3.81684">
        <ele>399</ele>
        <time>2019-03-12T10:37:21.282Z</time>
      </trkpt>
      <trkpt lat="43.9728" lon="3.8168">
        <ele>408</ele>
        <time>2019-03-12T10:37:25.283Z</time>
      </trkpt>
      <trkpt lat="43.97277" lon="3.81675">
        <ele>408</ele>
        <time>2019-03-12T10:37:30.253Z</time>
      </trkpt>
      <trkpt lat="43.97275" lon="3.81671">
        <ele>408</ele>
        <time>2019-03-12T10:37:34.293Z</time>
      </trkpt>
      <trkpt lat="43.97272" lon="3.81666">
        <ele>408</ele>
        <time>2019-03-12T10:37:39.254Z</time>
      </trkpt>
      <trkpt lat="43.97273" lon="3.81666">
        <ele>408</ele>
        <time>2019-03-12T10:37:52.264Z</time>
      </trkpt>
      <trkpt lat="43.97274" lon="3.81668">
        <ele>408</ele>
        <time>2019-03-12T10:37:57.283Z</time>
      </trkpt>
      <trkpt lat="43.97277" lon="3.81669">
        <ele>408</ele>
        <time>2019-03-12T10:38:02.260Z</time>
      </trkpt>
      <trkpt lat="43.97278" lon="3.81671">
        <ele>408</ele>
        <time>2019-03-12T10:38:07.257Z</time>
      </trkpt>
      <trkpt lat="43.97288" lon="3.81671">
        <ele>408</ele>
        <time>2019-03-12T10:38:20.281Z</time>
      </trkpt>
      <trkpt lat="43.97294" lon="3.8167">
        <ele>416</ele>
        <time>2019-03-12T10:38:25.263Z</time>
      </trkpt>
      <trkpt lat="43.97298" lon="3.81669">
        <ele>416</ele>
        <time>2019-03-12T10:38:29.286Z</time>
      </trkpt>
      <trkpt lat="43.97299" lon="3.81669">
        <ele>416</ele>
        <time>2019-03-12T10:38:33.288Z</time>
      </trkpt>
      <trkpt lat="43.97302" lon="3.81669">
        <ele>416</ele>
        <time>2019-03-12T10:38:37.285Z</time>
      </trkpt>
      <trkpt lat="43.97304" lon="3.81668">
        <ele>416</ele>
        <time>2019-03-12T10:38:42.284Z</time>
      </trkpt>
      <trkpt lat="43.97304" lon="3.81668">
        <ele>416</ele>
        <time>2019-03-12T10:38:47.263Z</time>
      </trkpt>
      <trkpt lat="43.97315" lon="3.81663">
        <ele>416</ele>
        <time>2019-03-12T10:39:01.269Z</time>
      </trkpt>
      <trkpt lat="43.9732" lon="3.81663">
        <ele>420</ele>
        <time>2019-03-12T10:39:06.246Z</time>
      </trkpt>
      <trkpt lat="43.97326" lon="3.81661">
        <ele>420</ele>
        <time>2019-03-12T10:39:10.252Z</time>
      </trkpt>
      <trkpt lat="43.97331" lon="3.81658">
        <ele>420</ele>
        <time>2019-03-12T10:39:14.284Z</time>
      </trkpt>
      <trkpt lat="43.97336" lon="3.81657">
        <ele>420</ele>
        <time>2019-03-12T10:39:19.251Z</time>
      </trkpt>
      <trkpt lat="43.97339" lon="3.81656">
        <ele>420</ele>
        <time>2019-03-12T10:39:23.285Z</time>
      </trkpt>
      <trkpt lat="43.97343" lon="3.81653">
        <ele>420</ele>
        <time>2019-03-12T10:39:33.266Z</time>
      </trkpt>
      <trkpt lat="43.97343" lon="3.81654">
        <ele>420</ele>
        <time>2019-03-12T10:39:43.287Z</time>
      </trkpt>
      <trkpt lat="43.97347" lon="3.81653">
        <ele>429</ele>
        <time>2019-03-12T10:39:48.252Z</time>
      </trkpt>
      <trkpt lat="43.97349" lon="3.81654">
        <ele>426</ele>
        <time>2019-03-12T10:39:57.272Z</time>
      </trkpt>
      <trkpt lat="43.97352" lon="3.81654">
        <ele>426</ele>
        <time>2019-03-12T10:40:02.258Z</time>
      </trkpt>
      <trkpt lat="43.97356" lon="3.81654">
        <ele>426</ele>
        <time>2019-03-12T10:40:16.261Z</time>
      </trkpt>
      <trkpt lat="43.9736" lon="3.81656">
        <ele>426</ele>
        <time>2019-03-12T10:40:25.289Z</time>
      </trkpt>
      <trkpt lat="43.97364" lon="3.81659">
        <ele>426</ele>
        <time>2019-03-12T10:40:30.255Z</time>
      </trkpt>
      <trkpt lat="43.97369" lon="3.81661">
        <ele>426</ele>
        <time>2019-03-12T10:40:38.274Z</time>
      </trkpt>
      <trkpt lat="43.97371" lon="3.81662">
        <ele>426</ele>
        <time>2019-03-12T10:40:42.294Z</time>
      </trkpt>
      <trkpt lat="43.97373" lon="3.81664">
        <ele>426</ele>
        <time>2019-03-12T10:40:47.258Z</time>
      </trkpt>
      <trkpt lat="43.97376" lon="3.81666">
        <ele>434</ele>
        <time>2019-03-12T10:40:51.264Z</time>
      </trkpt>
      <trkpt lat="43.97387" lon="3.81668">
        <ele>434</ele>
        <time>2019-03-12T10:41:05.242Z</time>
      </trkpt>
      <trkpt lat="43.97389" lon="3.81669">
        <ele>434</ele>
        <time>2019-03-12T10:41:09.275Z</time>
      </trkpt>
      <trkpt lat="43.97392" lon="3.81669">
        <ele>434</ele>
        <time>2019-03-12T10:41:19.244Z</time>
      </trkpt>
      <trkpt lat="43.97395" lon="3.81671">
        <ele>434</ele>
        <time>2019-03-12T10:41:24.244Z</time>
      </trkpt>
      <trkpt lat="43.97396" lon="3.81674">
        <ele>434</ele>
        <time>2019-03-12T10:41:33.283Z</time>
      </trkpt>
      <trkpt lat="43.97396" lon="3.8168">
        <ele>434</ele>
        <time>2019-03-12T10:41:38.256Z</time>
      </trkpt>
      <trkpt lat="43.974" lon="3.81685">
        <ele>429</ele>
        <time>2019-03-12T10:41:43.250Z</time>
      </trkpt>
      <trkpt lat="43.97401" lon="3.81687">
        <ele>429</ele>
        <time>2019-03-12T10:41:47.255Z</time>
      </trkpt>
      <trkpt lat="43.97402" lon="3.81688">
        <ele>429</ele>
        <time>2019-03-12T10:41:51.276Z</time>
      </trkpt>
      <trkpt lat="43.97405" lon="3.81691">
        <ele>439</ele>
        <time>2019-03-12T10:41:55.295Z</time>
      </trkpt>
      <trkpt lat="43.97407" lon="3.81694">
        <ele>439</ele>
        <time>2019-03-12T10:42:00.243Z</time>
      </trkpt>
      <trkpt lat="43.9741" lon="3.81697">
        <ele>439</ele>
        <time>2019-03-12T10:42:05.246Z</time>
      </trkpt>
      <trkpt lat="43.97414" lon="3.81701">
        <ele>439</ele>
        <time>2019-03-12T10:42:10.245Z</time>
      </trkpt>
      <trkpt lat="43.97418" lon="3.81705">
        <ele>439</ele>
        <time>2019-03-12T10:42:14.249Z</time>
      </trkpt>
      <trkpt lat="43.97423" lon="3.81709">
        <ele>431</ele>
        <time>2019-03-12T10:42:19.242Z</time>
      </trkpt>
      <trkpt lat="43.97427" lon="3.81713">
        <ele>431</ele>
        <time>2019-03-12T10:42:23.284Z</time>
      </trkpt>
      <trkpt lat="43.97434" lon="3.81717">
        <ele>439</ele>
        <time>2019-03-12T10:42:28.246Z</time>
      </trkpt>
      <trkpt lat="43.97438" lon="3.81719">
        <ele>439</ele>
        <time>2019-03-12T10:42:32.240Z</time>
      </trkpt>
      <trkpt lat="43.97443" lon="3.81721">
        <ele>439</ele>
        <time>2019-03-12T10:42:37.255Z</time>
      </trkpt>
      <trkpt lat="43.97446" lon="3.81723">
        <ele>439</ele>
        <time>2019-03-12T10:42:41.253Z</time>
      </trkpt>
      <trkpt lat="43.97451" lon="3.81725">
        <ele>439</ele>
        <time>2019-03-12T10:42:46.250Z</time>
      </trkpt>
      <trkpt lat="43.97455" lon="3.81726">
        <ele>439</ele>
        <time>2019-03-12T10:42:50.253Z</time>
      </trkpt>
      <trkpt lat="43.97458" lon="3.81727">
        <ele>439</ele>
        <time>2019-03-12T10:42:54.267Z</time>
      </trkpt>
      <trkpt lat="43.97462" lon="3.81727">
        <ele>441</ele>
        <time>2019-03-12T10:42:58.290Z</time>
      </trkpt>
      <trkpt lat="43.97466" lon="3.81727">
        <ele>441</ele>
        <time>2019-03-12T10:43:03.264Z</time>
      </trkpt>
      <trkpt lat="43.97472" lon="3.81728">
        <ele>441</ele>
        <time>2019-03-12T10:43:08.267Z</time>
      </trkpt>
      <trkpt lat="43.97475" lon="3.81727">
        <ele>441</ele>
        <time>2019-03-12T10:43:12.262Z</time>
      </trkpt>
      <trkpt lat="43.97479" lon="3.81723">
        <ele>441</ele>
        <time>2019-03-12T10:43:17.255Z</time>
      </trkpt>
      <trkpt lat="43.97483" lon="3.8172">
        <ele>441</ele>
        <time>2019-03-12T10:43:22.252Z</time>
      </trkpt>
      <trkpt lat="43.97487" lon="3.81717">
        <ele>442</ele>
        <time>2019-03-12T10:43:27.254Z</time>
      </trkpt>
      <trkpt lat="43.97488" lon="3.81714">
        <ele>442</ele>
        <time>2019-03-12T10:43:31.255Z</time>
      </trkpt>
      <trkpt lat="43.97491" lon="3.81712">
        <ele>442</ele>
        <time>2019-03-12T10:43:36.250Z</time>
      </trkpt>
      <trkpt lat="43.97492" lon="3.81706">
        <ele>449</ele>
        <time>2019-03-12T10:43:40.255Z</time>
      </trkpt>
      <trkpt lat="43.97495" lon="3.81701">
        <ele>449</ele>
        <time>2019-03-12T10:43:45.244Z</time>
      </trkpt>
      <trkpt lat="43.97495" lon="3.817">
        <ele>449</ele>
        <time>2019-03-12T10:44:03.265Z</time>
      </trkpt>
      <trkpt lat="43.97498" lon="3.81692">
        <ele>449</ele>
        <time>2019-03-12T10:44:08.250Z</time>
      </trkpt>
      <trkpt lat="43.97504" lon="3.81681">
        <ele>449</ele>
        <time>2019-03-12T10:44:13.284Z</time>
      </trkpt>
      <trkpt lat="43.97508" lon="3.81673">
        <ele>456</ele>
        <time>2019-03-12T10:44:18.251Z</time>
      </trkpt>
      <trkpt lat="43.97511" lon="3.8167">
        <ele>456</ele>
        <time>2019-03-12T10:44:22.251Z</time>
      </trkpt>
      <trkpt lat="43.97513" lon="3.81667">
        <ele>456</ele>
        <time>2019-03-12T10:44:26.282Z</time>
      </trkpt>
      <trkpt lat="43.97514" lon="3.81664">
        <ele>448</ele>
        <time>2019-03-12T10:44:30.284Z</time>
      </trkpt>
      <trkpt lat="43.97515" lon="3.81662">
        <ele>448</ele>
        <time>2019-03-12T10:44:35.283Z</time>
      </trkpt>
      <trkpt lat="43.97516" lon="3.81661">
        <ele>448</ele>
        <time>2019-03-12T10:44:40.256Z</time>
      </trkpt>
      <trkpt lat="43.97518" lon="3.81655">
        <ele>448</ele>
        <time>2019-03-12T10:44:44.282Z</time>
      </trkpt>
      <trkpt lat="43.97523" lon="3.81648">
        <ele>456</ele>
        <time>2019-03-12T10:44:49.253Z</time>
      </trkpt>
      <trkpt lat="43.97526" lon="3.81645">
        <ele>456</ele>
        <time>2019-03-12T10:44:53.263Z</time>
      </trkpt>
      <trkpt lat="43.97529" lon="3.8164">
        <ele>456</ele>
        <time>2019-03-12T10:44:58.262Z</time>
      </trkpt>
      <trkpt lat="43.97531" lon="3.81635">
        <ele>456</ele>
        <time>2019-03-12T10:45:03.259Z</time>
      </trkpt>
      <trkpt lat="43.97532" lon="3.81632">
        <ele>456</ele>
        <time>2019-03-12T10:45:07.256Z</time>
      </trkpt>
      <trkpt lat="43.97534" lon="3.81627">
        <ele>456</ele>
        <time>2019-03-12T10:45:11.265Z</time>
      </trkpt>
      <trkpt lat="43.97536" lon="3.81621">
        <ele>464</ele>
        <time>2019-03-12T10:45:16.262Z</time>
      </trkpt>
      <trkpt lat="43.97537" lon="3.81615">
        <ele>464</ele>
        <time>2019-03-12T10:45:21.253Z</time>
      </trkpt>
      <trkpt lat="43.97538" lon="3.81612">
        <ele>464</ele>
        <time>2019-03-12T10:45:25.295Z</time>
      </trkpt>
      <trkpt lat="43.97539" lon="3.8161">
        <ele>464</ele>
        <time>2019-03-12T10:45:34.288Z</time>
      </trkpt>
      <trkpt lat="43.9754" lon="3.81609">
        <ele>464</ele>
        <time>2019-03-12T10:45:39.251Z</time>
      </trkpt>
      <trkpt lat="43.97541" lon="3.81606">
        <ele>464</ele>
        <time>2019-03-12T10:45:43.265Z</time>
      </trkpt>
      <trkpt lat="43.97543" lon="3.816">
        <ele>458</ele>
        <time>2019-03-12T10:45:48.251Z</time>
      </trkpt>
      <trkpt lat="43.97547" lon="3.81592">
        <ele>466</ele>
        <time>2019-03-12T10:46:02.261Z</time>
      </trkpt>
      <trkpt lat="43.97549" lon="3.81589">
        <ele>466</ele>
        <time>2019-03-12T10:46:06.261Z</time>
      </trkpt>
      <trkpt lat="43.97556" lon="3.81577">
        <ele>466</ele>
        <time>2019-03-12T10:46:20.283Z</time>
      </trkpt>
      <trkpt lat="43.97559" lon="3.81572">
        <ele>466</ele>
        <time>2019-03-12T10:46:25.252Z</time>
      </trkpt>
      <trkpt lat="43.97561" lon="3.8157">
        <ele>466</ele>
        <time>2019-03-12T10:46:38.284Z</time>
      </trkpt>
      <trkpt lat="43.97563" lon="3.81568">
        <ele>475</ele>
        <time>2019-03-12T10:46:43.260Z</time>
      </trkpt>
      <trkpt lat="43.97565" lon="3.81559">
        <ele>475</ele>
        <time>2019-03-12T10:47:02.266Z</time>
      </trkpt>
      <trkpt lat="43.97571" lon="3.81548">
        <ele>473</ele>
        <time>2019-03-12T10:47:06.261Z</time>
      </trkpt>
      <trkpt lat="43.97577" lon="3.81539">
        <ele>482</ele>
        <time>2019-03-12T10:47:30.282Z</time>
      </trkpt>
      <trkpt lat="43.97579" lon="3.81536">
        <ele>482</ele>
        <time>2019-03-12T10:47:44.250Z</time>
      </trkpt>
      <trkpt lat="43.97587" lon="3.81522">
        <ele>482</ele>
        <time>2019-03-12T10:47:48.260Z</time>
      </trkpt>
      <trkpt lat="43.97589" lon="3.81518">
        <ele>482</ele>
        <time>2019-03-12T10:47:53.262Z</time>
      </trkpt>
      <trkpt lat="43.97595" lon="3.81507">
        <ele>486</ele>
        <time>2019-03-12T10:48:07.258Z</time>
      </trkpt>
      <trkpt lat="43.97597" lon="3.81505">
        <ele>486</ele>
        <time>2019-03-12T10:48:12.250Z</time>
      </trkpt>
      <trkpt lat="43.97599" lon="3.815">
        <ele>488</ele>
        <time>2019-03-12T10:48:16.264Z</time>
      </trkpt>
      <trkpt lat="43.97601" lon="3.81494">
        <ele>488</ele>
        <time>2019-03-12T10:48:20.296Z</time>
      </trkpt>
      <trkpt lat="43.97602" lon="3.81492">
        <ele>488</ele>
        <time>2019-03-12T10:48:24.259Z</time>
      </trkpt>
      <trkpt lat="43.97604" lon="3.8149">
        <ele>488</ele>
        <time>2019-03-12T10:48:43.275Z</time>
      </trkpt>
      <trkpt lat="43.97606" lon="3.81482">
        <ele>488</ele>
        <time>2019-03-12T10:48:47.269Z</time>
      </trkpt>
      <trkpt lat="43.97608" lon="3.81476">
        <ele>488</ele>
        <time>2019-03-12T10:48:52.263Z</time>
      </trkpt>
      <trkpt lat="43.9761" lon="3.81472">
        <ele>488</ele>
        <time>2019-03-12T10:49:01.252Z</time>
      </trkpt>
      <trkpt lat="43.97612" lon="3.81472">
        <ele>488</ele>
        <time>2019-03-12T10:49:05.266Z</time>
      </trkpt>
      <trkpt lat="43.97615" lon="3.81473">
        <ele>488</ele>
        <time>2019-03-12T10:49:10.268Z</time>
      </trkpt>
      <trkpt lat="43.97616" lon="3.81472">
        <ele>488</ele>
        <time>2019-03-12T10:49:14.286Z</time>
      </trkpt>
      <trkpt lat="43.97619" lon="3.8147">
        <ele>488</ele>
        <time>2019-03-12T10:49:19.270Z</time>
      </trkpt>
      <trkpt lat="43.97623" lon="3.81468">
        <ele>488</ele>
        <time>2019-03-12T10:49:24.286Z</time>
      </trkpt>
      <trkpt lat="43.97627" lon="3.81466">
        <ele>491</ele>
        <time>2019-03-12T10:49:29.266Z</time>
      </trkpt>
      <trkpt lat="43.97632" lon="3.81465">
        <ele>491</ele>
        <time>2019-03-12T10:49:34.253Z</time>
      </trkpt>
      <trkpt lat="43.97637" lon="3.81462">
        <ele>491</ele>
        <time>2019-03-12T10:49:39.251Z</time>
      </trkpt>
      <trkpt lat="43.97637" lon="3.81461">
        <ele>491</ele>
        <time>2019-03-12T10:49:43.270Z</time>
      </trkpt>
      <trkpt lat="43.97641" lon="3.81458">
        <ele>490</ele>
        <time>2019-03-12T10:49:52.293Z</time>
      </trkpt>
      <trkpt lat="43.97645" lon="3.81456">
        <ele>490</ele>
        <time>2019-03-12T10:49:57.253Z</time>
      </trkpt>
      <trkpt lat="43.97655" lon="3.8145">
        <ele>493</ele>
        <time>2019-03-12T10:50:06.260Z</time>
      </trkpt>
      <trkpt lat="43.97663" lon="3.81445">
        <ele>493</ele>
        <time>2019-03-12T10:50:10.291Z</time>
      </trkpt>
      <trkpt lat="43.97667" lon="3.81442">
        <ele>493</ele>
        <time>2019-03-12T10:50:14.290Z</time>
      </trkpt>
      <trkpt lat="43.97672" lon="3.81439">
        <ele>493</ele>
        <time>2019-03-12T10:50:23.286Z</time>
      </trkpt>
      <trkpt lat="43.97677" lon="3.81436">
        <ele>493</ele>
        <time>2019-03-12T10:50:28.283Z</time>
      </trkpt>
      <trkpt lat="43.97681" lon="3.81431">
        <ele>495</ele>
        <time>2019-03-12T10:50:37.294Z</time>
      </trkpt>
      <trkpt lat="43.97686" lon="3.81426">
        <ele>492</ele>
        <time>2019-03-12T10:50:42.288Z</time>
      </trkpt>
      <trkpt lat="43.97691" lon="3.81422">
        <ele>492</ele>
        <time>2019-03-12T10:50:47.262Z</time>
      </trkpt>
      <trkpt lat="43.97693" lon="3.81422">
        <ele>492</ele>
        <time>2019-03-12T10:50:51.281Z</time>
      </trkpt>
      <trkpt lat="43.97696" lon="3.81419">
        <ele>492</ele>
        <time>2019-03-12T10:50:55.280Z</time>
      </trkpt>
      <trkpt lat="43.977" lon="3.81416">
        <ele>492</ele>
        <time>2019-03-12T10:51:00.256Z</time>
      </trkpt>
      <trkpt lat="43.97703" lon="3.81413">
        <ele>492</ele>
        <time>2019-03-12T10:51:04.266Z</time>
      </trkpt>
      <trkpt lat="43.97706" lon="3.8141">
        <ele>492</ele>
        <time>2019-03-12T10:51:08.298Z</time>
      </trkpt>
      <trkpt lat="43.9771" lon="3.81405">
        <ele>497</ele>
        <time>2019-03-12T10:51:13.258Z</time>
      </trkpt>
      <trkpt lat="43.97715" lon="3.81402">
        <ele>493</ele>
        <time>2019-03-12T10:51:18.250Z</time>
      </trkpt>
      <trkpt lat="43.9772" lon="3.814">
        <ele>493</ele>
        <time>2019-03-12T10:51:22.252Z</time>
      </trkpt>
      <trkpt lat="43.97724" lon="3.81395">
        <ele>493</ele>
        <time>2019-03-12T10:51:27.282Z</time>
      </trkpt>
      <trkpt lat="43.97729" lon="3.8139">
        <ele>493</ele>
        <time>2019-03-12T10:51:36.282Z</time>
      </trkpt>
      <trkpt lat="43.9773" lon="3.81389">
        <ele>493</ele>
        <time>2019-03-12T10:51:41.257Z</time>
      </trkpt>
      <trkpt lat="43.97732" lon="3.81388">
        <ele>493</ele>
        <time>2019-03-12T10:51:46.255Z</time>
      </trkpt>
      <trkpt lat="43.97736" lon="3.81391">
        <ele>493</ele>
        <time>2019-03-12T10:52:32.245Z</time>
      </trkpt>
      <trkpt lat="43.97737" lon="3.81391">
        <ele>499</ele>
        <time>2019-03-12T10:52:55.248Z</time>
      </trkpt>
      <trkpt lat="43.97747" lon="3.81393">
        <ele>499</ele>
        <time>2019-03-12T10:53:09.253Z</time>
      </trkpt>
      <trkpt lat="43.97747" lon="3.81396">
        <ele>499</ele>
        <time>2019-03-12T10:53:18.290Z</time>
      </trkpt>
      <trkpt lat="43.97749" lon="3.81393">
        <ele>499</ele>
        <time>2019-03-12T10:54:07.290Z</time>
      </trkpt>
      <trkpt lat="43.9775" lon="3.81392">
        <ele>499</ele>
        <time>2019-03-12T10:54:12.260Z</time>
      </trkpt>
      <trkpt lat="43.97755" lon="3.81392">
        <ele>499</ele>
        <time>2019-03-12T10:54:20.284Z</time>
      </trkpt>
      <trkpt lat="43.97757" lon="3.81386">
        <ele>499</ele>
        <time>2019-03-12T10:54:25.289Z</time>
      </trkpt>
      <trkpt lat="43.97759" lon="3.81384">
        <ele>499</ele>
        <time>2019-03-12T10:54:30.290Z</time>
      </trkpt>
      <trkpt lat="43.97759" lon="3.81381">
        <ele>499</ele>
        <time>2019-03-12T10:54:35.289Z</time>
      </trkpt>
      <trkpt lat="43.97761" lon="3.81379">
        <ele>499</ele>
        <time>2019-03-12T10:54:40.287Z</time>
      </trkpt>
      <trkpt lat="43.97766" lon="3.81374">
        <ele>501</ele>
        <time>2019-03-12T10:54:45.257Z</time>
      </trkpt>
      <trkpt lat="43.97767" lon="3.81373">
        <ele>501</ele>
        <time>2019-03-12T10:54:50.262Z</time>
      </trkpt>
      <trkpt lat="43.97769" lon="3.81371">
        <ele>501</ele>
        <time>2019-03-12T10:54:55.253Z</time>
      </trkpt>
      <trkpt lat="43.97773" lon="3.81367">
        <ele>501</ele>
        <time>2019-03-12T10:55:36.285Z</time>
      </trkpt>
      <trkpt lat="43.97778" lon="3.81359">
        <ele>501</ele>
        <time>2019-03-12T10:55:41.292Z</time>
      </trkpt>
      <trkpt lat="43.97778" lon="3.81359">
        <ele>501</ele>
        <time>2019-03-12T10:55:46.283Z</time>
      </trkpt>
      <trkpt lat="43.97781" lon="3.8135">
        <ele>501</ele>
        <time>2019-03-12T10:55:59.266Z</time>
      </trkpt>
      <trkpt lat="43.97782" lon="3.81348">
        <ele>501</ele>
        <time>2019-03-12T10:56:04.257Z</time>
      </trkpt>
      <trkpt lat="43.97784" lon="3.81342">
        <ele>496</ele>
        <time>2019-03-12T10:56:09.260Z</time>
      </trkpt>
      <trkpt lat="43.97787" lon="3.8134">
        <ele>496</ele>
        <time>2019-03-12T10:56:18.265Z</time>
      </trkpt>
      <trkpt lat="43.9779" lon="3.81339">
        <ele>496</ele>
        <time>2019-03-12T10:56:23.259Z</time>
      </trkpt>
      <trkpt lat="43.97793" lon="3.81337">
        <ele>499</ele>
        <time>2019-03-12T10:56:27.265Z</time>
      </trkpt>
      <trkpt lat="43.97794" lon="3.81338">
        <ele>499</ele>
        <time>2019-03-12T10:56:32.253Z</time>
      </trkpt>
      <trkpt lat="43.97798" lon="3.81339">
        <ele>499</ele>
        <time>2019-03-12T10:56:36.263Z</time>
      </trkpt>
      <trkpt lat="43.97802" lon="3.81339">
        <ele>499</ele>
        <time>2019-03-12T10:56:40.283Z</time>
      </trkpt>
      <trkpt lat="43.97805" lon="3.81336">
        <ele>499</ele>
        <time>2019-03-12T10:56:44.294Z</time>
      </trkpt>
      <trkpt lat="43.97814" lon="3.81333">
        <ele>499</ele>
        <time>2019-03-12T10:56:54.254Z</time>
      </trkpt>
      <trkpt lat="43.9782" lon="3.81334">
        <ele>496</ele>
        <time>2019-03-12T10:56:58.286Z</time>
      </trkpt>
      <trkpt lat="43.97822" lon="3.81333">
        <ele>496</ele>
        <time>2019-03-12T10:57:02.288Z</time>
      </trkpt>
      <trkpt lat="43.9783" lon="3.81327">
        <ele>496</ele>
        <time>2019-03-12T10:57:17.291Z</time>
      </trkpt>
      <trkpt lat="43.97839" lon="3.8132">
        <ele>496</ele>
        <time>2019-03-12T10:57:22.253Z</time>
      </trkpt>
      <trkpt lat="43.97842" lon="3.8132">
        <ele>496</ele>
        <time>2019-03-12T10:57:30.302Z</time>
      </trkpt>
      <trkpt lat="43.97844" lon="3.8132">
        <ele>496</ele>
        <time>2019-03-12T10:57:43.294Z</time>
      </trkpt>
      <trkpt lat="43.97848" lon="3.81318">
        <ele>487</ele>
        <time>2019-03-12T10:57:48.260Z</time>
      </trkpt>
      <trkpt lat="43.9785" lon="3.81316">
        <ele>487</ele>
        <time>2019-03-12T10:57:52.261Z</time>
      </trkpt>
      <trkpt lat="43.97854" lon="3.81315">
        <ele>487</ele>
        <time>2019-03-12T10:57:57.262Z</time>
      </trkpt>
      <trkpt lat="43.97859" lon="3.81313">
        <ele>487</ele>
        <time>2019-03-12T10:58:06.294Z</time>
      </trkpt>
      <trkpt lat="43.97863" lon="3.81312">
        <ele>487</ele>
        <time>2019-03-12T10:58:11.261Z</time>
      </trkpt>
      <trkpt lat="43.97875" lon="3.81311">
        <ele>487</ele>
        <time>2019-03-12T10:58:16.254Z</time>
      </trkpt>
      <trkpt lat="43.97876" lon="3.81311">
        <ele>488</ele>
        <time>2019-03-12T10:58:20.290Z</time>
      </trkpt>
      <trkpt lat="43.97878" lon="3.8131">
        <ele>488</ele>
        <time>2019-03-12T10:58:25.255Z</time>
      </trkpt>
      <trkpt lat="43.9788" lon="3.8131">
        <ele>488</ele>
        <time>2019-03-12T10:58:29.282Z</time>
      </trkpt>
      <trkpt lat="43.97885" lon="3.81307">
        <ele>488</ele>
        <time>2019-03-12T10:58:38.260Z</time>
      </trkpt>
      <trkpt lat="43.97887" lon="3.81308">
        <ele>488</ele>
        <time>2019-03-12T10:58:51.287Z</time>
      </trkpt>
      <trkpt lat="43.9789" lon="3.81308">
        <ele>488</ele>
        <time>2019-03-12T10:58:56.264Z</time>
      </trkpt>
      <trkpt lat="43.97896" lon="3.81309">
        <ele>488</ele>
        <time>2019-03-12T10:59:01.293Z</time>
      </trkpt>
      <trkpt lat="43.97906" lon="3.81309">
        <ele>491</ele>
        <time>2019-03-12T10:59:06.263Z</time>
      </trkpt>
      <trkpt lat="43.97908" lon="3.81309">
        <ele>491</ele>
        <time>2019-03-12T10:59:10.289Z</time>
      </trkpt>
      <trkpt lat="43.97911" lon="3.81308">
        <ele>491</ele>
        <time>2019-03-12T10:59:24.284Z</time>
      </trkpt>
      <trkpt lat="43.97912" lon="3.81306">
        <ele>491</ele>
        <time>2019-03-12T10:59:29.285Z</time>
      </trkpt>
      <trkpt lat="43.97916" lon="3.81303">
        <ele>491</ele>
        <time>2019-03-12T10:59:34.283Z</time>
      </trkpt>
      <trkpt lat="43.9792" lon="3.81301">
        <ele>491</ele>
        <time>2019-03-12T10:59:43.260Z</time>
      </trkpt>
      <trkpt lat="43.97925" lon="3.813">
        <ele>491</ele>
        <time>2019-03-12T11:00:26.251Z</time>
      </trkpt>
      <trkpt lat="43.97925" lon="3.813">
        <ele>491</ele>
        <time>2019-03-12T11:00:30.255Z</time>
      </trkpt>
      <trkpt lat="43.97929" lon="3.81301">
        <ele>491</ele>
        <time>2019-03-12T11:00:54.252Z</time>
      </trkpt>
      <trkpt lat="43.97933" lon="3.81299">
        <ele>492</ele>
        <time>2019-03-12T11:00:58.258Z</time>
      </trkpt>
      <trkpt lat="43.97935" lon="3.81301">
        <ele>492</ele>
        <time>2019-03-12T11:01:02.287Z</time>
      </trkpt>
      <trkpt lat="43.97943" lon="3.81304">
        <ele>492</ele>
        <time>2019-03-12T11:01:07.250Z</time>
      </trkpt>
      <trkpt lat="43.97946" lon="3.81304">
        <ele>492</ele>
        <time>2019-03-12T11:01:11.256Z</time>
      </trkpt>
      <trkpt lat="43.97946" lon="3.81304">
        <ele>492</ele>
        <time>2019-03-12T11:01:15.537Z</time>
      </trkpt>
      <trkpt lat="43.9795" lon="3.81305">
        <ele>492</ele>
        <time>2019-03-12T11:01:24.253Z</time>
      </trkpt>
      <trkpt lat="43.97953" lon="3.81307">
        <ele>492</ele>
        <time>2019-03-12T11:01:29.282Z</time>
      </trkpt>
      <trkpt lat="43.97961" lon="3.81311">
        <ele>495</ele>
        <time>2019-03-12T11:01:39.254Z</time>
      </trkpt>
      <trkpt lat="43.97965" lon="3.81313">
        <ele>495</ele>
        <time>2019-03-12T11:01:43.257Z</time>
      </trkpt>
      <trkpt lat="43.97969" lon="3.81314">
        <ele>495</ele>
        <time>2019-03-12T11:01:48.286Z</time>
      </trkpt>
      <trkpt lat="43.97973" lon="3.81316">
        <ele>495</ele>
        <time>2019-03-12T11:01:53.264Z</time>
      </trkpt>
      <trkpt lat="43.97977" lon="3.81317">
        <ele>495</ele>
        <time>2019-03-12T11:02:11.283Z</time>
      </trkpt>
      <trkpt lat="43.9799" lon="3.81319">
        <ele>497</ele>
        <time>2019-03-12T11:02:16.243Z</time>
      </trkpt>
      <trkpt lat="43.97996" lon="3.81322">
        <ele>497</ele>
        <time>2019-03-12T11:02:25.242Z</time>
      </trkpt>
      <trkpt lat="43.97998" lon="3.81321">
        <ele>497</ele>
        <time>2019-03-12T11:02:39.253Z</time>
      </trkpt>
      <trkpt lat="43.98009" lon="3.81322">
        <ele>497</ele>
        <time>2019-03-12T11:03:15.263Z</time>
      </trkpt>
      <trkpt lat="43.98012" lon="3.81321">
        <ele>497</ele>
        <time>2019-03-12T11:03:19.266Z</time>
      </trkpt>
      <trkpt lat="43.98013" lon="3.81321">
        <ele>497</ele>
        <time>2019-03-12T11:03:24.252Z</time>
      </trkpt>
      <trkpt lat="43.98018" lon="3.81321">
        <ele>501</ele>
        <time>2019-03-12T11:03:28.274Z</time>
      </trkpt>
      <trkpt lat="43.98021" lon="3.8132">
        <ele>501</ele>
        <time>2019-03-12T11:03:33.287Z</time>
      </trkpt>
      <trkpt lat="43.98024" lon="3.8132">
        <ele>501</ele>
        <time>2019-03-12T11:03:43.285Z</time>
      </trkpt>
      <trkpt lat="43.98031" lon="3.81321">
        <ele>501</ele>
        <time>2019-03-12T11:03:48.243Z</time>
      </trkpt>
      <trkpt lat="43.98035" lon="3.81316">
        <ele>501</ele>
        <time>2019-03-12T11:04:15.254Z</time>
      </trkpt>
      <trkpt lat="43.98038" lon="3.81314">
        <ele>501</ele>
        <time>2019-03-12T11:04:19.260Z</time>
      </trkpt>
      <trkpt lat="43.98038" lon="3.81307">
        <ele>501</ele>
        <time>2019-03-12T11:04:32.263Z</time>
      </trkpt>
      <trkpt lat="43.98037" lon="3.81303">
        <ele>501</ele>
        <time>2019-03-12T11:04:36.286Z</time>
      </trkpt>
      <trkpt lat="43.98033" lon="3.81297">
        <ele>501</ele>
        <time>2019-03-12T11:04:41.260Z</time>
      </trkpt>
      <trkpt lat="43.98033" lon="3.81295">
        <ele>501</ele>
        <time>2019-03-12T11:04:46.248Z</time>
      </trkpt>
      <trkpt lat="43.98028" lon="3.8129">
        <ele>507</ele>
        <time>2019-03-12T11:05:34.263Z</time>
      </trkpt>
      <trkpt lat="43.9802" lon="3.81284">
        <ele>507</ele>
        <time>2019-03-12T11:05:39.255Z</time>
      </trkpt>
      <trkpt lat="43.9802" lon="3.81284">
        <ele>507</ele>
        <time>2019-03-12T11:05:43.271Z</time>
      </trkpt>
      <trkpt lat="43.98018" lon="3.81281">
        <ele>507</ele>
        <time>2019-03-12T11:05:48.281Z</time>
      </trkpt>
      <trkpt lat="43.98015" lon="3.81275">
        <ele>507</ele>
        <time>2019-03-12T11:05:53.253Z</time>
      </trkpt>
      <trkpt lat="43.98013" lon="3.8127">
        <ele>503</ele>
        <time>2019-03-12T11:05:57.253Z</time>
      </trkpt>
      <trkpt lat="43.9801" lon="3.81266">
        <ele>503</ele>
        <time>2019-03-12T11:06:01.263Z</time>
      </trkpt>
      <trkpt lat="43.98008" lon="3.81265">
        <ele>503</ele>
        <time>2019-03-12T11:06:05.262Z</time>
      </trkpt>
      <trkpt lat="43.98001" lon="3.81255">
        <ele>509</ele>
        <time>2019-03-12T11:06:14.274Z</time>
      </trkpt>
      <trkpt lat="43.97995" lon="3.81249">
        <ele>509</ele>
        <time>2019-03-12T11:06:18.284Z</time>
      </trkpt>
      <trkpt lat="43.97991" lon="3.81244">
        <ele>509</ele>
        <time>2019-03-12T11:06:23.286Z</time>
      </trkpt>
      <trkpt lat="43.9799" lon="3.81243">
        <ele>509</ele>
        <time>2019-03-12T11:06:28.283Z</time>
      </trkpt>
      <trkpt lat="43.97985" lon="3.81237">
        <ele>503</ele>
        <time>2019-03-12T11:06:33.283Z</time>
      </trkpt>
      <trkpt lat="43.9798" lon="3.81232">
        <ele>509</ele>
        <time>2019-03-12T11:06:38.262Z</time>
      </trkpt>
      <trkpt lat="43.97976" lon="3.81228">
        <ele>509</ele>
        <time>2019-03-12T11:06:43.262Z</time>
      </trkpt>
      <trkpt lat="43.97972" lon="3.81224">
        <ele>509</ele>
        <time>2019-03-12T11:06:48.287Z</time>
      </trkpt>
      <trkpt lat="43.97968" lon="3.81218">
        <ele>509</ele>
        <time>2019-03-12T11:06:53.269Z</time>
      </trkpt>
      <trkpt lat="43.97966" lon="3.81214">
        <ele>509</ele>
        <time>2019-03-12T11:06:57.294Z</time>
      </trkpt>
      <trkpt lat="43.97963" lon="3.81209">
        <ele>509</ele>
        <time>2019-03-12T11:07:02.293Z</time>
      </trkpt>
      <trkpt lat="43.97959" lon="3.81202">
        <ele>516</ele>
        <time>2019-03-12T11:07:07.290Z</time>
      </trkpt>
      <trkpt lat="43.97957" lon="3.81198">
        <ele>507</ele>
        <time>2019-03-12T11:07:12.281Z</time>
      </trkpt>
      <trkpt lat="43.97954" lon="3.81192">
        <ele>507</ele>
        <time>2019-03-12T11:07:17.254Z</time>
      </trkpt>
      <trkpt lat="43.97953" lon="3.81188">
        <ele>507</ele>
        <time>2019-03-12T11:07:21.284Z</time>
      </trkpt>
      <trkpt lat="43.97949" lon="3.81183">
        <ele>507</ele>
        <time>2019-03-12T11:07:26.255Z</time>
      </trkpt>
      <trkpt lat="43.97946" lon="3.81178">
        <ele>514</ele>
        <time>2019-03-12T11:07:30.284Z</time>
      </trkpt>
      <trkpt lat="43.97943" lon="3.81172">
        <ele>514</ele>
        <time>2019-03-12T11:07:35.287Z</time>
      </trkpt>
      <trkpt lat="43.97941" lon="3.81165">
        <ele>514</ele>
        <time>2019-03-12T11:07:40.252Z</time>
      </trkpt>
      <trkpt lat="43.97939" lon="3.81161">
        <ele>514</ele>
        <time>2019-03-12T11:07:44.284Z</time>
      </trkpt>
      <trkpt lat="43.97937" lon="3.81155">
        <ele>514</ele>
        <time>2019-03-12T11:07:49.254Z</time>
      </trkpt>
      <trkpt lat="43.97937" lon="3.8115">
        <ele>518</ele>
        <time>2019-03-12T11:07:53.289Z</time>
      </trkpt>
      <trkpt lat="43.97936" lon="3.8115">
        <ele>518</ele>
        <time>2019-03-12T11:07:58.259Z</time>
      </trkpt>
      <trkpt lat="43.97937" lon="3.81145">
        <ele>518</ele>
        <time>2019-03-12T11:08:03.289Z</time>
      </trkpt>
      <trkpt lat="43.97936" lon="3.81139">
        <ele>518</ele>
        <time>2019-03-12T11:08:13.253Z</time>
      </trkpt>
      <trkpt lat="43.97936" lon="3.81136">
        <ele>518</ele>
        <time>2019-03-12T11:08:17.290Z</time>
      </trkpt>
      <trkpt lat="43.97936" lon="3.81135">
        <ele>518</ele>
        <time>2019-03-12T11:08:21.296Z</time>
      </trkpt>
      <trkpt lat="43.97936" lon="3.81131">
        <ele>518</ele>
        <time>2019-03-12T11:08:26.261Z</time>
      </trkpt>
      <trkpt lat="43.97937" lon="3.8112">
        <ele>521</ele>
        <time>2019-03-12T11:08:31.265Z</time>
      </trkpt>
      <trkpt lat="43.97937" lon="3.81116">
        <ele>521</ele>
        <time>2019-03-12T11:08:36.261Z</time>
      </trkpt>
      <trkpt lat="43.97938" lon="3.81115">
        <ele>521</ele>
        <time>2019-03-12T11:09:03.255Z</time>
      </trkpt>
      <trkpt lat="43.97938" lon="3.8111">
        <ele>521</ele>
        <time>2019-03-12T11:09:07.287Z</time>
      </trkpt>
      <trkpt lat="43.97938" lon="3.81104">
        <ele>521</ele>
        <time>2019-03-12T11:09:12.263Z</time>
      </trkpt>
      <trkpt lat="43.97939" lon="3.81097">
        <ele>523</ele>
        <time>2019-03-12T11:09:16.271Z</time>
      </trkpt>
      <trkpt lat="43.97937" lon="3.81089">
        <ele>523</ele>
        <time>2019-03-12T11:09:21.262Z</time>
      </trkpt>
      <trkpt lat="43.97938" lon="3.81083">
        <ele>523</ele>
        <time>2019-03-12T11:09:25.260Z</time>
      </trkpt>
      <trkpt lat="43.97941" lon="3.81079">
        <ele>523</ele>
        <time>2019-03-12T11:09:30.259Z</time>
      </trkpt>
      <trkpt lat="43.97942" lon="3.81072">
        <ele>523</ele>
        <time>2019-03-12T11:09:35.282Z</time>
      </trkpt>
      <trkpt lat="43.97943" lon="3.81065">
        <ele>522</ele>
        <time>2019-03-12T11:09:40.241Z</time>
      </trkpt>
      <trkpt lat="43.97944" lon="3.81059">
        <ele>522</ele>
        <time>2019-03-12T11:09:44.281Z</time>
      </trkpt>
      <trkpt lat="43.97945" lon="3.81052">
        <ele>522</ele>
        <time>2019-03-12T11:09:49.258Z</time>
      </trkpt>
      <trkpt lat="43.97946" lon="3.81044">
        <ele>522</ele>
        <time>2019-03-12T11:09:54.256Z</time>
      </trkpt>
      <trkpt lat="43.97947" lon="3.81039">
        <ele>522</ele>
        <time>2019-03-12T11:09:58.261Z</time>
      </trkpt>
      <trkpt lat="43.97949" lon="3.81032">
        <ele>522</ele>
        <time>2019-03-12T11:10:03.265Z</time>
      </trkpt>
      <trkpt lat="43.97951" lon="3.81026">
        <ele>522</ele>
        <time>2019-03-12T11:10:08.266Z</time>
      </trkpt>
      <trkpt lat="43.97953" lon="3.81018">
        <ele>522</ele>
        <time>2019-03-12T11:10:13.268Z</time>
      </trkpt>
      <trkpt lat="43.97955" lon="3.81011">
        <ele>521</ele>
        <time>2019-03-12T11:10:18.288Z</time>
      </trkpt>
      <trkpt lat="43.97957" lon="3.81005">
        <ele>521</ele>
        <time>2019-03-12T11:10:23.287Z</time>
      </trkpt>
      <trkpt lat="43.97959" lon="3.80999">
        <ele>533</ele>
        <time>2019-03-12T11:10:28.263Z</time>
      </trkpt>
      <trkpt lat="43.97961" lon="3.80993">
        <ele>533</ele>
        <time>2019-03-12T11:10:33.264Z</time>
      </trkpt>
      <trkpt lat="43.97962" lon="3.80989">
        <ele>533</ele>
        <time>2019-03-12T11:10:37.264Z</time>
      </trkpt>
      <trkpt lat="43.97963" lon="3.80981">
        <ele>531</ele>
        <time>2019-03-12T11:10:42.285Z</time>
      </trkpt>
      <trkpt lat="43.97965" lon="3.80973">
        <ele>531</ele>
        <time>2019-03-12T11:10:47.245Z</time>
      </trkpt>
      <trkpt lat="43.97966" lon="3.80967">
        <ele>531</ele>
        <time>2019-03-12T11:10:51.253Z</time>
      </trkpt>
      <trkpt lat="43.97968" lon="3.80962">
        <ele>531</ele>
        <time>2019-03-12T11:10:55.283Z</time>
      </trkpt>
      <trkpt lat="43.9797" lon="3.80956">
        <ele>531</ele>
        <time>2019-03-12T11:11:00.250Z</time>
      </trkpt>
      <trkpt lat="43.97972" lon="3.80949">
        <ele>531</ele>
        <time>2019-03-12T11:11:05.282Z</time>
      </trkpt>
      <trkpt lat="43.97975" lon="3.80943">
        <ele>531</ele>
        <time>2019-03-12T11:11:10.253Z</time>
      </trkpt>
      <trkpt lat="43.97976" lon="3.80939">
        <ele>531</ele>
        <time>2019-03-12T11:11:14.264Z</time>
      </trkpt>
      <trkpt lat="43.97978" lon="3.80933">
        <ele>531</ele>
        <time>2019-03-12T11:11:19.290Z</time>
      </trkpt>
      <trkpt lat="43.97979" lon="3.80928">
        <ele>532</ele>
        <time>2019-03-12T11:11:24.296Z</time>
      </trkpt>
      <trkpt lat="43.9798" lon="3.80919">
        <ele>532</ele>
        <time>2019-03-12T11:11:29.256Z</time>
      </trkpt>
      <trkpt lat="43.97983" lon="3.80914">
        <ele>532</ele>
        <time>2019-03-12T11:11:34.263Z</time>
      </trkpt>
      <trkpt lat="43.97985" lon="3.80907">
        <ele>532</ele>
        <time>2019-03-12T11:11:39.266Z</time>
      </trkpt>
      <trkpt lat="43.97984" lon="3.80899">
        <ele>536</ele>
        <time>2019-03-12T11:11:44.258Z</time>
      </trkpt>
      <trkpt lat="43.97983" lon="3.8089">
        <ele>536</ele>
        <time>2019-03-12T11:11:48.265Z</time>
      </trkpt>
      <trkpt lat="43.9798" lon="3.80882">
        <ele>536</ele>
        <time>2019-03-12T11:11:52.267Z</time>
      </trkpt>
      <trkpt lat="43.97977" lon="3.80876">
        <ele>536</ele>
        <time>2019-03-12T11:11:56.282Z</time>
      </trkpt>
      <trkpt lat="43.97972" lon="3.80869">
        <ele>540</ele>
        <time>2019-03-12T11:12:01.259Z</time>
      </trkpt>
      <trkpt lat="43.97969" lon="3.80866">
        <ele>540</ele>
        <time>2019-03-12T11:12:05.282Z</time>
      </trkpt>
      <trkpt lat="43.97968" lon="3.80864">
        <ele>540</ele>
        <time>2019-03-12T11:12:10.253Z</time>
      </trkpt>
      <trkpt lat="43.97964" lon="3.8086">
        <ele>540</ele>
        <time>2019-03-12T11:12:15.254Z</time>
      </trkpt>
      <trkpt lat="43.9796" lon="3.80857">
        <ele>540</ele>
        <time>2019-03-12T11:12:19.256Z</time>
      </trkpt>
      <trkpt lat="43.97958" lon="3.80853">
        <ele>533</ele>
        <time>2019-03-12T11:12:24.258Z</time>
      </trkpt>
      <trkpt lat="43.97955" lon="3.80851">
        <ele>533</ele>
        <time>2019-03-12T11:12:28.290Z</time>
      </trkpt>
      <trkpt lat="43.97953" lon="3.80849">
        <ele>533</ele>
        <time>2019-03-12T11:12:33.260Z</time>
      </trkpt>
      <trkpt lat="43.97949" lon="3.80845">
        <ele>536</ele>
        <time>2019-03-12T11:12:38.244Z</time>
      </trkpt>
      <trkpt lat="43.97947" lon="3.80841">
        <ele>536</ele>
        <time>2019-03-12T11:12:42.260Z</time>
      </trkpt>
      <trkpt lat="43.97945" lon="3.80838">
        <ele>536</ele>
        <time>2019-03-12T11:12:47.293Z</time>
      </trkpt>
      <trkpt lat="43.97942" lon="3.80834">
        <ele>536</ele>
        <time>2019-03-12T11:12:52.282Z</time>
      </trkpt>
      <trkpt lat="43.97941" lon="3.80831">
        <ele>536</ele>
        <time>2019-03-12T11:12:56.281Z</time>
      </trkpt>
      <trkpt lat="43.97942" lon="3.80824">
        <ele>536</ele>
        <time>2019-03-12T11:13:01.255Z</time>
      </trkpt>
      <trkpt lat="43.97941" lon="3.80819">
        <ele>538</ele>
        <time>2019-03-12T11:13:06.253Z</time>
      </trkpt>
      <trkpt lat="43.97941" lon="3.80815">
        <ele>538</ele>
        <time>2019-03-12T11:13:11.252Z</time>
      </trkpt>
      <trkpt lat="43.97942" lon="3.8081">
        <ele>538</ele>
        <time>2019-03-12T11:13:15.283Z</time>
      </trkpt>
      <trkpt lat="43.97941" lon="3.80807">
        <ele>538</ele>
        <time>2019-03-12T11:13:19.282Z</time>
      </trkpt>
      <trkpt lat="43.97942" lon="3.80801">
        <ele>538</ele>
        <time>2019-03-12T11:13:24.258Z</time>
      </trkpt>
      <trkpt lat="43.97942" lon="3.80796">
        <ele>538</ele>
        <time>2019-03-12T11:13:28.256Z</time>
      </trkpt>
      <trkpt lat="43.97942" lon="3.8079">
        <ele>541</ele>
        <time>2019-03-12T11:13:32.263Z</time>
      </trkpt>
      <trkpt lat="43.97943" lon="3.80787">
        <ele>541</ele>
        <time>2019-03-12T11:13:36.302Z</time>
      </trkpt>
      <trkpt lat="43.97942" lon="3.80786">
        <ele>541</ele>
        <time>2019-03-12T11:13:41.272Z</time>
      </trkpt>
      <trkpt lat="43.97943" lon="3.80781">
        <ele>541</ele>
        <time>2019-03-12T11:13:46.263Z</time>
      </trkpt>
      <trkpt lat="43.97944" lon="3.8077">
        <ele>541</ele>
        <time>2019-03-12T11:13:51.284Z</time>
      </trkpt>
      <trkpt lat="43.97943" lon="3.80762">
        <ele>544</ele>
        <time>2019-03-12T11:13:56.252Z</time>
      </trkpt>
      <trkpt lat="43.97942" lon="3.80758">
        <ele>544</ele>
        <time>2019-03-12T11:14:00.264Z</time>
      </trkpt>
      <trkpt lat="43.97942" lon="3.80756">
        <ele>544</ele>
        <time>2019-03-12T11:14:04.289Z</time>
      </trkpt>
      <trkpt lat="43.97942" lon="3.80749">
        <ele>544</ele>
        <time>2019-03-12T11:14:09.259Z</time>
      </trkpt>
      <trkpt lat="43.97943" lon="3.8074">
        <ele>544</ele>
        <time>2019-03-12T11:14:13.263Z</time>
      </trkpt>
      <trkpt lat="43.97944" lon="3.80735">
        <ele>548</ele>
        <time>2019-03-12T11:14:18.286Z</time>
      </trkpt>
      <trkpt lat="43.97944" lon="3.80731">
        <ele>548</ele>
        <time>2019-03-12T11:14:22.289Z</time>
      </trkpt>
      <trkpt lat="43.97944" lon="3.8073">
        <ele>548</ele>
        <time>2019-03-12T11:14:27.253Z</time>
      </trkpt>
      <trkpt lat="43.97945" lon="3.8072">
        <ele>548</ele>
        <time>2019-03-12T11:14:35.289Z</time>
      </trkpt>
      <trkpt lat="43.97946" lon="3.80714">
        <ele>548</ele>
        <time>2019-03-12T11:14:40.281Z</time>
      </trkpt>
      <trkpt lat="43.97946" lon="3.80704">
        <ele>549</ele>
        <time>2019-03-12T11:14:45.262Z</time>
      </trkpt>
      <trkpt lat="43.97948" lon="3.80696">
        <ele>549</ele>
        <time>2019-03-12T11:14:50.281Z</time>
      </trkpt>
      <trkpt lat="43.97949" lon="3.8069">
        <ele>549</ele>
        <time>2019-03-12T11:14:55.291Z</time>
      </trkpt>
      <trkpt lat="43.97949" lon="3.80689">
        <ele>549</ele>
        <time>2019-03-12T11:15:00.262Z</time>
      </trkpt>
      <trkpt lat="43.97952" lon="3.80671">
        <ele>550</ele>
        <time>2019-03-12T11:15:09.266Z</time>
      </trkpt>
      <trkpt lat="43.97955" lon="3.80663">
        <ele>550</ele>
        <time>2019-03-12T11:15:14.252Z</time>
      </trkpt>
      <trkpt lat="43.97955" lon="3.80659">
        <ele>550</ele>
        <time>2019-03-12T11:15:18.294Z</time>
      </trkpt>
      <trkpt lat="43.97956" lon="3.80653">
        <ele>551</ele>
        <time>2019-03-12T11:15:23.254Z</time>
      </trkpt>
      <trkpt lat="43.97958" lon="3.80647">
        <ele>551</ele>
        <time>2019-03-12T11:15:27.289Z</time>
      </trkpt>
      <trkpt lat="43.97959" lon="3.8064">
        <ele>561</ele>
        <time>2019-03-12T11:15:32.254Z</time>
      </trkpt>
      <trkpt lat="43.97958" lon="3.80638">
        <ele>551</ele>
        <time>2019-03-12T11:15:36.270Z</time>
      </trkpt>
      <trkpt lat="43.97958" lon="3.80633">
        <ele>551</ele>
        <time>2019-03-12T11:15:40.282Z</time>
      </trkpt>
      <trkpt lat="43.97961" lon="3.80626">
        <ele>561</ele>
        <time>2019-03-12T11:15:45.256Z</time>
      </trkpt>
      <trkpt lat="43.97961" lon="3.80623">
        <ele>561</ele>
        <time>2019-03-12T11:15:50.260Z</time>
      </trkpt>
      <trkpt lat="43.97961" lon="3.80621">
        <ele>561</ele>
        <time>2019-03-12T11:15:54.262Z</time>
      </trkpt>
      <trkpt lat="43.97963" lon="3.80613">
        <ele>561</ele>
        <time>2019-03-12T11:15:59.264Z</time>
      </trkpt>
      <trkpt lat="43.97964" lon="3.80607">
        <ele>561</ele>
        <time>2019-03-12T11:16:03.286Z</time>
      </trkpt>
      <trkpt lat="43.97967" lon="3.80601">
        <ele>561</ele>
        <time>2019-03-12T11:16:08.242Z</time>
      </trkpt>
      <trkpt lat="43.9797" lon="3.80595">
        <ele>561</ele>
        <time>2019-03-12T11:16:12.268Z</time>
      </trkpt>
      <trkpt lat="43.97974" lon="3.80588">
        <ele>561</ele>
        <time>2019-03-12T11:16:17.260Z</time>
      </trkpt>
      <trkpt lat="43.97977" lon="3.80582">
        <ele>561</ele>
        <time>2019-03-12T11:16:21.273Z</time>
      </trkpt>
      <trkpt lat="43.97979" lon="3.80574">
        <ele>561</ele>
        <time>2019-03-12T11:16:26.252Z</time>
      </trkpt>
      <trkpt lat="43.97981" lon="3.80569">
        <ele>558</ele>
        <time>2019-03-12T11:16:30.253Z</time>
      </trkpt>
      <trkpt lat="43.97983" lon="3.80562">
        <ele>558</ele>
        <time>2019-03-12T11:16:34.263Z</time>
      </trkpt>
      <trkpt lat="43.97985" lon="3.80555">
        <ele>558</ele>
        <time>2019-03-12T11:16:39.282Z</time>
      </trkpt>
      <trkpt lat="43.97987" lon="3.80547">
        <ele>569</ele>
        <time>2019-03-12T11:16:44.254Z</time>
      </trkpt>
      <trkpt lat="43.9799" lon="3.80541">
        <ele>568</ele>
        <time>2019-03-12T11:16:49.260Z</time>
      </trkpt>
      <trkpt lat="43.97994" lon="3.80533">
        <ele>568</ele>
        <time>2019-03-12T11:16:54.251Z</time>
      </trkpt>
      <trkpt lat="43.97997" lon="3.80526">
        <ele>568</ele>
        <time>2019-03-12T11:16:59.253Z</time>
      </trkpt>
      <trkpt lat="43.98" lon="3.8052">
        <ele>568</ele>
        <time>2019-03-12T11:17:04.263Z</time>
      </trkpt>
      <trkpt lat="43.98001" lon="3.80514">
        <ele>568</ele>
        <time>2019-03-12T11:17:09.282Z</time>
      </trkpt>
      <trkpt lat="43.98003" lon="3.80508">
        <ele>568</ele>
        <time>2019-03-12T11:17:14.252Z</time>
      </trkpt>
      <trkpt lat="43.98005" lon="3.80502">
        <ele>568</ele>
        <time>2019-03-12T11:17:18.264Z</time>
      </trkpt>
      <trkpt lat="43.98006" lon="3.80494">
        <ele>568</ele>
        <time>2019-03-12T11:17:23.256Z</time>
      </trkpt>
      <trkpt lat="43.98008" lon="3.80486">
        <ele>568</ele>
        <time>2019-03-12T11:17:28.252Z</time>
      </trkpt>
      <trkpt lat="43.9801" lon="3.80479">
        <ele>568</ele>
        <time>2019-03-12T11:17:32.287Z</time>
      </trkpt>
      <trkpt lat="43.98013" lon="3.80469">
        <ele>568</ele>
        <time>2019-03-12T11:17:37.256Z</time>
      </trkpt>
      <trkpt lat="43.98014" lon="3.80461">
        <ele>581</ele>
        <time>2019-03-12T11:17:41.293Z</time>
      </trkpt>
      <trkpt lat="43.98014" lon="3.80452">
        <ele>580</ele>
        <time>2019-03-12T11:17:46.262Z</time>
      </trkpt>
      <trkpt lat="43.98013" lon="3.80444">
        <ele>568</ele>
        <time>2019-03-12T11:17:50.282Z</time>
      </trkpt>
      <trkpt lat="43.98011" lon="3.80436">
        <ele>568</ele>
        <time>2019-03-12T11:17:55.282Z</time>
      </trkpt>
      <trkpt lat="43.9801" lon="3.80428">
        <ele>569</ele>
        <time>2019-03-12T11:18:00.262Z</time>
      </trkpt>
      <trkpt lat="43.98008" lon="3.80422">
        <ele>569</ele>
        <time>2019-03-12T11:18:04.282Z</time>
      </trkpt>
      <trkpt lat="43.98006" lon="3.80414">
        <ele>569</ele>
        <time>2019-03-12T11:18:08.286Z</time>
      </trkpt>
      <trkpt lat="43.98005" lon="3.80406">
        <ele>569</ele>
        <time>2019-03-12T11:18:13.255Z</time>
      </trkpt>
      <trkpt lat="43.98003" lon="3.80398">
        <ele>571</ele>
        <time>2019-03-12T11:18:17.283Z</time>
      </trkpt>
      <trkpt lat="43.98" lon="3.80388">
        <ele>571</ele>
        <time>2019-03-12T11:18:22.267Z</time>
      </trkpt>
      <trkpt lat="43.97998" lon="3.8038">
        <ele>571</ele>
        <time>2019-03-12T11:18:27.294Z</time>
      </trkpt>
      <trkpt lat="43.97996" lon="3.80374">
        <ele>577</ele>
        <time>2019-03-12T11:18:32.251Z</time>
      </trkpt>
      <trkpt lat="43.97993" lon="3.80368">
        <ele>577</ele>
        <time>2019-03-12T11:18:36.280Z</time>
      </trkpt>
      <trkpt lat="43.97992" lon="3.8036">
        <ele>577</ele>
        <time>2019-03-12T11:18:41.252Z</time>
      </trkpt>
      <trkpt lat="43.97991" lon="3.80358">
        <ele>577</ele>
        <time>2019-03-12T11:18:45.267Z</time>
      </trkpt>
      <trkpt lat="43.97984" lon="3.80353">
        <ele>570</ele>
        <time>2019-03-12T11:18:50.251Z</time>
      </trkpt>
      <trkpt lat="43.97976" lon="3.80349">
        <ele>570</ele>
        <time>2019-03-12T11:18:54.264Z</time>
      </trkpt>
      <trkpt lat="43.97963" lon="3.80346">
        <ele>580</ele>
        <time>2019-03-12T11:18:59.292Z</time>
      </trkpt>
      <trkpt lat="43.97951" lon="3.80343">
        <ele>577</ele>
        <time>2019-03-12T11:19:04.259Z</time>
      </trkpt>
      <trkpt lat="43.97943" lon="3.80342">
        <ele>577</ele>
        <time>2019-03-12T11:19:09.290Z</time>
      </trkpt>
      <trkpt lat="43.97935" lon="3.80343">
        <ele>577</ele>
        <time>2019-03-12T11:19:14.263Z</time>
      </trkpt>
      <trkpt lat="43.97929" lon="3.80345">
        <ele>579</ele>
        <time>2019-03-12T11:19:19.263Z</time>
      </trkpt>
      <trkpt lat="43.97923" lon="3.80348">
        <ele>574</ele>
        <time>2019-03-12T11:19:24.285Z</time>
      </trkpt>
      <trkpt lat="43.97918" lon="3.8035">
        <ele>574</ele>
        <time>2019-03-12T11:19:29.255Z</time>
      </trkpt>
      <trkpt lat="43.97913" lon="3.80353">
        <ele>574</ele>
        <time>2019-03-12T11:19:34.270Z</time>
      </trkpt>
      <trkpt lat="43.97908" lon="3.80355">
        <ele>574</ele>
        <time>2019-03-12T11:19:39.254Z</time>
      </trkpt>
      <trkpt lat="43.97904" lon="3.80355">
        <ele>574</ele>
        <time>2019-03-12T11:19:43.284Z</time>
      </trkpt>
      <trkpt lat="43.97899" lon="3.80354">
        <ele>576</ele>
        <time>2019-03-12T11:19:48.251Z</time>
      </trkpt>
      <trkpt lat="43.97896" lon="3.80355">
        <ele>576</ele>
        <time>2019-03-12T11:19:52.258Z</time>
      </trkpt>
      <trkpt lat="43.97891" lon="3.80356">
        <ele>576</ele>
        <time>2019-03-12T11:19:56.298Z</time>
      </trkpt>
      <trkpt lat="43.97886" lon="3.80357">
        <ele>576</ele>
        <time>2019-03-12T11:20:01.281Z</time>
      </trkpt>
      <trkpt lat="43.9788" lon="3.80359">
        <ele>576</ele>
        <time>2019-03-12T11:20:06.273Z</time>
      </trkpt>
      <trkpt lat="43.97874" lon="3.80358">
        <ele>579</ele>
        <time>2019-03-12T11:20:11.283Z</time>
      </trkpt>
      <trkpt lat="43.97869" lon="3.80357">
        <ele>579</ele>
        <time>2019-03-12T11:20:16.284Z</time>
      </trkpt>
      <trkpt lat="43.97862" lon="3.80357">
        <ele>579</ele>
        <time>2019-03-12T11:20:21.281Z</time>
      </trkpt>
      <trkpt lat="43.97856" lon="3.80356">
        <ele>579</ele>
        <time>2019-03-12T11:20:26.255Z</time>
      </trkpt>
      <trkpt lat="43.9785" lon="3.80356">
        <ele>579</ele>
        <time>2019-03-12T11:20:31.256Z</time>
      </trkpt>
      <trkpt lat="43.97845" lon="3.80356">
        <ele>578</ele>
        <time>2019-03-12T11:20:36.264Z</time>
      </trkpt>
      <trkpt lat="43.97841" lon="3.80358">
        <ele>578</ele>
        <time>2019-03-12T11:20:40.271Z</time>
      </trkpt>
      <trkpt lat="43.97836" lon="3.80356">
        <ele>578</ele>
        <time>2019-03-12T11:20:45.292Z</time>
      </trkpt>
      <trkpt lat="43.97836" lon="3.80354">
        <ele>578</ele>
        <time>2019-03-12T11:20:50.251Z</time>
      </trkpt>
      <trkpt lat="43.97837" lon="3.80354">
        <ele>578</ele>
        <time>2019-03-12T11:21:10.252Z</time>
      </trkpt>
      <trkpt lat="43.97835" lon="3.80345">
        <ele>579</ele>
        <time>2019-03-12T11:21:15.241Z</time>
      </trkpt>
      <trkpt lat="43.97835" lon="3.80339">
        <ele>579</ele>
        <time>2019-03-12T11:21:19.276Z</time>
      </trkpt>
      <trkpt lat="43.97837" lon="3.80333">
        <ele>579</ele>
        <time>2019-03-12T11:21:24.260Z</time>
      </trkpt>
      <trkpt lat="43.97837" lon="3.80329">
        <ele>579</ele>
        <time>2019-03-12T11:21:28.287Z</time>
      </trkpt>
      <trkpt lat="43.97839" lon="3.80323">
        <ele>579</ele>
        <time>2019-03-12T11:21:33.266Z</time>
      </trkpt>
      <trkpt lat="43.97841" lon="3.80317">
        <ele>577</ele>
        <time>2019-03-12T11:21:37.265Z</time>
      </trkpt>
      <trkpt lat="43.97843" lon="3.8031">
        <ele>577</ele>
        <time>2019-03-12T11:21:42.267Z</time>
      </trkpt>
      <trkpt lat="43.97845" lon="3.80305">
        <ele>577</ele>
        <time>2019-03-12T11:21:47.265Z</time>
      </trkpt>
      <trkpt lat="43.97849" lon="3.803">
        <ele>580</ele>
        <time>2019-03-12T11:22:01.297Z</time>
      </trkpt>
      <trkpt lat="43.97852" lon="3.80295">
        <ele>580</ele>
        <time>2019-03-12T11:22:06.257Z</time>
      </trkpt>
      <trkpt lat="43.97855" lon="3.80292">
        <ele>580</ele>
        <time>2019-03-12T11:22:10.272Z</time>
      </trkpt>
      <trkpt lat="43.9786" lon="3.8029">
        <ele>576</ele>
        <time>2019-03-12T11:22:15.253Z</time>
      </trkpt>
      <trkpt lat="43.97865" lon="3.80289">
        <ele>576</ele>
        <time>2019-03-12T11:22:19.259Z</time>
      </trkpt>
      <trkpt lat="43.97871" lon="3.80286">
        <ele>576</ele>
        <time>2019-03-12T11:22:24.257Z</time>
      </trkpt>
      <trkpt lat="43.97874" lon="3.80283">
        <ele>576</ele>
        <time>2019-03-12T11:22:28.255Z</time>
      </trkpt>
      <trkpt lat="43.97878" lon="3.8028">
        <ele>582</ele>
        <time>2019-03-12T11:22:33.259Z</time>
      </trkpt>
      <trkpt lat="43.97883" lon="3.80277">
        <ele>582</ele>
        <time>2019-03-12T11:22:37.256Z</time>
      </trkpt>
      <trkpt lat="43.97887" lon="3.80274">
        <ele>582</ele>
        <time>2019-03-12T11:22:42.251Z</time>
      </trkpt>
      <trkpt lat="43.97891" lon="3.80271">
        <ele>582</ele>
        <time>2019-03-12T11:22:46.254Z</time>
      </trkpt>
      <trkpt lat="43.97895" lon="3.80268">
        <ele>582</ele>
        <time>2019-03-12T11:22:51.263Z</time>
      </trkpt>
      <trkpt lat="43.97901" lon="3.80264">
        <ele>582</ele>
        <time>2019-03-12T11:22:56.260Z</time>
      </trkpt>
      <trkpt lat="43.97905" lon="3.80263">
        <ele>582</ele>
        <time>2019-03-12T11:23:00.285Z</time>
      </trkpt>
      <trkpt lat="43.9791" lon="3.80259">
        <ele>582</ele>
        <time>2019-03-12T11:23:05.293Z</time>
      </trkpt>
      <trkpt lat="43.97914" lon="3.80254">
        <ele>582</ele>
        <time>2019-03-12T11:23:10.256Z</time>
      </trkpt>
      <trkpt lat="43.97918" lon="3.80251">
        <ele>582</ele>
        <time>2019-03-12T11:23:14.257Z</time>
      </trkpt>
      <trkpt lat="43.97922" lon="3.80248">
        <ele>582</ele>
        <time>2019-03-12T11:23:19.262Z</time>
      </trkpt>
      <trkpt lat="43.97927" lon="3.80245">
        <ele>582</ele>
        <time>2019-03-12T11:23:24.254Z</time>
      </trkpt>
      <trkpt lat="43.97931" lon="3.80244">
        <ele>585</ele>
        <time>2019-03-12T11:23:28.284Z</time>
      </trkpt>
      <trkpt lat="43.97936" lon="3.80242">
        <ele>585</ele>
        <time>2019-03-12T11:23:33.282Z</time>
      </trkpt>
      <trkpt lat="43.97939" lon="3.80237">
        <ele>585</ele>
        <time>2019-03-12T11:23:38.252Z</time>
      </trkpt>
      <trkpt lat="43.97942" lon="3.80231">
        <ele>581</ele>
        <time>2019-03-12T11:23:42.252Z</time>
      </trkpt>
      <trkpt lat="43.97948" lon="3.80226">
        <ele>581</ele>
        <time>2019-03-12T11:23:47.256Z</time>
      </trkpt>
      <trkpt lat="43.97953" lon="3.80224">
        <ele>581</ele>
        <time>2019-03-12T11:23:51.252Z</time>
      </trkpt>
      <trkpt lat="43.97957" lon="3.80223">
        <ele>581</ele>
        <time>2019-03-12T11:23:55.261Z</time>
      </trkpt>
      <trkpt lat="43.97962" lon="3.8022">
        <ele>591</ele>
        <time>2019-03-12T11:24:00.282Z</time>
      </trkpt>
      <trkpt lat="43.97965" lon="3.80218">
        <ele>591</ele>
        <time>2019-03-12T11:24:04.287Z</time>
      </trkpt>
      <trkpt lat="43.97971" lon="3.80214">
        <ele>591</ele>
        <time>2019-03-12T11:24:09.287Z</time>
      </trkpt>
      <trkpt lat="43.97975" lon="3.8021">
        <ele>591</ele>
        <time>2019-03-12T11:24:14.263Z</time>
      </trkpt>
      <trkpt lat="43.9798" lon="3.80205">
        <ele>589</ele>
        <time>2019-03-12T11:24:19.284Z</time>
      </trkpt>
      <trkpt lat="43.97983" lon="3.80202">
        <ele>589</ele>
        <time>2019-03-12T11:24:24.252Z</time>
      </trkpt>
      <trkpt lat="43.97985" lon="3.80201">
        <ele>589</ele>
        <time>2019-03-12T11:24:28.293Z</time>
      </trkpt>
      <trkpt lat="43.97988" lon="3.80199">
        <ele>599</ele>
        <time>2019-03-12T11:24:33.261Z</time>
      </trkpt>
      <trkpt lat="43.9799" lon="3.80201">
        <ele>599</ele>
        <time>2019-03-12T11:24:37.266Z</time>
      </trkpt>
      <trkpt lat="43.9799" lon="3.80207">
        <ele>599</ele>
        <time>2019-03-12T11:24:42.263Z</time>
      </trkpt>
      <trkpt lat="43.9799" lon="3.80212">
        <ele>600</ele>
        <time>2019-03-12T11:24:47.269Z</time>
      </trkpt>
      <trkpt lat="43.97988" lon="3.80217">
        <ele>600</ele>
        <time>2019-03-12T11:24:52.253Z</time>
      </trkpt>
      <trkpt lat="43.97987" lon="3.80222">
        <ele>600</ele>
        <time>2019-03-12T11:24:56.282Z</time>
      </trkpt>
      <trkpt lat="43.9799" lon="3.80229">
        <ele>600</ele>
        <time>2019-03-12T11:25:01.285Z</time>
      </trkpt>
      <trkpt lat="43.97994" lon="3.80233">
        <ele>600</ele>
        <time>2019-03-12T11:25:06.253Z</time>
      </trkpt>
      <trkpt lat="43.97997" lon="3.80238">
        <ele>599</ele>
        <time>2019-03-12T11:25:10.281Z</time>
      </trkpt>
      <trkpt lat="43.98002" lon="3.80244">
        <ele>599</ele>
        <time>2019-03-12T11:25:15.266Z</time>
      </trkpt>
      <trkpt lat="43.98006" lon="3.80249">
        <ele>599</ele>
        <time>2019-03-12T11:25:20.255Z</time>
      </trkpt>
      <trkpt lat="43.9801" lon="3.80251">
        <ele>599</ele>
        <time>2019-03-12T11:25:24.282Z</time>
      </trkpt>
      <trkpt lat="43.98015" lon="3.80257">
        <ele>605</ele>
        <time>2019-03-12T11:25:29.283Z</time>
      </trkpt>
      <trkpt lat="43.9802" lon="3.80262">
        <ele>605</ele>
        <time>2019-03-12T11:25:34.283Z</time>
      </trkpt>
      <trkpt lat="43.98024" lon="3.80267">
        <ele>602</ele>
        <time>2019-03-12T11:25:38.286Z</time>
      </trkpt>
      <trkpt lat="43.98029" lon="3.80272">
        <ele>602</ele>
        <time>2019-03-12T11:25:43.265Z</time>
      </trkpt>
      <trkpt lat="43.98033" lon="3.80274">
        <ele>602</ele>
        <time>2019-03-12T11:25:47.265Z</time>
      </trkpt>
      <trkpt lat="43.98037" lon="3.80278">
        <ele>602</ele>
        <time>2019-03-12T11:25:52.263Z</time>
      </trkpt>
      <trkpt lat="43.9804" lon="3.80282">
        <ele>602</ele>
        <time>2019-03-12T11:25:56.274Z</time>
      </trkpt>
      <trkpt lat="43.98045" lon="3.80286">
        <ele>609</ele>
        <time>2019-03-12T11:26:01.252Z</time>
      </trkpt>
      <trkpt lat="43.98048" lon="3.80289">
        <ele>609</ele>
        <time>2019-03-12T11:26:05.291Z</time>
      </trkpt>
      <trkpt lat="43.98052" lon="3.80294">
        <ele>604</ele>
        <time>2019-03-12T11:26:10.257Z</time>
      </trkpt>
      <trkpt lat="43.98057" lon="3.80298">
        <ele>604</ele>
        <time>2019-03-12T11:26:15.264Z</time>
      </trkpt>
      <trkpt lat="43.9806" lon="3.80302">
        <ele>604</ele>
        <time>2019-03-12T11:26:19.289Z</time>
      </trkpt>
      <trkpt lat="43.98064" lon="3.80308">
        <ele>604</ele>
        <time>2019-03-12T11:26:24.284Z</time>
      </trkpt>
      <trkpt lat="43.98066" lon="3.80314">
        <ele>604</ele>
        <time>2019-03-12T11:26:29.266Z</time>
      </trkpt>
      <trkpt lat="43.98067" lon="3.8032">
        <ele>601</ele>
        <time>2019-03-12T11:26:33.291Z</time>
      </trkpt>
      <trkpt lat="43.98068" lon="3.80328">
        <ele>601</ele>
        <time>2019-03-12T11:26:38.251Z</time>
      </trkpt>
      <trkpt lat="43.98068" lon="3.80334">
        <ele>601</ele>
        <time>2019-03-12T11:26:42.281Z</time>
      </trkpt>
      <trkpt lat="43.98068" lon="3.80341">
        <ele>601</ele>
        <time>2019-03-12T11:26:46.290Z</time>
      </trkpt>
      <trkpt lat="43.98069" lon="3.8035">
        <ele>599</ele>
        <time>2019-03-12T11:26:51.289Z</time>
      </trkpt>
      <trkpt lat="43.9807" lon="3.80357">
        <ele>610</ele>
        <time>2019-03-12T11:26:56.263Z</time>
      </trkpt>
      <trkpt lat="43.98069" lon="3.80362">
        <ele>599</ele>
        <time>2019-03-12T11:27:00.290Z</time>
      </trkpt>
      <trkpt lat="43.9807" lon="3.8037">
        <ele>610</ele>
        <time>2019-03-12T11:27:05.257Z</time>
      </trkpt>
      <trkpt lat="43.9807" lon="3.80375">
        <ele>610</ele>
        <time>2019-03-12T11:27:09.264Z</time>
      </trkpt>
      <trkpt lat="43.98071" lon="3.80381">
        <ele>609</ele>
        <time>2019-03-12T11:27:13.292Z</time>
      </trkpt>
      <trkpt lat="43.98071" lon="3.80389">
        <ele>609</ele>
        <time>2019-03-12T11:27:18.250Z</time>
      </trkpt>
      <trkpt lat="43.98071" lon="3.80398">
        <ele>609</ele>
        <time>2019-03-12T11:27:22.264Z</time>
      </trkpt>
      <trkpt lat="43.9807" lon="3.80407">
        <ele>608</ele>
        <time>2019-03-12T11:27:27.288Z</time>
      </trkpt>
      <trkpt lat="43.9807" lon="3.80415">
        <ele>608</ele>
        <time>2019-03-12T11:27:32.266Z</time>
      </trkpt>
      <trkpt lat="43.9807" lon="3.80423">
        <ele>608</ele>
        <time>2019-03-12T11:27:37.263Z</time>
      </trkpt>
      <trkpt lat="43.98071" lon="3.80431">
        <ele>607</ele>
        <time>2019-03-12T11:27:42.259Z</time>
      </trkpt>
      <trkpt lat="43.98072" lon="3.80437">
        <ele>607</ele>
        <time>2019-03-12T11:27:46.257Z</time>
      </trkpt>
      <trkpt lat="43.98072" lon="3.80445">
        <ele>607</ele>
        <time>2019-03-12T11:27:51.260Z</time>
      </trkpt>
      <trkpt lat="43.98073" lon="3.80452">
        <ele>607</ele>
        <time>2019-03-12T11:27:55.265Z</time>
      </trkpt>
      <trkpt lat="43.98075" lon="3.80461">
        <ele>605</ele>
        <time>2019-03-12T11:28:00.262Z</time>
      </trkpt>
      <trkpt lat="43.98076" lon="3.80468">
        <ele>605</ele>
        <time>2019-03-12T11:28:04.260Z</time>
      </trkpt>
      <trkpt lat="43.98077" lon="3.80477">
        <ele>605</ele>
        <time>2019-03-12T11:28:09.281Z</time>
      </trkpt>
      <trkpt lat="43.98078" lon="3.80485">
        <ele>605</ele>
        <time>2019-03-12T11:28:14.252Z</time>
      </trkpt>
      <trkpt lat="43.98078" lon="3.80492">
        <ele>605</ele>
        <time>2019-03-12T11:28:18.253Z</time>
      </trkpt>
      <trkpt lat="43.98078" lon="3.80498">
        <ele>605</ele>
        <time>2019-03-12T11:28:22.281Z</time>
      </trkpt>
      <trkpt lat="43.98078" lon="3.80507">
        <ele>605</ele>
        <time>2019-03-12T11:28:27.281Z</time>
      </trkpt>
      <trkpt lat="43.98078" lon="3.80516">
        <ele>605</ele>
        <time>2019-03-12T11:28:32.284Z</time>
      </trkpt>
      <trkpt lat="43.98079" lon="3.80523">
        <ele>605</ele>
        <time>2019-03-12T11:28:36.297Z</time>
      </trkpt>
      <trkpt lat="43.98079" lon="3.80532">
        <ele>605</ele>
        <time>2019-03-12T11:28:41.293Z</time>
      </trkpt>
      <trkpt lat="43.98078" lon="3.8054">
        <ele>605</ele>
        <time>2019-03-12T11:28:46.264Z</time>
      </trkpt>
      <trkpt lat="43.98078" lon="3.80547">
        <ele>607</ele>
        <time>2019-03-12T11:28:50.285Z</time>
      </trkpt>
      <trkpt lat="43.98078" lon="3.80555">
        <ele>607</ele>
        <time>2019-03-12T11:28:55.251Z</time>
      </trkpt>
      <trkpt lat="43.98078" lon="3.80565">
        <ele>607</ele>
        <time>2019-03-12T11:29:00.281Z</time>
      </trkpt>
      <trkpt lat="43.98077" lon="3.80573">
        <ele>608</ele>
        <time>2019-03-12T11:29:05.252Z</time>
      </trkpt>
      <trkpt lat="43.98076" lon="3.8058">
        <ele>608</ele>
        <time>2019-03-12T11:29:09.283Z</time>
      </trkpt>
      <trkpt lat="43.98076" lon="3.80589">
        <ele>608</ele>
        <time>2019-03-12T11:29:14.281Z</time>
      </trkpt>
      <trkpt lat="43.98077" lon="3.80597">
        <ele>608</ele>
        <time>2019-03-12T11:29:18.282Z</time>
      </trkpt>
      <trkpt lat="43.98078" lon="3.80605">
        <ele>608</ele>
        <time>2019-03-12T11:29:23.255Z</time>
      </trkpt>
      <trkpt lat="43.98078" lon="3.80612">
        <ele>608</ele>
        <time>2019-03-12T11:29:27.257Z</time>
      </trkpt>
      <trkpt lat="43.98078" lon="3.80619">
        <ele>608</ele>
        <time>2019-03-12T11:29:32.265Z</time>
      </trkpt>
      <trkpt lat="43.98079" lon="3.80628">
        <ele>605</ele>
        <time>2019-03-12T11:29:37.253Z</time>
      </trkpt>
      <trkpt lat="43.98081" lon="3.80632">
        <ele>605</ele>
        <time>2019-03-12T11:29:41.254Z</time>
      </trkpt>
      <trkpt lat="43.98082" lon="3.80639">
        <ele>605</ele>
        <time>2019-03-12T11:29:45.264Z</time>
      </trkpt>
      <trkpt lat="43.98085" lon="3.80649">
        <ele>605</ele>
        <time>2019-03-12T11:29:50.252Z</time>
      </trkpt>
      <trkpt lat="43.98087" lon="3.80655">
        <ele>601</ele>
        <time>2019-03-12T11:29:54.253Z</time>
      </trkpt>
      <trkpt lat="43.9809" lon="3.80662">
        <ele>601</ele>
        <time>2019-03-12T11:29:59.252Z</time>
      </trkpt>
      <trkpt lat="43.98094" lon="3.80667">
        <ele>601</ele>
        <time>2019-03-12T11:30:03.284Z</time>
      </trkpt>
      <trkpt lat="43.98099" lon="3.80674">
        <ele>610</ele>
        <time>2019-03-12T11:30:08.286Z</time>
      </trkpt>
      <trkpt lat="43.98105" lon="3.80679">
        <ele>610</ele>
        <time>2019-03-12T11:30:13.253Z</time>
      </trkpt>
      <trkpt lat="43.98111" lon="3.80683">
        <ele>603</ele>
        <time>2019-03-12T11:30:18.250Z</time>
      </trkpt>
      <trkpt lat="43.98115" lon="3.80687">
        <ele>603</ele>
        <time>2019-03-12T11:30:23.251Z</time>
      </trkpt>
      <trkpt lat="43.9812" lon="3.80688">
        <ele>603</ele>
        <time>2019-03-12T11:30:27.256Z</time>
      </trkpt>
      <trkpt lat="43.98124" lon="3.80691">
        <ele>603</ele>
        <time>2019-03-12T11:30:31.283Z</time>
      </trkpt>
      <trkpt lat="43.98129" lon="3.80695">
        <ele>611</ele>
        <time>2019-03-12T11:30:36.281Z</time>
      </trkpt>
      <trkpt lat="43.98135" lon="3.80697">
        <ele>611</ele>
        <time>2019-03-12T11:30:41.284Z</time>
      </trkpt>
      <trkpt lat="43.98141" lon="3.80699">
        <ele>611</ele>
        <time>2019-03-12T11:30:46.261Z</time>
      </trkpt>
      <trkpt lat="43.98147" lon="3.80701">
        <ele>611</ele>
        <time>2019-03-12T11:30:50.261Z</time>
      </trkpt>
      <trkpt lat="43.98152" lon="3.80702">
        <ele>611</ele>
        <time>2019-03-12T11:30:54.284Z</time>
      </trkpt>
      <trkpt lat="43.98157" lon="3.80704">
        <ele>617</ele>
        <time>2019-03-12T11:30:59.253Z</time>
      </trkpt>
      <trkpt lat="43.98162" lon="3.80705">
        <ele>617</ele>
        <time>2019-03-12T11:31:03.258Z</time>
      </trkpt>
      <trkpt lat="43.98165" lon="3.80707">
        <ele>617</ele>
        <time>2019-03-12T11:31:07.263Z</time>
      </trkpt>
      <trkpt lat="43.98166" lon="3.80709">
        <ele>610</ele>
        <time>2019-03-12T11:31:11.281Z</time>
      </trkpt>
      <trkpt lat="43.9817" lon="3.8071">
        <ele>610</ele>
        <time>2019-03-12T11:31:16.283Z</time>
      </trkpt>
      <trkpt lat="43.98172" lon="3.80711">
        <ele>610</ele>
        <time>2019-03-12T11:31:21.264Z</time>
      </trkpt>
      <trkpt lat="43.98176" lon="3.80711">
        <ele>610</ele>
        <time>2019-03-12T11:31:26.261Z</time>
      </trkpt>
      <trkpt lat="43.9818" lon="3.80712">
        <ele>610</ele>
        <time>2019-03-12T11:31:30.263Z</time>
      </trkpt>
      <trkpt lat="43.98183" lon="3.80712">
        <ele>614</ele>
        <time>2019-03-12T11:31:35.268Z</time>
      </trkpt>
      <trkpt lat="43.98186" lon="3.80712">
        <ele>614</ele>
        <time>2019-03-12T11:31:40.282Z</time>
      </trkpt>
      <trkpt lat="43.98192" lon="3.80711">
        <ele>614</ele>
        <time>2019-03-12T11:31:45.260Z</time>
      </trkpt>
      <trkpt lat="43.98199" lon="3.80712">
        <ele>614</ele>
        <time>2019-03-12T11:31:50.259Z</time>
      </trkpt>
      <trkpt lat="43.98205" lon="3.80712">
        <ele>614</ele>
        <time>2019-03-12T11:31:55.281Z</time>
      </trkpt>
      <trkpt lat="43.98212" lon="3.80715">
        <ele>620</ele>
        <time>2019-03-12T11:32:00.280Z</time>
      </trkpt>
      <trkpt lat="43.98217" lon="3.80718">
        <ele>620</ele>
        <time>2019-03-12T11:32:05.252Z</time>
      </trkpt>
      <trkpt lat="43.98223" lon="3.8072">
        <ele>620</ele>
        <time>2019-03-12T11:32:10.251Z</time>
      </trkpt>
      <trkpt lat="43.98227" lon="3.80722">
        <ele>620</ele>
        <time>2019-03-12T11:32:14.281Z</time>
      </trkpt>
      <trkpt lat="43.98232" lon="3.80725">
        <ele>620</ele>
        <time>2019-03-12T11:32:19.252Z</time>
      </trkpt>
      <trkpt lat="43.98236" lon="3.80728">
        <ele>627</ele>
        <time>2019-03-12T11:32:23.286Z</time>
      </trkpt>
      <trkpt lat="43.98239" lon="3.80732">
        <ele>627</ele>
        <time>2019-03-12T11:32:28.255Z</time>
      </trkpt>
      <trkpt lat="43.98241" lon="3.80734">
        <ele>627</ele>
        <time>2019-03-12T11:32:32.257Z</time>
      </trkpt>
      <trkpt lat="43.98243" lon="3.80737">
        <ele>620</ele>
        <time>2019-03-12T11:32:36.317Z</time>
      </trkpt>
      <trkpt lat="43.98246" lon="3.80742">
        <ele>620</ele>
        <time>2019-03-12T11:32:41.259Z</time>
      </trkpt>
      <trkpt lat="43.98249" lon="3.80748">
        <ele>620</ele>
        <time>2019-03-12T11:32:45.266Z</time>
      </trkpt>
      <trkpt lat="43.98255" lon="3.80756">
        <ele>620</ele>
        <time>2019-03-12T11:32:50.295Z</time>
      </trkpt>
      <trkpt lat="43.98259" lon="3.80761">
        <ele>620</ele>
        <time>2019-03-12T11:32:55.269Z</time>
      </trkpt>
      <trkpt lat="43.98262" lon="3.80764">
        <ele>620</ele>
        <time>2019-03-12T11:33:00.264Z</time>
      </trkpt>
      <trkpt lat="43.98266" lon="3.80761">
        <ele>622</ele>
        <time>2019-03-12T11:33:05.282Z</time>
      </trkpt>
      <trkpt lat="43.9827" lon="3.8076">
        <ele>622</ele>
        <time>2019-03-12T11:33:10.252Z</time>
      </trkpt>
      <trkpt lat="43.98272" lon="3.80756">
        <ele>622</ele>
        <time>2019-03-12T11:33:14.268Z</time>
      </trkpt>
      <trkpt lat="43.9827" lon="3.8075">
        <ele>622</ele>
        <time>2019-03-12T11:33:19.286Z</time>
      </trkpt>
      <trkpt lat="43.98268" lon="3.80741">
        <ele>622</ele>
        <time>2019-03-12T11:33:24.283Z</time>
      </trkpt>
      <trkpt lat="43.98267" lon="3.80735">
        <ele>628</ele>
        <time>2019-03-12T11:33:28.284Z</time>
      </trkpt>
      <trkpt lat="43.98265" lon="3.80726">
        <ele>628</ele>
        <time>2019-03-12T11:33:33.263Z</time>
      </trkpt>
      <trkpt lat="43.98262" lon="3.80722">
        <ele>627</ele>
        <time>2019-03-12T11:33:38.284Z</time>
      </trkpt>
      <trkpt lat="43.9826" lon="3.80716">
        <ele>627</ele>
        <time>2019-03-12T11:33:43.291Z</time>
      </trkpt>
      <trkpt lat="43.98258" lon="3.80709">
        <ele>627</ele>
        <time>2019-03-12T11:33:48.291Z</time>
      </trkpt>
      <trkpt lat="43.98255" lon="3.80704">
        <ele>637</ele>
        <time>2019-03-12T11:33:53.263Z</time>
      </trkpt>
      <trkpt lat="43.98254" lon="3.80698">
        <ele>637</ele>
        <time>2019-03-12T11:33:58.281Z</time>
      </trkpt>
      <trkpt lat="43.98251" lon="3.80692">
        <ele>637</ele>
        <time>2019-03-12T11:34:03.244Z</time>
      </trkpt>
      <trkpt lat="43.98251" lon="3.80687">
        <ele>637</ele>
        <time>2019-03-12T11:34:07.286Z</time>
      </trkpt>
      <trkpt lat="43.9825" lon="3.80682">
        <ele>637</ele>
        <time>2019-03-12T11:34:12.261Z</time>
      </trkpt>
      <trkpt lat="43.9825" lon="3.80677">
        <ele>649</ele>
        <time>2019-03-12T11:34:16.264Z</time>
      </trkpt>
      <trkpt lat="43.98248" lon="3.80671">
        <ele>649</ele>
        <time>2019-03-12T11:34:20.294Z</time>
      </trkpt>
      <trkpt lat="43.98243" lon="3.80665">
        <ele>649</ele>
        <time>2019-03-12T11:34:25.260Z</time>
      </trkpt>
      <trkpt lat="43.98236" lon="3.80653">
        <ele>649</ele>
        <time>2019-03-12T11:34:29.262Z</time>
      </trkpt>
      <trkpt lat="43.98229" lon="3.80644">
        <ele>652</ele>
        <time>2019-03-12T11:34:33.274Z</time>
      </trkpt>
      <trkpt lat="43.98224" lon="3.8064">
        <ele>652</ele>
        <time>2019-03-12T11:34:37.297Z</time>
      </trkpt>
      <trkpt lat="43.98216" lon="3.80639">
        <ele>652</ele>
        <time>2019-03-12T11:34:42.259Z</time>
      </trkpt>
      <trkpt lat="43.98207" lon="3.80636">
        <ele>644</ele>
        <time>2019-03-12T11:34:47.253Z</time>
      </trkpt>
      <trkpt lat="43.98198" lon="3.80633">
        <ele>644</ele>
        <time>2019-03-12T11:34:51.282Z</time>
      </trkpt>
      <trkpt lat="43.98193" lon="3.8063">
        <ele>644</ele>
        <time>2019-03-12T11:34:55.285Z</time>
      </trkpt>
      <trkpt lat="43.98189" lon="3.80627">
        <ele>644</ele>
        <time>2019-03-12T11:34:59.286Z</time>
      </trkpt>
      <trkpt lat="43.98183" lon="3.80622">
        <ele>651</ele>
        <time>2019-03-12T11:35:04.282Z</time>
      </trkpt>
      <trkpt lat="43.98175" lon="3.80615">
        <ele>640</ele>
        <time>2019-03-12T11:35:13.289Z</time>
      </trkpt>
      <trkpt lat="43.98174" lon="3.80614">
        <ele>640</ele>
        <time>2019-03-12T11:35:18.254Z</time>
      </trkpt>
      <trkpt lat="43.98174" lon="3.80612">
        <ele>640</ele>
        <time>2019-03-12T11:35:22.284Z</time>
      </trkpt>
      <trkpt lat="43.98172" lon="3.8061">
        <ele>640</ele>
        <time>2019-03-12T11:35:27.261Z</time>
      </trkpt>
      <trkpt lat="43.98171" lon="3.80607">
        <ele>640</ele>
        <time>2019-03-12T11:35:32.256Z</time>
      </trkpt>
      <trkpt lat="43.9817" lon="3.80603">
        <ele>640</ele>
        <time>2019-03-12T11:35:36.281Z</time>
      </trkpt>
      <trkpt lat="43.98169" lon="3.80598">
        <ele>640</ele>
        <time>2019-03-12T11:35:41.262Z</time>
      </trkpt>
      <trkpt lat="43.98168" lon="3.8059">
        <ele>644</ele>
        <time>2019-03-12T11:35:46.253Z</time>
      </trkpt>
      <trkpt lat="43.98167" lon="3.80585">
        <ele>644</ele>
        <time>2019-03-12T11:35:50.281Z</time>
      </trkpt>
      <trkpt lat="43.98167" lon="3.80578">
        <ele>644</ele>
        <time>2019-03-12T11:35:55.253Z</time>
      </trkpt>
      <trkpt lat="43.98165" lon="3.80574">
        <ele>644</ele>
        <time>2019-03-12T11:35:59.284Z</time>
      </trkpt>
      <trkpt lat="43.98166" lon="3.80565">
        <ele>646</ele>
        <time>2019-03-12T11:36:04.254Z</time>
      </trkpt>
      <trkpt lat="43.98168" lon="3.80558">
        <ele>646</ele>
        <time>2019-03-12T11:36:08.282Z</time>
      </trkpt>
      <trkpt lat="43.98171" lon="3.8055">
        <ele>646</ele>
        <time>2019-03-12T11:36:13.257Z</time>
      </trkpt>
      <trkpt lat="43.98173" lon="3.80544">
        <ele>646</ele>
        <time>2019-03-12T11:36:18.253Z</time>
      </trkpt>
      <trkpt lat="43.98175" lon="3.80536">
        <ele>646</ele>
        <time>2019-03-12T11:36:23.253Z</time>
      </trkpt>
      <trkpt lat="43.98173" lon="3.80526">
        <ele>646</ele>
        <time>2019-03-12T11:36:28.253Z</time>
      </trkpt>
      <trkpt lat="43.98174" lon="3.8052">
        <ele>646</ele>
        <time>2019-03-12T11:36:32.259Z</time>
      </trkpt>
      <trkpt lat="43.98174" lon="3.80512">
        <ele>646</ele>
        <time>2019-03-12T11:36:37.293Z</time>
      </trkpt>
      <trkpt lat="43.98176" lon="3.80506">
        <ele>646</ele>
        <time>2019-03-12T11:36:42.257Z</time>
      </trkpt>
      <trkpt lat="43.98176" lon="3.80498">
        <ele>646</ele>
        <time>2019-03-12T11:36:47.253Z</time>
      </trkpt>
      <trkpt lat="43.98176" lon="3.80488">
        <ele>646</ele>
        <time>2019-03-12T11:36:52.251Z</time>
      </trkpt>
      <trkpt lat="43.98177" lon="3.8048">
        <ele>645</ele>
        <time>2019-03-12T11:36:56.262Z</time>
      </trkpt>
      <trkpt lat="43.98179" lon="3.80473">
        <ele>645</ele>
        <time>2019-03-12T11:37:01.270Z</time>
      </trkpt>
      <trkpt lat="43.9818" lon="3.80464">
        <ele>645</ele>
        <time>2019-03-12T11:37:06.265Z</time>
      </trkpt>
      <trkpt lat="43.98179" lon="3.80458">
        <ele>646</ele>
        <time>2019-03-12T11:37:10.267Z</time>
      </trkpt>
      <trkpt lat="43.98178" lon="3.8045">
        <ele>646</ele>
        <time>2019-03-12T11:37:15.260Z</time>
      </trkpt>
      <trkpt lat="43.98178" lon="3.80445">
        <ele>646</ele>
        <time>2019-03-12T11:37:19.266Z</time>
      </trkpt>
      <trkpt lat="43.98175" lon="3.80435">
        <ele>646</ele>
        <time>2019-03-12T11:37:24.262Z</time>
      </trkpt>
      <trkpt lat="43.98174" lon="3.8043">
        <ele>647</ele>
        <time>2019-03-12T11:37:28.293Z</time>
      </trkpt>
      <trkpt lat="43.98173" lon="3.8042">
        <ele>647</ele>
        <time>2019-03-12T11:37:33.254Z</time>
      </trkpt>
      <trkpt lat="43.98174" lon="3.80411">
        <ele>647</ele>
        <time>2019-03-12T11:37:37.257Z</time>
      </trkpt>
      <trkpt lat="43.98173" lon="3.80403">
        <ele>648</ele>
        <time>2019-03-12T11:37:42.252Z</time>
      </trkpt>
      <trkpt lat="43.98174" lon="3.80396">
        <ele>648</ele>
        <time>2019-03-12T11:37:46.252Z</time>
      </trkpt>
      <trkpt lat="43.98173" lon="3.80387">
        <ele>648</ele>
        <time>2019-03-12T11:37:51.252Z</time>
      </trkpt>
      <trkpt lat="43.98172" lon="3.80379">
        <ele>648</ele>
        <time>2019-03-12T11:37:56.257Z</time>
      </trkpt>
      <trkpt lat="43.98171" lon="3.80371">
        <ele>650</ele>
        <time>2019-03-12T11:38:01.255Z</time>
      </trkpt>
      <trkpt lat="43.98171" lon="3.80364">
        <ele>650</ele>
        <time>2019-03-12T11:38:05.291Z</time>
      </trkpt>
      <trkpt lat="43.9817" lon="3.80356">
        <ele>650</ele>
        <time>2019-03-12T11:38:10.289Z</time>
      </trkpt>
      <trkpt lat="43.98169" lon="3.8035">
        <ele>650</ele>
        <time>2019-03-12T11:38:15.262Z</time>
      </trkpt>
      <trkpt lat="43.98169" lon="3.80341">
        <ele>651</ele>
        <time>2019-03-12T11:38:20.260Z</time>
      </trkpt>
      <trkpt lat="43.98168" lon="3.80334">
        <ele>651</ele>
        <time>2019-03-12T11:38:24.260Z</time>
      </trkpt>
      <trkpt lat="43.98169" lon="3.80325">
        <ele>651</ele>
        <time>2019-03-12T11:38:29.294Z</time>
      </trkpt>
      <trkpt lat="43.98169" lon="3.80318">
        <ele>656</ele>
        <time>2019-03-12T11:38:34.258Z</time>
      </trkpt>
      <trkpt lat="43.98168" lon="3.80312">
        <ele>656</ele>
        <time>2019-03-12T11:38:38.264Z</time>
      </trkpt>
      <trkpt lat="43.98167" lon="3.80303">
        <ele>656</ele>
        <time>2019-03-12T11:38:43.265Z</time>
      </trkpt>
      <trkpt lat="43.98167" lon="3.80294">
        <ele>656</ele>
        <time>2019-03-12T11:38:48.263Z</time>
      </trkpt>
      <trkpt lat="43.98167" lon="3.80287">
        <ele>658</ele>
        <time>2019-03-12T11:38:52.265Z</time>
      </trkpt>
      <trkpt lat="43.98166" lon="3.80279">
        <ele>658</ele>
        <time>2019-03-12T11:38:57.265Z</time>
      </trkpt>
      <trkpt lat="43.98165" lon="3.80271">
        <ele>658</ele>
        <time>2019-03-12T11:39:02.254Z</time>
      </trkpt>
      <trkpt lat="43.98165" lon="3.80264">
        <ele>658</ele>
        <time>2019-03-12T11:39:07.256Z</time>
      </trkpt>
      <trkpt lat="43.98167" lon="3.80259">
        <ele>660</ele>
        <time>2019-03-12T11:39:11.281Z</time>
      </trkpt>
      <trkpt lat="43.9817" lon="3.80256">
        <ele>660</ele>
        <time>2019-03-12T11:39:16.283Z</time>
      </trkpt>
      <trkpt lat="43.98171" lon="3.80261">
        <ele>660</ele>
        <time>2019-03-12T11:39:21.253Z</time>
      </trkpt>
      <trkpt lat="43.98171" lon="3.80264">
        <ele>658</ele>
        <time>2019-03-12T11:39:25.284Z</time>
      </trkpt>
      <trkpt lat="43.98166" lon="3.8027">
        <ele>658</ele>
        <time>2019-03-12T11:39:30.253Z</time>
      </trkpt>
      <trkpt lat="43.98164" lon="3.80277">
        <ele>658</ele>
        <time>2019-03-12T11:39:34.262Z</time>
      </trkpt>
      <trkpt lat="43.98163" lon="3.80285">
        <ele>658</ele>
        <time>2019-03-12T11:39:39.264Z</time>
      </trkpt>
      <trkpt lat="43.98162" lon="3.80294">
        <ele>656</ele>
        <time>2019-03-12T11:39:44.263Z</time>
      </trkpt>
      <trkpt lat="43.98163" lon="3.803">
        <ele>656</ele>
        <time>2019-03-12T11:39:49.260Z</time>
      </trkpt>
      <trkpt lat="43.98163" lon="3.80307">
        <ele>656</ele>
        <time>2019-03-12T11:39:53.265Z</time>
      </trkpt>
      <trkpt lat="43.98166" lon="3.80315">
        <ele>656</ele>
        <time>2019-03-12T11:39:58.264Z</time>
      </trkpt>
      <trkpt lat="43.98169" lon="3.80322">
        <ele>651</ele>
        <time>2019-03-12T11:40:03.263Z</time>
      </trkpt>
      <trkpt lat="43.98172" lon="3.80329">
        <ele>651</ele>
        <time>2019-03-12T11:40:08.255Z</time>
      </trkpt>
      <trkpt lat="43.98175" lon="3.80334">
        <ele>651</ele>
        <time>2019-03-12T11:40:12.251Z</time>
      </trkpt>
      <trkpt lat="43.98178" lon="3.8034">
        <ele>651</ele>
        <time>2019-03-12T11:40:16.253Z</time>
      </trkpt>
      <trkpt lat="43.9818" lon="3.80348">
        <ele>650</ele>
        <time>2019-03-12T11:40:21.251Z</time>
      </trkpt>
      <trkpt lat="43.9818" lon="3.80356">
        <ele>650</ele>
        <time>2019-03-12T11:40:25.254Z</time>
      </trkpt>
      <trkpt lat="43.9818" lon="3.80362">
        <ele>650</ele>
        <time>2019-03-12T11:40:29.292Z</time>
      </trkpt>
      <trkpt lat="43.98184" lon="3.80369">
        <ele>662</ele>
        <time>2019-03-12T11:40:34.264Z</time>
      </trkpt>
      <trkpt lat="43.98187" lon="3.80374">
        <ele>662</ele>
        <time>2019-03-12T11:40:38.283Z</time>
      </trkpt>
      <trkpt lat="43.98189" lon="3.80382">
        <ele>660</ele>
        <time>2019-03-12T11:40:43.258Z</time>
      </trkpt>
      <trkpt lat="43.9819" lon="3.80388">
        <ele>660</ele>
        <time>2019-03-12T11:40:47.259Z</time>
      </trkpt>
      <trkpt lat="43.9819" lon="3.80394">
        <ele>660</ele>
        <time>2019-03-12T11:40:52.280Z</time>
      </trkpt>
      <trkpt lat="43.98191" lon="3.80405">
        <ele>659</ele>
        <time>2019-03-12T11:40:57.252Z</time>
      </trkpt>
      <trkpt lat="43.98191" lon="3.80412">
        <ele>659</ele>
        <time>2019-03-12T11:41:01.253Z</time>
      </trkpt>
      <trkpt lat="43.98193" lon="3.80418">
        <ele>659</ele>
        <time>2019-03-12T11:41:05.283Z</time>
      </trkpt>
      <trkpt lat="43.98196" lon="3.80424">
        <ele>659</ele>
        <time>2019-03-12T11:41:09.285Z</time>
      </trkpt>
      <trkpt lat="43.98198" lon="3.80429">
        <ele>659</ele>
        <time>2019-03-12T11:41:14.251Z</time>
      </trkpt>
      <trkpt lat="43.98197" lon="3.80436">
        <ele>657</ele>
        <time>2019-03-12T11:41:18.258Z</time>
      </trkpt>
      <trkpt lat="43.982" lon="3.80442">
        <ele>657</ele>
        <time>2019-03-12T11:41:22.284Z</time>
      </trkpt>
      <trkpt lat="43.98202" lon="3.80446">
        <ele>657</ele>
        <time>2019-03-12T11:41:27.294Z</time>
      </trkpt>
      <trkpt lat="43.98204" lon="3.80451">
        <ele>657</ele>
        <time>2019-03-12T11:41:32.260Z</time>
      </trkpt>
      <trkpt lat="43.98206" lon="3.80458">
        <ele>656</ele>
        <time>2019-03-12T11:41:36.264Z</time>
      </trkpt>
      <trkpt lat="43.98208" lon="3.80467">
        <ele>666</ele>
        <time>2019-03-12T11:41:40.278Z</time>
      </trkpt>
      <trkpt lat="43.98213" lon="3.80472">
        <ele>666</ele>
        <time>2019-03-12T11:41:44.295Z</time>
      </trkpt>
      <trkpt lat="43.98215" lon="3.80479">
        <ele>666</ele>
        <time>2019-03-12T11:41:49.260Z</time>
      </trkpt>
      <trkpt lat="43.98219" lon="3.80486">
        <ele>666</ele>
        <time>2019-03-12T11:41:54.257Z</time>
      </trkpt>
      <trkpt lat="43.98223" lon="3.80492">
        <ele>665</ele>
        <time>2019-03-12T11:41:58.262Z</time>
      </trkpt>
      <trkpt lat="43.98227" lon="3.80497">
        <ele>665</ele>
        <time>2019-03-12T11:42:03.255Z</time>
      </trkpt>
      <trkpt lat="43.98232" lon="3.80502">
        <ele>665</ele>
        <time>2019-03-12T11:42:08.253Z</time>
      </trkpt>
      <trkpt lat="43.98237" lon="3.80506">
        <ele>670</ele>
        <time>2019-03-12T11:42:13.286Z</time>
      </trkpt>
      <trkpt lat="43.98243" lon="3.80509">
        <ele>670</ele>
        <time>2019-03-12T11:42:18.252Z</time>
      </trkpt>
      <trkpt lat="43.98246" lon="3.8051">
        <ele>670</ele>
        <time>2019-03-12T11:42:22.263Z</time>
      </trkpt>
      <trkpt lat="43.98251" lon="3.80512">
        <ele>670</ele>
        <time>2019-03-12T11:42:27.272Z</time>
      </trkpt>
      <trkpt lat="43.98257" lon="3.80513">
        <ele>670</ele>
        <time>2019-03-12T11:42:32.264Z</time>
      </trkpt>
      <trkpt lat="43.98261" lon="3.80514">
        <ele>670</ele>
        <time>2019-03-12T11:42:36.266Z</time>
      </trkpt>
      <trkpt lat="43.98267" lon="3.80515">
        <ele>670</ele>
        <time>2019-03-12T11:42:41.260Z</time>
      </trkpt>
      <trkpt lat="43.98274" lon="3.80514">
        <ele>670</ele>
        <time>2019-03-12T11:42:46.258Z</time>
      </trkpt>
      <trkpt lat="43.98284" lon="3.80508">
        <ele>670</ele>
        <time>2019-03-12T11:42:51.252Z</time>
      </trkpt>
      <trkpt lat="43.98293" lon="3.80502">
        <ele>669</ele>
        <time>2019-03-12T11:42:55.283Z</time>
      </trkpt>
      <trkpt lat="43.98301" lon="3.80492">
        <ele>669</ele>
        <time>2019-03-12T11:43:00.257Z</time>
      </trkpt>
      <trkpt lat="43.98306" lon="3.80485">
        <ele>670</ele>
        <time>2019-03-12T11:43:05.249Z</time>
      </trkpt>
      <trkpt lat="43.9831" lon="3.80481">
        <ele>670</ele>
        <time>2019-03-12T11:43:09.282Z</time>
      </trkpt>
      <trkpt lat="43.98315" lon="3.80475">
        <ele>670</ele>
        <time>2019-03-12T11:43:14.287Z</time>
      </trkpt>
      <trkpt lat="43.9832" lon="3.80468">
        <ele>666</ele>
        <time>2019-03-12T11:43:19.286Z</time>
      </trkpt>
      <trkpt lat="43.98324" lon="3.80462">
        <ele>666</ele>
        <time>2019-03-12T11:43:24.255Z</time>
      </trkpt>
      <trkpt lat="43.98327" lon="3.80456">
        <ele>668</ele>
        <time>2019-03-12T11:43:28.262Z</time>
      </trkpt>
      <trkpt lat="43.98331" lon="3.80451">
        <ele>668</ele>
        <time>2019-03-12T11:43:33.247Z</time>
      </trkpt>
      <trkpt lat="43.98333" lon="3.80446">
        <ele>668</ele>
        <time>2019-03-12T11:43:37.267Z</time>
      </trkpt>
      <trkpt lat="43.98336" lon="3.8044">
        <ele>668</ele>
        <time>2019-03-12T11:43:42.267Z</time>
      </trkpt>
      <trkpt lat="43.98336" lon="3.80432">
        <ele>668</ele>
        <time>2019-03-12T11:43:47.255Z</time>
      </trkpt>
      <trkpt lat="43.98333" lon="3.80429">
        <ele>673</ele>
        <time>2019-03-12T11:43:51.252Z</time>
      </trkpt>
      <trkpt lat="43.98328" lon="3.80425">
        <ele>673</ele>
        <time>2019-03-12T11:43:55.286Z</time>
      </trkpt>
      <trkpt lat="43.9832" lon="3.80424">
        <ele>673</ele>
        <time>2019-03-12T11:44:00.259Z</time>
      </trkpt>
      <trkpt lat="43.98312" lon="3.80425">
        <ele>676</ele>
        <time>2019-03-12T11:44:04.285Z</time>
      </trkpt>
      <trkpt lat="43.98305" lon="3.80426">
        <ele>676</ele>
        <time>2019-03-12T11:44:09.253Z</time>
      </trkpt>
      <trkpt lat="43.98301" lon="3.80427">
        <ele>676</ele>
        <time>2019-03-12T11:44:13.255Z</time>
      </trkpt>
      <trkpt lat="43.98297" lon="3.80428">
        <ele>676</ele>
        <time>2019-03-12T11:44:17.285Z</time>
      </trkpt>
      <trkpt lat="43.9829" lon="3.80428">
        <ele>679</ele>
        <time>2019-03-12T11:44:22.253Z</time>
      </trkpt>
      <trkpt lat="43.98285" lon="3.80426">
        <ele>679</ele>
        <time>2019-03-12T11:44:26.287Z</time>
      </trkpt>
      <trkpt lat="43.98281" lon="3.80423">
        <ele>679</ele>
        <time>2019-03-12T11:44:31.285Z</time>
      </trkpt>
      <trkpt lat="43.9828" lon="3.80419">
        <ele>679</ele>
        <time>2019-03-12T11:44:36.284Z</time>
      </trkpt>
      <trkpt lat="43.98279" lon="3.80415">
        <ele>679</ele>
        <time>2019-03-12T11:44:41.290Z</time>
      </trkpt>
      <trkpt lat="43.98279" lon="3.8041">
        <ele>679</ele>
        <time>2019-03-12T11:44:46.269Z</time>
      </trkpt>
      <trkpt lat="43.98278" lon="3.80403">
        <ele>679</ele>
        <time>2019-03-12T11:44:51.286Z</time>
      </trkpt>
      <trkpt lat="43.98278" lon="3.80398">
        <ele>684</ele>
        <time>2019-03-12T11:44:55.293Z</time>
      </trkpt>
      <trkpt lat="43.98277" lon="3.80393">
        <ele>684</ele>
        <time>2019-03-12T11:45:00.255Z</time>
      </trkpt>
      <trkpt lat="43.98277" lon="3.80387">
        <ele>684</ele>
        <time>2019-03-12T11:45:04.270Z</time>
      </trkpt>
      <trkpt lat="43.98276" lon="3.8038">
        <ele>684</ele>
        <time>2019-03-12T11:45:08.294Z</time>
      </trkpt>
      <trkpt lat="43.98275" lon="3.80373">
        <ele>690</ele>
        <time>2019-03-12T11:45:13.266Z</time>
      </trkpt>
      <trkpt lat="43.98272" lon="3.80367">
        <ele>690</ele>
        <time>2019-03-12T11:45:17.265Z</time>
      </trkpt>
      <trkpt lat="43.98271" lon="3.8036">
        <ele>690</ele>
        <time>2019-03-12T11:45:21.284Z</time>
      </trkpt>
      <trkpt lat="43.9827" lon="3.80354">
        <ele>690</ele>
        <time>2019-03-12T11:45:26.264Z</time>
      </trkpt>
      <trkpt lat="43.98269" lon="3.80349">
        <ele>690</ele>
        <time>2019-03-12T11:45:31.245Z</time>
      </trkpt>
      <trkpt lat="43.98268" lon="3.80343">
        <ele>695</ele>
        <time>2019-03-12T11:45:35.253Z</time>
      </trkpt>
      <trkpt lat="43.98268" lon="3.80337">
        <ele>695</ele>
        <time>2019-03-12T11:45:39.263Z</time>
      </trkpt>
      <trkpt lat="43.98267" lon="3.80331">
        <ele>695</ele>
        <time>2019-03-12T11:45:44.271Z</time>
      </trkpt>
      <trkpt lat="43.98266" lon="3.80326">
        <ele>695</ele>
        <time>2019-03-12T11:45:48.303Z</time>
      </trkpt>
      <trkpt lat="43.98267" lon="3.80321">
        <ele>695</ele>
        <time>2019-03-12T11:45:53.279Z</time>
      </trkpt>
      <trkpt lat="43.98266" lon="3.80313">
        <ele>697</ele>
        <time>2019-03-12T11:45:58.263Z</time>
      </trkpt>
      <trkpt lat="43.98266" lon="3.80305">
        <ele>697</ele>
        <time>2019-03-12T11:46:03.266Z</time>
      </trkpt>
      <trkpt lat="43.98265" lon="3.80297">
        <ele>697</ele>
        <time>2019-03-12T11:46:08.264Z</time>
      </trkpt>
      <trkpt lat="43.98265" lon="3.8029">
        <ele>702</ele>
        <time>2019-03-12T11:46:12.286Z</time>
      </trkpt>
      <trkpt lat="43.98265" lon="3.80283">
        <ele>702</ele>
        <time>2019-03-12T11:46:17.284Z</time>
      </trkpt>
      <trkpt lat="43.98265" lon="3.80276">
        <ele>702</ele>
        <time>2019-03-12T11:46:22.284Z</time>
      </trkpt>
      <trkpt lat="43.98267" lon="3.80268">
        <ele>702</ele>
        <time>2019-03-12T11:46:26.292Z</time>
      </trkpt>
      <trkpt lat="43.98268" lon="3.80259">
        <ele>704</ele>
        <time>2019-03-12T11:46:31.259Z</time>
      </trkpt>
      <trkpt lat="43.98269" lon="3.80253">
        <ele>704</ele>
        <time>2019-03-12T11:46:35.268Z</time>
      </trkpt>
      <trkpt lat="43.98269" lon="3.80247">
        <ele>704</ele>
        <time>2019-03-12T11:46:40.260Z</time>
      </trkpt>
      <trkpt lat="43.98271" lon="3.80238">
        <ele>704</ele>
        <time>2019-03-12T11:46:45.253Z</time>
      </trkpt>
      <trkpt lat="43.98272" lon="3.80228">
        <ele>705</ele>
        <time>2019-03-12T11:46:49.290Z</time>
      </trkpt>
      <trkpt lat="43.98272" lon="3.80217">
        <ele>705</ele>
        <time>2019-03-12T11:46:54.241Z</time>
      </trkpt>
      <trkpt lat="43.9827" lon="3.8021">
        <ele>705</ele>
        <time>2019-03-12T11:46:58.245Z</time>
      </trkpt>
      <trkpt lat="43.98269" lon="3.80204">
        <ele>705</ele>
        <time>2019-03-12T11:47:02.262Z</time>
      </trkpt>
      <trkpt lat="43.98269" lon="3.80194">
        <ele>705</ele>
        <time>2019-03-12T11:47:07.262Z</time>
      </trkpt>
      <trkpt lat="43.98272" lon="3.80188">
        <ele>705</ele>
        <time>2019-03-12T11:47:12.267Z</time>
      </trkpt>
      <trkpt lat="43.98275" lon="3.8018">
        <ele>702</ele>
        <time>2019-03-12T11:47:17.256Z</time>
      </trkpt>
      <trkpt lat="43.98277" lon="3.80174">
        <ele>702</ele>
        <time>2019-03-12T11:47:21.264Z</time>
      </trkpt>
      <trkpt lat="43.98279" lon="3.80169">
        <ele>702</ele>
        <time>2019-03-12T11:47:25.286Z</time>
      </trkpt>
      <trkpt lat="43.98281" lon="3.80161">
        <ele>702</ele>
        <time>2019-03-12T11:47:30.255Z</time>
      </trkpt>
      <trkpt lat="43.98283" lon="3.80156">
        <ele>702</ele>
        <time>2019-03-12T11:47:34.254Z</time>
      </trkpt>
      <trkpt lat="43.98286" lon="3.8015">
        <ele>700</ele>
        <time>2019-03-12T11:47:39.253Z</time>
      </trkpt>
      <trkpt lat="43.98288" lon="3.80144">
        <ele>700</ele>
        <time>2019-03-12T11:47:43.258Z</time>
      </trkpt>
      <trkpt lat="43.98289" lon="3.80138">
        <ele>700</ele>
        <time>2019-03-12T11:47:47.292Z</time>
      </trkpt>
      <trkpt lat="43.9829" lon="3.80132">
        <ele>700</ele>
        <time>2019-03-12T11:47:52.254Z</time>
      </trkpt>
      <trkpt lat="43.98292" lon="3.80126">
        <ele>700</ele>
        <time>2019-03-12T11:47:56.255Z</time>
      </trkpt>
      <trkpt lat="43.98293" lon="3.80121">
        <ele>708</ele>
        <time>2019-03-12T11:48:00.285Z</time>
      </trkpt>
      <trkpt lat="43.98295" lon="3.80115">
        <ele>708</ele>
        <time>2019-03-12T11:48:05.275Z</time>
      </trkpt>
      <trkpt lat="43.98298" lon="3.8011">
        <ele>708</ele>
        <time>2019-03-12T11:48:10.262Z</time>
      </trkpt>
      <trkpt lat="43.983" lon="3.80104">
        <ele>708</ele>
        <time>2019-03-12T11:48:15.253Z</time>
      </trkpt>
      <trkpt lat="43.98303" lon="3.80102">
        <ele>708</ele>
        <time>2019-03-12T11:48:19.261Z</time>
      </trkpt>
      <trkpt lat="43.98305" lon="3.80098">
        <ele>708</ele>
        <time>2019-03-12T11:48:23.262Z</time>
      </trkpt>
      <trkpt lat="43.98307" lon="3.80093">
        <ele>705</ele>
        <time>2019-03-12T11:48:28.264Z</time>
      </trkpt>
      <trkpt lat="43.9831" lon="3.80088">
        <ele>705</ele>
        <time>2019-03-12T11:48:33.270Z</time>
      </trkpt>
      <trkpt lat="43.98311" lon="3.80085">
        <ele>705</ele>
        <time>2019-03-12T11:48:38.299Z</time>
      </trkpt>
      <trkpt lat="43.98315" lon="3.80083">
        <ele>705</ele>
        <time>2019-03-12T11:48:43.263Z</time>
      </trkpt>
      <trkpt lat="43.98321" lon="3.80079">
        <ele>714</ele>
        <time>2019-03-12T11:48:48.269Z</time>
      </trkpt>
      <trkpt lat="43.98325" lon="3.80077">
        <ele>714</ele>
        <time>2019-03-12T11:48:52.306Z</time>
      </trkpt>
      <trkpt lat="43.98329" lon="3.80075">
        <ele>714</ele>
        <time>2019-03-12T11:48:57.260Z</time>
      </trkpt>
      <trkpt lat="43.98332" lon="3.80072">
        <ele>714</ele>
        <time>2019-03-12T11:49:02.270Z</time>
      </trkpt>
      <trkpt lat="43.98334" lon="3.80071">
        <ele>714</ele>
        <time>2019-03-12T11:49:07.285Z</time>
      </trkpt>
      <trkpt lat="43.98338" lon="3.80068">
        <ele>709</ele>
        <time>2019-03-12T11:49:12.258Z</time>
      </trkpt>
      <trkpt lat="43.98343" lon="3.80064">
        <ele>709</ele>
        <time>2019-03-12T11:49:17.289Z</time>
      </trkpt>
      <trkpt lat="43.98347" lon="3.80063">
        <ele>717</ele>
        <time>2019-03-12T11:49:22.255Z</time>
      </trkpt>
      <trkpt lat="43.98354" lon="3.80064">
        <ele>717</ele>
        <time>2019-03-12T11:49:26.290Z</time>
      </trkpt>
      <trkpt lat="43.98355" lon="3.80063">
        <ele>717</ele>
        <time>2019-03-12T11:49:31.257Z</time>
      </trkpt>
      <trkpt lat="43.98359" lon="3.80057">
        <ele>717</ele>
        <time>2019-03-12T11:49:35.270Z</time>
      </trkpt>
      <trkpt lat="43.98364" lon="3.80053">
        <ele>717</ele>
        <time>2019-03-12T11:49:40.287Z</time>
      </trkpt>
      <trkpt lat="43.98368" lon="3.80049">
        <ele>717</ele>
        <time>2019-03-12T11:49:45.265Z</time>
      </trkpt>
      <trkpt lat="43.98373" lon="3.80047">
        <ele>717</ele>
        <time>2019-03-12T11:49:49.287Z</time>
      </trkpt>
      <trkpt lat="43.98377" lon="3.80045">
        <ele>722</ele>
        <time>2019-03-12T11:49:54.265Z</time>
      </trkpt>
      <trkpt lat="43.98381" lon="3.80042">
        <ele>722</ele>
        <time>2019-03-12T11:49:59.264Z</time>
      </trkpt>
      <trkpt lat="43.98385" lon="3.80038">
        <ele>718</ele>
        <time>2019-03-12T11:50:04.260Z</time>
      </trkpt>
      <trkpt lat="43.98389" lon="3.80034">
        <ele>718</ele>
        <time>2019-03-12T11:50:09.256Z</time>
      </trkpt>
      <trkpt lat="43.98392" lon="3.80031">
        <ele>718</ele>
        <time>2019-03-12T11:50:13.289Z</time>
      </trkpt>
      <trkpt lat="43.98397" lon="3.80027">
        <ele>718</ele>
        <time>2019-03-12T11:50:18.286Z</time>
      </trkpt>
      <trkpt lat="43.98401" lon="3.80023">
        <ele>718</ele>
        <time>2019-03-12T11:50:23.257Z</time>
      </trkpt>
      <trkpt lat="43.98404" lon="3.8002">
        <ele>722</ele>
        <time>2019-03-12T11:50:27.253Z</time>
      </trkpt>
      <trkpt lat="43.98407" lon="3.80018">
        <ele>722</ele>
        <time>2019-03-12T11:50:31.291Z</time>
      </trkpt>
      <trkpt lat="43.98412" lon="3.80016">
        <ele>722</ele>
        <time>2019-03-12T11:50:36.262Z</time>
      </trkpt>
      <trkpt lat="43.98417" lon="3.80014">
        <ele>720</ele>
        <time>2019-03-12T11:50:40.264Z</time>
      </trkpt>
      <trkpt lat="43.98423" lon="3.80008">
        <ele>720</ele>
        <time>2019-03-12T11:50:45.300Z</time>
      </trkpt>
      <trkpt lat="43.98428" lon="3.80002">
        <ele>720</ele>
        <time>2019-03-12T11:50:50.311Z</time>
      </trkpt>
      <trkpt lat="43.98433" lon="3.79994">
        <ele>725</ele>
        <time>2019-03-12T11:50:55.274Z</time>
      </trkpt>
      <trkpt lat="43.98438" lon="3.79987">
        <ele>725</ele>
        <time>2019-03-12T11:50:59.286Z</time>
      </trkpt>
      <trkpt lat="43.98441" lon="3.79977">
        <ele>727</ele>
        <time>2019-03-12T11:51:04.262Z</time>
      </trkpt>
      <trkpt lat="43.98443" lon="3.79969">
        <ele>727</ele>
        <time>2019-03-12T11:51:08.287Z</time>
      </trkpt>
      <trkpt lat="43.98443" lon="3.79957">
        <ele>727</ele>
        <time>2019-03-12T11:51:13.287Z</time>
      </trkpt>
      <trkpt lat="43.98439" lon="3.79944">
        <ele>727</ele>
        <time>2019-03-12T11:51:18.262Z</time>
      </trkpt>
      <trkpt lat="43.98436" lon="3.79939">
        <ele>727</ele>
        <time>2019-03-12T11:51:22.270Z</time>
      </trkpt>
      <trkpt lat="43.98432" lon="3.79941">
        <ele>727</ele>
        <time>2019-03-12T11:51:31.283Z</time>
      </trkpt>
      <trkpt lat="43.9842" lon="3.79942">
        <ele>718</ele>
        <time>2019-03-12T11:51:36.265Z</time>
      </trkpt>
      <trkpt lat="43.98422" lon="3.79943">
        <ele>718</ele>
        <time>2019-03-12T11:51:40.267Z</time>
      </trkpt>
      <trkpt lat="43.98426" lon="3.79948">
        <ele>718</ele>
        <time>2019-03-12T11:51:45.288Z</time>
      </trkpt>
      <trkpt lat="43.98429" lon="3.79953">
        <ele>718</ele>
        <time>2019-03-12T11:51:50.266Z</time>
      </trkpt>
      <trkpt lat="43.98431" lon="3.79957">
        <ele>727</ele>
        <time>2019-03-12T11:51:54.264Z</time>
      </trkpt>
      <trkpt lat="43.98433" lon="3.79964">
        <ele>727</ele>
        <time>2019-03-12T11:51:59.264Z</time>
      </trkpt>
      <trkpt lat="43.98436" lon="3.79973">
        <ele>727</ele>
        <time>2019-03-12T11:52:04.257Z</time>
      </trkpt>
      <trkpt lat="43.98437" lon="3.7998">
        <ele>727</ele>
        <time>2019-03-12T11:52:08.285Z</time>
      </trkpt>
      <trkpt lat="43.98437" lon="3.79986">
        <ele>727</ele>
        <time>2019-03-12T11:52:13.290Z</time>
      </trkpt>
      <trkpt lat="43.98437" lon="3.79995">
        <ele>725</ele>
        <time>2019-03-12T11:52:18.264Z</time>
      </trkpt>
      <trkpt lat="43.98438" lon="3.80005">
        <ele>725</ele>
        <time>2019-03-12T11:52:23.285Z</time>
      </trkpt>
      <trkpt lat="43.98439" lon="3.80011">
        <ele>725</ele>
        <time>2019-03-12T11:52:28.265Z</time>
      </trkpt>
      <trkpt lat="43.9844" lon="3.8002">
        <ele>725</ele>
        <time>2019-03-12T11:52:33.280Z</time>
      </trkpt>
      <trkpt lat="43.98442" lon="3.80026">
        <ele>725</ele>
        <time>2019-03-12T11:52:37.293Z</time>
      </trkpt>
      <trkpt lat="43.98442" lon="3.80033">
        <ele>725</ele>
        <time>2019-03-12T11:52:42.261Z</time>
      </trkpt>
      <trkpt lat="43.98441" lon="3.80039">
        <ele>725</ele>
        <time>2019-03-12T11:52:46.286Z</time>
      </trkpt>
      <trkpt lat="43.98442" lon="3.80045">
        <ele>725</ele>
        <time>2019-03-12T11:52:50.287Z</time>
      </trkpt>
      <trkpt lat="43.98443" lon="3.80051">
        <ele>725</ele>
        <time>2019-03-12T11:52:54.290Z</time>
      </trkpt>
      <trkpt lat="43.98444" lon="3.80059">
        <ele>725</ele>
        <time>2019-03-12T11:52:59.254Z</time>
      </trkpt>
      <trkpt lat="43.98445" lon="3.80068">
        <ele>725</ele>
        <time>2019-03-12T11:53:04.268Z</time>
      </trkpt>
      <trkpt lat="43.98447" lon="3.80075">
        <ele>727</ele>
        <time>2019-03-12T11:53:09.262Z</time>
      </trkpt>
      <trkpt lat="43.9845" lon="3.80078">
        <ele>727</ele>
        <time>2019-03-12T11:53:13.303Z</time>
      </trkpt>
      <trkpt lat="43.98454" lon="3.80081">
        <ele>727</ele>
        <time>2019-03-12T11:53:18.265Z</time>
      </trkpt>
      <trkpt lat="43.98455" lon="3.80085">
        <ele>727</ele>
        <time>2019-03-12T11:53:22.267Z</time>
      </trkpt>
      <trkpt lat="43.98458" lon="3.80091">
        <ele>727</ele>
        <time>2019-03-12T11:53:27.286Z</time>
      </trkpt>
      <trkpt lat="43.9846" lon="3.80093">
        <ele>728</ele>
        <time>2019-03-12T11:53:32.289Z</time>
      </trkpt>
      <trkpt lat="43.98466" lon="3.80098">
        <ele>731</ele>
        <time>2019-03-12T11:53:37.254Z</time>
      </trkpt>
      <trkpt lat="43.9847" lon="3.80103">
        <ele>731</ele>
        <time>2019-03-12T11:53:41.287Z</time>
      </trkpt>
      <trkpt lat="43.98472" lon="3.80108">
        <ele>731</ele>
        <time>2019-03-12T11:53:45.287Z</time>
      </trkpt>
      <trkpt lat="43.98477" lon="3.80116">
        <ele>731</ele>
        <time>2019-03-12T11:53:50.287Z</time>
      </trkpt>
      <trkpt lat="43.98483" lon="3.80124">
        <ele>731</ele>
        <time>2019-03-12T11:53:55.253Z</time>
      </trkpt>
      <trkpt lat="43.98488" lon="3.80132">
        <ele>734</ele>
        <time>2019-03-12T11:53:59.272Z</time>
      </trkpt>
      <trkpt lat="43.98495" lon="3.8014">
        <ele>734</ele>
        <time>2019-03-12T11:54:04.261Z</time>
      </trkpt>
      <trkpt lat="43.98499" lon="3.80145">
        <ele>734</ele>
        <time>2019-03-12T11:54:08.260Z</time>
      </trkpt>
      <trkpt lat="43.98504" lon="3.80151">
        <ele>734</ele>
        <time>2019-03-12T11:54:13.265Z</time>
      </trkpt>
      <trkpt lat="43.98509" lon="3.80156">
        <ele>732</ele>
        <time>2019-03-12T11:54:18.270Z</time>
      </trkpt>
      <trkpt lat="43.98512" lon="3.80159">
        <ele>732</ele>
        <time>2019-03-12T11:54:22.270Z</time>
      </trkpt>
      <trkpt lat="43.98516" lon="3.80164">
        <ele>736</ele>
        <time>2019-03-12T11:54:27.288Z</time>
      </trkpt>
      <trkpt lat="43.98521" lon="3.80168">
        <ele>736</ele>
        <time>2019-03-12T11:54:32.265Z</time>
      </trkpt>
      <trkpt lat="43.98528" lon="3.80173">
        <ele>736</ele>
        <time>2019-03-12T11:54:37.262Z</time>
      </trkpt>
      <trkpt lat="43.98532" lon="3.80176">
        <ele>736</ele>
        <time>2019-03-12T11:54:41.290Z</time>
      </trkpt>
      <trkpt lat="43.98539" lon="3.8018">
        <ele>736</ele>
        <time>2019-03-12T11:54:46.285Z</time>
      </trkpt>
      <trkpt lat="43.98545" lon="3.80182">
        <ele>737</ele>
        <time>2019-03-12T11:54:51.289Z</time>
      </trkpt>
      <trkpt lat="43.98548" lon="3.80187">
        <ele>737</ele>
        <time>2019-03-12T11:54:56.255Z</time>
      </trkpt>
      <trkpt lat="43.98552" lon="3.80192">
        <ele>737</ele>
        <time>2019-03-12T11:55:00.256Z</time>
      </trkpt>
      <trkpt lat="43.98557" lon="3.80199">
        <ele>737</ele>
        <time>2019-03-12T11:55:05.261Z</time>
      </trkpt>
      <trkpt lat="43.98559" lon="3.80205">
        <ele>737</ele>
        <time>2019-03-12T11:55:09.265Z</time>
      </trkpt>
      <trkpt lat="43.98566" lon="3.80211">
        <ele>733</ele>
        <time>2019-03-12T11:55:14.276Z</time>
      </trkpt>
      <trkpt lat="43.98571" lon="3.80216">
        <ele>735</ele>
        <time>2019-03-12T11:55:18.294Z</time>
      </trkpt>
      <trkpt lat="43.98577" lon="3.80221">
        <ele>735</ele>
        <time>2019-03-12T11:55:23.263Z</time>
      </trkpt>
      <trkpt lat="43.9858" lon="3.80225">
        <ele>735</ele>
        <time>2019-03-12T11:55:27.298Z</time>
      </trkpt>
      <trkpt lat="43.98584" lon="3.80229">
        <ele>735</ele>
        <time>2019-03-12T11:55:32.284Z</time>
      </trkpt>
      <trkpt lat="43.98588" lon="3.80233">
        <ele>735</ele>
        <time>2019-03-12T11:55:36.286Z</time>
      </trkpt>
      <trkpt lat="43.98594" lon="3.80238">
        <ele>731</ele>
        <time>2019-03-12T11:55:41.286Z</time>
      </trkpt>
      <trkpt lat="43.986" lon="3.8024">
        <ele>731</ele>
        <time>2019-03-12T11:55:46.261Z</time>
      </trkpt>
      <trkpt lat="43.98605" lon="3.80242">
        <ele>731</ele>
        <time>2019-03-12T11:55:51.257Z</time>
      </trkpt>
      <trkpt lat="43.98611" lon="3.80243">
        <ele>731</ele>
        <time>2019-03-12T11:55:55.261Z</time>
      </trkpt>
      <trkpt lat="43.98615" lon="3.80244">
        <ele>731</ele>
        <time>2019-03-12T11:55:59.267Z</time>
      </trkpt>
      <trkpt lat="43.98619" lon="3.80243">
        <ele>731</ele>
        <time>2019-03-12T11:56:03.289Z</time>
      </trkpt>
      <trkpt lat="43.98626" lon="3.80241">
        <ele>731</ele>
        <time>2019-03-12T11:56:08.258Z</time>
      </trkpt>
      <trkpt lat="43.9863" lon="3.8024">
        <ele>731</ele>
        <time>2019-03-12T11:56:12.268Z</time>
      </trkpt>
      <trkpt lat="43.98635" lon="3.80238">
        <ele>731</ele>
        <time>2019-03-12T11:56:16.295Z</time>
      </trkpt>
      <trkpt lat="43.98639" lon="3.80237">
        <ele>731</ele>
        <time>2019-03-12T11:56:21.288Z</time>
      </trkpt>
      <trkpt lat="43.98648" lon="3.80235">
        <ele>738</ele>
        <time>2019-03-12T11:56:26.285Z</time>
      </trkpt>
      <trkpt lat="43.98654" lon="3.80232">
        <ele>738</ele>
        <time>2019-03-12T11:56:30.289Z</time>
      </trkpt>
      <trkpt lat="43.98658" lon="3.8023">
        <ele>738</ele>
        <time>2019-03-12T11:56:35.265Z</time>
      </trkpt>
      <trkpt lat="43.98663" lon="3.80229">
        <ele>738</ele>
        <time>2019-03-12T11:56:40.271Z</time>
      </trkpt>
      <trkpt lat="43.98668" lon="3.8023">
        <ele>738</ele>
        <time>2019-03-12T11:56:44.275Z</time>
      </trkpt>
      <trkpt lat="43.98672" lon="3.80231">
        <ele>738</ele>
        <time>2019-03-12T11:56:49.257Z</time>
      </trkpt>
      <trkpt lat="43.98676" lon="3.80233">
        <ele>738</ele>
        <time>2019-03-12T11:56:53.267Z</time>
      </trkpt>
      <trkpt lat="43.98682" lon="3.80234">
        <ele>739</ele>
        <time>2019-03-12T11:56:58.274Z</time>
      </trkpt>
      <trkpt lat="43.98687" lon="3.80235">
        <ele>739</ele>
        <time>2019-03-12T11:57:03.283Z</time>
      </trkpt>
      <trkpt lat="43.98692" lon="3.80237">
        <ele>729</ele>
        <time>2019-03-12T11:57:08.283Z</time>
      </trkpt>
      <trkpt lat="43.98698" lon="3.80238">
        <ele>729</ele>
        <time>2019-03-12T11:57:13.267Z</time>
      </trkpt>
      <trkpt lat="43.98705" lon="3.8024">
        <ele>729</ele>
        <time>2019-03-12T11:57:17.291Z</time>
      </trkpt>
      <trkpt lat="43.98715" lon="3.80242">
        <ele>734</ele>
        <time>2019-03-12T11:57:22.259Z</time>
      </trkpt>
      <trkpt lat="43.9872" lon="3.80243">
        <ele>734</ele>
        <time>2019-03-12T11:57:26.288Z</time>
      </trkpt>
      <trkpt lat="43.98725" lon="3.80245">
        <ele>734</ele>
        <time>2019-03-12T11:57:31.253Z</time>
      </trkpt>
      <trkpt lat="43.98729" lon="3.80246">
        <ele>734</ele>
        <time>2019-03-12T11:57:35.288Z</time>
      </trkpt>
      <trkpt lat="43.98734" lon="3.80247">
        <ele>734</ele>
        <time>2019-03-12T11:57:40.290Z</time>
      </trkpt>
      <trkpt lat="43.9874" lon="3.80248">
        <ele>740</ele>
        <time>2019-03-12T11:57:45.266Z</time>
      </trkpt>
      <trkpt lat="43.98744" lon="3.80249">
        <ele>740</ele>
        <time>2019-03-12T11:57:50.257Z</time>
      </trkpt>
      <trkpt lat="43.98749" lon="3.80249">
        <ele>740</ele>
        <time>2019-03-12T11:57:54.262Z</time>
      </trkpt>
      <trkpt lat="43.98756" lon="3.80251">
        <ele>740</ele>
        <time>2019-03-12T11:57:59.262Z</time>
      </trkpt>
      <trkpt lat="43.98762" lon="3.80251">
        <ele>740</ele>
        <time>2019-03-12T11:58:04.245Z</time>
      </trkpt>
      <trkpt lat="43.98767" lon="3.80253">
        <ele>749</ele>
        <time>2019-03-12T11:58:08.261Z</time>
      </trkpt>
      <trkpt lat="43.98772" lon="3.80255">
        <ele>749</ele>
        <time>2019-03-12T11:58:13.290Z</time>
      </trkpt>
      <trkpt lat="43.98777" lon="3.80258">
        <ele>749</ele>
        <time>2019-03-12T11:58:18.288Z</time>
      </trkpt>
      <trkpt lat="43.98781" lon="3.80263">
        <ele>749</ele>
        <time>2019-03-12T11:58:23.290Z</time>
      </trkpt>
      <trkpt lat="43.98786" lon="3.80267">
        <ele>740</ele>
        <time>2019-03-12T11:58:28.265Z</time>
      </trkpt>
      <trkpt lat="43.98791" lon="3.8027">
        <ele>740</ele>
        <time>2019-03-12T11:58:33.260Z</time>
      </trkpt>
      <trkpt lat="43.98795" lon="3.80272">
        <ele>749</ele>
        <time>2019-03-12T11:58:37.270Z</time>
      </trkpt>
      <trkpt lat="43.98798" lon="3.80274">
        <ele>749</ele>
        <time>2019-03-12T11:58:41.285Z</time>
      </trkpt>
      <trkpt lat="43.98801" lon="3.80278">
        <ele>749</ele>
        <time>2019-03-12T11:58:46.264Z</time>
      </trkpt>
      <trkpt lat="43.98804" lon="3.8028">
        <ele>749</ele>
        <time>2019-03-12T11:58:50.280Z</time>
      </trkpt>
      <trkpt lat="43.98808" lon="3.80284">
        <ele>749</ele>
        <time>2019-03-12T11:58:55.291Z</time>
      </trkpt>
      <trkpt lat="43.98811" lon="3.80288">
        <ele>749</ele>
        <time>2019-03-12T11:58:59.297Z</time>
      </trkpt>
      <trkpt lat="43.98817" lon="3.80291">
        <ele>749</ele>
        <time>2019-03-12T11:59:04.269Z</time>
      </trkpt>
      <trkpt lat="43.98822" lon="3.80296">
        <ele>751</ele>
        <time>2019-03-12T11:59:09.275Z</time>
      </trkpt>
      <trkpt lat="43.98827" lon="3.80301">
        <ele>751</ele>
        <time>2019-03-12T11:59:14.257Z</time>
      </trkpt>
      <trkpt lat="43.98831" lon="3.80306">
        <ele>751</ele>
        <time>2019-03-12T11:59:18.287Z</time>
      </trkpt>
      <trkpt lat="43.98835" lon="3.80309">
        <ele>751</ele>
        <time>2019-03-12T11:59:22.289Z</time>
      </trkpt>
      <trkpt lat="43.9884" lon="3.80313">
        <ele>751</ele>
        <time>2019-03-12T11:59:27.289Z</time>
      </trkpt>
      <trkpt lat="43.98846" lon="3.80317">
        <ele>751</ele>
        <time>2019-03-12T11:59:32.293Z</time>
      </trkpt>
      <trkpt lat="43.98851" lon="3.80321">
        <ele>752</ele>
        <time>2019-03-12T11:59:37.266Z</time>
      </trkpt>
      <trkpt lat="43.98855" lon="3.80324">
        <ele>752</ele>
        <time>2019-03-12T11:59:41.301Z</time>
      </trkpt>
      <trkpt lat="43.98859" lon="3.80328">
        <ele>752</ele>
        <time>2019-03-12T11:59:46.283Z</time>
      </trkpt>
      <trkpt lat="43.98863" lon="3.80332">
        <ele>752</ele>
        <time>2019-03-12T11:59:51.268Z</time>
      </trkpt>
      <trkpt lat="43.98866" lon="3.80336">
        <ele>752</ele>
        <time>2019-03-12T11:59:55.298Z</time>
      </trkpt>
      <trkpt lat="43.98867" lon="3.80337">
        <ele>752</ele>
        <time>2019-03-12T12:00:00.288Z</time>
      </trkpt>
      <trkpt lat="43.98869" lon="3.80336">
        <ele>752</ele>
        <time>2019-03-12T12:00:19.246Z</time>
      </trkpt>
      <trkpt lat="43.98873" lon="3.80335">
        <ele>752</ele>
        <time>2019-03-12T12:00:24.259Z</time>
      </trkpt>
      <trkpt lat="43.98877" lon="3.80335">
        <ele>761</ele>
        <time>2019-03-12T12:00:28.289Z</time>
      </trkpt>
      <trkpt lat="43.98881" lon="3.80337">
        <ele>761</ele>
        <time>2019-03-12T12:00:33.267Z</time>
      </trkpt>
      <trkpt lat="43.98885" lon="3.80338">
        <ele>761</ele>
        <time>2019-03-12T12:00:38.264Z</time>
      </trkpt>
      <trkpt lat="43.98887" lon="3.80341">
        <ele>761</ele>
        <time>2019-03-12T12:00:42.285Z</time>
      </trkpt>
      <trkpt lat="43.98889" lon="3.80346">
        <ele>761</ele>
        <time>2019-03-12T12:00:47.267Z</time>
      </trkpt>
      <trkpt lat="43.98891" lon="3.80351">
        <ele>753</ele>
        <time>2019-03-12T12:00:52.258Z</time>
      </trkpt>
      <trkpt lat="43.98892" lon="3.80355">
        <ele>753</ele>
        <time>2019-03-12T12:00:56.287Z</time>
      </trkpt>
      <trkpt lat="43.98896" lon="3.8036">
        <ele>753</ele>
        <time>2019-03-12T12:01:01.286Z</time>
      </trkpt>
      <trkpt lat="43.989" lon="3.80366">
        <ele>753</ele>
        <time>2019-03-12T12:01:06.286Z</time>
      </trkpt>
      <trkpt lat="43.98903" lon="3.80371">
        <ele>753</ele>
        <time>2019-03-12T12:01:10.289Z</time>
      </trkpt>
      <trkpt lat="43.98907" lon="3.80377">
        <ele>755</ele>
        <time>2019-03-12T12:01:15.285Z</time>
      </trkpt>
      <trkpt lat="43.98909" lon="3.80382">
        <ele>755</ele>
        <time>2019-03-12T12:01:20.263Z</time>
      </trkpt>
      <trkpt lat="43.98912" lon="3.80387">
        <ele>755</ele>
        <time>2019-03-12T12:01:25.261Z</time>
      </trkpt>
      <trkpt lat="43.98914" lon="3.80392">
        <ele>755</ele>
        <time>2019-03-12T12:01:29.266Z</time>
      </trkpt>
      <trkpt lat="43.98916" lon="3.80397">
        <ele>755</ele>
        <time>2019-03-12T12:01:33.275Z</time>
      </trkpt>
      <trkpt lat="43.98919" lon="3.80402">
        <ele>755</ele>
        <time>2019-03-12T12:01:37.288Z</time>
      </trkpt>
      <trkpt lat="43.98924" lon="3.80408">
        <ele>751</ele>
        <time>2019-03-12T12:01:42.258Z</time>
      </trkpt>
      <trkpt lat="43.98927" lon="3.80413">
        <ele>751</ele>
        <time>2019-03-12T12:01:46.268Z</time>
      </trkpt>
      <trkpt lat="43.98931" lon="3.80418">
        <ele>751</ele>
        <time>2019-03-12T12:01:51.269Z</time>
      </trkpt>
      <trkpt lat="43.98932" lon="3.80427">
        <ele>763</ele>
        <time>2019-03-12T12:01:56.290Z</time>
      </trkpt>
      <trkpt lat="43.98933" lon="3.80433">
        <ele>761</ele>
        <time>2019-03-12T12:02:01.293Z</time>
      </trkpt>
      <trkpt lat="43.98935" lon="3.80439">
        <ele>761</ele>
        <time>2019-03-12T12:02:06.262Z</time>
      </trkpt>
      <trkpt lat="43.98938" lon="3.8044">
        <ele>761</ele>
        <time>2019-03-12T12:02:11.245Z</time>
      </trkpt>
      <trkpt lat="43.9894" lon="3.80441">
        <ele>761</ele>
        <time>2019-03-12T12:02:15.277Z</time>
      </trkpt>
      <trkpt lat="43.98942" lon="3.80446">
        <ele>761</ele>
        <time>2019-03-12T12:02:25.250Z</time>
      </trkpt>
      <trkpt lat="43.98947" lon="3.80453">
        <ele>761</ele>
        <time>2019-03-12T12:02:29.286Z</time>
      </trkpt>
      <trkpt lat="43.9895" lon="3.80458">
        <ele>760</ele>
        <time>2019-03-12T12:02:34.270Z</time>
      </trkpt>
      <trkpt lat="43.9895" lon="3.80463">
        <ele>760</ele>
        <time>2019-03-12T12:02:39.264Z</time>
      </trkpt>
      <trkpt lat="43.9895" lon="3.80468">
        <ele>760</ele>
        <time>2019-03-12T12:02:43.291Z</time>
      </trkpt>
      <trkpt lat="43.98949" lon="3.80474">
        <ele>760</ele>
        <time>2019-03-12T12:02:48.265Z</time>
      </trkpt>
      <trkpt lat="43.98948" lon="3.80479">
        <ele>760</ele>
        <time>2019-03-12T12:02:52.274Z</time>
      </trkpt>
      <trkpt lat="43.98948" lon="3.80486">
        <ele>760</ele>
        <time>2019-03-12T12:02:57.290Z</time>
      </trkpt>
      <trkpt lat="43.98948" lon="3.80494">
        <ele>760</ele>
        <time>2019-03-12T12:03:02.254Z</time>
      </trkpt>
      <trkpt lat="43.98949" lon="3.805">
        <ele>760</ele>
        <time>2019-03-12T12:03:06.290Z</time>
      </trkpt>
      <trkpt lat="43.98949" lon="3.80506">
        <ele>760</ele>
        <time>2019-03-12T12:03:10.287Z</time>
      </trkpt>
      <trkpt lat="43.98948" lon="3.80513">
        <ele>760</ele>
        <time>2019-03-12T12:03:15.262Z</time>
      </trkpt>
      <trkpt lat="43.98949" lon="3.80519">
        <ele>760</ele>
        <time>2019-03-12T12:03:19.290Z</time>
      </trkpt>
      <trkpt lat="43.9895" lon="3.80525">
        <ele>760</ele>
        <time>2019-03-12T12:03:23.297Z</time>
      </trkpt>
      <trkpt lat="43.98954" lon="3.80532">
        <ele>760</ele>
        <time>2019-03-12T12:03:28.286Z</time>
      </trkpt>
      <trkpt lat="43.98957" lon="3.80539">
        <ele>760</ele>
        <time>2019-03-12T12:03:33.262Z</time>
      </trkpt>
      <trkpt lat="43.98958" lon="3.80544">
        <ele>773</ele>
        <time>2019-03-12T12:03:37.266Z</time>
      </trkpt>
      <trkpt lat="43.9896" lon="3.80549">
        <ele>773</ele>
        <time>2019-03-12T12:03:42.258Z</time>
      </trkpt>
      <trkpt lat="43.98961" lon="3.80553">
        <ele>773</ele>
        <time>2019-03-12T12:03:46.264Z</time>
      </trkpt>
      <trkpt lat="43.98962" lon="3.80557">
        <ele>773</ele>
        <time>2019-03-12T12:03:50.266Z</time>
      </trkpt>
      <trkpt lat="43.98962" lon="3.8056">
        <ele>773</ele>
        <time>2019-03-12T12:03:54.292Z</time>
      </trkpt>
      <trkpt lat="43.98963" lon="3.80563">
        <ele>773</ele>
        <time>2019-03-12T12:03:59.263Z</time>
      </trkpt>
      <trkpt lat="43.98964" lon="3.80565">
        <ele>773</ele>
        <time>2019-03-12T12:04:03.292Z</time>
      </trkpt>
      <trkpt lat="43.98967" lon="3.80572">
        <ele>770</ele>
        <time>2019-03-12T12:04:08.267Z</time>
      </trkpt>
      <trkpt lat="43.98969" lon="3.80579">
        <ele>770</ele>
        <time>2019-03-12T12:04:12.271Z</time>
      </trkpt>
      <trkpt lat="43.9897" lon="3.80585">
        <ele>770</ele>
        <time>2019-03-12T12:04:16.292Z</time>
      </trkpt>
      <trkpt lat="43.98971" lon="3.80588">
        <ele>770</ele>
        <time>2019-03-12T12:04:21.257Z</time>
      </trkpt>
      <trkpt lat="43.98973" lon="3.80594">
        <ele>770</ele>
        <time>2019-03-12T12:04:26.257Z</time>
      </trkpt>
      <trkpt lat="43.98977" lon="3.80599">
        <ele>768</ele>
        <time>2019-03-12T12:04:30.287Z</time>
      </trkpt>
      <trkpt lat="43.98978" lon="3.806">
        <ele>768</ele>
        <time>2019-03-12T12:04:35.245Z</time>
      </trkpt>
      <trkpt lat="43.98981" lon="3.80604">
        <ele>768</ele>
        <time>2019-03-12T12:04:48.253Z</time>
      </trkpt>
      <trkpt lat="43.98983" lon="3.8061">
        <ele>768</ele>
        <time>2019-03-12T12:04:52.260Z</time>
      </trkpt>
      <trkpt lat="43.98985" lon="3.80615">
        <ele>768</ele>
        <time>2019-03-12T12:04:57.249Z</time>
      </trkpt>
      <trkpt lat="43.98987" lon="3.80616">
        <ele>777</ele>
        <time>2019-03-12T12:05:01.280Z</time>
      </trkpt>
      <trkpt lat="43.98988" lon="3.80619">
        <ele>777</ele>
        <time>2019-03-12T12:05:05.251Z</time>
      </trkpt>
      <trkpt lat="43.98991" lon="3.80627">
        <ele>775</ele>
        <time>2019-03-12T12:05:11.273Z</time>
      </trkpt>
      <trkpt lat="43.98994" lon="3.80632">
        <ele>775</ele>
        <time>2019-03-12T12:05:15.284Z</time>
      </trkpt>
      <trkpt lat="43.98997" lon="3.80634">
        <ele>775</ele>
        <time>2019-03-12T12:05:19.291Z</time>
      </trkpt>
      <trkpt lat="43.98998" lon="3.80638">
        <ele>775</ele>
        <time>2019-03-12T12:05:24.256Z</time>
      </trkpt>
      <trkpt lat="43.99" lon="3.80641">
        <ele>775</ele>
        <time>2019-03-12T12:05:28.267Z</time>
      </trkpt>
      <trkpt lat="43.99002" lon="3.80643">
        <ele>775</ele>
        <time>2019-03-12T12:05:32.298Z</time>
      </trkpt>
      <trkpt lat="43.99004" lon="3.80647">
        <ele>775</ele>
        <time>2019-03-12T12:05:37.284Z</time>
      </trkpt>
      <trkpt lat="43.99006" lon="3.8065">
        <ele>775</ele>
        <time>2019-03-12T12:05:46.265Z</time>
      </trkpt>
      <trkpt lat="43.99015" lon="3.80659">
        <ele>784</ele>
        <time>2019-03-12T12:06:00.263Z</time>
      </trkpt>
      <trkpt lat="43.99017" lon="3.80664">
        <ele>784</ele>
        <time>2019-03-12T12:06:04.292Z</time>
      </trkpt>
      <trkpt lat="43.99021" lon="3.80669">
        <ele>784</ele>
        <time>2019-03-12T12:06:09.288Z</time>
      </trkpt>
      <trkpt lat="43.99026" lon="3.80673">
        <ele>784</ele>
        <time>2019-03-12T12:06:14.259Z</time>
      </trkpt>
      <trkpt lat="43.99027" lon="3.80676">
        <ele>784</ele>
        <time>2019-03-12T12:06:18.288Z</time>
      </trkpt>
      <trkpt lat="43.9903" lon="3.80679">
        <ele>784</ele>
        <time>2019-03-12T12:06:23.288Z</time>
      </trkpt>
      <trkpt lat="43.99031" lon="3.8068">
        <ele>784</ele>
        <time>2019-03-12T12:06:28.289Z</time>
      </trkpt>
      <trkpt lat="43.99033" lon="3.80684">
        <ele>780</ele>
        <time>2019-03-12T12:06:43.263Z</time>
      </trkpt>
      <trkpt lat="43.99044" lon="3.80694">
        <ele>789</ele>
        <time>2019-03-12T12:07:03.261Z</time>
      </trkpt>
      <trkpt lat="43.9905" lon="3.80701">
        <ele>789</ele>
        <time>2019-03-12T12:07:07.270Z</time>
      </trkpt>
      <trkpt lat="43.99054" lon="3.80705">
        <ele>789</ele>
        <time>2019-03-12T12:07:12.251Z</time>
      </trkpt>
      <trkpt lat="43.99062" lon="3.8071">
        <ele>787</ele>
        <time>2019-03-12T12:07:40.255Z</time>
      </trkpt>
      <trkpt lat="43.99069" lon="3.80714">
        <ele>787</ele>
        <time>2019-03-12T12:07:44.275Z</time>
      </trkpt>
      <trkpt lat="43.99073" lon="3.80717">
        <ele>794</ele>
        <time>2019-03-12T12:07:49.269Z</time>
      </trkpt>
      <trkpt lat="43.99078" lon="3.80723">
        <ele>794</ele>
        <time>2019-03-12T12:07:54.257Z</time>
      </trkpt>
      <trkpt lat="43.99082" lon="3.80727">
        <ele>794</ele>
        <time>2019-03-12T12:07:58.286Z</time>
      </trkpt>
      <trkpt lat="43.99084" lon="3.8073">
        <ele>794</ele>
        <time>2019-03-12T12:08:03.255Z</time>
      </trkpt>
      <trkpt lat="43.99084" lon="3.80733">
        <ele>794</ele>
        <time>2019-03-12T12:08:07.260Z</time>
      </trkpt>
      <trkpt lat="43.99087" lon="3.80734">
        <ele>794</ele>
        <time>2019-03-12T12:08:16.294Z</time>
      </trkpt>
      <trkpt lat="43.99088" lon="3.80734">
        <ele>794</ele>
        <time>2019-03-12T12:08:26.289Z</time>
      </trkpt>
      <trkpt lat="43.99092" lon="3.80731">
        <ele>794</ele>
        <time>2019-03-12T12:08:30.290Z</time>
      </trkpt>
      <trkpt lat="43.99093" lon="3.80731">
        <ele>794</ele>
        <time>2019-03-12T12:08:35.299Z</time>
      </trkpt>
      <trkpt lat="43.99095" lon="3.80732">
        <ele>794</ele>
        <time>2019-03-12T12:08:40.276Z</time>
      </trkpt>
      <trkpt lat="43.99097" lon="3.80733">
        <ele>794</ele>
        <time>2019-03-12T12:08:53.290Z</time>
      </trkpt>
      <trkpt lat="43.99098" lon="3.80732">
        <ele>798</ele>
        <time>2019-03-12T12:08:58.285Z</time>
      </trkpt>
      <trkpt lat="43.99099" lon="3.80731">
        <ele>798</ele>
        <time>2019-03-12T12:09:03.260Z</time>
      </trkpt>
      <trkpt lat="43.99099" lon="3.80728">
        <ele>798</ele>
        <time>2019-03-12T12:09:20.270Z</time>
      </trkpt>
      <trkpt lat="43.99101" lon="3.80722">
        <ele>798</ele>
        <time>2019-03-12T12:09:25.265Z</time>
      </trkpt>
      <trkpt lat="43.99103" lon="3.80702">
        <ele>802</ele>
        <time>2019-03-12T12:09:34.268Z</time>
      </trkpt>
      <trkpt lat="43.99104" lon="3.80693">
        <ele>802</ele>
        <time>2019-03-12T12:09:39.292Z</time>
      </trkpt>
      <trkpt lat="43.99103" lon="3.80692">
        <ele>802</ele>
        <time>2019-03-12T12:09:43.286Z</time>
      </trkpt>
      <trkpt lat="43.99101" lon="3.80687">
        <ele>802</ele>
        <time>2019-03-12T12:09:48.253Z</time>
      </trkpt>
      <trkpt lat="43.99107" lon="3.80679">
        <ele>805</ele>
        <time>2019-03-12T12:10:39.259Z</time>
      </trkpt>
      <trkpt lat="43.99107" lon="3.80676">
        <ele>805</ele>
        <time>2019-03-12T12:10:52.293Z</time>
      </trkpt>
      <trkpt lat="43.99108" lon="3.80668">
        <ele>805</ele>
        <time>2019-03-12T12:10:57.275Z</time>
      </trkpt>
      <trkpt lat="43.99107" lon="3.80662">
        <ele>805</ele>
        <time>2019-03-12T12:11:17.272Z</time>
      </trkpt>
      <trkpt lat="43.99108" lon="3.80657">
        <ele>805</ele>
        <time>2019-03-12T12:11:22.264Z</time>
      </trkpt>
      <trkpt lat="43.99109" lon="3.80648">
        <ele>809</ele>
        <time>2019-03-12T12:11:46.249Z</time>
      </trkpt>
      <trkpt lat="43.9911" lon="3.80645">
        <ele>809</ele>
        <time>2019-03-12T12:11:51.287Z</time>
      </trkpt>
      <trkpt lat="43.99113" lon="3.80645">
        <ele>809</ele>
        <time>2019-03-12T12:11:55.288Z</time>
      </trkpt>
      <trkpt lat="43.99118" lon="3.80642">
        <ele>809</ele>
        <time>2019-03-12T12:12:00.261Z</time>
      </trkpt>
      <trkpt lat="43.9912" lon="3.80634">
        <ele>809</ele>
        <time>2019-03-12T12:12:05.256Z</time>
      </trkpt>
      <trkpt lat="43.99122" lon="3.80631">
        <ele>809</ele>
        <time>2019-03-12T12:12:09.260Z</time>
      </trkpt>
      <trkpt lat="43.99125" lon="3.80628">
        <ele>809</ele>
        <time>2019-03-12T12:12:13.291Z</time>
      </trkpt>
      <trkpt lat="43.99128" lon="3.80622">
        <ele>808</ele>
        <time>2019-03-12T12:12:18.270Z</time>
      </trkpt>
      <trkpt lat="43.9913" lon="3.80618">
        <ele>808</ele>
        <time>2019-03-12T12:12:22.267Z</time>
      </trkpt>
      <trkpt lat="43.99133" lon="3.80617">
        <ele>808</ele>
        <time>2019-03-12T12:12:26.263Z</time>
      </trkpt>
      <trkpt lat="43.99136" lon="3.80613">
        <ele>808</ele>
        <time>2019-03-12T12:12:31.293Z</time>
      </trkpt>
      <trkpt lat="43.99138" lon="3.80612">
        <ele>808</ele>
        <time>2019-03-12T12:12:35.289Z</time>
      </trkpt>
      <trkpt lat="43.99139" lon="3.80608">
        <ele>808</ele>
        <time>2019-03-12T12:12:39.289Z</time>
      </trkpt>
      <trkpt lat="43.9914" lon="3.80604">
        <ele>808</ele>
        <time>2019-03-12T12:12:44.288Z</time>
      </trkpt>
      <trkpt lat="43.99141" lon="3.806">
        <ele>808</ele>
        <time>2019-03-12T12:12:49.248Z</time>
      </trkpt>
      <trkpt lat="43.99141" lon="3.80599">
        <ele>808</ele>
        <time>2019-03-12T12:12:58.279Z</time>
      </trkpt>
      <trkpt lat="43.9914" lon="3.80592">
        <ele>814</ele>
        <time>2019-03-12T12:13:03.286Z</time>
      </trkpt>
      <trkpt lat="43.99142" lon="3.80587">
        <ele>814</ele>
        <time>2019-03-12T12:13:08.288Z</time>
      </trkpt>
      <trkpt lat="43.99147" lon="3.80582">
        <ele>814</ele>
        <time>2019-03-12T12:13:13.300Z</time>
      </trkpt>
      <trkpt lat="43.99147" lon="3.80576">
        <ele>814</ele>
        <time>2019-03-12T12:13:18.287Z</time>
      </trkpt>
      <trkpt lat="43.9915" lon="3.80572">
        <ele>814</ele>
        <time>2019-03-12T12:13:23.288Z</time>
      </trkpt>
      <trkpt lat="43.99151" lon="3.80571">
        <ele>814</ele>
        <time>2019-03-12T12:13:28.244Z</time>
      </trkpt>
      <trkpt lat="43.9915" lon="3.80569">
        <ele>819</ele>
        <time>2019-03-12T12:19:01.250Z</time>
      </trkpt>
      <trkpt lat="43.99149" lon="3.80569">
        <ele>819</ele>
        <time>2019-03-12T12:35:25.266Z</time>
      </trkpt>
      <trkpt lat="43.99145" lon="3.80568">
        <ele>819</ele>
        <time>2019-03-12T12:35:29.268Z</time>
      </trkpt>
      <trkpt lat="43.99143" lon="3.80566">
        <ele>819</ele>
        <time>2019-03-12T12:35:34.266Z</time>
      </trkpt>
      <trkpt lat="43.99142" lon="3.80566">
        <ele>819</ele>
        <time>2019-03-12T12:35:38.266Z</time>
      </trkpt>
      <trkpt lat="43.99138" lon="3.80563">
        <ele>819</ele>
        <time>2019-03-12T12:35:43.273Z</time>
      </trkpt>
      <trkpt lat="43.99133" lon="3.80559">
        <ele>819</ele>
        <time>2019-03-12T12:35:48.269Z</time>
      </trkpt>
      <trkpt lat="43.9913" lon="3.80558">
        <ele>819</ele>
        <time>2019-03-12T12:35:53.274Z</time>
      </trkpt>
      <trkpt lat="43.99126" lon="3.80557">
        <ele>819</ele>
        <time>2019-03-12T12:35:57.273Z</time>
      </trkpt>
      <trkpt lat="43.99116" lon="3.80555">
        <ele>821</ele>
        <time>2019-03-12T12:40:40.266Z</time>
      </trkpt>
      <trkpt lat="43.99117" lon="3.80551">
        <ele>821</ele>
        <time>2019-03-12T12:40:45.289Z</time>
      </trkpt>
      <trkpt lat="43.99119" lon="3.80547">
        <ele>821</ele>
        <time>2019-03-12T12:40:50.294Z</time>
      </trkpt>
      <trkpt lat="43.99121" lon="3.80542">
        <ele>821</ele>
        <time>2019-03-12T12:40:55.289Z</time>
      </trkpt>
      <trkpt lat="43.99124" lon="3.8054">
        <ele>821</ele>
        <time>2019-03-12T12:41:00.257Z</time>
      </trkpt>
      <trkpt lat="43.99125" lon="3.80538">
        <ele>821</ele>
        <time>2019-03-12T12:41:09.266Z</time>
      </trkpt>
      <trkpt lat="43.99128" lon="3.80531">
        <ele>821</ele>
        <time>2019-03-12T12:41:13.265Z</time>
      </trkpt>
      <trkpt lat="43.99129" lon="3.80525">
        <ele>821</ele>
        <time>2019-03-12T12:41:17.298Z</time>
      </trkpt>
      <trkpt lat="43.99131" lon="3.8052">
        <ele>821</ele>
        <time>2019-03-12T12:41:22.266Z</time>
      </trkpt>
      <trkpt lat="43.99134" lon="3.80516">
        <ele>821</ele>
        <time>2019-03-12T12:41:26.277Z</time>
      </trkpt>
      <trkpt lat="43.99137" lon="3.80511">
        <ele>822</ele>
        <time>2019-03-12T12:41:31.266Z</time>
      </trkpt>
      <trkpt lat="43.99138" lon="3.80507">
        <ele>822</ele>
        <time>2019-03-12T12:41:35.285Z</time>
      </trkpt>
      <trkpt lat="43.99138" lon="3.80506">
        <ele>822</ele>
        <time>2019-03-12T12:42:04.253Z</time>
      </trkpt>
      <trkpt lat="43.99141" lon="3.80496">
        <ele>822</ele>
        <time>2019-03-12T12:42:08.287Z</time>
      </trkpt>
      <trkpt lat="43.99145" lon="3.80487">
        <ele>822</ele>
        <time>2019-03-12T12:42:13.260Z</time>
      </trkpt>
      <trkpt lat="43.99148" lon="3.80482">
        <ele>826</ele>
        <time>2019-03-12T12:42:17.260Z</time>
      </trkpt>
      <trkpt lat="43.99148" lon="3.80477">
        <ele>826</ele>
        <time>2019-03-12T12:42:21.301Z</time>
      </trkpt>
      <trkpt lat="43.99147" lon="3.80472">
        <ele>826</ele>
        <time>2019-03-12T12:42:26.294Z</time>
      </trkpt>
      <trkpt lat="43.99144" lon="3.80469">
        <ele>826</ele>
        <time>2019-03-12T12:42:35.286Z</time>
      </trkpt>
      <trkpt lat="43.99144" lon="3.80468">
        <ele>826</ele>
        <time>2019-03-12T12:42:40.285Z</time>
      </trkpt>
      <trkpt lat="43.99144" lon="3.80466">
        <ele>826</ele>
        <time>2019-03-12T12:43:12.247Z</time>
      </trkpt>
      <trkpt lat="43.99143" lon="3.80463">
        <ele>826</ele>
        <time>2019-03-12T12:43:15.243Z</time>
      </trkpt>
      <trkpt lat="43.99139" lon="3.80454">
        <ele>831</ele>
        <time>2019-03-12T12:43:21.258Z</time>
      </trkpt>
      <trkpt lat="43.99138" lon="3.80446">
        <ele>831</ele>
        <time>2019-03-12T12:43:31.287Z</time>
      </trkpt>
      <trkpt lat="43.9914" lon="3.80446">
        <ele>831</ele>
        <time>2019-03-12T12:43:36.257Z</time>
      </trkpt>
      <trkpt lat="43.99143" lon="3.80444">
        <ele>831</ele>
        <time>2019-03-12T12:43:40.287Z</time>
      </trkpt>
      <trkpt lat="43.99144" lon="3.80441">
        <ele>831</ele>
        <time>2019-03-12T12:43:45.285Z</time>
      </trkpt>
      <trkpt lat="43.99144" lon="3.80438">
        <ele>831</ele>
        <time>2019-03-12T12:43:49.286Z</time>
      </trkpt>
      <trkpt lat="43.99145" lon="3.80434">
        <ele>831</ele>
        <time>2019-03-12T12:43:54.257Z</time>
      </trkpt>
      <trkpt lat="43.99146" lon="3.80428">
        <ele>833</ele>
        <time>2019-03-12T12:44:03.268Z</time>
      </trkpt>
      <trkpt lat="43.9915" lon="3.80421">
        <ele>833</ele>
        <time>2019-03-12T12:44:08.266Z</time>
      </trkpt>
      <trkpt lat="43.99153" lon="3.80414">
        <ele>833</ele>
        <time>2019-03-12T12:44:13.272Z</time>
      </trkpt>
      <trkpt lat="43.99155" lon="3.80407">
        <ele>829</ele>
        <time>2019-03-12T12:44:18.277Z</time>
      </trkpt>
      <trkpt lat="43.99157" lon="3.80401">
        <ele>836</ele>
        <time>2019-03-12T12:44:22.296Z</time>
      </trkpt>
      <trkpt lat="43.99159" lon="3.80394">
        <ele>836</ele>
        <time>2019-03-12T12:44:27.271Z</time>
      </trkpt>
      <trkpt lat="43.9916" lon="3.80387">
        <ele>836</ele>
        <time>2019-03-12T12:44:32.262Z</time>
      </trkpt>
      <trkpt lat="43.99161" lon="3.80382">
        <ele>836</ele>
        <time>2019-03-12T12:44:36.289Z</time>
      </trkpt>
      <trkpt lat="43.99164" lon="3.80378">
        <ele>836</ele>
        <time>2019-03-12T12:44:41.260Z</time>
      </trkpt>
      <trkpt lat="43.99163" lon="3.80377">
        <ele>836</ele>
        <time>2019-03-12T12:44:46.284Z</time>
      </trkpt>
      <trkpt lat="43.99163" lon="3.80375">
        <ele>836</ele>
        <time>2019-03-12T12:44:51.255Z</time>
      </trkpt>
      <trkpt lat="43.99166" lon="3.80368">
        <ele>842</ele>
        <time>2019-03-12T12:44:56.247Z</time>
      </trkpt>
      <trkpt lat="43.99168" lon="3.80363">
        <ele>842</ele>
        <time>2019-03-12T12:45:00.260Z</time>
      </trkpt>
      <trkpt lat="43.99168" lon="3.8036">
        <ele>842</ele>
        <time>2019-03-12T12:45:04.267Z</time>
      </trkpt>
      <trkpt lat="43.99168" lon="3.80355">
        <ele>842</ele>
        <time>2019-03-12T12:45:09.269Z</time>
      </trkpt>
      <trkpt lat="43.99169" lon="3.80352">
        <ele>842</ele>
        <time>2019-03-12T12:45:13.301Z</time>
      </trkpt>
      <trkpt lat="43.99172" lon="3.80348">
        <ele>842</ele>
        <time>2019-03-12T12:45:17.301Z</time>
      </trkpt>
      <trkpt lat="43.99174" lon="3.80344">
        <ele>845</ele>
        <time>2019-03-12T12:45:22.258Z</time>
      </trkpt>
      <trkpt lat="43.99174" lon="3.8034">
        <ele>845</ele>
        <time>2019-03-12T12:45:26.296Z</time>
      </trkpt>
      <trkpt lat="43.99178" lon="3.80333">
        <ele>845</ele>
        <time>2019-03-12T12:45:31.261Z</time>
      </trkpt>
      <trkpt lat="43.99178" lon="3.80327">
        <ele>845</ele>
        <time>2019-03-12T12:45:36.259Z</time>
      </trkpt>
      <trkpt lat="43.99179" lon="3.80322">
        <ele>845</ele>
        <time>2019-03-12T12:45:40.287Z</time>
      </trkpt>
      <trkpt lat="43.99179" lon="3.80316">
        <ele>848</ele>
        <time>2019-03-12T12:45:44.289Z</time>
      </trkpt>
      <trkpt lat="43.9918" lon="3.80309">
        <ele>848</ele>
        <time>2019-03-12T12:45:49.259Z</time>
      </trkpt>
      <trkpt lat="43.99181" lon="3.80303">
        <ele>848</ele>
        <time>2019-03-12T12:45:53.267Z</time>
      </trkpt>
      <trkpt lat="43.99181" lon="3.80299">
        <ele>839</ele>
        <time>2019-03-12T12:46:25.250Z</time>
      </trkpt>
      <trkpt lat="43.9918" lon="3.8029">
        <ele>849</ele>
        <time>2019-03-12T12:46:31.289Z</time>
      </trkpt>
      <trkpt lat="43.99179" lon="3.80283">
        <ele>849</ele>
        <time>2019-03-12T12:46:36.266Z</time>
      </trkpt>
      <trkpt lat="43.99176" lon="3.80278">
        <ele>849</ele>
        <time>2019-03-12T12:46:40.267Z</time>
      </trkpt>
      <trkpt lat="43.99172" lon="3.80275">
        <ele>849</ele>
        <time>2019-03-12T12:46:45.260Z</time>
      </trkpt>
      <trkpt lat="43.99168" lon="3.80274">
        <ele>849</ele>
        <time>2019-03-12T12:46:49.288Z</time>
      </trkpt>
      <trkpt lat="43.99164" lon="3.80272">
        <ele>849</ele>
        <time>2019-03-12T12:46:54.286Z</time>
      </trkpt>
      <trkpt lat="43.99163" lon="3.8027">
        <ele>849</ele>
        <time>2019-03-12T12:46:59.264Z</time>
      </trkpt>
      <trkpt lat="43.9916" lon="3.80269">
        <ele>849</ele>
        <time>2019-03-12T12:47:07.265Z</time>
      </trkpt>
      <trkpt lat="43.99156" lon="3.80267">
        <ele>849</ele>
        <time>2019-03-12T12:47:12.256Z</time>
      </trkpt>
      <trkpt lat="43.99154" lon="3.80267">
        <ele>849</ele>
        <time>2019-03-12T12:47:17.273Z</time>
      </trkpt>
      <trkpt lat="43.99151" lon="3.80264">
        <ele>847</ele>
        <time>2019-03-12T12:47:22.263Z</time>
      </trkpt>
      <trkpt lat="43.99147" lon="3.80262">
        <ele>847</ele>
        <time>2019-03-12T12:47:26.278Z</time>
      </trkpt>
      <trkpt lat="43.99143" lon="3.80259">
        <ele>847</ele>
        <time>2019-03-12T12:47:31.265Z</time>
      </trkpt>
      <trkpt lat="43.9914" lon="3.80257">
        <ele>847</ele>
        <time>2019-03-12T12:47:36.259Z</time>
      </trkpt>
      <trkpt lat="43.99138" lon="3.80254">
        <ele>847</ele>
        <time>2019-03-12T12:47:40.287Z</time>
      </trkpt>
      <trkpt lat="43.99137" lon="3.80253">
        <ele>847</ele>
        <time>2019-03-12T12:47:45.260Z</time>
      </trkpt>
      <trkpt lat="43.99132" lon="3.8025">
        <ele>847</ele>
        <time>2019-03-12T12:47:50.256Z</time>
      </trkpt>
      <trkpt lat="43.99128" lon="3.80247">
        <ele>847</ele>
        <time>2019-03-12T12:47:54.259Z</time>
      </trkpt>
      <trkpt lat="43.99125" lon="3.80243">
        <ele>842</ele>
        <time>2019-03-12T12:47:58.267Z</time>
      </trkpt>
      <trkpt lat="43.9912" lon="3.80241">
        <ele>842</ele>
        <time>2019-03-12T12:48:03.273Z</time>
      </trkpt>
      <trkpt lat="43.99116" lon="3.8024">
        <ele>842</ele>
        <time>2019-03-12T12:48:08.260Z</time>
      </trkpt>
      <trkpt lat="43.9911" lon="3.80238">
        <ele>842</ele>
        <time>2019-03-12T12:48:12.289Z</time>
      </trkpt>
      <trkpt lat="43.99104" lon="3.80235">
        <ele>838</ele>
        <time>2019-03-12T12:48:17.256Z</time>
      </trkpt>
      <trkpt lat="43.99098" lon="3.80232">
        <ele>838</ele>
        <time>2019-03-12T12:48:22.260Z</time>
      </trkpt>
      <trkpt lat="43.99093" lon="3.8023">
        <ele>835</ele>
        <time>2019-03-12T12:48:26.263Z</time>
      </trkpt>
      <trkpt lat="43.9909" lon="3.80227">
        <ele>835</ele>
        <time>2019-03-12T12:48:31.273Z</time>
      </trkpt>
      <trkpt lat="43.99085" lon="3.80226">
        <ele>835</ele>
        <time>2019-03-12T12:48:35.297Z</time>
      </trkpt>
      <trkpt lat="43.99081" lon="3.80223">
        <ele>835</ele>
        <time>2019-03-12T12:48:40.266Z</time>
      </trkpt>
      <trkpt lat="43.99078" lon="3.80222">
        <ele>835</ele>
        <time>2019-03-12T12:48:44.285Z</time>
      </trkpt>
      <trkpt lat="43.99074" lon="3.80217">
        <ele>835</ele>
        <time>2019-03-12T12:48:49.292Z</time>
      </trkpt>
      <trkpt lat="43.99071" lon="3.80214">
        <ele>835</ele>
        <time>2019-03-12T12:48:54.284Z</time>
      </trkpt>
      <trkpt lat="43.99065" lon="3.80211">
        <ele>825</ele>
        <time>2019-03-12T12:48:59.285Z</time>
      </trkpt>
      <trkpt lat="43.99059" lon="3.8021">
        <ele>825</ele>
        <time>2019-03-12T12:49:04.260Z</time>
      </trkpt>
      <trkpt lat="43.99055" lon="3.80206">
        <ele>824</ele>
        <time>2019-03-12T12:49:08.285Z</time>
      </trkpt>
      <trkpt lat="43.9905" lon="3.80204">
        <ele>824</ele>
        <time>2019-03-12T12:49:13.262Z</time>
      </trkpt>
      <trkpt lat="43.99047" lon="3.80203">
        <ele>824</ele>
        <time>2019-03-12T12:49:17.296Z</time>
      </trkpt>
      <trkpt lat="43.99043" lon="3.802">
        <ele>824</ele>
        <time>2019-03-12T12:49:22.264Z</time>
      </trkpt>
      <trkpt lat="43.99041" lon="3.80197">
        <ele>819</ele>
        <time>2019-03-12T12:49:26.272Z</time>
      </trkpt>
      <trkpt lat="43.99036" lon="3.80198">
        <ele>819</ele>
        <time>2019-03-12T12:49:31.259Z</time>
      </trkpt>
      <trkpt lat="43.99031" lon="3.80196">
        <ele>819</ele>
        <time>2019-03-12T12:49:36.258Z</time>
      </trkpt>
      <trkpt lat="43.99027" lon="3.80194">
        <ele>819</ele>
        <time>2019-03-12T12:49:40.291Z</time>
      </trkpt>
      <trkpt lat="43.99023" lon="3.80192">
        <ele>819</ele>
        <time>2019-03-12T12:49:45.265Z</time>
      </trkpt>
      <trkpt lat="43.99019" lon="3.8019">
        <ele>819</ele>
        <time>2019-03-12T12:49:50.265Z</time>
      </trkpt>
      <trkpt lat="43.99014" lon="3.80188">
        <ele>819</ele>
        <time>2019-03-12T12:49:54.270Z</time>
      </trkpt>
      <trkpt lat="43.99008" lon="3.80185">
        <ele>815</ele>
        <time>2019-03-12T12:49:59.288Z</time>
      </trkpt>
      <trkpt lat="43.99003" lon="3.80184">
        <ele>815</ele>
        <time>2019-03-12T12:50:04.286Z</time>
      </trkpt>
      <trkpt lat="43.98998" lon="3.80181">
        <ele>815</ele>
        <time>2019-03-12T12:50:09.263Z</time>
      </trkpt>
      <trkpt lat="43.98994" lon="3.80179">
        <ele>815</ele>
        <time>2019-03-12T12:50:13.273Z</time>
      </trkpt>
      <trkpt lat="43.98989" lon="3.80176">
        <ele>815</ele>
        <time>2019-03-12T12:50:18.265Z</time>
      </trkpt>
      <trkpt lat="43.98986" lon="3.80172">
        <ele>808</ele>
        <time>2019-03-12T12:50:23.249Z</time>
      </trkpt>
      <trkpt lat="43.98983" lon="3.8017">
        <ele>808</ele>
        <time>2019-03-12T12:50:27.258Z</time>
      </trkpt>
      <trkpt lat="43.98978" lon="3.80166">
        <ele>808</ele>
        <time>2019-03-12T12:50:31.268Z</time>
      </trkpt>
      <trkpt lat="43.98974" lon="3.80165">
        <ele>808</ele>
        <time>2019-03-12T12:50:35.285Z</time>
      </trkpt>
      <trkpt lat="43.9897" lon="3.80163">
        <ele>808</ele>
        <time>2019-03-12T12:50:39.286Z</time>
      </trkpt>
      <trkpt lat="43.98964" lon="3.80162">
        <ele>808</ele>
        <time>2019-03-12T12:50:44.257Z</time>
      </trkpt>
      <trkpt lat="43.98961" lon="3.80159">
        <ele>808</ele>
        <time>2019-03-12T12:50:48.288Z</time>
      </trkpt>
      <trkpt lat="43.98955" lon="3.80156">
        <ele>804</ele>
        <time>2019-03-12T12:50:53.273Z</time>
      </trkpt>
      <trkpt lat="43.9895" lon="3.80154">
        <ele>804</ele>
        <time>2019-03-12T12:50:58.256Z</time>
      </trkpt>
      <trkpt lat="43.98946" lon="3.8015">
        <ele>804</ele>
        <time>2019-03-12T12:51:03.260Z</time>
      </trkpt>
      <trkpt lat="43.98942" lon="3.80149">
        <ele>804</ele>
        <time>2019-03-12T12:51:07.292Z</time>
      </trkpt>
      <trkpt lat="43.98939" lon="3.80147">
        <ele>804</ele>
        <time>2019-03-12T12:51:12.258Z</time>
      </trkpt>
      <trkpt lat="43.98936" lon="3.80144">
        <ele>804</ele>
        <time>2019-03-12T12:51:16.279Z</time>
      </trkpt>
      <trkpt lat="43.9893" lon="3.80142">
        <ele>801</ele>
        <time>2019-03-12T12:51:21.269Z</time>
      </trkpt>
      <trkpt lat="43.98926" lon="3.80139">
        <ele>801</ele>
        <time>2019-03-12T12:51:25.289Z</time>
      </trkpt>
      <trkpt lat="43.98921" lon="3.80136">
        <ele>801</ele>
        <time>2019-03-12T12:51:30.286Z</time>
      </trkpt>
      <trkpt lat="43.98918" lon="3.80132">
        <ele>801</ele>
        <time>2019-03-12T12:51:35.253Z</time>
      </trkpt>
      <trkpt lat="43.98914" lon="3.80128">
        <ele>801</ele>
        <time>2019-03-12T12:51:40.267Z</time>
      </trkpt>
      <trkpt lat="43.98909" lon="3.80124">
        <ele>799</ele>
        <time>2019-03-12T12:51:45.269Z</time>
      </trkpt>
      <trkpt lat="43.98906" lon="3.80122">
        <ele>799</ele>
        <time>2019-03-12T12:51:49.287Z</time>
      </trkpt>
      <trkpt lat="43.98903" lon="3.80117">
        <ele>797</ele>
        <time>2019-03-12T12:51:54.289Z</time>
      </trkpt>
      <trkpt lat="43.98899" lon="3.80113">
        <ele>797</ele>
        <time>2019-03-12T12:51:59.264Z</time>
      </trkpt>
      <trkpt lat="43.98894" lon="3.80109">
        <ele>797</ele>
        <time>2019-03-12T12:52:04.258Z</time>
      </trkpt>
      <trkpt lat="43.9889" lon="3.80106">
        <ele>797</ele>
        <time>2019-03-12T12:52:08.261Z</time>
      </trkpt>
      <trkpt lat="43.98886" lon="3.80103">
        <ele>797</ele>
        <time>2019-03-12T12:52:13.273Z</time>
      </trkpt>
      <trkpt lat="43.98882" lon="3.80099">
        <ele>797</ele>
        <time>2019-03-12T12:52:18.260Z</time>
      </trkpt>
      <trkpt lat="43.98878" lon="3.80095">
        <ele>794</ele>
        <time>2019-03-12T12:52:22.260Z</time>
      </trkpt>
      <trkpt lat="43.98874" lon="3.80092">
        <ele>793</ele>
        <time>2019-03-12T12:52:26.285Z</time>
      </trkpt>
      <trkpt lat="43.98868" lon="3.8009">
        <ele>793</ele>
        <time>2019-03-12T12:52:31.260Z</time>
      </trkpt>
      <trkpt lat="43.98863" lon="3.80087">
        <ele>793</ele>
        <time>2019-03-12T12:52:35.266Z</time>
      </trkpt>
      <trkpt lat="43.98859" lon="3.80085">
        <ele>793</ele>
        <time>2019-03-12T12:52:40.284Z</time>
      </trkpt>
      <trkpt lat="43.98854" lon="3.80082">
        <ele>793</ele>
        <time>2019-03-12T12:52:45.290Z</time>
      </trkpt>
      <trkpt lat="43.98853" lon="3.80082">
        <ele>793</ele>
        <time>2019-03-12T12:52:50.260Z</time>
      </trkpt>
      <trkpt lat="43.98849" lon="3.80081">
        <ele>793</ele>
        <time>2019-03-12T12:52:54.263Z</time>
      </trkpt>
      <trkpt lat="43.98844" lon="3.80078">
        <ele>789</ele>
        <time>2019-03-12T12:52:59.263Z</time>
      </trkpt>
      <trkpt lat="43.98841" lon="3.80075">
        <ele>789</ele>
        <time>2019-03-12T12:53:04.261Z</time>
      </trkpt>
      <trkpt lat="43.98841" lon="3.80075">
        <ele>789</ele>
        <time>2019-03-12T12:53:26.250Z</time>
      </trkpt>
      <trkpt lat="43.98835" lon="3.8007">
        <ele>789</ele>
        <time>2019-03-12T12:53:32.254Z</time>
      </trkpt>
      <trkpt lat="43.98831" lon="3.80069">
        <ele>788</ele>
        <time>2019-03-12T12:53:36.286Z</time>
      </trkpt>
      <trkpt lat="43.98826" lon="3.80066">
        <ele>788</ele>
        <time>2019-03-12T12:53:41.288Z</time>
      </trkpt>
      <trkpt lat="43.98821" lon="3.80065">
        <ele>788</ele>
        <time>2019-03-12T12:53:46.248Z</time>
      </trkpt>
      <trkpt lat="43.98817" lon="3.80061">
        <ele>786</ele>
        <time>2019-03-12T12:53:50.277Z</time>
      </trkpt>
      <trkpt lat="43.98812" lon="3.80056">
        <ele>786</ele>
        <time>2019-03-12T12:53:55.258Z</time>
      </trkpt>
      <trkpt lat="43.98808" lon="3.80052">
        <ele>786</ele>
        <time>2019-03-12T12:53:59.265Z</time>
      </trkpt>
      <trkpt lat="43.98804" lon="3.80047">
        <ele>786</ele>
        <time>2019-03-12T12:54:04.259Z</time>
      </trkpt>
      <trkpt lat="43.98801" lon="3.80043">
        <ele>786</ele>
        <time>2019-03-12T12:54:08.285Z</time>
      </trkpt>
      <trkpt lat="43.98797" lon="3.80038">
        <ele>785</ele>
        <time>2019-03-12T12:54:13.291Z</time>
      </trkpt>
      <trkpt lat="43.98793" lon="3.80034">
        <ele>785</ele>
        <time>2019-03-12T12:54:18.259Z</time>
      </trkpt>
      <trkpt lat="43.98789" lon="3.80027">
        <ele>783</ele>
        <time>2019-03-12T12:54:23.261Z</time>
      </trkpt>
      <trkpt lat="43.98785" lon="3.80023">
        <ele>783</ele>
        <time>2019-03-12T12:54:27.265Z</time>
      </trkpt>
      <trkpt lat="43.98782" lon="3.80018">
        <ele>783</ele>
        <time>2019-03-12T12:54:31.288Z</time>
      </trkpt>
      <trkpt lat="43.98778" lon="3.80013">
        <ele>783</ele>
        <time>2019-03-12T12:54:36.266Z</time>
      </trkpt>
      <trkpt lat="43.98775" lon="3.80009">
        <ele>783</ele>
        <time>2019-03-12T12:54:40.275Z</time>
      </trkpt>
      <trkpt lat="43.98773" lon="3.80005">
        <ele>783</ele>
        <time>2019-03-12T12:54:45.262Z</time>
      </trkpt>
      <trkpt lat="43.98773" lon="3.80002">
        <ele>783</ele>
        <time>2019-03-12T12:54:49.270Z</time>
      </trkpt>
      <trkpt lat="43.98772" lon="3.80003">
        <ele>783</ele>
        <time>2019-03-12T12:54:53.291Z</time>
      </trkpt>
      <trkpt lat="43.98769" lon="3.79999">
        <ele>783</ele>
        <time>2019-03-12T12:54:58.289Z</time>
      </trkpt>
      <trkpt lat="43.98765" lon="3.79996">
        <ele>783</ele>
        <time>2019-03-12T12:55:02.301Z</time>
      </trkpt>
      <trkpt lat="43.98761" lon="3.79989">
        <ele>778</ele>
        <time>2019-03-12T12:55:07.261Z</time>
      </trkpt>
      <trkpt lat="43.9876" lon="3.79983">
        <ele>776</ele>
        <time>2019-03-12T12:55:11.266Z</time>
      </trkpt>
      <trkpt lat="43.98758" lon="3.79979">
        <ele>776</ele>
        <time>2019-03-12T12:55:15.267Z</time>
      </trkpt>
      <trkpt lat="43.98754" lon="3.79972">
        <ele>776</ele>
        <time>2019-03-12T12:55:20.290Z</time>
      </trkpt>
      <trkpt lat="43.98752" lon="3.79964">
        <ele>776</ele>
        <time>2019-03-12T12:55:25.251Z</time>
      </trkpt>
      <trkpt lat="43.98749" lon="3.79959">
        <ele>776</ele>
        <time>2019-03-12T12:55:29.259Z</time>
      </trkpt>
      <trkpt lat="43.98744" lon="3.79956">
        <ele>772</ele>
        <time>2019-03-12T12:55:33.260Z</time>
      </trkpt>
      <trkpt lat="43.98739" lon="3.79954">
        <ele>772</ele>
        <time>2019-03-12T12:55:38.260Z</time>
      </trkpt>
      <trkpt lat="43.98735" lon="3.7995">
        <ele>771</ele>
        <time>2019-03-12T12:55:42.289Z</time>
      </trkpt>
      <trkpt lat="43.9873" lon="3.79948">
        <ele>771</ele>
        <time>2019-03-12T12:55:46.288Z</time>
      </trkpt>
      <trkpt lat="43.98725" lon="3.79948">
        <ele>771</ele>
        <time>2019-03-12T12:55:51.287Z</time>
      </trkpt>
      <trkpt lat="43.98718" lon="3.79946">
        <ele>771</ele>
        <time>2019-03-12T12:55:56.267Z</time>
      </trkpt>
      <trkpt lat="43.98713" lon="3.79944">
        <ele>771</ele>
        <time>2019-03-12T12:56:01.262Z</time>
      </trkpt>
      <trkpt lat="43.98709" lon="3.79943">
        <ele>771</ele>
        <time>2019-03-12T12:56:05.266Z</time>
      </trkpt>
      <trkpt lat="43.98704" lon="3.7994">
        <ele>769</ele>
        <time>2019-03-12T12:56:10.265Z</time>
      </trkpt>
      <trkpt lat="43.98701" lon="3.79939">
        <ele>769</ele>
        <time>2019-03-12T12:56:14.274Z</time>
      </trkpt>
      <trkpt lat="43.98697" lon="3.79937">
        <ele>769</ele>
        <time>2019-03-12T12:56:18.286Z</time>
      </trkpt>
      <trkpt lat="43.98694" lon="3.79936">
        <ele>769</ele>
        <time>2019-03-12T12:56:23.258Z</time>
      </trkpt>
      <trkpt lat="43.9869" lon="3.79934">
        <ele>769</ele>
        <time>2019-03-12T12:56:27.268Z</time>
      </trkpt>
      <trkpt lat="43.98685" lon="3.79931">
        <ele>769</ele>
        <time>2019-03-12T12:56:32.293Z</time>
      </trkpt>
      <trkpt lat="43.98679" lon="3.79929">
        <ele>762</ele>
        <time>2019-03-12T12:56:37.287Z</time>
      </trkpt>
      <trkpt lat="43.98675" lon="3.79928">
        <ele>762</ele>
        <time>2019-03-12T12:56:42.273Z</time>
      </trkpt>
      <trkpt lat="43.9867" lon="3.79926">
        <ele>762</ele>
        <time>2019-03-12T12:56:47.259Z</time>
      </trkpt>
      <trkpt lat="43.98666" lon="3.79925">
        <ele>762</ele>
        <time>2019-03-12T12:56:51.268Z</time>
      </trkpt>
      <trkpt lat="43.98661" lon="3.79924">
        <ele>762</ele>
        <time>2019-03-12T12:56:56.259Z</time>
      </trkpt>
      <trkpt lat="43.98657" lon="3.79923">
        <ele>762</ele>
        <time>2019-03-12T12:57:00.266Z</time>
      </trkpt>
      <trkpt lat="43.98654" lon="3.79919">
        <ele>762</ele>
        <time>2019-03-12T12:57:05.265Z</time>
      </trkpt>
      <trkpt lat="43.98652" lon="3.79917">
        <ele>758</ele>
        <time>2019-03-12T12:57:09.287Z</time>
      </trkpt>
      <trkpt lat="43.98648" lon="3.79916">
        <ele>758</ele>
        <time>2019-03-12T12:57:13.278Z</time>
      </trkpt>
      <trkpt lat="43.98642" lon="3.79915">
        <ele>758</ele>
        <time>2019-03-12T12:57:18.256Z</time>
      </trkpt>
      <trkpt lat="43.98639" lon="3.79915">
        <ele>758</ele>
        <time>2019-03-12T12:57:22.261Z</time>
      </trkpt>
      <trkpt lat="43.98635" lon="3.79915">
        <ele>758</ele>
        <time>2019-03-12T12:57:26.289Z</time>
      </trkpt>
      <trkpt lat="43.9863" lon="3.79915">
        <ele>758</ele>
        <time>2019-03-12T12:57:30.288Z</time>
      </trkpt>
      <trkpt lat="43.98627" lon="3.79915">
        <ele>758</ele>
        <time>2019-03-12T12:57:35.284Z</time>
      </trkpt>
      <trkpt lat="43.98622" lon="3.79915">
        <ele>755</ele>
        <time>2019-03-12T12:57:40.255Z</time>
      </trkpt>
      <trkpt lat="43.98618" lon="3.79914">
        <ele>755</ele>
        <time>2019-03-12T12:57:45.293Z</time>
      </trkpt>
      <trkpt lat="43.98612" lon="3.79916">
        <ele>755</ele>
        <time>2019-03-12T12:57:50.290Z</time>
      </trkpt>
      <trkpt lat="43.98607" lon="3.79918">
        <ele>755</ele>
        <time>2019-03-12T12:57:55.258Z</time>
      </trkpt>
      <trkpt lat="43.98602" lon="3.7992">
        <ele>755</ele>
        <time>2019-03-12T12:57:59.266Z</time>
      </trkpt>
      <trkpt lat="43.98596" lon="3.79923">
        <ele>753</ele>
        <time>2019-03-12T12:58:22.246Z</time>
      </trkpt>
      <trkpt lat="43.98598" lon="3.79931">
        <ele>757</ele>
        <time>2019-03-12T12:58:26.260Z</time>
      </trkpt>
      <trkpt lat="43.98602" lon="3.79936">
        <ele>757</ele>
        <time>2019-03-12T12:58:31.260Z</time>
      </trkpt>
      <trkpt lat="43.98603" lon="3.79937">
        <ele>757</ele>
        <time>2019-03-12T12:58:35.288Z</time>
      </trkpt>
      <trkpt lat="43.98604" lon="3.7994">
        <ele>757</ele>
        <time>2019-03-12T12:58:58.281Z</time>
      </trkpt>
      <trkpt lat="43.98607" lon="3.79947">
        <ele>757</ele>
        <time>2019-03-12T12:59:03.248Z</time>
      </trkpt>
      <trkpt lat="43.98608" lon="3.79955">
        <ele>757</ele>
        <time>2019-03-12T12:59:08.259Z</time>
      </trkpt>
      <trkpt lat="43.98607" lon="3.79958">
        <ele>757</ele>
        <time>2019-03-12T12:59:22.252Z</time>
      </trkpt>
      <trkpt lat="43.98606" lon="3.7996">
        <ele>758</ele>
        <time>2019-03-12T12:59:27.252Z</time>
      </trkpt>
      <trkpt lat="43.98605" lon="3.79963">
        <ele>758</ele>
        <time>2019-03-12T12:59:31.253Z</time>
      </trkpt>
      <trkpt lat="43.98605" lon="3.79968">
        <ele>758</ele>
        <time>2019-03-12T12:59:35.248Z</time>
      </trkpt>
      <trkpt lat="43.98605" lon="3.79973">
        <ele>758</ele>
        <time>2019-03-12T12:59:40.245Z</time>
      </trkpt>
      <trkpt lat="43.98602" lon="3.79979">
        <ele>758</ele>
        <time>2019-03-12T12:59:44.268Z</time>
      </trkpt>
      <trkpt lat="43.986" lon="3.79984">
        <ele>758</ele>
        <time>2019-03-12T12:59:49.299Z</time>
      </trkpt>
      <trkpt lat="43.98598" lon="3.79988">
        <ele>757</ele>
        <time>2019-03-12T12:59:54.262Z</time>
      </trkpt>
      <trkpt lat="43.98596" lon="3.79993">
        <ele>753</ele>
        <time>2019-03-12T12:59:58.300Z</time>
      </trkpt>
      <trkpt lat="43.98592" lon="3.79999">
        <ele>753</ele>
        <time>2019-03-12T13:00:03.267Z</time>
      </trkpt>
      <trkpt lat="43.9859" lon="3.80005">
        <ele>753</ele>
        <time>2019-03-12T13:00:07.285Z</time>
      </trkpt>
      <trkpt lat="43.98587" lon="3.8001">
        <ele>753</ele>
        <time>2019-03-12T13:00:12.255Z</time>
      </trkpt>
      <trkpt lat="43.98584" lon="3.80014">
        <ele>751</ele>
        <time>2019-03-12T13:00:16.268Z</time>
      </trkpt>
      <trkpt lat="43.98579" lon="3.80016">
        <ele>751</ele>
        <time>2019-03-12T13:00:20.287Z</time>
      </trkpt>
      <trkpt lat="43.98573" lon="3.80018">
        <ele>751</ele>
        <time>2019-03-12T13:00:25.248Z</time>
      </trkpt>
      <trkpt lat="43.9857" lon="3.80019">
        <ele>751</ele>
        <time>2019-03-12T13:00:29.256Z</time>
      </trkpt>
      <trkpt lat="43.98567" lon="3.80018">
        <ele>747</ele>
        <time>2019-03-12T13:00:33.285Z</time>
      </trkpt>
      <trkpt lat="43.98562" lon="3.80018">
        <ele>747</ele>
        <time>2019-03-12T13:00:37.289Z</time>
      </trkpt>
      <trkpt lat="43.98558" lon="3.80017">
        <ele>747</ele>
        <time>2019-03-12T13:00:42.281Z</time>
      </trkpt>
      <trkpt lat="43.98553" lon="3.80016">
        <ele>747</ele>
        <time>2019-03-12T13:00:47.267Z</time>
      </trkpt>
      <trkpt lat="43.9855" lon="3.80018">
        <ele>747</ele>
        <time>2019-03-12T13:00:52.289Z</time>
      </trkpt>
      <trkpt lat="43.98547" lon="3.8002">
        <ele>747</ele>
        <time>2019-03-12T13:00:57.261Z</time>
      </trkpt>
      <trkpt lat="43.98544" lon="3.8002">
        <ele>747</ele>
        <time>2019-03-12T13:01:02.270Z</time>
      </trkpt>
      <trkpt lat="43.98537" lon="3.80021">
        <ele>738</ele>
        <time>2019-03-12T13:01:06.268Z</time>
      </trkpt>
      <trkpt lat="43.98533" lon="3.80018">
        <ele>738</ele>
        <time>2019-03-12T13:01:11.255Z</time>
      </trkpt>
      <trkpt lat="43.9853" lon="3.8002">
        <ele>738</ele>
        <time>2019-03-12T13:01:15.294Z</time>
      </trkpt>
      <trkpt lat="43.98527" lon="3.80022">
        <ele>738</ele>
        <time>2019-03-12T13:01:20.253Z</time>
      </trkpt>
      <trkpt lat="43.98522" lon="3.80025">
        <ele>738</ele>
        <time>2019-03-12T13:01:24.267Z</time>
      </trkpt>
      <trkpt lat="43.98516" lon="3.80026">
        <ele>738</ele>
        <time>2019-03-12T13:01:29.269Z</time>
      </trkpt>
      <trkpt lat="43.98512" lon="3.80025">
        <ele>731</ele>
        <time>2019-03-12T13:01:33.298Z</time>
      </trkpt>
      <trkpt lat="43.98509" lon="3.80024">
        <ele>731</ele>
        <time>2019-03-12T13:01:38.265Z</time>
      </trkpt>
      <trkpt lat="43.98507" lon="3.80022">
        <ele>731</ele>
        <time>2019-03-12T13:01:42.277Z</time>
      </trkpt>
      <trkpt lat="43.98503" lon="3.80021">
        <ele>731</ele>
        <time>2019-03-12T13:01:47.255Z</time>
      </trkpt>
      <trkpt lat="43.98497" lon="3.80021">
        <ele>731</ele>
        <time>2019-03-12T13:01:51.288Z</time>
      </trkpt>
      <trkpt lat="43.98491" lon="3.80021">
        <ele>731</ele>
        <time>2019-03-12T13:01:56.282Z</time>
      </trkpt>
      <trkpt lat="43.98485" lon="3.80022">
        <ele>727</ele>
        <time>2019-03-12T13:02:01.257Z</time>
      </trkpt>
      <trkpt lat="43.98481" lon="3.80023">
        <ele>727</ele>
        <time>2019-03-12T13:02:05.293Z</time>
      </trkpt>
      <trkpt lat="43.98475" lon="3.80025">
        <ele>727</ele>
        <time>2019-03-12T13:02:10.297Z</time>
      </trkpt>
      <trkpt lat="43.98471" lon="3.80027">
        <ele>727</ele>
        <time>2019-03-12T13:02:15.289Z</time>
      </trkpt>
      <trkpt lat="43.98468" lon="3.8003">
        <ele>727</ele>
        <time>2019-03-12T13:02:20.289Z</time>
      </trkpt>
      <trkpt lat="43.98464" lon="3.80034">
        <ele>727</ele>
        <time>2019-03-12T13:02:25.269Z</time>
      </trkpt>
      <trkpt lat="43.9846" lon="3.80037">
        <ele>727</ele>
        <time>2019-03-12T13:02:29.295Z</time>
      </trkpt>
      <trkpt lat="43.98456" lon="3.80038">
        <ele>725</ele>
        <time>2019-03-12T13:02:34.270Z</time>
      </trkpt>
      <trkpt lat="43.98455" lon="3.80037">
        <ele>725</ele>
        <time>2019-03-12T13:02:39.286Z</time>
      </trkpt>
      <trkpt lat="43.98452" lon="3.80036">
        <ele>725</ele>
        <time>2019-03-12T13:02:44.255Z</time>
      </trkpt>
      <trkpt lat="43.9845" lon="3.80032">
        <ele>725</ele>
        <time>2019-03-12T13:02:48.255Z</time>
      </trkpt>
      <trkpt lat="43.9845" lon="3.80028">
        <ele>725</ele>
        <time>2019-03-12T13:02:52.285Z</time>
      </trkpt>
      <trkpt lat="43.9845" lon="3.80024">
        <ele>725</ele>
        <time>2019-03-12T13:02:57.254Z</time>
      </trkpt>
      <trkpt lat="43.9845" lon="3.8002">
        <ele>725</ele>
        <time>2019-03-12T13:03:02.275Z</time>
      </trkpt>
      <trkpt lat="43.98449" lon="3.80017">
        <ele>725</ele>
        <time>2019-03-12T13:03:07.259Z</time>
      </trkpt>
      <trkpt lat="43.98446" lon="3.80012">
        <ele>725</ele>
        <time>2019-03-12T13:03:11.287Z</time>
      </trkpt>
      <trkpt lat="43.98444" lon="3.80009">
        <ele>725</ele>
        <time>2019-03-12T13:03:16.249Z</time>
      </trkpt>
      <trkpt lat="43.98445" lon="3.80003">
        <ele>725</ele>
        <time>2019-03-12T13:03:20.265Z</time>
      </trkpt>
      <trkpt lat="43.98447" lon="3.79994">
        <ele>725</ele>
        <time>2019-03-12T13:03:24.287Z</time>
      </trkpt>
      <trkpt lat="43.98449" lon="3.7999">
        <ele>725</ele>
        <time>2019-03-12T13:03:29.288Z</time>
      </trkpt>
      <trkpt lat="43.9845" lon="3.79983">
        <ele>727</ele>
        <time>2019-03-12T13:03:34.261Z</time>
      </trkpt>
      <trkpt lat="43.98452" lon="3.79976">
        <ele>727</ele>
        <time>2019-03-12T13:03:39.296Z</time>
      </trkpt>
      <trkpt lat="43.98455" lon="3.7997">
        <ele>727</ele>
        <time>2019-03-12T13:03:44.294Z</time>
      </trkpt>
      <trkpt lat="43.98457" lon="3.79965">
        <ele>727</ele>
        <time>2019-03-12T13:03:49.307Z</time>
      </trkpt>
      <trkpt lat="43.98458" lon="3.79959">
        <ele>727</ele>
        <time>2019-03-12T13:03:54.272Z</time>
      </trkpt>
      <trkpt lat="43.98457" lon="3.79951">
        <ele>727</ele>
        <time>2019-03-12T13:03:59.285Z</time>
      </trkpt>
      <trkpt lat="43.98454" lon="3.7994">
        <ele>727</ele>
        <time>2019-03-12T13:04:04.246Z</time>
      </trkpt>
      <trkpt lat="43.98447" lon="3.7993">
        <ele>727</ele>
        <time>2019-03-12T13:04:08.248Z</time>
      </trkpt>
      <trkpt lat="43.98442" lon="3.79921">
        <ele>727</ele>
        <time>2019-03-12T13:04:12.294Z</time>
      </trkpt>
      <trkpt lat="43.98434" lon="3.79917">
        <ele>727</ele>
        <time>2019-03-12T13:04:17.258Z</time>
      </trkpt>
      <trkpt lat="43.98429" lon="3.79923">
        <ele>720</ele>
        <time>2019-03-12T13:04:22.259Z</time>
      </trkpt>
      <trkpt lat="43.98427" lon="3.79931">
        <ele>718</ele>
        <time>2019-03-12T13:04:27.288Z</time>
      </trkpt>
      <trkpt lat="43.98426" lon="3.79939">
        <ele>718</ele>
        <time>2019-03-12T13:04:32.264Z</time>
      </trkpt>
      <trkpt lat="43.98427" lon="3.79946">
        <ele>718</ele>
        <time>2019-03-12T13:04:37.254Z</time>
      </trkpt>
      <trkpt lat="43.98426" lon="3.7995">
        <ele>718</ele>
        <time>2019-03-12T13:04:41.284Z</time>
      </trkpt>
      <trkpt lat="43.98425" lon="3.79955">
        <ele>718</ele>
        <time>2019-03-12T13:04:46.268Z</time>
      </trkpt>
      <trkpt lat="43.98422" lon="3.7996">
        <ele>718</ele>
        <time>2019-03-12T13:04:51.267Z</time>
      </trkpt>
      <trkpt lat="43.98419" lon="3.79968">
        <ele>718</ele>
        <time>2019-03-12T13:04:56.288Z</time>
      </trkpt>
      <trkpt lat="43.98415" lon="3.79972">
        <ele>718</ele>
        <time>2019-03-12T13:05:00.297Z</time>
      </trkpt>
      <trkpt lat="43.98413" lon="3.79975">
        <ele>718</ele>
        <time>2019-03-12T13:05:05.296Z</time>
      </trkpt>
      <trkpt lat="43.98411" lon="3.79978">
        <ele>718</ele>
        <time>2019-03-12T13:05:10.258Z</time>
      </trkpt>
      <trkpt lat="43.98407" lon="3.79981">
        <ele>718</ele>
        <time>2019-03-12T13:05:15.258Z</time>
      </trkpt>
      <trkpt lat="43.98401" lon="3.79984">
        <ele>710</ele>
        <time>2019-03-12T13:05:20.257Z</time>
      </trkpt>
      <trkpt lat="43.98395" lon="3.79989">
        <ele>713</ele>
        <time>2019-03-12T13:05:25.292Z</time>
      </trkpt>
      <trkpt lat="43.98387" lon="3.79995">
        <ele>713</ele>
        <time>2019-03-12T13:05:30.245Z</time>
      </trkpt>
      <trkpt lat="43.98382" lon="3.79998">
        <ele>713</ele>
        <time>2019-03-12T13:05:34.286Z</time>
      </trkpt>
      <trkpt lat="43.98376" lon="3.8">
        <ele>713</ele>
        <time>2019-03-12T13:05:39.255Z</time>
      </trkpt>
      <trkpt lat="43.98372" lon="3.80002">
        <ele>707</ele>
        <time>2019-03-12T13:05:43.301Z</time>
      </trkpt>
      <trkpt lat="43.98366" lon="3.80005">
        <ele>707</ele>
        <time>2019-03-12T13:05:48.264Z</time>
      </trkpt>
      <trkpt lat="43.98361" lon="3.80009">
        <ele>707</ele>
        <time>2019-03-12T13:05:52.297Z</time>
      </trkpt>
      <trkpt lat="43.98355" lon="3.80013">
        <ele>707</ele>
        <time>2019-03-12T13:05:57.267Z</time>
      </trkpt>
      <trkpt lat="43.98349" lon="3.80016">
        <ele>712</ele>
        <time>2019-03-12T13:06:02.267Z</time>
      </trkpt>
      <trkpt lat="43.98344" lon="3.80021">
        <ele>701</ele>
        <time>2019-03-12T13:06:07.256Z</time>
      </trkpt>
      <trkpt lat="43.98341" lon="3.80024">
        <ele>701</ele>
        <time>2019-03-12T13:06:12.261Z</time>
      </trkpt>
      <trkpt lat="43.98338" lon="3.80026">
        <ele>701</ele>
        <time>2019-03-12T13:06:16.272Z</time>
      </trkpt>
      <trkpt lat="43.98334" lon="3.80032">
        <ele>701</ele>
        <time>2019-03-12T13:06:21.262Z</time>
      </trkpt>
      <trkpt lat="43.98331" lon="3.80037">
        <ele>701</ele>
        <time>2019-03-12T13:06:25.275Z</time>
      </trkpt>
      <trkpt lat="43.98327" lon="3.80041">
        <ele>701</ele>
        <time>2019-03-12T13:06:30.285Z</time>
      </trkpt>
      <trkpt lat="43.98323" lon="3.80046">
        <ele>709</ele>
        <time>2019-03-12T13:06:35.266Z</time>
      </trkpt>
      <trkpt lat="43.9832" lon="3.80048">
        <ele>709</ele>
        <time>2019-03-12T13:06:39.260Z</time>
      </trkpt>
      <trkpt lat="43.98317" lon="3.80051">
        <ele>698</ele>
        <time>2019-03-12T13:06:43.288Z</time>
      </trkpt>
      <trkpt lat="43.98314" lon="3.80056">
        <ele>698</ele>
        <time>2019-03-12T13:06:48.258Z</time>
      </trkpt>
      <trkpt lat="43.98311" lon="3.8006">
        <ele>698</ele>
        <time>2019-03-12T13:06:52.263Z</time>
      </trkpt>
      <trkpt lat="43.98307" lon="3.80064">
        <ele>698</ele>
        <time>2019-03-12T13:06:57.258Z</time>
      </trkpt>
      <trkpt lat="43.98303" lon="3.80068">
        <ele>698</ele>
        <time>2019-03-12T13:07:02.263Z</time>
      </trkpt>
      <trkpt lat="43.98301" lon="3.80071">
        <ele>705</ele>
        <time>2019-03-12T13:07:06.267Z</time>
      </trkpt>
      <trkpt lat="43.98298" lon="3.80077">
        <ele>705</ele>
        <time>2019-03-12T13:07:11.290Z</time>
      </trkpt>
      <trkpt lat="43.98295" lon="3.80083">
        <ele>705</ele>
        <time>2019-03-12T13:07:16.290Z</time>
      </trkpt>
      <trkpt lat="43.9829" lon="3.80088">
        <ele>694</ele>
        <time>2019-03-12T13:07:21.262Z</time>
      </trkpt>
      <trkpt lat="43.98287" lon="3.80092">
        <ele>694</ele>
        <time>2019-03-12T13:07:25.271Z</time>
      </trkpt>
      <trkpt lat="43.98282" lon="3.801">
        <ele>697</ele>
        <time>2019-03-12T13:07:30.273Z</time>
      </trkpt>
      <trkpt lat="43.98277" lon="3.80106">
        <ele>697</ele>
        <time>2019-03-12T13:07:34.282Z</time>
      </trkpt>
      <trkpt lat="43.98273" lon="3.80113">
        <ele>697</ele>
        <time>2019-03-12T13:07:39.260Z</time>
      </trkpt>
      <trkpt lat="43.9827" lon="3.80118">
        <ele>697</ele>
        <time>2019-03-12T13:07:43.289Z</time>
      </trkpt>
      <trkpt lat="43.98268" lon="3.80123">
        <ele>697</ele>
        <time>2019-03-12T13:07:47.286Z</time>
      </trkpt>
      <trkpt lat="43.98267" lon="3.80128">
        <ele>700</ele>
        <time>2019-03-12T13:07:51.287Z</time>
      </trkpt>
      <trkpt lat="43.98264" lon="3.80135">
        <ele>693</ele>
        <time>2019-03-12T13:07:56.273Z</time>
      </trkpt>
      <trkpt lat="43.98263" lon="3.80143">
        <ele>693</ele>
        <time>2019-03-12T13:08:01.287Z</time>
      </trkpt>
      <trkpt lat="43.98261" lon="3.80149">
        <ele>693</ele>
        <time>2019-03-12T13:08:06.256Z</time>
      </trkpt>
      <trkpt lat="43.9826" lon="3.80156">
        <ele>696</ele>
        <time>2019-03-12T13:08:10.290Z</time>
      </trkpt>
      <trkpt lat="43.9826" lon="3.80164">
        <ele>696</ele>
        <time>2019-03-12T13:08:15.259Z</time>
      </trkpt>
      <trkpt lat="43.98259" lon="3.80171">
        <ele>696</ele>
        <time>2019-03-12T13:08:19.293Z</time>
      </trkpt>
      <trkpt lat="43.98257" lon="3.80178">
        <ele>696</ele>
        <time>2019-03-12T13:08:24.257Z</time>
      </trkpt>
      <trkpt lat="43.98256" lon="3.80185">
        <ele>698</ele>
        <time>2019-03-12T13:08:28.269Z</time>
      </trkpt>
      <trkpt lat="43.98254" lon="3.80192">
        <ele>698</ele>
        <time>2019-03-12T13:08:33.266Z</time>
      </trkpt>
      <trkpt lat="43.98252" lon="3.802">
        <ele>698</ele>
        <time>2019-03-12T13:08:38.257Z</time>
      </trkpt>
      <trkpt lat="43.9825" lon="3.80206">
        <ele>698</ele>
        <time>2019-03-12T13:08:42.288Z</time>
      </trkpt>
      <trkpt lat="43.98249" lon="3.80213">
        <ele>697</ele>
        <time>2019-03-12T13:08:46.287Z</time>
      </trkpt>
      <trkpt lat="43.98251" lon="3.80221">
        <ele>697</ele>
        <time>2019-03-12T13:08:51.262Z</time>
      </trkpt>
      <trkpt lat="43.98252" lon="3.80227">
        <ele>697</ele>
        <time>2019-03-12T13:08:55.270Z</time>
      </trkpt>
      <trkpt lat="43.98252" lon="3.80235">
        <ele>697</ele>
        <time>2019-03-12T13:09:00.267Z</time>
      </trkpt>
      <trkpt lat="43.98252" lon="3.80243">
        <ele>696</ele>
        <time>2019-03-12T13:09:05.256Z</time>
      </trkpt>
      <trkpt lat="43.9825" lon="3.8025">
        <ele>696</ele>
        <time>2019-03-12T13:09:09.279Z</time>
      </trkpt>
      <trkpt lat="43.9825" lon="3.80256">
        <ele>696</ele>
        <time>2019-03-12T13:09:13.289Z</time>
      </trkpt>
      <trkpt lat="43.98249" lon="3.80263">
        <ele>696</ele>
        <time>2019-03-12T13:09:18.260Z</time>
      </trkpt>
      <trkpt lat="43.98249" lon="3.80269">
        <ele>693</ele>
        <time>2019-03-12T13:09:23.260Z</time>
      </trkpt>
      <trkpt lat="43.9825" lon="3.80275">
        <ele>693</ele>
        <time>2019-03-12T13:09:27.266Z</time>
      </trkpt>
      <trkpt lat="43.98248" lon="3.80281">
        <ele>693</ele>
        <time>2019-03-12T13:09:31.290Z</time>
      </trkpt>
      <trkpt lat="43.98248" lon="3.80286">
        <ele>693</ele>
        <time>2019-03-12T13:09:35.287Z</time>
      </trkpt>
      <trkpt lat="43.98248" lon="3.80293">
        <ele>692</ele>
        <time>2019-03-12T13:09:40.271Z</time>
      </trkpt>
      <trkpt lat="43.98248" lon="3.803">
        <ele>692</ele>
        <time>2019-03-12T13:09:44.273Z</time>
      </trkpt>
      <trkpt lat="43.9825" lon="3.80308">
        <ele>692</ele>
        <time>2019-03-12T13:09:49.250Z</time>
      </trkpt>
      <trkpt lat="43.98251" lon="3.80314">
        <ele>692</ele>
        <time>2019-03-12T13:09:53.298Z</time>
      </trkpt>
      <trkpt lat="43.98252" lon="3.80322">
        <ele>687</ele>
        <time>2019-03-12T13:09:58.270Z</time>
      </trkpt>
      <trkpt lat="43.98252" lon="3.80333">
        <ele>687</ele>
        <time>2019-03-12T13:10:03.289Z</time>
      </trkpt>
      <trkpt lat="43.98253" lon="3.8034">
        <ele>687</ele>
        <time>2019-03-12T13:10:07.287Z</time>
      </trkpt>
      <trkpt lat="43.98253" lon="3.8035">
        <ele>684</ele>
        <time>2019-03-12T13:10:12.245Z</time>
      </trkpt>
      <trkpt lat="43.98255" lon="3.80357">
        <ele>684</ele>
        <time>2019-03-12T13:10:16.290Z</time>
      </trkpt>
      <trkpt lat="43.98255" lon="3.80367">
        <ele>684</ele>
        <time>2019-03-12T13:10:21.288Z</time>
      </trkpt>
      <trkpt lat="43.98257" lon="3.80375">
        <ele>684</ele>
        <time>2019-03-12T13:10:26.287Z</time>
      </trkpt>
      <trkpt lat="43.98257" lon="3.8038">
        <ele>680</ele>
        <time>2019-03-12T13:10:30.291Z</time>
      </trkpt>
      <trkpt lat="43.9826" lon="3.80386">
        <ele>680</ele>
        <time>2019-03-12T13:10:35.259Z</time>
      </trkpt>
      <trkpt lat="43.98262" lon="3.8039">
        <ele>680</ele>
        <time>2019-03-12T13:10:39.260Z</time>
      </trkpt>
      <trkpt lat="43.98264" lon="3.80395">
        <ele>680</ele>
        <time>2019-03-12T13:10:43.294Z</time>
      </trkpt>
      <trkpt lat="43.98265" lon="3.80402">
        <ele>684</ele>
        <time>2019-03-12T13:10:48.287Z</time>
      </trkpt>
      <trkpt lat="43.98267" lon="3.80407">
        <ele>679</ele>
        <time>2019-03-12T13:10:52.290Z</time>
      </trkpt>
      <trkpt lat="43.98268" lon="3.80411">
        <ele>679</ele>
        <time>2019-03-12T13:10:56.286Z</time>
      </trkpt>
      <trkpt lat="43.9827" lon="3.80418">
        <ele>679</ele>
        <time>2019-03-12T13:11:01.253Z</time>
      </trkpt>
      <trkpt lat="43.98274" lon="3.80424">
        <ele>679</ele>
        <time>2019-03-12T13:11:05.259Z</time>
      </trkpt>
      <trkpt lat="43.98277" lon="3.80429">
        <ele>679</ele>
        <time>2019-03-12T13:11:09.296Z</time>
      </trkpt>
      <trkpt lat="43.98282" lon="3.80435">
        <ele>674</ele>
        <time>2019-03-12T13:11:14.260Z</time>
      </trkpt>
      <trkpt lat="43.98287" lon="3.80439">
        <ele>674</ele>
        <time>2019-03-12T13:11:18.264Z</time>
      </trkpt>
      <trkpt lat="43.98294" lon="3.80442">
        <ele>672</ele>
        <time>2019-03-12T13:11:23.286Z</time>
      </trkpt>
      <trkpt lat="43.98303" lon="3.80442">
        <ele>672</ele>
        <time>2019-03-12T13:11:28.255Z</time>
      </trkpt>
      <trkpt lat="43.98308" lon="3.80437">
        <ele>672</ele>
        <time>2019-03-12T13:11:32.284Z</time>
      </trkpt>
      <trkpt lat="43.98311" lon="3.80436">
        <ele>672</ele>
        <time>2019-03-12T13:11:37.288Z</time>
      </trkpt>
      <trkpt lat="43.98316" lon="3.80431">
        <ele>672</ele>
        <time>2019-03-12T13:11:42.256Z</time>
      </trkpt>
      <trkpt lat="43.98323" lon="3.80429">
        <ele>673</ele>
        <time>2019-03-12T13:11:47.257Z</time>
      </trkpt>
      <trkpt lat="43.98331" lon="3.80432">
        <ele>668</ele>
        <time>2019-03-12T13:11:56.289Z</time>
      </trkpt>
      <trkpt lat="43.98328" lon="3.80437">
        <ele>668</ele>
        <time>2019-03-12T13:12:01.272Z</time>
      </trkpt>
      <trkpt lat="43.98324" lon="3.80438">
        <ele>668</ele>
        <time>2019-03-12T13:12:06.274Z</time>
      </trkpt>
      <trkpt lat="43.98322" lon="3.8044">
        <ele>668</ele>
        <time>2019-03-12T13:12:10.266Z</time>
      </trkpt>
      <trkpt lat="43.98321" lon="3.80442">
        <ele>668</ele>
        <time>2019-03-12T13:12:15.296Z</time>
      </trkpt>
      <trkpt lat="43.98318" lon="3.80447">
        <ele>672</ele>
        <time>2019-03-12T13:12:20.284Z</time>
      </trkpt>
      <trkpt lat="43.98314" lon="3.80452">
        <ele>672</ele>
        <time>2019-03-12T13:12:25.288Z</time>
      </trkpt>
      <trkpt lat="43.98312" lon="3.80457">
        <ele>672</ele>
        <time>2019-03-12T13:12:29.288Z</time>
      </trkpt>
      <trkpt lat="43.9831" lon="3.80462">
        <ele>670</ele>
        <time>2019-03-12T13:12:34.262Z</time>
      </trkpt>
      <trkpt lat="43.98307" lon="3.80468">
        <ele>670</ele>
        <time>2019-03-12T13:12:39.262Z</time>
      </trkpt>
      <trkpt lat="43.98304" lon="3.8047">
        <ele>670</ele>
        <time>2019-03-12T13:12:43.302Z</time>
      </trkpt>
      <trkpt lat="43.983" lon="3.80473">
        <ele>670</ele>
        <time>2019-03-12T13:12:48.257Z</time>
      </trkpt>
      <trkpt lat="43.98296" lon="3.80477">
        <ele>670</ele>
        <time>2019-03-12T13:12:52.270Z</time>
      </trkpt>
      <trkpt lat="43.98291" lon="3.80481">
        <ele>671</ele>
        <time>2019-03-12T13:12:56.281Z</time>
      </trkpt>
      <trkpt lat="43.98287" lon="3.80484">
        <ele>671</ele>
        <time>2019-03-12T13:13:01.274Z</time>
      </trkpt>
      <trkpt lat="43.98282" lon="3.80488">
        <ele>670</ele>
        <time>2019-03-12T13:13:05.266Z</time>
      </trkpt>
      <trkpt lat="43.98276" lon="3.80491">
        <ele>670</ele>
        <time>2019-03-12T13:13:09.286Z</time>
      </trkpt>
      <trkpt lat="43.98271" lon="3.80493">
        <ele>670</ele>
        <time>2019-03-12T13:13:13.287Z</time>
      </trkpt>
      <trkpt lat="43.98267" lon="3.80496">
        <ele>670</ele>
        <time>2019-03-12T13:13:17.293Z</time>
      </trkpt>
      <trkpt lat="43.98261" lon="3.80498">
        <ele>670</ele>
        <time>2019-03-12T13:13:22.290Z</time>
      </trkpt>
      <trkpt lat="43.98253" lon="3.80499">
        <ele>670</ele>
        <time>2019-03-12T13:13:27.254Z</time>
      </trkpt>
      <trkpt lat="43.98249" lon="3.80499">
        <ele>670</ele>
        <time>2019-03-12T13:13:31.272Z</time>
      </trkpt>
      <trkpt lat="43.98242" lon="3.80499">
        <ele>670</ele>
        <time>2019-03-12T13:13:36.288Z</time>
      </trkpt>
      <trkpt lat="43.98237" lon="3.80497">
        <ele>670</ele>
        <time>2019-03-12T13:13:41.256Z</time>
      </trkpt>
      <trkpt lat="43.98233" lon="3.80494">
        <ele>665</ele>
        <time>2019-03-12T13:13:45.266Z</time>
      </trkpt>
      <trkpt lat="43.98229" lon="3.8049">
        <ele>665</ele>
        <time>2019-03-12T13:13:50.261Z</time>
      </trkpt>
      <trkpt lat="43.98227" lon="3.80486">
        <ele>666</ele>
        <time>2019-03-12T13:13:54.257Z</time>
      </trkpt>
      <trkpt lat="43.98224" lon="3.80482">
        <ele>666</ele>
        <time>2019-03-12T13:13:58.291Z</time>
      </trkpt>
      <trkpt lat="43.98221" lon="3.80478">
        <ele>666</ele>
        <time>2019-03-12T13:14:03.260Z</time>
      </trkpt>
      <trkpt lat="43.9822" lon="3.80473">
        <ele>666</ele>
        <time>2019-03-12T13:14:07.289Z</time>
      </trkpt>
      <trkpt lat="43.9822" lon="3.80466">
        <ele>666</ele>
        <time>2019-03-12T13:14:12.259Z</time>
      </trkpt>
      <trkpt lat="43.98219" lon="3.80459">
        <ele>666</ele>
        <time>2019-03-12T13:14:17.275Z</time>
      </trkpt>
      <trkpt lat="43.98218" lon="3.80452">
        <ele>669</ele>
        <time>2019-03-12T13:14:22.258Z</time>
      </trkpt>
      <trkpt lat="43.98217" lon="3.80446">
        <ele>669</ele>
        <time>2019-03-12T13:14:26.260Z</time>
      </trkpt>
      <trkpt lat="43.98216" lon="3.80439">
        <ele>669</ele>
        <time>2019-03-12T13:14:31.263Z</time>
      </trkpt>
      <trkpt lat="43.98214" lon="3.80434">
        <ele>669</ele>
        <time>2019-03-12T13:14:35.302Z</time>
      </trkpt>
      <trkpt lat="43.98212" lon="3.80426">
        <ele>670</ele>
        <time>2019-03-12T13:14:40.278Z</time>
      </trkpt>
      <trkpt lat="43.9821" lon="3.80419">
        <ele>670</ele>
        <time>2019-03-12T13:14:45.258Z</time>
      </trkpt>
      <trkpt lat="43.98206" lon="3.80413">
        <ele>659</ele>
        <time>2019-03-12T13:14:50.267Z</time>
      </trkpt>
      <trkpt lat="43.98205" lon="3.80408">
        <ele>659</ele>
        <time>2019-03-12T13:14:54.268Z</time>
      </trkpt>
      <trkpt lat="43.98203" lon="3.804">
        <ele>660</ele>
        <time>2019-03-12T13:14:59.273Z</time>
      </trkpt>
      <trkpt lat="43.98202" lon="3.80393">
        <ele>660</ele>
        <time>2019-03-12T13:15:04.288Z</time>
      </trkpt>
      <trkpt lat="43.98201" lon="3.80386">
        <ele>660</ele>
        <time>2019-03-12T13:15:09.259Z</time>
      </trkpt>
      <trkpt lat="43.98198" lon="3.80379">
        <ele>660</ele>
        <time>2019-03-12T13:15:14.259Z</time>
      </trkpt>
      <trkpt lat="43.98197" lon="3.80373">
        <ele>662</ele>
        <time>2019-03-12T13:15:18.289Z</time>
      </trkpt>
      <trkpt lat="43.98196" lon="3.80367">
        <ele>662</ele>
        <time>2019-03-12T13:15:23.290Z</time>
      </trkpt>
      <trkpt lat="43.98194" lon="3.8036">
        <ele>662</ele>
        <time>2019-03-12T13:15:28.271Z</time>
      </trkpt>
      <trkpt lat="43.98193" lon="3.80354">
        <ele>662</ele>
        <time>2019-03-12T13:15:33.272Z</time>
      </trkpt>
      <trkpt lat="43.98192" lon="3.80347">
        <ele>665</ele>
        <time>2019-03-12T13:15:37.287Z</time>
      </trkpt>
      <trkpt lat="43.98192" lon="3.8034">
        <ele>665</ele>
        <time>2019-03-12T13:15:42.258Z</time>
      </trkpt>
      <trkpt lat="43.98192" lon="3.80334">
        <ele>665</ele>
        <time>2019-03-12T13:15:46.259Z</time>
      </trkpt>
      <trkpt lat="43.98191" lon="3.80328">
        <ele>665</ele>
        <time>2019-03-12T13:15:50.272Z</time>
      </trkpt>
      <trkpt lat="43.98189" lon="3.80321">
        <ele>665</ele>
        <time>2019-03-12T13:15:55.257Z</time>
      </trkpt>
      <trkpt lat="43.98187" lon="3.80315">
        <ele>668</ele>
        <time>2019-03-12T13:15:59.265Z</time>
      </trkpt>
      <trkpt lat="43.98184" lon="3.80309">
        <ele>668</ele>
        <time>2019-03-12T13:16:04.269Z</time>
      </trkpt>
      <trkpt lat="43.98183" lon="3.80304">
        <ele>668</ele>
        <time>2019-03-12T13:16:08.287Z</time>
      </trkpt>
      <trkpt lat="43.9818" lon="3.80297">
        <ele>656</ele>
        <time>2019-03-12T13:16:13.271Z</time>
      </trkpt>
      <trkpt lat="43.98177" lon="3.8029">
        <ele>658</ele>
        <time>2019-03-12T13:16:18.261Z</time>
      </trkpt>
      <trkpt lat="43.98175" lon="3.80284">
        <ele>658</ele>
        <time>2019-03-12T13:16:22.259Z</time>
      </trkpt>
      <trkpt lat="43.98174" lon="3.80278">
        <ele>658</ele>
        <time>2019-03-12T13:16:26.288Z</time>
      </trkpt>
      <trkpt lat="43.98173" lon="3.80271">
        <ele>658</ele>
        <time>2019-03-12T13:16:31.260Z</time>
      </trkpt>
      <trkpt lat="43.98172" lon="3.80266">
        <ele>658</ele>
        <time>2019-03-12T13:16:35.293Z</time>
      </trkpt>
      <trkpt lat="43.98171" lon="3.80258">
        <ele>660</ele>
        <time>2019-03-12T13:16:40.265Z</time>
      </trkpt>
      <trkpt lat="43.98168" lon="3.80253">
        <ele>660</ele>
        <time>2019-03-12T13:16:44.272Z</time>
      </trkpt>
      <trkpt lat="43.9816" lon="3.80252">
        <ele>660</ele>
        <time>2019-03-12T13:16:49.280Z</time>
      </trkpt>
      <trkpt lat="43.98155" lon="3.80257">
        <ele>660</ele>
        <time>2019-03-12T13:16:54.258Z</time>
      </trkpt>
      <trkpt lat="43.98155" lon="3.80263">
        <ele>660</ele>
        <time>2019-03-12T13:16:58.260Z</time>
      </trkpt>
      <trkpt lat="43.98156" lon="3.80269">
        <ele>658</ele>
        <time>2019-03-12T13:17:03.256Z</time>
      </trkpt>
      <trkpt lat="43.98156" lon="3.80277">
        <ele>658</ele>
        <time>2019-03-12T13:17:07.273Z</time>
      </trkpt>
      <trkpt lat="43.98157" lon="3.80286">
        <ele>658</ele>
        <time>2019-03-12T13:17:12.256Z</time>
      </trkpt>
      <trkpt lat="43.98158" lon="3.80293">
        <ele>656</ele>
        <time>2019-03-12T13:17:16.262Z</time>
      </trkpt>
      <trkpt lat="43.9816" lon="3.803">
        <ele>656</ele>
        <time>2019-03-12T13:17:20.273Z</time>
      </trkpt>
      <trkpt lat="43.9816" lon="3.80307">
        <ele>656</ele>
        <time>2019-03-12T13:17:24.288Z</time>
      </trkpt>
      <trkpt lat="43.9816" lon="3.80314">
        <ele>656</ele>
        <time>2019-03-12T13:17:29.259Z</time>
      </trkpt>
      <trkpt lat="43.9816" lon="3.80319">
        <ele>656</ele>
        <time>2019-03-12T13:17:33.297Z</time>
      </trkpt>
      <trkpt lat="43.9816" lon="3.8032">
        <ele>651</ele>
        <time>2019-03-12T13:17:38.271Z</time>
      </trkpt>
      <trkpt lat="43.9816" lon="3.80324">
        <ele>651</ele>
        <time>2019-03-12T13:17:48.273Z</time>
      </trkpt>
      <trkpt lat="43.98161" lon="3.80332">
        <ele>651</ele>
        <time>2019-03-12T13:17:53.255Z</time>
      </trkpt>
      <trkpt lat="43.98161" lon="3.80338">
        <ele>651</ele>
        <time>2019-03-12T13:17:57.256Z</time>
      </trkpt>
      <trkpt lat="43.98162" lon="3.80344">
        <ele>651</ele>
        <time>2019-03-12T13:18:02.290Z</time>
      </trkpt>
      <trkpt lat="43.98163" lon="3.8035">
        <ele>650</ele>
        <time>2019-03-12T13:18:07.266Z</time>
      </trkpt>
      <trkpt lat="43.98162" lon="3.80355">
        <ele>650</ele>
        <time>2019-03-12T13:18:11.291Z</time>
      </trkpt>
      <trkpt lat="43.98161" lon="3.80364">
        <ele>650</ele>
        <time>2019-03-12T13:18:16.264Z</time>
      </trkpt>
      <trkpt lat="43.98161" lon="3.80371">
        <ele>650</ele>
        <time>2019-03-12T13:18:20.299Z</time>
      </trkpt>
      <trkpt lat="43.98161" lon="3.80379">
        <ele>648</ele>
        <time>2019-03-12T13:18:25.262Z</time>
      </trkpt>
      <trkpt lat="43.98161" lon="3.80386">
        <ele>648</ele>
        <time>2019-03-12T13:18:29.263Z</time>
      </trkpt>
      <trkpt lat="43.9816" lon="3.80392">
        <ele>648</ele>
        <time>2019-03-12T13:18:33.289Z</time>
      </trkpt>
      <trkpt lat="43.98161" lon="3.80399">
        <ele>648</ele>
        <time>2019-03-12T13:18:38.288Z</time>
      </trkpt>
      <trkpt lat="43.98161" lon="3.80404">
        <ele>647</ele>
        <time>2019-03-12T13:18:42.304Z</time>
      </trkpt>
      <trkpt lat="43.98161" lon="3.80411">
        <ele>647</ele>
        <time>2019-03-12T13:18:47.258Z</time>
      </trkpt>
      <trkpt lat="43.98162" lon="3.80418">
        <ele>647</ele>
        <time>2019-03-12T13:18:52.258Z</time>
      </trkpt>
      <trkpt lat="43.98162" lon="3.80424">
        <ele>647</ele>
        <time>2019-03-12T13:18:56.289Z</time>
      </trkpt>
      <trkpt lat="43.98161" lon="3.80432">
        <ele>646</ele>
        <time>2019-03-12T13:19:01.264Z</time>
      </trkpt>
      <trkpt lat="43.98161" lon="3.80439">
        <ele>646</ele>
        <time>2019-03-12T13:19:06.258Z</time>
      </trkpt>
      <trkpt lat="43.98162" lon="3.80444">
        <ele>646</ele>
        <time>2019-03-12T13:19:10.259Z</time>
      </trkpt>
      <trkpt lat="43.98159" lon="3.80452">
        <ele>646</ele>
        <time>2019-03-12T13:19:15.257Z</time>
      </trkpt>
      <trkpt lat="43.98157" lon="3.80457">
        <ele>646</ele>
        <time>2019-03-12T13:19:19.292Z</time>
      </trkpt>
      <trkpt lat="43.98158" lon="3.80463">
        <ele>645</ele>
        <time>2019-03-12T13:19:24.247Z</time>
      </trkpt>
      <trkpt lat="43.98158" lon="3.80468">
        <ele>645</ele>
        <time>2019-03-12T13:19:28.270Z</time>
      </trkpt>
      <trkpt lat="43.98159" lon="3.80476">
        <ele>645</ele>
        <time>2019-03-12T13:19:33.268Z</time>
      </trkpt>
      <trkpt lat="43.98158" lon="3.80483">
        <ele>645</ele>
        <time>2019-03-12T13:19:38.270Z</time>
      </trkpt>
      <trkpt lat="43.98158" lon="3.8049">
        <ele>646</ele>
        <time>2019-03-12T13:19:43.291Z</time>
      </trkpt>
      <trkpt lat="43.98155" lon="3.80497">
        <ele>646</ele>
        <time>2019-03-12T13:19:48.259Z</time>
      </trkpt>
      <trkpt lat="43.98154" lon="3.80503">
        <ele>646</ele>
        <time>2019-03-12T13:19:52.267Z</time>
      </trkpt>
      <trkpt lat="43.98153" lon="3.8051">
        <ele>646</ele>
        <time>2019-03-12T13:19:56.289Z</time>
      </trkpt>
      <trkpt lat="43.98153" lon="3.80516">
        <ele>646</ele>
        <time>2019-03-12T13:20:01.286Z</time>
      </trkpt>
      <trkpt lat="43.98153" lon="3.80522">
        <ele>646</ele>
        <time>2019-03-12T13:20:06.273Z</time>
      </trkpt>
      <trkpt lat="43.98153" lon="3.80528">
        <ele>646</ele>
        <time>2019-03-12T13:20:10.296Z</time>
      </trkpt>
      <trkpt lat="43.98152" lon="3.80536">
        <ele>632</ele>
        <time>2019-03-12T13:20:15.266Z</time>
      </trkpt>
      <trkpt lat="43.98153" lon="3.80543">
        <ele>632</ele>
        <time>2019-03-12T13:20:20.267Z</time>
      </trkpt>
      <trkpt lat="43.98153" lon="3.80549">
        <ele>646</ele>
        <time>2019-03-12T13:20:24.274Z</time>
      </trkpt>
      <trkpt lat="43.98155" lon="3.80556">
        <ele>646</ele>
        <time>2019-03-12T13:20:29.260Z</time>
      </trkpt>
      <trkpt lat="43.98155" lon="3.80562">
        <ele>646</ele>
        <time>2019-03-12T13:20:33.292Z</time>
      </trkpt>
      <trkpt lat="43.98155" lon="3.8057">
        <ele>644</ele>
        <time>2019-03-12T13:20:38.293Z</time>
      </trkpt>
      <trkpt lat="43.98155" lon="3.80576">
        <ele>644</ele>
        <time>2019-03-12T13:20:42.292Z</time>
      </trkpt>
      <trkpt lat="43.98155" lon="3.80585">
        <ele>644</ele>
        <time>2019-03-12T13:20:47.291Z</time>
      </trkpt>
      <trkpt lat="43.98157" lon="3.80592">
        <ele>644</ele>
        <time>2019-03-12T13:20:52.290Z</time>
      </trkpt>
      <trkpt lat="43.98159" lon="3.806">
        <ele>640</ele>
        <time>2019-03-12T13:20:57.260Z</time>
      </trkpt>
      <trkpt lat="43.98162" lon="3.80605">
        <ele>640</ele>
        <time>2019-03-12T13:21:01.274Z</time>
      </trkpt>
      <trkpt lat="43.98166" lon="3.80611">
        <ele>640</ele>
        <time>2019-03-12T13:21:06.272Z</time>
      </trkpt>
      <trkpt lat="43.98169" lon="3.80616">
        <ele>640</ele>
        <time>2019-03-12T13:21:11.256Z</time>
      </trkpt>
      <trkpt lat="43.98172" lon="3.80621">
        <ele>640</ele>
        <time>2019-03-12T13:21:15.265Z</time>
      </trkpt>
      <trkpt lat="43.98174" lon="3.80627">
        <ele>635</ele>
        <time>2019-03-12T13:21:20.263Z</time>
      </trkpt>
      <trkpt lat="43.98176" lon="3.80634">
        <ele>635</ele>
        <time>2019-03-12T13:21:25.272Z</time>
      </trkpt>
      <trkpt lat="43.98178" lon="3.8064">
        <ele>635</ele>
        <time>2019-03-12T13:21:29.277Z</time>
      </trkpt>
      <trkpt lat="43.98182" lon="3.80647">
        <ele>644</ele>
        <time>2019-03-12T13:21:34.277Z</time>
      </trkpt>
      <trkpt lat="43.98185" lon="3.80654">
        <ele>635</ele>
        <time>2019-03-12T13:21:39.290Z</time>
      </trkpt>
      <trkpt lat="43.98188" lon="3.80661">
        <ele>635</ele>
        <time>2019-03-12T13:21:44.257Z</time>
      </trkpt>
      <trkpt lat="43.98191" lon="3.80664">
        <ele>635</ele>
        <time>2019-03-12T13:21:48.291Z</time>
      </trkpt>
      <trkpt lat="43.98195" lon="3.80667">
        <ele>635</ele>
        <time>2019-03-12T13:21:52.308Z</time>
      </trkpt>
      <trkpt lat="43.98199" lon="3.8067">
        <ele>635</ele>
        <time>2019-03-12T13:21:57.292Z</time>
      </trkpt>
      <trkpt lat="43.98203" lon="3.80673">
        <ele>635</ele>
        <time>2019-03-12T13:22:02.293Z</time>
      </trkpt>
      <trkpt lat="43.98209" lon="3.80675">
        <ele>643</ele>
        <time>2019-03-12T13:22:07.262Z</time>
      </trkpt>
      <trkpt lat="43.98213" lon="3.80677">
        <ele>643</ele>
        <time>2019-03-12T13:22:11.297Z</time>
      </trkpt>
      <trkpt lat="43.98219" lon="3.8068">
        <ele>643</ele>
        <time>2019-03-12T13:22:16.288Z</time>
      </trkpt>
      <trkpt lat="43.98224" lon="3.80683">
        <ele>631</ele>
        <time>2019-03-12T13:22:21.267Z</time>
      </trkpt>
      <trkpt lat="43.98229" lon="3.80685">
        <ele>631</ele>
        <time>2019-03-12T13:22:25.272Z</time>
      </trkpt>
      <trkpt lat="43.98234" lon="3.8069">
        <ele>631</ele>
        <time>2019-03-12T13:22:30.277Z</time>
      </trkpt>
      <trkpt lat="43.98235" lon="3.80694">
        <ele>631</ele>
        <time>2019-03-12T13:22:34.290Z</time>
      </trkpt>
      <trkpt lat="43.98237" lon="3.807">
        <ele>637</ele>
        <time>2019-03-12T13:22:39.263Z</time>
      </trkpt>
      <trkpt lat="43.98239" lon="3.80706">
        <ele>637</ele>
        <time>2019-03-12T13:22:43.284Z</time>
      </trkpt>
      <trkpt lat="43.98241" lon="3.80713">
        <ele>627</ele>
        <time>2019-03-12T13:22:48.292Z</time>
      </trkpt>
      <trkpt lat="43.98245" lon="3.80717">
        <ele>627</ele>
        <time>2019-03-12T13:22:53.298Z</time>
      </trkpt>
      <trkpt lat="43.98249" lon="3.80721">
        <ele>627</ele>
        <time>2019-03-12T13:22:58.292Z</time>
      </trkpt>
      <trkpt lat="43.98254" lon="3.80727">
        <ele>627</ele>
        <time>2019-03-12T13:23:03.264Z</time>
      </trkpt>
      <trkpt lat="43.98257" lon="3.80732">
        <ele>627</ele>
        <time>2019-03-12T13:23:07.265Z</time>
      </trkpt>
      <trkpt lat="43.98261" lon="3.80737">
        <ele>620</ele>
        <time>2019-03-12T13:23:11.291Z</time>
      </trkpt>
      <trkpt lat="43.98265" lon="3.80745">
        <ele>622</ele>
        <time>2019-03-12T13:23:16.292Z</time>
      </trkpt>
      <trkpt lat="43.98267" lon="3.8075">
        <ele>622</ele>
        <time>2019-03-12T13:23:21.303Z</time>
      </trkpt>
      <trkpt lat="43.9827" lon="3.80755">
        <ele>622</ele>
        <time>2019-03-12T13:23:25.301Z</time>
      </trkpt>
      <trkpt lat="43.98269" lon="3.80766">
        <ele>618</ele>
        <time>2019-03-12T13:23:35.263Z</time>
      </trkpt>
      <trkpt lat="43.98267" lon="3.80767">
        <ele>618</ele>
        <time>2019-03-12T13:23:39.273Z</time>
      </trkpt>
      <trkpt lat="43.98266" lon="3.80766">
        <ele>618</ele>
        <time>2019-03-12T13:23:44.261Z</time>
      </trkpt>
      <trkpt lat="43.98265" lon="3.8076">
        <ele>622</ele>
        <time>2019-03-12T13:23:53.264Z</time>
      </trkpt>
      <trkpt lat="43.98269" lon="3.80748">
        <ele>622</ele>
        <time>2019-03-12T13:23:58.251Z</time>
      </trkpt>
      <trkpt lat="43.98265" lon="3.80744">
        <ele>622</ele>
        <time>2019-03-12T13:24:07.252Z</time>
      </trkpt>
      <trkpt lat="43.98261" lon="3.80742">
        <ele>620</ele>
        <time>2019-03-12T13:24:11.262Z</time>
      </trkpt>
      <trkpt lat="43.98257" lon="3.80736">
        <ele>620</ele>
        <time>2019-03-12T13:24:16.261Z</time>
      </trkpt>
      <trkpt lat="43.98256" lon="3.8073">
        <ele>627</ele>
        <time>2019-03-12T13:24:20.267Z</time>
      </trkpt>
      <trkpt lat="43.98254" lon="3.80726">
        <ele>627</ele>
        <time>2019-03-12T13:24:25.266Z</time>
      </trkpt>
      <trkpt lat="43.98252" lon="3.80722">
        <ele>627</ele>
        <time>2019-03-12T13:24:30.259Z</time>
      </trkpt>
      <trkpt lat="43.98251" lon="3.80717">
        <ele>627</ele>
        <time>2019-03-12T13:24:34.264Z</time>
      </trkpt>
      <trkpt lat="43.9825" lon="3.80711">
        <ele>627</ele>
        <time>2019-03-12T13:24:39.266Z</time>
      </trkpt>
      <trkpt lat="43.98247" lon="3.80703">
        <ele>637</ele>
        <time>2019-03-12T13:24:44.265Z</time>
      </trkpt>
      <trkpt lat="43.98243" lon="3.80698">
        <ele>637</ele>
        <time>2019-03-12T13:24:49.274Z</time>
      </trkpt>
      <trkpt lat="43.98237" lon="3.80691">
        <ele>637</ele>
        <time>2019-03-12T13:24:54.272Z</time>
      </trkpt>
      <trkpt lat="43.98228" lon="3.80687">
        <ele>631</ele>
        <time>2019-03-12T13:24:59.268Z</time>
      </trkpt>
      <trkpt lat="43.98221" lon="3.80684">
        <ele>631</ele>
        <time>2019-03-12T13:25:03.296Z</time>
      </trkpt>
      <trkpt lat="43.98209" lon="3.80682">
        <ele>631</ele>
        <time>2019-03-12T13:25:08.260Z</time>
      </trkpt>
      <trkpt lat="43.98202" lon="3.8068">
        <ele>635</ele>
        <time>2019-03-12T13:25:12.280Z</time>
      </trkpt>
      <trkpt lat="43.98194" lon="3.80681">
        <ele>622</ele>
        <time>2019-03-12T13:25:17.260Z</time>
      </trkpt>
      <trkpt lat="43.98187" lon="3.80683">
        <ele>622</ele>
        <time>2019-03-12T13:25:21.296Z</time>
      </trkpt>
      <trkpt lat="43.9818" lon="3.80686">
        <ele>617</ele>
        <time>2019-03-12T13:25:26.298Z</time>
      </trkpt>
      <trkpt lat="43.98173" lon="3.80689">
        <ele>617</ele>
        <time>2019-03-12T13:25:31.273Z</time>
      </trkpt>
      <trkpt lat="43.98165" lon="3.8069">
        <ele>617</ele>
        <time>2019-03-12T13:25:36.282Z</time>
      </trkpt>
      <trkpt lat="43.98161" lon="3.80691">
        <ele>617</ele>
        <time>2019-03-12T13:25:40.291Z</time>
      </trkpt>
      <trkpt lat="43.98156" lon="3.80691">
        <ele>617</ele>
        <time>2019-03-12T13:25:45.260Z</time>
      </trkpt>
      <trkpt lat="43.98151" lon="3.80692">
        <ele>611</ele>
        <time>2019-03-12T13:25:49.274Z</time>
      </trkpt>
      <trkpt lat="43.98147" lon="3.80692">
        <ele>611</ele>
        <time>2019-03-12T13:25:53.294Z</time>
      </trkpt>
      <trkpt lat="43.98143" lon="3.80691">
        <ele>611</ele>
        <time>2019-03-12T13:25:58.274Z</time>
      </trkpt>
      <trkpt lat="43.98138" lon="3.80691">
        <ele>611</ele>
        <time>2019-03-12T13:26:03.291Z</time>
      </trkpt>
      <trkpt lat="43.98132" lon="3.80689">
        <ele>611</ele>
        <time>2019-03-12T13:26:08.261Z</time>
      </trkpt>
      <trkpt lat="43.98128" lon="3.80688">
        <ele>611</ele>
        <time>2019-03-12T13:26:12.281Z</time>
      </trkpt>
      <trkpt lat="43.98124" lon="3.80687">
        <ele>603</ele>
        <time>2019-03-12T13:26:16.292Z</time>
      </trkpt>
      <trkpt lat="43.98121" lon="3.80685">
        <ele>603</ele>
        <time>2019-03-12T13:26:20.292Z</time>
      </trkpt>
      <trkpt lat="43.98117" lon="3.80682">
        <ele>603</ele>
        <time>2019-03-12T13:26:25.275Z</time>
      </trkpt>
      <trkpt lat="43.98113" lon="3.8068">
        <ele>610</ele>
        <time>2019-03-12T13:26:30.277Z</time>
      </trkpt>
      <trkpt lat="43.98109" lon="3.80678">
        <ele>610</ele>
        <time>2019-03-12T13:26:34.285Z</time>
      </trkpt>
      <trkpt lat="43.98105" lon="3.80676">
        <ele>610</ele>
        <time>2019-03-12T13:26:39.261Z</time>
      </trkpt>
      <trkpt lat="43.98104" lon="3.80672">
        <ele>610</ele>
        <time>2019-03-12T13:26:43.297Z</time>
      </trkpt>
      <trkpt lat="43.98102" lon="3.80667">
        <ele>610</ele>
        <time>2019-03-12T13:26:47.297Z</time>
      </trkpt>
      <trkpt lat="43.98101" lon="3.80662">
        <ele>610</ele>
        <time>2019-03-12T13:26:52.304Z</time>
      </trkpt>
      <trkpt lat="43.981" lon="3.80655">
        <ele>610</ele>
        <time>2019-03-12T13:26:57.261Z</time>
      </trkpt>
      <trkpt lat="43.98099" lon="3.80649">
        <ele>616</ele>
        <time>2019-03-12T13:27:01.270Z</time>
      </trkpt>
      <trkpt lat="43.98097" lon="3.80642">
        <ele>605</ele>
        <time>2019-03-12T13:27:06.298Z</time>
      </trkpt>
      <trkpt lat="43.98095" lon="3.80635">
        <ele>605</ele>
        <time>2019-03-12T13:27:11.274Z</time>
      </trkpt>
      <trkpt lat="43.98093" lon="3.8063">
        <ele>605</ele>
        <time>2019-03-12T13:27:15.293Z</time>
      </trkpt>
      <trkpt lat="43.98092" lon="3.80623">
        <ele>608</ele>
        <time>2019-03-12T13:27:20.295Z</time>
      </trkpt>
      <trkpt lat="43.98091" lon="3.80615">
        <ele>608</ele>
        <time>2019-03-12T13:27:25.260Z</time>
      </trkpt>
      <trkpt lat="43.98092" lon="3.80609">
        <ele>608</ele>
        <time>2019-03-12T13:27:29.270Z</time>
      </trkpt>
      <trkpt lat="43.98094" lon="3.806">
        <ele>608</ele>
        <time>2019-03-12T13:27:34.264Z</time>
      </trkpt>
      <trkpt lat="43.98094" lon="3.80594">
        <ele>608</ele>
        <time>2019-03-12T13:27:38.291Z</time>
      </trkpt>
      <trkpt lat="43.98095" lon="3.80587">
        <ele>608</ele>
        <time>2019-03-12T13:27:43.273Z</time>
      </trkpt>
      <trkpt lat="43.98096" lon="3.80579">
        <ele>608</ele>
        <time>2019-03-12T13:27:48.276Z</time>
      </trkpt>
      <trkpt lat="43.98097" lon="3.80571">
        <ele>620</ele>
        <time>2019-03-12T13:27:53.263Z</time>
      </trkpt>
      <trkpt lat="43.98098" lon="3.80566">
        <ele>618</ele>
        <time>2019-03-12T13:27:57.260Z</time>
      </trkpt>
      <trkpt lat="43.98098" lon="3.80559">
        <ele>618</ele>
        <time>2019-03-12T13:28:02.290Z</time>
      </trkpt>
      <trkpt lat="43.98096" lon="3.80554">
        <ele>607</ele>
        <time>2019-03-12T13:28:06.295Z</time>
      </trkpt>
      <trkpt lat="43.98094" lon="3.80546">
        <ele>607</ele>
        <time>2019-03-12T13:28:11.295Z</time>
      </trkpt>
      <trkpt lat="43.98093" lon="3.8054">
        <ele>605</ele>
        <time>2019-03-12T13:28:15.295Z</time>
      </trkpt>
      <trkpt lat="43.98092" lon="3.80533">
        <ele>605</ele>
        <time>2019-03-12T13:28:20.269Z</time>
      </trkpt>
      <trkpt lat="43.98092" lon="3.80527">
        <ele>605</ele>
        <time>2019-03-12T13:28:24.299Z</time>
      </trkpt>
      <trkpt lat="43.98094" lon="3.80519">
        <ele>605</ele>
        <time>2019-03-12T13:28:29.262Z</time>
      </trkpt>
      <trkpt lat="43.98094" lon="3.80513">
        <ele>605</ele>
        <time>2019-03-12T13:28:33.299Z</time>
      </trkpt>
      <trkpt lat="43.98094" lon="3.80506">
        <ele>605</ele>
        <time>2019-03-12T13:28:38.275Z</time>
      </trkpt>
      <trkpt lat="43.98095" lon="3.80498">
        <ele>605</ele>
        <time>2019-03-12T13:28:43.264Z</time>
      </trkpt>
      <trkpt lat="43.98094" lon="3.80491">
        <ele>605</ele>
        <time>2019-03-12T13:28:48.262Z</time>
      </trkpt>
      <trkpt lat="43.98093" lon="3.80484">
        <ele>605</ele>
        <time>2019-03-12T13:28:52.274Z</time>
      </trkpt>
      <trkpt lat="43.98093" lon="3.80477">
        <ele>605</ele>
        <time>2019-03-12T13:28:57.265Z</time>
      </trkpt>
      <trkpt lat="43.98092" lon="3.80469">
        <ele>605</ele>
        <time>2019-03-12T13:29:02.268Z</time>
      </trkpt>
      <trkpt lat="43.98091" lon="3.80463">
        <ele>605</ele>
        <time>2019-03-12T13:29:06.272Z</time>
      </trkpt>
      <trkpt lat="43.98088" lon="3.80455">
        <ele>607</ele>
        <time>2019-03-12T13:29:11.260Z</time>
      </trkpt>
      <trkpt lat="43.98086" lon="3.80449">
        <ele>607</ele>
        <time>2019-03-12T13:29:15.277Z</time>
      </trkpt>
      <trkpt lat="43.98083" lon="3.80442">
        <ele>607</ele>
        <time>2019-03-12T13:29:20.275Z</time>
      </trkpt>
      <trkpt lat="43.98082" lon="3.80436">
        <ele>607</ele>
        <time>2019-03-12T13:29:24.292Z</time>
      </trkpt>
      <trkpt lat="43.98082" lon="3.80429">
        <ele>608</ele>
        <time>2019-03-12T13:29:29.268Z</time>
      </trkpt>
      <trkpt lat="43.98082" lon="3.80421">
        <ele>608</ele>
        <time>2019-03-12T13:29:34.274Z</time>
      </trkpt>
      <trkpt lat="43.9808" lon="3.80415">
        <ele>608</ele>
        <time>2019-03-12T13:29:39.294Z</time>
      </trkpt>
      <trkpt lat="43.9808" lon="3.80407">
        <ele>608</ele>
        <time>2019-03-12T13:29:44.262Z</time>
      </trkpt>
      <trkpt lat="43.9808" lon="3.80402">
        <ele>609</ele>
        <time>2019-03-12T13:29:48.263Z</time>
      </trkpt>
      <trkpt lat="43.9808" lon="3.80397">
        <ele>609</ele>
        <time>2019-03-12T13:29:52.276Z</time>
      </trkpt>
      <trkpt lat="43.98081" lon="3.80391">
        <ele>609</ele>
        <time>2019-03-12T13:29:56.276Z</time>
      </trkpt>
      <trkpt lat="43.98081" lon="3.80385">
        <ele>609</ele>
        <time>2019-03-12T13:30:00.296Z</time>
      </trkpt>
      <trkpt lat="43.9808" lon="3.80379">
        <ele>609</ele>
        <time>2019-03-12T13:30:04.293Z</time>
      </trkpt>
      <trkpt lat="43.98081" lon="3.80374">
        <ele>610</ele>
        <time>2019-03-12T13:30:08.300Z</time>
      </trkpt>
      <trkpt lat="43.98081" lon="3.80365">
        <ele>610</ele>
        <time>2019-03-12T13:30:13.261Z</time>
      </trkpt>
      <trkpt lat="43.98082" lon="3.80359">
        <ele>610</ele>
        <time>2019-03-12T13:30:17.265Z</time>
      </trkpt>
      <trkpt lat="43.98084" lon="3.80351">
        <ele>610</ele>
        <time>2019-03-12T13:30:22.263Z</time>
      </trkpt>
      <trkpt lat="43.98084" lon="3.80345">
        <ele>613</ele>
        <time>2019-03-12T13:30:26.269Z</time>
      </trkpt>
      <trkpt lat="43.98085" lon="3.80338">
        <ele>613</ele>
        <time>2019-03-12T13:30:31.283Z</time>
      </trkpt>
      <trkpt lat="43.98085" lon="3.8033">
        <ele>613</ele>
        <time>2019-03-12T13:30:36.259Z</time>
      </trkpt>
      <trkpt lat="43.98084" lon="3.80323">
        <ele>613</ele>
        <time>2019-03-12T13:30:40.282Z</time>
      </trkpt>
      <trkpt lat="43.98082" lon="3.80314">
        <ele>617</ele>
        <time>2019-03-12T13:30:45.293Z</time>
      </trkpt>
      <trkpt lat="43.98079" lon="3.80306">
        <ele>617</ele>
        <time>2019-03-12T13:30:50.265Z</time>
      </trkpt>
      <trkpt lat="43.98078" lon="3.80299">
        <ele>617</ele>
        <time>2019-03-12T13:30:54.267Z</time>
      </trkpt>
      <trkpt lat="43.98078" lon="3.80293">
        <ele>617</ele>
        <time>2019-03-12T13:30:58.292Z</time>
      </trkpt>
      <trkpt lat="43.98074" lon="3.80286">
        <ele>622</ele>
        <time>2019-03-12T13:31:03.270Z</time>
      </trkpt>
      <trkpt lat="43.98069" lon="3.80281">
        <ele>609</ele>
        <time>2019-03-12T13:31:08.261Z</time>
      </trkpt>
      <trkpt lat="43.98063" lon="3.80278">
        <ele>609</ele>
        <time>2019-03-12T13:31:12.268Z</time>
      </trkpt>
      <trkpt lat="43.98057" lon="3.80274">
        <ele>609</ele>
        <time>2019-03-12T13:31:17.262Z</time>
      </trkpt>
      <trkpt lat="43.98053" lon="3.80271">
        <ele>609</ele>
        <time>2019-03-12T13:31:21.290Z</time>
      </trkpt>
      <trkpt lat="43.98049" lon="3.80268">
        <ele>609</ele>
        <time>2019-03-12T13:31:25.291Z</time>
      </trkpt>
      <trkpt lat="43.98044" lon="3.80262">
        <ele>615</ele>
        <time>2019-03-12T13:31:30.260Z</time>
      </trkpt>
      <trkpt lat="43.9804" lon="3.80259">
        <ele>605</ele>
        <time>2019-03-12T13:31:35.262Z</time>
      </trkpt>
      <trkpt lat="43.98036" lon="3.80256">
        <ele>605</ele>
        <time>2019-03-12T13:31:39.292Z</time>
      </trkpt>
      <trkpt lat="43.98032" lon="3.80251">
        <ele>605</ele>
        <time>2019-03-12T13:31:44.290Z</time>
      </trkpt>
      <trkpt lat="43.98026" lon="3.80248">
        <ele>605</ele>
        <time>2019-03-12T13:31:49.292Z</time>
      </trkpt>
      <trkpt lat="43.98021" lon="3.80244">
        <ele>605</ele>
        <time>2019-03-12T13:31:54.265Z</time>
      </trkpt>
      <trkpt lat="43.98017" lon="3.80241">
        <ele>605</ele>
        <time>2019-03-12T13:31:59.260Z</time>
      </trkpt>
      <trkpt lat="43.98013" lon="3.80239">
        <ele>599</ele>
        <time>2019-03-12T13:32:03.268Z</time>
      </trkpt>
      <trkpt lat="43.98009" lon="3.80236">
        <ele>600</ele>
        <time>2019-03-12T13:32:07.273Z</time>
      </trkpt>
      <trkpt lat="43.98004" lon="3.80233">
        <ele>600</ele>
        <time>2019-03-12T13:32:11.298Z</time>
      </trkpt>
      <trkpt lat="43.97998" lon="3.80229">
        <ele>600</ele>
        <time>2019-03-12T13:32:16.298Z</time>
      </trkpt>
      <trkpt lat="43.97995" lon="3.80224">
        <ele>600</ele>
        <time>2019-03-12T13:32:21.293Z</time>
      </trkpt>
      <trkpt lat="43.97994" lon="3.80217">
        <ele>600</ele>
        <time>2019-03-12T13:32:26.261Z</time>
      </trkpt>
      <trkpt lat="43.97995" lon="3.80212">
        <ele>600</ele>
        <time>2019-03-12T13:32:30.261Z</time>
      </trkpt>
      <trkpt lat="43.97996" lon="3.80205">
        <ele>599</ele>
        <time>2019-03-12T13:32:35.261Z</time>
      </trkpt>
      <trkpt lat="43.97997" lon="3.80199">
        <ele>599</ele>
        <time>2019-03-12T13:32:39.293Z</time>
      </trkpt>
      <trkpt lat="43.97995" lon="3.80194">
        <ele>599</ele>
        <time>2019-03-12T13:32:44.271Z</time>
      </trkpt>
      <trkpt lat="43.97988" lon="3.80193">
        <ele>599</ele>
        <time>2019-03-12T13:32:49.270Z</time>
      </trkpt>
      <trkpt lat="43.97983" lon="3.80194">
        <ele>589</ele>
        <time>2019-03-12T13:32:53.270Z</time>
      </trkpt>
      <trkpt lat="43.9798" lon="3.80197">
        <ele>589</ele>
        <time>2019-03-12T13:32:57.303Z</time>
      </trkpt>
      <trkpt lat="43.97975" lon="3.80201">
        <ele>589</ele>
        <time>2019-03-12T13:33:02.291Z</time>
      </trkpt>
      <trkpt lat="43.97972" lon="3.80204">
        <ele>589</ele>
        <time>2019-03-12T13:33:06.290Z</time>
      </trkpt>
      <trkpt lat="43.97968" lon="3.80206">
        <ele>589</ele>
        <time>2019-03-12T13:33:10.294Z</time>
      </trkpt>
      <trkpt lat="43.97968" lon="3.8021">
        <ele>591</ele>
        <time>2019-03-12T13:33:19.266Z</time>
      </trkpt>
      <trkpt lat="43.97967" lon="3.80209">
        <ele>591</ele>
        <time>2019-03-12T13:33:38.249Z</time>
      </trkpt>
      <trkpt lat="43.97963" lon="3.80211">
        <ele>591</ele>
        <time>2019-03-12T13:33:43.253Z</time>
      </trkpt>
      <trkpt lat="43.9796" lon="3.80214">
        <ele>591</ele>
        <time>2019-03-12T13:33:47.278Z</time>
      </trkpt>
      <trkpt lat="43.97957" lon="3.80217">
        <ele>581</ele>
        <time>2019-03-12T13:33:51.293Z</time>
      </trkpt>
      <trkpt lat="43.97952" lon="3.80221">
        <ele>581</ele>
        <time>2019-03-12T13:33:56.271Z</time>
      </trkpt>
      <trkpt lat="43.97949" lon="3.80224">
        <ele>581</ele>
        <time>2019-03-12T13:34:01.272Z</time>
      </trkpt>
      <trkpt lat="43.97945" lon="3.80226">
        <ele>581</ele>
        <time>2019-03-12T13:34:05.292Z</time>
      </trkpt>
      <trkpt lat="43.9794" lon="3.80229">
        <ele>581</ele>
        <time>2019-03-12T13:34:10.270Z</time>
      </trkpt>
      <trkpt lat="43.97937" lon="3.80232">
        <ele>581</ele>
        <time>2019-03-12T13:34:14.294Z</time>
      </trkpt>
      <trkpt lat="43.97933" lon="3.80235">
        <ele>581</ele>
        <time>2019-03-12T13:34:19.260Z</time>
      </trkpt>
      <trkpt lat="43.97928" lon="3.80238">
        <ele>582</ele>
        <time>2019-03-12T13:34:23.264Z</time>
      </trkpt>
      <trkpt lat="43.97924" lon="3.8024">
        <ele>582</ele>
        <time>2019-03-12T13:34:27.290Z</time>
      </trkpt>
      <trkpt lat="43.97919" lon="3.80244">
        <ele>582</ele>
        <time>2019-03-12T13:34:32.276Z</time>
      </trkpt>
      <trkpt lat="43.97914" lon="3.80247">
        <ele>582</ele>
        <time>2019-03-12T13:34:37.261Z</time>
      </trkpt>
      <trkpt lat="43.9791" lon="3.80251">
        <ele>582</ele>
        <time>2019-03-12T13:34:41.291Z</time>
      </trkpt>
      <trkpt lat="43.97907" lon="3.80255">
        <ele>582</ele>
        <time>2019-03-12T13:34:46.264Z</time>
      </trkpt>
      <trkpt lat="43.97902" lon="3.80259">
        <ele>576</ele>
        <time>2019-03-12T13:34:51.291Z</time>
      </trkpt>
      <trkpt lat="43.97898" lon="3.8026">
        <ele>576</ele>
        <time>2019-03-12T13:34:55.298Z</time>
      </trkpt>
      <trkpt lat="43.97893" lon="3.80265">
        <ele>582</ele>
        <time>2019-03-12T13:35:00.261Z</time>
      </trkpt>
      <trkpt lat="43.97888" lon="3.80268">
        <ele>582</ele>
        <time>2019-03-12T13:35:05.261Z</time>
      </trkpt>
      <trkpt lat="43.97883" lon="3.80272">
        <ele>582</ele>
        <time>2019-03-12T13:35:10.261Z</time>
      </trkpt>
      <trkpt lat="43.97879" lon="3.80274">
        <ele>582</ele>
        <time>2019-03-12T13:35:14.267Z</time>
      </trkpt>
      <trkpt lat="43.97874" lon="3.80277">
        <ele>576</ele>
        <time>2019-03-12T13:35:19.294Z</time>
      </trkpt>
      <trkpt lat="43.97869" lon="3.80281">
        <ele>576</ele>
        <time>2019-03-12T13:35:24.272Z</time>
      </trkpt>
      <trkpt lat="43.97864" lon="3.80285">
        <ele>576</ele>
        <time>2019-03-12T13:35:29.292Z</time>
      </trkpt>
      <trkpt lat="43.9786" lon="3.8029">
        <ele>576</ele>
        <time>2019-03-12T13:35:34.297Z</time>
      </trkpt>
      <trkpt lat="43.97855" lon="3.80294">
        <ele>580</ele>
        <time>2019-03-12T13:35:39.270Z</time>
      </trkpt>
      <trkpt lat="43.97852" lon="3.80297">
        <ele>580</ele>
        <time>2019-03-12T13:35:43.271Z</time>
      </trkpt>
      <trkpt lat="43.97851" lon="3.80302">
        <ele>580</ele>
        <time>2019-03-12T13:35:48.278Z</time>
      </trkpt>
      <trkpt lat="43.97847" lon="3.80308">
        <ele>577</ele>
        <time>2019-03-12T13:35:52.293Z</time>
      </trkpt>
      <trkpt lat="43.97843" lon="3.80315">
        <ele>577</ele>
        <time>2019-03-12T13:35:57.265Z</time>
      </trkpt>
      <trkpt lat="43.9784" lon="3.80322">
        <ele>579</ele>
        <time>2019-03-12T13:36:01.280Z</time>
      </trkpt>
      <trkpt lat="43.97837" lon="3.8033">
        <ele>579</ele>
        <time>2019-03-12T13:36:06.258Z</time>
      </trkpt>
      <trkpt lat="43.97836" lon="3.80335">
        <ele>579</ele>
        <time>2019-03-12T13:36:10.266Z</time>
      </trkpt>
      <trkpt lat="43.97835" lon="3.80341">
        <ele>579</ele>
        <time>2019-03-12T13:36:14.273Z</time>
      </trkpt>
      <trkpt lat="43.97836" lon="3.8035">
        <ele>578</ele>
        <time>2019-03-12T13:36:19.264Z</time>
      </trkpt>
      <trkpt lat="43.97838" lon="3.80357">
        <ele>578</ele>
        <time>2019-03-12T13:36:24.261Z</time>
      </trkpt>
      <trkpt lat="43.97834" lon="3.80357">
        <ele>578</ele>
        <time>2019-03-12T13:36:28.261Z</time>
      </trkpt>
      <trkpt lat="43.97827" lon="3.80359">
        <ele>578</ele>
        <time>2019-03-12T13:36:33.266Z</time>
      </trkpt>
      <trkpt lat="43.97822" lon="3.8036">
        <ele>578</ele>
        <time>2019-03-12T13:36:37.292Z</time>
      </trkpt>
      <trkpt lat="43.97817" lon="3.80361">
        <ele>576</ele>
        <time>2019-03-12T13:36:42.262Z</time>
      </trkpt>
      <trkpt lat="43.97811" lon="3.80362">
        <ele>576</ele>
        <time>2019-03-12T13:36:47.298Z</time>
      </trkpt>
      <trkpt lat="43.97804" lon="3.80364">
        <ele>576</ele>
        <time>2019-03-12T13:36:52.262Z</time>
      </trkpt>
      <trkpt lat="43.97799" lon="3.80366">
        <ele>576</ele>
        <time>2019-03-12T13:36:56.298Z</time>
      </trkpt>
      <trkpt lat="43.97793" lon="3.8037">
        <ele>576</ele>
        <time>2019-03-12T13:37:01.300Z</time>
      </trkpt>
      <trkpt lat="43.97789" lon="3.80372">
        <ele>571</ele>
        <time>2019-03-12T13:37:06.293Z</time>
      </trkpt>
      <trkpt lat="43.97785" lon="3.80373">
        <ele>571</ele>
        <time>2019-03-12T13:37:11.266Z</time>
      </trkpt>
      <trkpt lat="43.97782" lon="3.80376">
        <ele>572</ele>
        <time>2019-03-12T13:37:15.289Z</time>
      </trkpt>
      <trkpt lat="43.97778" lon="3.80379">
        <ele>572</ele>
        <time>2019-03-12T13:37:30.286Z</time>
      </trkpt>
      <trkpt lat="43.97783" lon="3.80381">
        <ele>572</ele>
        <time>2019-03-12T13:37:35.263Z</time>
      </trkpt>
      <trkpt lat="43.97784" lon="3.80381">
        <ele>572</ele>
        <time>2019-03-12T13:37:39.267Z</time>
      </trkpt>
      <trkpt lat="43.97786" lon="3.8038">
        <ele>572</ele>
        <time>2019-03-12T13:37:43.299Z</time>
      </trkpt>
      <trkpt lat="43.97792" lon="3.80376">
        <ele>572</ele>
        <time>2019-03-12T13:37:48.291Z</time>
      </trkpt>
      <trkpt lat="43.97796" lon="3.80372">
        <ele>576</ele>
        <time>2019-03-12T13:37:53.263Z</time>
      </trkpt>
      <trkpt lat="43.97799" lon="3.80369">
        <ele>576</ele>
        <time>2019-03-12T13:37:57.295Z</time>
      </trkpt>
      <trkpt lat="43.97803" lon="3.8037">
        <ele>576</ele>
        <time>2019-03-12T13:38:02.293Z</time>
      </trkpt>
      <trkpt lat="43.97808" lon="3.80369">
        <ele>576</ele>
        <time>2019-03-12T13:38:07.270Z</time>
      </trkpt>
      <trkpt lat="43.97813" lon="3.8037">
        <ele>576</ele>
        <time>2019-03-12T13:38:11.272Z</time>
      </trkpt>
      <trkpt lat="43.97816" lon="3.80365">
        <ele>576</ele>
        <time>2019-03-12T13:38:16.267Z</time>
      </trkpt>
      <trkpt lat="43.97822" lon="3.80365">
        <ele>578</ele>
        <time>2019-03-12T13:38:21.273Z</time>
      </trkpt>
      <trkpt lat="43.97828" lon="3.80361">
        <ele>578</ele>
        <time>2019-03-12T13:38:26.261Z</time>
      </trkpt>
      <trkpt lat="43.97831" lon="3.80359">
        <ele>578</ele>
        <time>2019-03-12T13:38:30.260Z</time>
      </trkpt>
      <trkpt lat="43.97834" lon="3.80358">
        <ele>578</ele>
        <time>2019-03-12T13:38:34.264Z</time>
      </trkpt>
      <trkpt lat="43.97839" lon="3.80359">
        <ele>578</ele>
        <time>2019-03-12T13:38:39.260Z</time>
      </trkpt>
      <trkpt lat="43.97839" lon="3.80362">
        <ele>578</ele>
        <time>2019-03-12T13:38:43.296Z</time>
      </trkpt>
      <trkpt lat="43.97844" lon="3.80366">
        <ele>578</ele>
        <time>2019-03-12T13:38:48.274Z</time>
      </trkpt>
      <trkpt lat="43.97849" lon="3.80366">
        <ele>579</ele>
        <time>2019-03-12T13:38:53.302Z</time>
      </trkpt>
      <trkpt lat="43.97853" lon="3.80362">
        <ele>579</ele>
        <time>2019-03-12T13:38:58.302Z</time>
      </trkpt>
      <trkpt lat="43.97857" lon="3.80361">
        <ele>579</ele>
        <time>2019-03-12T13:39:03.259Z</time>
      </trkpt>
      <trkpt lat="43.97862" lon="3.80361">
        <ele>579</ele>
        <time>2019-03-12T13:39:07.311Z</time>
      </trkpt>
      <trkpt lat="43.97867" lon="3.80359">
        <ele>579</ele>
        <time>2019-03-12T13:39:12.262Z</time>
      </trkpt>
      <trkpt lat="43.9787" lon="3.80361">
        <ele>579</ele>
        <time>2019-03-12T13:39:16.298Z</time>
      </trkpt>
      <trkpt lat="43.97875" lon="3.80362">
        <ele>579</ele>
        <time>2019-03-12T13:39:21.261Z</time>
      </trkpt>
      <trkpt lat="43.9788" lon="3.80363">
        <ele>576</ele>
        <time>2019-03-12T13:39:25.262Z</time>
      </trkpt>
      <trkpt lat="43.97883" lon="3.80363">
        <ele>576</ele>
        <time>2019-03-12T13:39:29.273Z</time>
      </trkpt>
      <trkpt lat="43.97889" lon="3.80362">
        <ele>576</ele>
        <time>2019-03-12T13:39:33.278Z</time>
      </trkpt>
      <trkpt lat="43.97896" lon="3.80362">
        <ele>576</ele>
        <time>2019-03-12T13:39:38.263Z</time>
      </trkpt>
      <trkpt lat="43.97903" lon="3.80361">
        <ele>576</ele>
        <time>2019-03-12T13:39:43.265Z</time>
      </trkpt>
      <trkpt lat="43.97909" lon="3.8036">
        <ele>574</ele>
        <time>2019-03-12T13:39:48.265Z</time>
      </trkpt>
      <trkpt lat="43.97914" lon="3.8036">
        <ele>574</ele>
        <time>2019-03-12T13:39:52.271Z</time>
      </trkpt>
      <trkpt lat="43.9792" lon="3.8036">
        <ele>574</ele>
        <time>2019-03-12T13:39:57.261Z</time>
      </trkpt>
      <trkpt lat="43.97924" lon="3.80361">
        <ele>574</ele>
        <time>2019-03-12T13:40:01.280Z</time>
      </trkpt>
      <trkpt lat="43.97929" lon="3.80361">
        <ele>574</ele>
        <time>2019-03-12T13:40:06.263Z</time>
      </trkpt>
      <trkpt lat="43.97933" lon="3.80361">
        <ele>570</ele>
        <time>2019-03-12T13:40:11.290Z</time>
      </trkpt>
      <trkpt lat="43.97937" lon="3.80361">
        <ele>570</ele>
        <time>2019-03-12T13:40:16.295Z</time>
      </trkpt>
      <trkpt lat="43.97942" lon="3.8036">
        <ele>570</ele>
        <time>2019-03-12T13:40:21.264Z</time>
      </trkpt>
      <trkpt lat="43.97948" lon="3.80359">
        <ele>570</ele>
        <time>2019-03-12T13:40:26.292Z</time>
      </trkpt>
      <trkpt lat="43.97951" lon="3.80359">
        <ele>570</ele>
        <time>2019-03-12T13:40:31.270Z</time>
      </trkpt>
      <trkpt lat="43.97955" lon="3.80359">
        <ele>570</ele>
        <time>2019-03-12T13:40:36.267Z</time>
      </trkpt>
      <trkpt lat="43.97962" lon="3.80362">
        <ele>570</ele>
        <time>2019-03-12T13:40:41.278Z</time>
      </trkpt>
      <trkpt lat="43.97971" lon="3.80367">
        <ele>570</ele>
        <time>2019-03-12T13:40:46.275Z</time>
      </trkpt>
      <trkpt lat="43.97978" lon="3.80372">
        <ele>570</ele>
        <time>2019-03-12T13:40:51.262Z</time>
      </trkpt>
      <trkpt lat="43.97982" lon="3.80374">
        <ele>570</ele>
        <time>2019-03-12T13:40:55.292Z</time>
      </trkpt>
      <trkpt lat="43.97986" lon="3.80377">
        <ele>565</ele>
        <time>2019-03-12T13:40:59.293Z</time>
      </trkpt>
      <trkpt lat="43.97989" lon="3.80382">
        <ele>571</ele>
        <time>2019-03-12T13:41:04.261Z</time>
      </trkpt>
      <trkpt lat="43.97991" lon="3.80386">
        <ele>571</ele>
        <time>2019-03-12T13:41:08.273Z</time>
      </trkpt>
      <trkpt lat="43.97994" lon="3.80391">
        <ele>571</ele>
        <time>2019-03-12T13:41:12.295Z</time>
      </trkpt>
      <trkpt lat="43.97996" lon="3.80397">
        <ele>571</ele>
        <time>2019-03-12T13:41:17.267Z</time>
      </trkpt>
      <trkpt lat="43.97996" lon="3.80402">
        <ele>571</ele>
        <time>2019-03-12T13:41:21.301Z</time>
      </trkpt>
      <trkpt lat="43.97997" lon="3.80409">
        <ele>569</ele>
        <time>2019-03-12T13:41:26.261Z</time>
      </trkpt>
      <trkpt lat="43.97997" lon="3.80415">
        <ele>569</ele>
        <time>2019-03-12T13:41:30.265Z</time>
      </trkpt>
      <trkpt lat="43.97998" lon="3.80423">
        <ele>569</ele>
        <time>2019-03-12T13:41:35.262Z</time>
      </trkpt>
      <trkpt lat="43.97999" lon="3.80428">
        <ele>569</ele>
        <time>2019-03-12T13:41:39.293Z</time>
      </trkpt>
      <trkpt lat="43.98" lon="3.80435">
        <ele>568</ele>
        <time>2019-03-12T13:41:44.292Z</time>
      </trkpt>
      <trkpt lat="43.98001" lon="3.80443">
        <ele>568</ele>
        <time>2019-03-12T13:41:49.267Z</time>
      </trkpt>
      <trkpt lat="43.98002" lon="3.8045">
        <ele>568</ele>
        <time>2019-03-12T13:41:54.277Z</time>
      </trkpt>
      <trkpt lat="43.98002" lon="3.80457">
        <ele>568</ele>
        <time>2019-03-12T13:41:58.292Z</time>
      </trkpt>
      <trkpt lat="43.98002" lon="3.80464">
        <ele>568</ele>
        <time>2019-03-12T13:42:03.295Z</time>
      </trkpt>
      <trkpt lat="43.98001" lon="3.80471">
        <ele>568</ele>
        <time>2019-03-12T13:42:08.289Z</time>
      </trkpt>
      <trkpt lat="43.97999" lon="3.80478">
        <ele>568</ele>
        <time>2019-03-12T13:42:13.274Z</time>
      </trkpt>
      <trkpt lat="43.97999" lon="3.80485">
        <ele>568</ele>
        <time>2019-03-12T13:42:18.263Z</time>
      </trkpt>
      <trkpt lat="43.97997" lon="3.80491">
        <ele>568</ele>
        <time>2019-03-12T13:42:22.300Z</time>
      </trkpt>
      <trkpt lat="43.97996" lon="3.80496">
        <ele>568</ele>
        <time>2019-03-12T13:42:27.264Z</time>
      </trkpt>
      <trkpt lat="43.97995" lon="3.80502">
        <ele>568</ele>
        <time>2019-03-12T13:42:32.267Z</time>
      </trkpt>
      <trkpt lat="43.97992" lon="3.80508">
        <ele>568</ele>
        <time>2019-03-12T13:42:37.274Z</time>
      </trkpt>
      <trkpt lat="43.97989" lon="3.80514">
        <ele>568</ele>
        <time>2019-03-12T13:42:42.259Z</time>
      </trkpt>
      <trkpt lat="43.97988" lon="3.8052">
        <ele>568</ele>
        <time>2019-03-12T13:42:46.274Z</time>
      </trkpt>
      <trkpt lat="43.97986" lon="3.80526">
        <ele>556</ele>
        <time>2019-03-12T13:42:50.293Z</time>
      </trkpt>
      <trkpt lat="43.97985" lon="3.80531">
        <ele>556</ele>
        <time>2019-03-12T13:42:54.294Z</time>
      </trkpt>
      <trkpt lat="43.97982" lon="3.80539">
        <ele>556</ele>
        <time>2019-03-12T13:42:59.290Z</time>
      </trkpt>
      <trkpt lat="43.9798" lon="3.80546">
        <ele>558</ele>
        <time>2019-03-12T13:43:04.291Z</time>
      </trkpt>
      <trkpt lat="43.97978" lon="3.80552">
        <ele>558</ele>
        <time>2019-03-12T13:43:09.274Z</time>
      </trkpt>
      <trkpt lat="43.97975" lon="3.80558">
        <ele>558</ele>
        <time>2019-03-12T13:43:14.265Z</time>
      </trkpt>
      <trkpt lat="43.97973" lon="3.80562">
        <ele>558</ele>
        <time>2019-03-12T13:43:18.293Z</time>
      </trkpt>
      <trkpt lat="43.97972" lon="3.80567">
        <ele>558</ele>
        <time>2019-03-12T13:43:23.264Z</time>
      </trkpt>
      <trkpt lat="43.9797" lon="3.80575">
        <ele>561</ele>
        <time>2019-03-12T13:43:28.263Z</time>
      </trkpt>
      <trkpt lat="43.97968" lon="3.80581">
        <ele>561</ele>
        <time>2019-03-12T13:43:32.276Z</time>
      </trkpt>
      <trkpt lat="43.97967" lon="3.80586">
        <ele>561</ele>
        <time>2019-03-12T13:43:36.274Z</time>
      </trkpt>
      <trkpt lat="43.97965" lon="3.8059">
        <ele>561</ele>
        <time>2019-03-12T13:43:40.292Z</time>
      </trkpt>
      <trkpt lat="43.97963" lon="3.80598">
        <ele>561</ele>
        <time>2019-03-12T13:43:45.276Z</time>
      </trkpt>
      <trkpt lat="43.97961" lon="3.80602">
        <ele>561</ele>
        <time>2019-03-12T13:43:50.294Z</time>
      </trkpt>
      <trkpt lat="43.9796" lon="3.80603">
        <ele>561</ele>
        <time>2019-03-12T13:43:55.294Z</time>
      </trkpt>
      <trkpt lat="43.97958" lon="3.80607">
        <ele>552</ele>
        <time>2019-03-12T13:43:59.296Z</time>
      </trkpt>
      <trkpt lat="43.97958" lon="3.80609">
        <ele>552</ele>
        <time>2019-03-12T13:44:04.250Z</time>
      </trkpt>
      <trkpt lat="43.97955" lon="3.80615">
        <ele>552</ele>
        <time>2019-03-12T13:44:08.284Z</time>
      </trkpt>
      <trkpt lat="43.97955" lon="3.80616">
        <ele>552</ele>
        <time>2019-03-12T13:44:13.266Z</time>
      </trkpt>
      <trkpt lat="43.97955" lon="3.80619">
        <ele>552</ele>
        <time>2019-03-12T13:44:17.291Z</time>
      </trkpt>
      <trkpt lat="43.97953" lon="3.80634">
        <ele>551</ele>
        <time>2019-03-12T13:44:22.261Z</time>
      </trkpt>
      <trkpt lat="43.97951" lon="3.80642">
        <ele>551</ele>
        <time>2019-03-12T13:44:26.261Z</time>
      </trkpt>
      <trkpt lat="43.9795" lon="3.80646">
        <ele>551</ele>
        <time>2019-03-12T13:44:30.266Z</time>
      </trkpt>
      <trkpt lat="43.9795" lon="3.80652">
        <ele>551</ele>
        <time>2019-03-12T13:44:34.263Z</time>
      </trkpt>
      <trkpt lat="43.97949" lon="3.80658">
        <ele>550</ele>
        <time>2019-03-12T13:44:38.283Z</time>
      </trkpt>
      <trkpt lat="43.97947" lon="3.80662">
        <ele>550</ele>
        <time>2019-03-12T13:44:42.301Z</time>
      </trkpt>
      <trkpt lat="43.97946" lon="3.80668">
        <ele>550</ele>
        <time>2019-03-12T13:44:47.279Z</time>
      </trkpt>
      <trkpt lat="43.97944" lon="3.80674">
        <ele>550</ele>
        <time>2019-03-12T13:44:52.267Z</time>
      </trkpt>
      <trkpt lat="43.97942" lon="3.8068">
        <ele>550</ele>
        <time>2019-03-12T13:44:57.263Z</time>
      </trkpt>
      <trkpt lat="43.97941" lon="3.80685">
        <ele>549</ele>
        <time>2019-03-12T13:45:02.262Z</time>
      </trkpt>
      <trkpt lat="43.9794" lon="3.80689">
        <ele>549</ele>
        <time>2019-03-12T13:45:06.273Z</time>
      </trkpt>
      <trkpt lat="43.97939" lon="3.80695">
        <ele>549</ele>
        <time>2019-03-12T13:45:11.263Z</time>
      </trkpt>
      <trkpt lat="43.97939" lon="3.80702">
        <ele>549</ele>
        <time>2019-03-12T13:45:15.267Z</time>
      </trkpt>
      <trkpt lat="43.97939" lon="3.80707">
        <ele>549</ele>
        <time>2019-03-12T13:45:19.270Z</time>
      </trkpt>
      <trkpt lat="43.97939" lon="3.80712">
        <ele>548</ele>
        <time>2019-03-12T13:45:23.284Z</time>
      </trkpt>
      <trkpt lat="43.9794" lon="3.8072">
        <ele>548</ele>
        <time>2019-03-12T13:45:28.274Z</time>
      </trkpt>
      <trkpt lat="43.97939" lon="3.80728">
        <ele>548</ele>
        <time>2019-03-12T13:45:33.263Z</time>
      </trkpt>
      <trkpt lat="43.97938" lon="3.80734">
        <ele>548</ele>
        <time>2019-03-12T13:45:38.262Z</time>
      </trkpt>
      <trkpt lat="43.97938" lon="3.80738">
        <ele>544</ele>
        <time>2019-03-12T13:45:42.295Z</time>
      </trkpt>
      <trkpt lat="43.97939" lon="3.80745">
        <ele>544</ele>
        <time>2019-03-12T13:45:47.264Z</time>
      </trkpt>
      <trkpt lat="43.9794" lon="3.80751">
        <ele>544</ele>
        <time>2019-03-12T13:45:51.292Z</time>
      </trkpt>
      <trkpt lat="43.9794" lon="3.80759">
        <ele>544</ele>
        <time>2019-03-12T13:45:56.270Z</time>
      </trkpt>
      <trkpt lat="43.9794" lon="3.80767">
        <ele>541</ele>
        <time>2019-03-12T13:46:01.295Z</time>
      </trkpt>
      <trkpt lat="43.9794" lon="3.80774">
        <ele>541</ele>
        <time>2019-03-12T13:46:06.262Z</time>
      </trkpt>
      <trkpt lat="43.9794" lon="3.8078">
        <ele>541</ele>
        <time>2019-03-12T13:46:10.295Z</time>
      </trkpt>
      <trkpt lat="43.97939" lon="3.80788">
        <ele>541</ele>
        <time>2019-03-12T13:46:15.273Z</time>
      </trkpt>
      <trkpt lat="43.97939" lon="3.80794">
        <ele>538</ele>
        <time>2019-03-12T13:46:19.296Z</time>
      </trkpt>
      <trkpt lat="43.97938" lon="3.808">
        <ele>538</ele>
        <time>2019-03-12T13:46:24.274Z</time>
      </trkpt>
      <trkpt lat="43.97937" lon="3.80805">
        <ele>538</ele>
        <time>2019-03-12T13:46:28.302Z</time>
      </trkpt>
      <trkpt lat="43.97936" lon="3.80812">
        <ele>538</ele>
        <time>2019-03-12T13:46:33.265Z</time>
      </trkpt>
      <trkpt lat="43.97936" lon="3.80817">
        <ele>538</ele>
        <time>2019-03-12T13:46:37.271Z</time>
      </trkpt>
      <trkpt lat="43.97936" lon="3.80823">
        <ele>536</ele>
        <time>2019-03-12T13:46:41.274Z</time>
      </trkpt>
      <trkpt lat="43.97937" lon="3.8083">
        <ele>536</ele>
        <time>2019-03-12T13:46:45.295Z</time>
      </trkpt>
      <trkpt lat="43.9794" lon="3.80837">
        <ele>536</ele>
        <time>2019-03-12T13:46:50.295Z</time>
      </trkpt>
      <trkpt lat="43.97944" lon="3.80843">
        <ele>536</ele>
        <time>2019-03-12T13:46:55.262Z</time>
      </trkpt>
      <trkpt lat="43.97947" lon="3.80849">
        <ele>533</ele>
        <time>2019-03-12T13:46:59.266Z</time>
      </trkpt>
      <trkpt lat="43.97951" lon="3.80855">
        <ele>533</ele>
        <time>2019-03-12T13:47:04.257Z</time>
      </trkpt>
      <trkpt lat="43.97954" lon="3.80859">
        <ele>533</ele>
        <time>2019-03-12T13:47:08.271Z</time>
      </trkpt>
      <trkpt lat="43.97956" lon="3.80866">
        <ele>533</ele>
        <time>2019-03-12T13:47:13.297Z</time>
      </trkpt>
      <trkpt lat="43.97958" lon="3.80871">
        <ele>540</ele>
        <time>2019-03-12T13:47:18.266Z</time>
      </trkpt>
      <trkpt lat="43.97963" lon="3.80875">
        <ele>536</ele>
        <time>2019-03-12T13:47:23.297Z</time>
      </trkpt>
      <trkpt lat="43.97966" lon="3.80879">
        <ele>536</ele>
        <time>2019-03-12T13:47:28.292Z</time>
      </trkpt>
      <trkpt lat="43.97968" lon="3.8088">
        <ele>536</ele>
        <time>2019-03-12T13:47:33.269Z</time>
      </trkpt>
      <trkpt lat="43.97973" lon="3.80883">
        <ele>536</ele>
        <time>2019-03-12T13:47:38.262Z</time>
      </trkpt>
      <trkpt lat="43.97977" lon="3.80886">
        <ele>536</ele>
        <time>2019-03-12T13:47:42.273Z</time>
      </trkpt>
      <trkpt lat="43.9798" lon="3.80891">
        <ele>536</ele>
        <time>2019-03-12T13:47:47.275Z</time>
      </trkpt>
      <trkpt lat="43.9798" lon="3.80896">
        <ele>536</ele>
        <time>2019-03-12T13:47:51.290Z</time>
      </trkpt>
      <trkpt lat="43.97979" lon="3.80902">
        <ele>536</ele>
        <time>2019-03-12T13:47:56.291Z</time>
      </trkpt>
      <trkpt lat="43.97978" lon="3.80908">
        <ele>532</ele>
        <time>2019-03-12T13:48:01.262Z</time>
      </trkpt>
      <trkpt lat="43.97977" lon="3.80914">
        <ele>532</ele>
        <time>2019-03-12T13:48:05.263Z</time>
      </trkpt>
      <trkpt lat="43.97976" lon="3.80919">
        <ele>532</ele>
        <time>2019-03-12T13:48:09.291Z</time>
      </trkpt>
      <trkpt lat="43.97974" lon="3.80925">
        <ele>532</ele>
        <time>2019-03-12T13:48:14.276Z</time>
      </trkpt>
      <trkpt lat="43.97972" lon="3.8093">
        <ele>532</ele>
        <time>2019-03-12T13:48:18.272Z</time>
      </trkpt>
      <trkpt lat="43.9797" lon="3.80936">
        <ele>531</ele>
        <time>2019-03-12T13:48:23.278Z</time>
      </trkpt>
      <trkpt lat="43.97968" lon="3.80942">
        <ele>531</ele>
        <time>2019-03-12T13:48:27.290Z</time>
      </trkpt>
      <trkpt lat="43.97967" lon="3.80949">
        <ele>531</ele>
        <time>2019-03-12T13:48:32.273Z</time>
      </trkpt>
      <trkpt lat="43.97966" lon="3.80956">
        <ele>531</ele>
        <time>2019-03-12T13:48:37.260Z</time>
      </trkpt>
      <trkpt lat="43.97965" lon="3.80962">
        <ele>531</ele>
        <time>2019-03-12T13:48:41.272Z</time>
      </trkpt>
      <trkpt lat="43.97962" lon="3.80969">
        <ele>531</ele>
        <time>2019-03-12T13:48:46.291Z</time>
      </trkpt>
      <trkpt lat="43.97961" lon="3.80977">
        <ele>531</ele>
        <time>2019-03-12T13:48:51.260Z</time>
      </trkpt>
      <trkpt lat="43.97959" lon="3.80983">
        <ele>531</ele>
        <time>2019-03-12T13:48:55.260Z</time>
      </trkpt>
      <trkpt lat="43.97958" lon="3.80989">
        <ele>521</ele>
        <time>2019-03-12T13:48:59.276Z</time>
      </trkpt>
      <trkpt lat="43.97955" lon="3.80998">
        <ele>521</ele>
        <time>2019-03-12T13:49:04.287Z</time>
      </trkpt>
      <trkpt lat="43.97953" lon="3.81004">
        <ele>521</ele>
        <time>2019-03-12T13:49:08.295Z</time>
      </trkpt>
      <trkpt lat="43.97951" lon="3.81011">
        <ele>521</ele>
        <time>2019-03-12T13:49:13.263Z</time>
      </trkpt>
      <trkpt lat="43.97949" lon="3.81016">
        <ele>522</ele>
        <time>2019-03-12T13:49:17.260Z</time>
      </trkpt>
      <trkpt lat="43.97947" lon="3.81024">
        <ele>522</ele>
        <time>2019-03-12T13:49:22.295Z</time>
      </trkpt>
      <trkpt lat="43.97946" lon="3.81032">
        <ele>522</ele>
        <time>2019-03-12T13:49:27.260Z</time>
      </trkpt>
      <trkpt lat="43.97945" lon="3.81038">
        <ele>522</ele>
        <time>2019-03-12T13:49:31.264Z</time>
      </trkpt>
      <trkpt lat="43.97945" lon="3.81044">
        <ele>522</ele>
        <time>2019-03-12T13:49:35.268Z</time>
      </trkpt>
      <trkpt lat="43.97943" lon="3.81053">
        <ele>522</ele>
        <time>2019-03-12T13:49:40.291Z</time>
      </trkpt>
      <trkpt lat="43.97943" lon="3.81061">
        <ele>522</ele>
        <time>2019-03-12T13:49:45.261Z</time>
      </trkpt>
      <trkpt lat="43.97943" lon="3.81069">
        <ele>522</ele>
        <time>2019-03-12T13:49:50.292Z</time>
      </trkpt>
      <trkpt lat="43.97942" lon="3.81077">
        <ele>523</ele>
        <time>2019-03-12T13:49:55.266Z</time>
      </trkpt>
      <trkpt lat="43.97941" lon="3.81083">
        <ele>523</ele>
        <time>2019-03-12T13:49:59.274Z</time>
      </trkpt>
      <trkpt lat="43.97941" lon="3.81089">
        <ele>523</ele>
        <time>2019-03-12T13:50:04.290Z</time>
      </trkpt>
      <trkpt lat="43.97942" lon="3.81098">
        <ele>521</ele>
        <time>2019-03-12T13:50:09.296Z</time>
      </trkpt>
      <trkpt lat="43.97941" lon="3.81105">
        <ele>521</ele>
        <time>2019-03-12T13:50:14.289Z</time>
      </trkpt>
      <trkpt lat="43.97941" lon="3.81114">
        <ele>521</ele>
        <time>2019-03-12T13:50:19.299Z</time>
      </trkpt>
      <trkpt lat="43.9794" lon="3.8112">
        <ele>521</ele>
        <time>2019-03-12T13:50:24.290Z</time>
      </trkpt>
      <trkpt lat="43.9794" lon="3.81121">
        <ele>521</ele>
        <time>2019-03-12T13:50:29.259Z</time>
      </trkpt>
      <trkpt lat="43.97938" lon="3.81126">
        <ele>518</ele>
        <time>2019-03-12T13:50:33.294Z</time>
      </trkpt>
      <trkpt lat="43.97937" lon="3.81132">
        <ele>518</ele>
        <time>2019-03-12T13:50:38.290Z</time>
      </trkpt>
      <trkpt lat="43.97937" lon="3.81143">
        <ele>518</ele>
        <time>2019-03-12T13:50:48.295Z</time>
      </trkpt>
      <trkpt lat="43.97936" lon="3.81144">
        <ele>518</ele>
        <time>2019-03-12T13:50:53.272Z</time>
      </trkpt>
      <trkpt lat="43.97936" lon="3.81145">
        <ele>518</ele>
        <time>2019-03-12T13:50:57.295Z</time>
      </trkpt>
      <trkpt lat="43.97935" lon="3.81146">
        <ele>518</ele>
        <time>2019-03-12T13:51:01.295Z</time>
      </trkpt>
      <trkpt lat="43.97934" lon="3.81149">
        <ele>518</ele>
        <time>2019-03-12T13:53:31.264Z</time>
      </trkpt>
      <trkpt lat="43.97935" lon="3.81153">
        <ele>514</ele>
        <time>2019-03-12T13:54:48.264Z</time>
      </trkpt>
      <trkpt lat="43.97937" lon="3.81159">
        <ele>514</ele>
        <time>2019-03-12T13:54:53.280Z</time>
      </trkpt>
      <trkpt lat="43.97939" lon="3.81164">
        <ele>514</ele>
        <time>2019-03-12T13:54:58.264Z</time>
      </trkpt>
      <trkpt lat="43.97941" lon="3.81169">
        <ele>514</ele>
        <time>2019-03-12T13:55:03.302Z</time>
      </trkpt>
      <trkpt lat="43.97944" lon="3.81174">
        <ele>514</ele>
        <time>2019-03-12T13:55:08.261Z</time>
      </trkpt>
      <trkpt lat="43.97944" lon="3.81175">
        <ele>514</ele>
        <time>2019-03-12T13:55:12.291Z</time>
      </trkpt>
      <trkpt lat="43.97947" lon="3.8118">
        <ele>514</ele>
        <time>2019-03-12T13:55:17.291Z</time>
      </trkpt>
      <trkpt lat="43.97949" lon="3.81185">
        <ele>507</ele>
        <time>2019-03-12T13:55:22.248Z</time>
      </trkpt>
      <trkpt lat="43.97951" lon="3.8119">
        <ele>507</ele>
        <time>2019-03-12T13:55:26.269Z</time>
      </trkpt>
      <trkpt lat="43.97955" lon="3.81195">
        <ele>507</ele>
        <time>2019-03-12T13:55:31.264Z</time>
      </trkpt>
      <trkpt lat="43.97957" lon="3.81201">
        <ele>507</ele>
        <time>2019-03-12T13:55:36.306Z</time>
      </trkpt>
      <trkpt lat="43.97958" lon="3.81207">
        <ele>516</ele>
        <time>2019-03-12T13:55:41.261Z</time>
      </trkpt>
      <trkpt lat="43.9796" lon="3.81212">
        <ele>509</ele>
        <time>2019-03-12T13:55:45.300Z</time>
      </trkpt>
      <trkpt lat="43.97962" lon="3.81217">
        <ele>509</ele>
        <time>2019-03-12T13:55:50.299Z</time>
      </trkpt>
      <trkpt lat="43.97965" lon="3.81222">
        <ele>509</ele>
        <time>2019-03-12T13:55:55.293Z</time>
      </trkpt>
      <trkpt lat="43.97969" lon="3.81227">
        <ele>509</ele>
        <time>2019-03-12T13:56:00.265Z</time>
      </trkpt>
      <trkpt lat="43.97973" lon="3.81232">
        <ele>509</ele>
        <time>2019-03-12T13:56:05.263Z</time>
      </trkpt>
      <trkpt lat="43.97976" lon="3.81236">
        <ele>509</ele>
        <time>2019-03-12T13:56:09.274Z</time>
      </trkpt>
      <trkpt lat="43.9798" lon="3.81242">
        <ele>503</ele>
        <time>2019-03-12T13:56:14.264Z</time>
      </trkpt>
      <trkpt lat="43.97984" lon="3.81247">
        <ele>503</ele>
        <time>2019-03-12T13:56:19.263Z</time>
      </trkpt>
      <trkpt lat="43.97988" lon="3.81251">
        <ele>509</ele>
        <time>2019-03-12T13:56:23.271Z</time>
      </trkpt>
      <trkpt lat="43.97991" lon="3.81257">
        <ele>509</ele>
        <time>2019-03-12T13:56:28.261Z</time>
      </trkpt>
      <trkpt lat="43.97994" lon="3.8126">
        <ele>509</ele>
        <time>2019-03-12T13:56:32.272Z</time>
      </trkpt>
      <trkpt lat="43.97997" lon="3.81264">
        <ele>509</ele>
        <time>2019-03-12T13:56:37.260Z</time>
      </trkpt>
      <trkpt lat="43.98001" lon="3.81267">
        <ele>503</ele>
        <time>2019-03-12T13:56:41.295Z</time>
      </trkpt>
      <trkpt lat="43.98005" lon="3.81272">
        <ele>503</ele>
        <time>2019-03-12T13:56:46.265Z</time>
      </trkpt>
      <trkpt lat="43.98009" lon="3.81276">
        <ele>503</ele>
        <time>2019-03-12T13:56:51.267Z</time>
      </trkpt>
      <trkpt lat="43.98012" lon="3.81279">
        <ele>503</ele>
        <time>2019-03-12T13:56:55.267Z</time>
      </trkpt>
      <trkpt lat="43.98016" lon="3.81284">
        <ele>507</ele>
        <time>2019-03-12T13:57:00.263Z</time>
      </trkpt>
      <trkpt lat="43.9802" lon="3.81289">
        <ele>507</ele>
        <time>2019-03-12T13:57:05.271Z</time>
      </trkpt>
      <trkpt lat="43.98024" lon="3.81294">
        <ele>501</ele>
        <time>2019-03-12T13:57:10.293Z</time>
      </trkpt>
      <trkpt lat="43.98027" lon="3.81296">
        <ele>501</ele>
        <time>2019-03-12T13:57:15.263Z</time>
      </trkpt>
      <trkpt lat="43.98031" lon="3.81299">
        <ele>501</ele>
        <time>2019-03-12T13:57:19.294Z</time>
      </trkpt>
      <trkpt lat="43.98032" lon="3.813">
        <ele>501</ele>
        <time>2019-03-12T13:57:23.295Z</time>
      </trkpt>
      <trkpt lat="43.98037" lon="3.81305">
        <ele>501</ele>
        <time>2019-03-12T13:57:28.265Z</time>
      </trkpt>
      <trkpt lat="43.98041" lon="3.8131">
        <ele>501</ele>
        <time>2019-03-12T13:57:32.297Z</time>
      </trkpt>
      <trkpt lat="43.98041" lon="3.81314">
        <ele>501</ele>
        <time>2019-03-12T13:57:46.267Z</time>
      </trkpt>
      <trkpt lat="43.98037" lon="3.81315">
        <ele>501</ele>
        <time>2019-03-12T13:57:50.320Z</time>
      </trkpt>
      <trkpt lat="43.98036" lon="3.81316">
        <ele>501</ele>
        <time>2019-03-12T13:57:55.292Z</time>
      </trkpt>
      <trkpt lat="43.98034" lon="3.81314">
        <ele>501</ele>
        <time>2019-03-12T13:58:00.263Z</time>
      </trkpt>
      <trkpt lat="43.98032" lon="3.81319">
        <ele>501</ele>
        <time>2019-03-12T13:58:18.302Z</time>
      </trkpt>
      <trkpt lat="43.98028" lon="3.81321">
        <ele>501</ele>
        <time>2019-03-12T13:58:23.294Z</time>
      </trkpt>
      <trkpt lat="43.98026" lon="3.81323">
        <ele>501</ele>
        <time>2019-03-12T13:58:28.277Z</time>
      </trkpt>
      <trkpt lat="43.98023" lon="3.81324">
        <ele>501</ele>
        <time>2019-03-12T13:58:33.293Z</time>
      </trkpt>
      <trkpt lat="43.98021" lon="3.81325">
        <ele>501</ele>
        <time>2019-03-12T13:58:38.263Z</time>
      </trkpt>
      <trkpt lat="43.98017" lon="3.8133">
        <ele>501</ele>
        <time>2019-03-12T13:58:47.260Z</time>
      </trkpt>
      <trkpt lat="43.98014" lon="3.81332">
        <ele>501</ele>
        <time>2019-03-12T13:58:51.290Z</time>
      </trkpt>
      <trkpt lat="43.98009" lon="3.81337">
        <ele>497</ele>
        <time>2019-03-12T13:58:55.303Z</time>
      </trkpt>
      <trkpt lat="43.98004" lon="3.81344">
        <ele>497</ele>
        <time>2019-03-12T13:59:00.293Z</time>
      </trkpt>
      <trkpt lat="43.98003" lon="3.81345">
        <ele>497</ele>
        <time>2019-03-12T13:59:05.273Z</time>
      </trkpt>
      <trkpt lat="43.97998" lon="3.8135">
        <ele>503</ele>
        <time>2019-03-12T13:59:10.262Z</time>
      </trkpt>
      <trkpt lat="43.97993" lon="3.81352">
        <ele>503</ele>
        <time>2019-03-12T13:59:14.280Z</time>
      </trkpt>
      <trkpt lat="43.97987" lon="3.81356">
        <ele>503</ele>
        <time>2019-03-12T13:59:19.269Z</time>
      </trkpt>
      <trkpt lat="43.97982" lon="3.81359">
        <ele>504</ele>
        <time>2019-03-12T13:59:24.292Z</time>
      </trkpt>
      <trkpt lat="43.97977" lon="3.81362">
        <ele>504</ele>
        <time>2019-03-12T13:59:29.285Z</time>
      </trkpt>
      <trkpt lat="43.97974" lon="3.81365">
        <ele>504</ele>
        <time>2019-03-12T13:59:34.272Z</time>
      </trkpt>
      <trkpt lat="43.97969" lon="3.81375">
        <ele>504</ele>
        <time>2019-03-12T14:00:03.261Z</time>
      </trkpt>
      <trkpt lat="43.97965" lon="3.81383">
        <ele>511</ele>
        <time>2019-03-12T14:00:08.284Z</time>
      </trkpt>
      <trkpt lat="43.97964" lon="3.81383">
        <ele>511</ele>
        <time>2019-03-12T14:00:13.266Z</time>
      </trkpt>
      <trkpt lat="43.9796" lon="3.81383">
        <ele>511</ele>
        <time>2019-03-12T14:00:17.303Z</time>
      </trkpt>
      <trkpt lat="43.97956" lon="3.81383">
        <ele>510</ele>
        <time>2019-03-12T14:00:22.269Z</time>
      </trkpt>
      <trkpt lat="43.97954" lon="3.81383">
        <ele>510</ele>
        <time>2019-03-12T14:00:27.262Z</time>
      </trkpt>
      <trkpt lat="43.9795" lon="3.81384">
        <ele>510</ele>
        <time>2019-03-12T14:00:31.309Z</time>
      </trkpt>
      <trkpt lat="43.97946" lon="3.81386">
        <ele>510</ele>
        <time>2019-03-12T14:00:36.264Z</time>
      </trkpt>
      <trkpt lat="43.97941" lon="3.81387">
        <ele>510</ele>
        <time>2019-03-12T14:00:40.263Z</time>
      </trkpt>
      <trkpt lat="43.97938" lon="3.81388">
        <ele>510</ele>
        <time>2019-03-12T14:00:44.291Z</time>
      </trkpt>
      <trkpt lat="43.97935" lon="3.8139">
        <ele>510</ele>
        <time>2019-03-12T14:00:49.260Z</time>
      </trkpt>
      <trkpt lat="43.9793" lon="3.81393">
        <ele>509</ele>
        <time>2019-03-12T14:00:53.262Z</time>
      </trkpt>
      <trkpt lat="43.97927" lon="3.81396">
        <ele>509</ele>
        <time>2019-03-12T14:00:57.291Z</time>
      </trkpt>
      <trkpt lat="43.97922" lon="3.81399">
        <ele>509</ele>
        <time>2019-03-12T14:01:02.290Z</time>
      </trkpt>
      <trkpt lat="43.97918" lon="3.81403">
        <ele>509</ele>
        <time>2019-03-12T14:01:07.292Z</time>
      </trkpt>
      <trkpt lat="43.97914" lon="3.81408">
        <ele>514</ele>
        <time>2019-03-12T14:01:12.272Z</time>
      </trkpt>
      <trkpt lat="43.97911" lon="3.81412">
        <ele>514</ele>
        <time>2019-03-12T14:01:16.292Z</time>
      </trkpt>
      <trkpt lat="43.97907" lon="3.81416">
        <ele>514</ele>
        <time>2019-03-12T14:01:21.295Z</time>
      </trkpt>
      <trkpt lat="43.97902" lon="3.81421">
        <ele>514</ele>
        <time>2019-03-12T14:01:26.272Z</time>
      </trkpt>
      <trkpt lat="43.97899" lon="3.81426">
        <ele>514</ele>
        <time>2019-03-12T14:01:30.290Z</time>
      </trkpt>
      <trkpt lat="43.97895" lon="3.81429">
        <ele>514</ele>
        <time>2019-03-12T14:01:35.294Z</time>
      </trkpt>
      <trkpt lat="43.97891" lon="3.81431">
        <ele>518</ele>
        <time>2019-03-12T14:01:39.291Z</time>
      </trkpt>
      <trkpt lat="43.97887" lon="3.81434">
        <ele>518</ele>
        <time>2019-03-12T14:01:44.295Z</time>
      </trkpt>
      <trkpt lat="43.97884" lon="3.81439">
        <ele>518</ele>
        <time>2019-03-12T14:01:49.263Z</time>
      </trkpt>
      <trkpt lat="43.97881" lon="3.81443">
        <ele>518</ele>
        <time>2019-03-12T14:01:53.274Z</time>
      </trkpt>
      <trkpt lat="43.97878" lon="3.81445">
        <ele>518</ele>
        <time>2019-03-12T14:01:57.275Z</time>
      </trkpt>
      <trkpt lat="43.97875" lon="3.81451">
        <ele>518</ele>
        <time>2019-03-12T14:02:02.260Z</time>
      </trkpt>
      <trkpt lat="43.97874" lon="3.81456">
        <ele>519</ele>
        <time>2019-03-12T14:02:06.255Z</time>
      </trkpt>
      <trkpt lat="43.97873" lon="3.81462">
        <ele>519</ele>
        <time>2019-03-12T14:02:10.290Z</time>
      </trkpt>
      <trkpt lat="43.97872" lon="3.81469">
        <ele>519</ele>
        <time>2019-03-12T14:02:15.290Z</time>
      </trkpt>
      <trkpt lat="43.97872" lon="3.81471">
        <ele>519</ele>
        <time>2019-03-12T14:02:20.267Z</time>
      </trkpt>
      <trkpt lat="43.97873" lon="3.81477">
        <ele>519</ele>
        <time>2019-03-12T14:02:24.271Z</time>
      </trkpt>
      <trkpt lat="43.97875" lon="3.81483">
        <ele>519</ele>
        <time>2019-03-12T14:02:28.296Z</time>
      </trkpt>
      <trkpt lat="43.97875" lon="3.81486">
        <ele>519</ele>
        <time>2019-03-12T14:02:33.268Z</time>
      </trkpt>
      <trkpt lat="43.97873" lon="3.815">
        <ele>517</ele>
        <time>2019-03-12T14:03:22.294Z</time>
      </trkpt>
      <trkpt lat="43.97871" lon="3.81501">
        <ele>517</ele>
        <time>2019-03-12T14:03:26.300Z</time>
      </trkpt>
      <trkpt lat="43.97871" lon="3.81501">
        <ele>517</ele>
        <time>2019-03-12T14:03:31.252Z</time>
      </trkpt>
      <trkpt lat="43.97871" lon="3.81502">
        <ele>517</ele>
        <time>2019-03-12T14:03:36.248Z</time>
      </trkpt>
      <trkpt lat="43.97869" lon="3.81501">
        <ele>517</ele>
        <time>2019-03-12T14:03:58.262Z</time>
      </trkpt>
      <trkpt lat="43.97868" lon="3.81501">
        <ele>517</ele>
        <time>2019-03-12T14:04:02.261Z</time>
      </trkpt>
      <trkpt lat="43.97864" lon="3.81501">
        <ele>517</ele>
        <time>2019-03-12T14:04:11.291Z</time>
      </trkpt>
      <trkpt lat="43.97862" lon="3.81502">
        <ele>517</ele>
        <time>2019-03-12T14:04:16.265Z</time>
      </trkpt>
      <trkpt lat="43.9786" lon="3.81502">
        <ele>517</ele>
        <time>2019-03-12T14:04:21.251Z</time>
      </trkpt>
      <trkpt lat="43.97852" lon="3.81502">
        <ele>517</ele>
        <time>2019-03-12T14:05:21.293Z</time>
      </trkpt>
      <trkpt lat="43.97849" lon="3.81503">
        <ele>517</ele>
        <time>2019-03-12T14:05:26.262Z</time>
      </trkpt>
      <trkpt lat="43.97839" lon="3.81509">
        <ele>514</ele>
        <time>2019-03-12T14:05:44.275Z</time>
      </trkpt>
      <trkpt lat="43.97834" lon="3.81511">
        <ele>514</ele>
        <time>2019-03-12T14:05:48.293Z</time>
      </trkpt>
      <trkpt lat="43.97828" lon="3.81511">
        <ele>514</ele>
        <time>2019-03-12T14:06:30.263Z</time>
      </trkpt>
      <trkpt lat="43.9782" lon="3.81509">
        <ele>514</ele>
        <time>2019-03-12T14:06:35.265Z</time>
      </trkpt>
      <trkpt lat="43.97813" lon="3.81507">
        <ele>510</ele>
        <time>2019-03-12T14:06:50.264Z</time>
      </trkpt>
      <trkpt lat="43.97807" lon="3.81508">
        <ele>510</ele>
        <time>2019-03-12T14:06:59.291Z</time>
      </trkpt>
      <trkpt lat="43.97797" lon="3.81508">
        <ele>510</ele>
        <time>2019-03-12T14:07:04.260Z</time>
      </trkpt>
      <trkpt lat="43.97791" lon="3.81506">
        <ele>505</ele>
        <time>2019-03-12T14:07:13.266Z</time>
      </trkpt>
      <trkpt lat="43.97789" lon="3.81506">
        <ele>505</ele>
        <time>2019-03-12T14:07:17.260Z</time>
      </trkpt>
      <trkpt lat="43.97786" lon="3.81503">
        <ele>505</ele>
        <time>2019-03-12T14:07:31.264Z</time>
      </trkpt>
      <trkpt lat="43.97784" lon="3.81502">
        <ele>505</ele>
        <time>2019-03-12T14:07:40.271Z</time>
      </trkpt>
      <trkpt lat="43.9778" lon="3.81499">
        <ele>505</ele>
        <time>2019-03-12T14:07:45.264Z</time>
      </trkpt>
      <trkpt lat="43.97777" lon="3.81498">
        <ele>505</ele>
        <time>2019-03-12T14:07:50.262Z</time>
      </trkpt>
      <trkpt lat="43.97775" lon="3.81496">
        <ele>505</ele>
        <time>2019-03-12T14:07:54.274Z</time>
      </trkpt>
      <trkpt lat="43.97773" lon="3.81496">
        <ele>505</ele>
        <time>2019-03-12T14:07:58.301Z</time>
      </trkpt>
      <trkpt lat="43.97769" lon="3.81494">
        <ele>505</ele>
        <time>2019-03-12T14:08:03.298Z</time>
      </trkpt>
      <trkpt lat="43.97766" lon="3.81493">
        <ele>505</ele>
        <time>2019-03-12T14:08:08.288Z</time>
      </trkpt>
      <trkpt lat="43.97761" lon="3.81491">
        <ele>498</ele>
        <time>2019-03-12T14:08:13.263Z</time>
      </trkpt>
      <trkpt lat="43.97758" lon="3.81491">
        <ele>498</ele>
        <time>2019-03-12T14:08:17.268Z</time>
      </trkpt>
      <trkpt lat="43.97757" lon="3.81491">
        <ele>498</ele>
        <time>2019-03-12T14:08:25.304Z</time>
      </trkpt>
      <trkpt lat="43.9775" lon="3.81491">
        <ele>498</ele>
        <time>2019-03-12T14:08:30.275Z</time>
      </trkpt>
      <trkpt lat="43.97742" lon="3.81489">
        <ele>498</ele>
        <time>2019-03-12T14:08:50.261Z</time>
      </trkpt>
      <trkpt lat="43.9774" lon="3.8149">
        <ele>498</ele>
        <time>2019-03-12T14:08:54.266Z</time>
      </trkpt>
      <trkpt lat="43.97736" lon="3.81491">
        <ele>498</ele>
        <time>2019-03-12T14:08:59.284Z</time>
      </trkpt>
      <trkpt lat="43.97736" lon="3.81492">
        <ele>498</ele>
        <time>2019-03-12T14:09:04.265Z</time>
      </trkpt>
      <trkpt lat="43.97736" lon="3.81496">
        <ele>496</ele>
        <time>2019-03-12T14:09:08.294Z</time>
      </trkpt>
      <trkpt lat="43.97732" lon="3.81499">
        <ele>496</ele>
        <time>2019-03-12T14:09:17.324Z</time>
      </trkpt>
      <trkpt lat="43.9773" lon="3.81498">
        <ele>496</ele>
        <time>2019-03-12T14:09:22.266Z</time>
      </trkpt>
      <trkpt lat="43.97728" lon="3.81499">
        <ele>496</ele>
        <time>2019-03-12T14:09:26.274Z</time>
      </trkpt>
      <trkpt lat="43.97727" lon="3.81501">
        <ele>496</ele>
        <time>2019-03-12T14:09:31.269Z</time>
      </trkpt>
      <trkpt lat="43.97724" lon="3.81504">
        <ele>496</ele>
        <time>2019-03-12T14:09:35.290Z</time>
      </trkpt>
      <trkpt lat="43.97721" lon="3.81505">
        <ele>496</ele>
        <time>2019-03-12T14:09:40.262Z</time>
      </trkpt>
      <trkpt lat="43.9771" lon="3.81499">
        <ele>496</ele>
        <time>2019-03-12T14:10:22.275Z</time>
      </trkpt>
      <trkpt lat="43.97709" lon="3.81498">
        <ele>496</ele>
        <time>2019-03-12T14:10:27.292Z</time>
      </trkpt>
      <trkpt lat="43.97706" lon="3.81494">
        <ele>494</ele>
        <time>2019-03-12T14:10:32.280Z</time>
      </trkpt>
      <trkpt lat="43.977" lon="3.81489">
        <ele>494</ele>
        <time>2019-03-12T14:11:00.252Z</time>
      </trkpt>
      <trkpt lat="43.97693" lon="3.81483">
        <ele>497</ele>
        <time>2019-03-12T14:11:04.251Z</time>
      </trkpt>
      <trkpt lat="43.97689" lon="3.81479">
        <ele>497</ele>
        <time>2019-03-12T14:11:08.261Z</time>
      </trkpt>
      <trkpt lat="43.9768" lon="3.81474">
        <ele>493</ele>
        <time>2019-03-12T14:11:25.260Z</time>
      </trkpt>
      <trkpt lat="43.97677" lon="3.81474">
        <ele>493</ele>
        <time>2019-03-12T14:11:29.294Z</time>
      </trkpt>
      <trkpt lat="43.97673" lon="3.81475">
        <ele>493</ele>
        <time>2019-03-12T14:11:34.272Z</time>
      </trkpt>
      <trkpt lat="43.9767" lon="3.81476">
        <ele>493</ele>
        <time>2019-03-12T14:11:38.294Z</time>
      </trkpt>
      <trkpt lat="43.97665" lon="3.81478">
        <ele>493</ele>
        <time>2019-03-12T14:11:43.261Z</time>
      </trkpt>
      <trkpt lat="43.9766" lon="3.81479">
        <ele>493</ele>
        <time>2019-03-12T14:11:47.284Z</time>
      </trkpt>
      <trkpt lat="43.97658" lon="3.8148">
        <ele>493</ele>
        <time>2019-03-12T14:11:52.252Z</time>
      </trkpt>
      <trkpt lat="43.97655" lon="3.81481">
        <ele>493</ele>
        <time>2019-03-12T14:11:56.260Z</time>
      </trkpt>
      <trkpt lat="43.9765" lon="3.81479">
        <ele>491</ele>
        <time>2019-03-12T14:12:01.268Z</time>
      </trkpt>
      <trkpt lat="43.97646" lon="3.81479">
        <ele>491</ele>
        <time>2019-03-12T14:12:05.296Z</time>
      </trkpt>
      <trkpt lat="43.97639" lon="3.81479">
        <ele>491</ele>
        <time>2019-03-12T14:12:10.252Z</time>
      </trkpt>
      <trkpt lat="43.97636" lon="3.81478">
        <ele>491</ele>
        <time>2019-03-12T14:12:14.291Z</time>
      </trkpt>
      <trkpt lat="43.97633" lon="3.81477">
        <ele>491</ele>
        <time>2019-03-12T14:12:19.262Z</time>
      </trkpt>
      <trkpt lat="43.97628" lon="3.81478">
        <ele>491</ele>
        <time>2019-03-12T14:12:24.270Z</time>
      </trkpt>
      <trkpt lat="43.97624" lon="3.81476">
        <ele>488</ele>
        <time>2019-03-12T14:12:28.266Z</time>
      </trkpt>
      <trkpt lat="43.97621" lon="3.81476">
        <ele>488</ele>
        <time>2019-03-12T14:12:33.289Z</time>
      </trkpt>
      <trkpt lat="43.97616" lon="3.81477">
        <ele>488</ele>
        <time>2019-03-12T14:12:38.250Z</time>
      </trkpt>
      <trkpt lat="43.97612" lon="3.8148">
        <ele>488</ele>
        <time>2019-03-12T14:12:42.265Z</time>
      </trkpt>
      <trkpt lat="43.97612" lon="3.81481">
        <ele>488</ele>
        <time>2019-03-12T14:12:47.261Z</time>
      </trkpt>
      <trkpt lat="43.97607" lon="3.81487">
        <ele>488</ele>
        <time>2019-03-12T14:12:52.292Z</time>
      </trkpt>
      <trkpt lat="43.97606" lon="3.81489">
        <ele>488</ele>
        <time>2019-03-12T14:12:57.259Z</time>
      </trkpt>
      <trkpt lat="43.97604" lon="3.81493">
        <ele>488</ele>
        <time>2019-03-12T14:13:01.292Z</time>
      </trkpt>
      <trkpt lat="43.97602" lon="3.81496">
        <ele>488</ele>
        <time>2019-03-12T14:13:06.291Z</time>
      </trkpt>
      <trkpt lat="43.97599" lon="3.81499">
        <ele>488</ele>
        <time>2019-03-12T14:13:11.297Z</time>
      </trkpt>
      <trkpt lat="43.97591" lon="3.8151">
        <ele>486</ele>
        <time>2019-03-12T14:13:16.295Z</time>
      </trkpt>
      <trkpt lat="43.97588" lon="3.81513">
        <ele>486</ele>
        <time>2019-03-12T14:13:21.289Z</time>
      </trkpt>
      <trkpt lat="43.97585" lon="3.81517">
        <ele>482</ele>
        <time>2019-03-12T14:13:40.252Z</time>
      </trkpt>
      <trkpt lat="43.97584" lon="3.81517">
        <ele>482</ele>
        <time>2019-03-12T14:13:44.258Z</time>
      </trkpt>
      <trkpt lat="43.97582" lon="3.81519">
        <ele>482</ele>
        <time>2019-03-12T14:13:57.263Z</time>
      </trkpt>
      <trkpt lat="43.9758" lon="3.81521">
        <ele>482</ele>
        <time>2019-03-12T14:14:01.294Z</time>
      </trkpt>
      <trkpt lat="43.97576" lon="3.81527">
        <ele>482</ele>
        <time>2019-03-12T14:14:06.261Z</time>
      </trkpt>
      <trkpt lat="43.97576" lon="3.81528">
        <ele>482</ele>
        <time>2019-03-12T14:14:10.270Z</time>
      </trkpt>
      <trkpt lat="43.97574" lon="3.8153">
        <ele>482</ele>
        <time>2019-03-12T14:14:20.294Z</time>
      </trkpt>
      <trkpt lat="43.97568" lon="3.81542">
        <ele>482</ele>
        <time>2019-03-12T14:14:25.261Z</time>
      </trkpt>
      <trkpt lat="43.97566" lon="3.81549">
        <ele>475</ele>
        <time>2019-03-12T14:14:30.260Z</time>
      </trkpt>
      <trkpt lat="43.97564" lon="3.81551">
        <ele>475</ele>
        <time>2019-03-12T14:14:34.272Z</time>
      </trkpt>
      <trkpt lat="43.97561" lon="3.81555">
        <ele>475</ele>
        <time>2019-03-12T14:14:39.259Z</time>
      </trkpt>
      <trkpt lat="43.97556" lon="3.81567">
        <ele>475</ele>
        <time>2019-03-12T14:14:48.267Z</time>
      </trkpt>
      <trkpt lat="43.97551" lon="3.81575">
        <ele>466</ele>
        <time>2019-03-12T14:14:52.268Z</time>
      </trkpt>
      <trkpt lat="43.97548" lon="3.81581">
        <ele>466</ele>
        <time>2019-03-12T14:14:57.262Z</time>
      </trkpt>
      <trkpt lat="43.97548" lon="3.81582">
        <ele>466</ele>
        <time>2019-03-12T14:15:01.264Z</time>
      </trkpt>
      <trkpt lat="43.97546" lon="3.81586">
        <ele>466</ele>
        <time>2019-03-12T14:15:06.261Z</time>
      </trkpt>
      <trkpt lat="43.97543" lon="3.8159">
        <ele>466</ele>
        <time>2019-03-12T14:15:11.260Z</time>
      </trkpt>
      <trkpt lat="43.97541" lon="3.81594">
        <ele>470</ele>
        <time>2019-03-12T14:15:15.290Z</time>
      </trkpt>
      <trkpt lat="43.9754" lon="3.81598">
        <ele>464</ele>
        <time>2019-03-12T14:15:20.260Z</time>
      </trkpt>
      <trkpt lat="43.97536" lon="3.81604">
        <ele>464</ele>
        <time>2019-03-12T14:15:24.273Z</time>
      </trkpt>
      <trkpt lat="43.97534" lon="3.81608">
        <ele>464</ele>
        <time>2019-03-12T14:15:28.297Z</time>
      </trkpt>
      <trkpt lat="43.97533" lon="3.81611">
        <ele>464</ele>
        <time>2019-03-12T14:15:33.286Z</time>
      </trkpt>
      <trkpt lat="43.97532" lon="3.81612">
        <ele>464</ele>
        <time>2019-03-12T14:15:37.304Z</time>
      </trkpt>
      <trkpt lat="43.9753" lon="3.81619">
        <ele>464</ele>
        <time>2019-03-12T14:15:42.270Z</time>
      </trkpt>
      <trkpt lat="43.97527" lon="3.81625">
        <ele>464</ele>
        <time>2019-03-12T14:15:47.262Z</time>
      </trkpt>
      <trkpt lat="43.97524" lon="3.81633">
        <ele>456</ele>
        <time>2019-03-12T14:15:51.269Z</time>
      </trkpt>
      <trkpt lat="43.97521" lon="3.81639">
        <ele>456</ele>
        <time>2019-03-12T14:15:55.293Z</time>
      </trkpt>
      <trkpt lat="43.97519" lon="3.81643">
        <ele>456</ele>
        <time>2019-03-12T14:16:00.291Z</time>
      </trkpt>
      <trkpt lat="43.97517" lon="3.81648">
        <ele>456</ele>
        <time>2019-03-12T14:16:05.261Z</time>
      </trkpt>
      <trkpt lat="43.97516" lon="3.81651">
        <ele>456</ele>
        <time>2019-03-12T14:16:10.261Z</time>
      </trkpt>
      <trkpt lat="43.97515" lon="3.81653">
        <ele>448</ele>
        <time>2019-03-12T14:16:14.290Z</time>
      </trkpt>
      <trkpt lat="43.9751" lon="3.81659">
        <ele>456</ele>
        <time>2019-03-12T14:16:19.292Z</time>
      </trkpt>
      <trkpt lat="43.9751" lon="3.81662">
        <ele>456</ele>
        <time>2019-03-12T14:16:24.278Z</time>
      </trkpt>
      <trkpt lat="43.97508" lon="3.81666">
        <ele>456</ele>
        <time>2019-03-12T14:16:28.323Z</time>
      </trkpt>
      <trkpt lat="43.97504" lon="3.81671">
        <ele>456</ele>
        <time>2019-03-12T14:16:33.265Z</time>
      </trkpt>
      <trkpt lat="43.97501" lon="3.81679">
        <ele>456</ele>
        <time>2019-03-12T14:16:38.283Z</time>
      </trkpt>
      <trkpt lat="43.97498" lon="3.81686">
        <ele>449</ele>
        <time>2019-03-12T14:16:43.264Z</time>
      </trkpt>
      <trkpt lat="43.97498" lon="3.81693">
        <ele>449</ele>
        <time>2019-03-12T14:16:47.264Z</time>
      </trkpt>
      <trkpt lat="43.97495" lon="3.81698">
        <ele>449</ele>
        <time>2019-03-12T14:16:51.293Z</time>
      </trkpt>
      <trkpt lat="43.97494" lon="3.81703">
        <ele>449</ele>
        <time>2019-03-12T14:16:56.263Z</time>
      </trkpt>
      <trkpt lat="43.97493" lon="3.81704">
        <ele>449</ele>
        <time>2019-03-12T14:17:00.272Z</time>
      </trkpt>
      <trkpt lat="43.97488" lon="3.81709">
        <ele>442</ele>
        <time>2019-03-12T14:17:05.275Z</time>
      </trkpt>
      <trkpt lat="43.97484" lon="3.81714">
        <ele>441</ele>
        <time>2019-03-12T14:17:09.302Z</time>
      </trkpt>
      <trkpt lat="43.97479" lon="3.81717">
        <ele>441</ele>
        <time>2019-03-12T14:17:14.264Z</time>
      </trkpt>
      <trkpt lat="43.97475" lon="3.81718">
        <ele>441</ele>
        <time>2019-03-12T14:17:18.301Z</time>
      </trkpt>
      <trkpt lat="43.97471" lon="3.81719">
        <ele>441</ele>
        <time>2019-03-12T14:17:23.268Z</time>
      </trkpt>
      <trkpt lat="43.97465" lon="3.81719">
        <ele>441</ele>
        <time>2019-03-12T14:17:28.291Z</time>
      </trkpt>
      <trkpt lat="43.97461" lon="3.81718">
        <ele>441</ele>
        <time>2019-03-12T14:17:33.292Z</time>
      </trkpt>
      <trkpt lat="43.97458" lon="3.81717">
        <ele>439</ele>
        <time>2019-03-12T14:17:37.294Z</time>
      </trkpt>
      <trkpt lat="43.97455" lon="3.81717">
        <ele>439</ele>
        <time>2019-03-12T14:17:47.263Z</time>
      </trkpt>
      <trkpt lat="43.97451" lon="3.81714">
        <ele>439</ele>
        <time>2019-03-12T14:17:51.274Z</time>
      </trkpt>
      <trkpt lat="43.97448" lon="3.8171">
        <ele>439</ele>
        <time>2019-03-12T14:17:56.262Z</time>
      </trkpt>
      <trkpt lat="43.97445" lon="3.81708">
        <ele>445</ele>
        <time>2019-03-12T14:18:01.272Z</time>
      </trkpt>
      <trkpt lat="43.97443" lon="3.81706">
        <ele>445</ele>
        <time>2019-03-12T14:18:06.267Z</time>
      </trkpt>
      <trkpt lat="43.97438" lon="3.81702">
        <ele>445</ele>
        <time>2019-03-12T14:18:10.281Z</time>
      </trkpt>
      <trkpt lat="43.97433" lon="3.81697">
        <ele>445</ele>
        <time>2019-03-12T14:18:15.269Z</time>
      </trkpt>
      <trkpt lat="43.9743" lon="3.81693">
        <ele>439</ele>
        <time>2019-03-12T14:18:19.293Z</time>
      </trkpt>
      <trkpt lat="43.97423" lon="3.81691">
        <ele>439</ele>
        <time>2019-03-12T14:18:29.294Z</time>
      </trkpt>
      <trkpt lat="43.97421" lon="3.81689">
        <ele>439</ele>
        <time>2019-03-12T14:18:33.296Z</time>
      </trkpt>
      <trkpt lat="43.9742" lon="3.81688">
        <ele>439</ele>
        <time>2019-03-12T14:18:38.271Z</time>
      </trkpt>
      <trkpt lat="43.97418" lon="3.81685">
        <ele>439</ele>
        <time>2019-03-12T14:18:42.291Z</time>
      </trkpt>
      <trkpt lat="43.97415" lon="3.81682">
        <ele>439</ele>
        <time>2019-03-12T14:18:47.268Z</time>
      </trkpt>
      <trkpt lat="43.97414" lon="3.81681">
        <ele>439</ele>
        <time>2019-03-12T14:18:52.298Z</time>
      </trkpt>
      <trkpt lat="43.97412" lon="3.81677">
        <ele>445</ele>
        <time>2019-03-12T14:19:01.264Z</time>
      </trkpt>
      <trkpt lat="43.97405" lon="3.81668">
        <ele>445</ele>
        <time>2019-03-12T14:19:05.280Z</time>
      </trkpt>
      <trkpt lat="43.97402" lon="3.81665">
        <ele>434</ele>
        <time>2019-03-12T14:19:10.256Z</time>
      </trkpt>
      <trkpt lat="43.97395" lon="3.8166">
        <ele>434</ele>
        <time>2019-03-12T14:19:29.265Z</time>
      </trkpt>
      <trkpt lat="43.97391" lon="3.81659">
        <ele>434</ele>
        <time>2019-03-12T14:19:33.274Z</time>
      </trkpt>
      <trkpt lat="43.97388" lon="3.81657">
        <ele>434</ele>
        <time>2019-03-12T14:19:37.294Z</time>
      </trkpt>
      <trkpt lat="43.97387" lon="3.81657">
        <ele>434</ele>
        <time>2019-03-12T14:19:42.271Z</time>
      </trkpt>
      <trkpt lat="43.97383" lon="3.81654">
        <ele>434</ele>
        <time>2019-03-12T14:19:46.281Z</time>
      </trkpt>
      <trkpt lat="43.9738" lon="3.81651">
        <ele>439</ele>
        <time>2019-03-12T14:19:51.292Z</time>
      </trkpt>
      <trkpt lat="43.97376" lon="3.81651">
        <ele>439</ele>
        <time>2019-03-12T14:19:55.298Z</time>
      </trkpt>
      <trkpt lat="43.97374" lon="3.8165">
        <ele>431</ele>
        <time>2019-03-12T14:20:00.274Z</time>
      </trkpt>
      <trkpt lat="43.97369" lon="3.81645">
        <ele>431</ele>
        <time>2019-03-12T14:20:05.259Z</time>
      </trkpt>
      <trkpt lat="43.9736" lon="3.81641">
        <ele>431</ele>
        <time>2019-03-12T14:20:14.263Z</time>
      </trkpt>
      <trkpt lat="43.97358" lon="3.81641">
        <ele>431</ele>
        <time>2019-03-12T14:20:18.290Z</time>
      </trkpt>
      <trkpt lat="43.97356" lon="3.8164">
        <ele>431</ele>
        <time>2019-03-12T14:20:22.299Z</time>
      </trkpt>
      <trkpt lat="43.97355" lon="3.8164">
        <ele>431</ele>
        <time>2019-03-12T14:20:27.289Z</time>
      </trkpt>
      <trkpt lat="43.97353" lon="3.81642">
        <ele>431</ele>
        <time>2019-03-12T14:20:32.288Z</time>
      </trkpt>
      <trkpt lat="43.97347" lon="3.81644">
        <ele>429</ele>
        <time>2019-03-12T14:20:37.268Z</time>
      </trkpt>
      <trkpt lat="43.97343" lon="3.81646">
        <ele>429</ele>
        <time>2019-03-12T14:20:41.305Z</time>
      </trkpt>
      <trkpt lat="43.97337" lon="3.81647">
        <ele>429</ele>
        <time>2019-03-12T14:20:46.263Z</time>
      </trkpt>
      <trkpt lat="43.97334" lon="3.81648">
        <ele>429</ele>
        <time>2019-03-12T14:20:50.260Z</time>
      </trkpt>
      <trkpt lat="43.9733" lon="3.81651">
        <ele>429</ele>
        <time>2019-03-12T14:20:54.260Z</time>
      </trkpt>
      <trkpt lat="43.97329" lon="3.81651">
        <ele>429</ele>
        <time>2019-03-12T14:20:58.292Z</time>
      </trkpt>
      <trkpt lat="43.97327" lon="3.81653">
        <ele>429</ele>
        <time>2019-03-12T14:21:03.266Z</time>
      </trkpt>
      <trkpt lat="43.97322" lon="3.81654">
        <ele>420</ele>
        <time>2019-03-12T14:21:08.269Z</time>
      </trkpt>
      <trkpt lat="43.97317" lon="3.81658">
        <ele>416</ele>
        <time>2019-03-12T14:21:13.274Z</time>
      </trkpt>
      <trkpt lat="43.97312" lon="3.8166">
        <ele>416</ele>
        <time>2019-03-12T14:21:18.265Z</time>
      </trkpt>
      <trkpt lat="43.97307" lon="3.81661">
        <ele>416</ele>
        <time>2019-03-12T14:21:27.293Z</time>
      </trkpt>
      <trkpt lat="43.97296" lon="3.81661">
        <ele>416</ele>
        <time>2019-03-12T14:21:32.262Z</time>
      </trkpt>
      <trkpt lat="43.97292" lon="3.81662">
        <ele>408</ele>
        <time>2019-03-12T14:21:36.280Z</time>
      </trkpt>
      <trkpt lat="43.97286" lon="3.81662">
        <ele>408</ele>
        <time>2019-03-12T14:21:41.268Z</time>
      </trkpt>
      <trkpt lat="43.97281" lon="3.81662">
        <ele>408</ele>
        <time>2019-03-12T14:21:45.296Z</time>
      </trkpt>
      <trkpt lat="43.97277" lon="3.81661">
        <ele>408</ele>
        <time>2019-03-12T14:21:50.265Z</time>
      </trkpt>
      <trkpt lat="43.97273" lon="3.81659">
        <ele>408</ele>
        <time>2019-03-12T14:21:54.292Z</time>
      </trkpt>
      <trkpt lat="43.97268" lon="3.81658">
        <ele>408</ele>
        <time>2019-03-12T14:22:16.253Z</time>
      </trkpt>
      <trkpt lat="43.97265" lon="3.81657">
        <ele>408</ele>
        <time>2019-03-12T14:22:22.262Z</time>
      </trkpt>
      <trkpt lat="43.97263" lon="3.81656">
        <ele>399</ele>
        <time>2019-03-12T14:22:26.276Z</time>
      </trkpt>
      <trkpt lat="43.97262" lon="3.81656">
        <ele>399</ele>
        <time>2019-03-12T14:22:30.292Z</time>
      </trkpt>
      <trkpt lat="43.97261" lon="3.81658">
        <ele>399</ele>
        <time>2019-03-12T14:22:35.262Z</time>
      </trkpt>
      <trkpt lat="43.9726" lon="3.81659">
        <ele>399</ele>
        <time>2019-03-12T14:22:39.261Z</time>
      </trkpt>
      <trkpt lat="43.97257" lon="3.8166">
        <ele>399</ele>
        <time>2019-03-12T14:23:20.274Z</time>
      </trkpt>
      <trkpt lat="43.97253" lon="3.81659">
        <ele>399</ele>
        <time>2019-03-12T14:23:25.262Z</time>
      </trkpt>
      <trkpt lat="43.97251" lon="3.81661">
        <ele>399</ele>
        <time>2019-03-12T14:23:34.296Z</time>
      </trkpt>
      <trkpt lat="43.97242" lon="3.81667">
        <ele>399</ele>
        <time>2019-03-12T14:23:39.281Z</time>
      </trkpt>
      <trkpt lat="43.97238" lon="3.81666">
        <ele>399</ele>
        <time>2019-03-12T14:23:44.261Z</time>
      </trkpt>
      <trkpt lat="43.97236" lon="3.81666">
        <ele>389</ele>
        <time>2019-03-12T14:24:02.260Z</time>
      </trkpt>
      <trkpt lat="43.97232" lon="3.81667">
        <ele>389</ele>
        <time>2019-03-12T14:24:06.291Z</time>
      </trkpt>
      <trkpt lat="43.97225" lon="3.81665">
        <ele>389</ele>
        <time>2019-03-12T14:24:11.263Z</time>
      </trkpt>
      <trkpt lat="43.97225" lon="3.81665">
        <ele>389</ele>
        <time>2019-03-12T14:24:15.294Z</time>
      </trkpt>
      <trkpt lat="43.97221" lon="3.81666">
        <ele>389</ele>
        <time>2019-03-12T14:24:29.276Z</time>
      </trkpt>
      <trkpt lat="43.97215" lon="3.81667">
        <ele>389</ele>
        <time>2019-03-12T14:24:34.295Z</time>
      </trkpt>
      <trkpt lat="43.9721" lon="3.81669">
        <ele>389</ele>
        <time>2019-03-12T14:24:39.262Z</time>
      </trkpt>
      <trkpt lat="43.97197" lon="3.81673">
        <ele>377</ele>
        <time>2019-03-12T14:24:52.290Z</time>
      </trkpt>
      <trkpt lat="43.97194" lon="3.81671">
        <ele>377</ele>
        <time>2019-03-12T14:24:57.271Z</time>
      </trkpt>
      <trkpt lat="43.97193" lon="3.8167">
        <ele>377</ele>
        <time>2019-03-12T14:25:02.294Z</time>
      </trkpt>
      <trkpt lat="43.97192" lon="3.81669">
        <ele>377</ele>
        <time>2019-03-12T14:25:07.274Z</time>
      </trkpt>
      <trkpt lat="43.9719" lon="3.81665">
        <ele>377</ele>
        <time>2019-03-12T14:25:12.289Z</time>
      </trkpt>
      <trkpt lat="43.97187" lon="3.81662">
        <ele>377</ele>
        <time>2019-03-12T14:25:16.298Z</time>
      </trkpt>
      <trkpt lat="43.97186" lon="3.81657">
        <ele>377</ele>
        <time>2019-03-12T14:25:21.283Z</time>
      </trkpt>
      <trkpt lat="43.97185" lon="3.81655">
        <ele>377</ele>
        <time>2019-03-12T14:25:26.263Z</time>
      </trkpt>
      <trkpt lat="43.97182" lon="3.81648">
        <ele>384</ele>
        <time>2019-03-12T14:25:31.269Z</time>
      </trkpt>
      <trkpt lat="43.9718" lon="3.81644">
        <ele>367</ele>
        <time>2019-03-12T14:25:36.292Z</time>
      </trkpt>
      <trkpt lat="43.97179" lon="3.81643">
        <ele>367</ele>
        <time>2019-03-12T14:25:41.274Z</time>
      </trkpt>
      <trkpt lat="43.97175" lon="3.81637">
        <ele>367</ele>
        <time>2019-03-12T14:25:50.302Z</time>
      </trkpt>
      <trkpt lat="43.9717" lon="3.81629">
        <ele>367</ele>
        <time>2019-03-12T14:25:55.271Z</time>
      </trkpt>
      <trkpt lat="43.97166" lon="3.81622">
        <ele>373</ele>
        <time>2019-03-12T14:26:00.295Z</time>
      </trkpt>
      <trkpt lat="43.97161" lon="3.81618">
        <ele>373</ele>
        <time>2019-03-12T14:26:05.290Z</time>
      </trkpt>
      <trkpt lat="43.97157" lon="3.81611">
        <ele>373</ele>
        <time>2019-03-12T14:26:10.292Z</time>
      </trkpt>
      <trkpt lat="43.97154" lon="3.81607">
        <ele>373</ele>
        <time>2019-03-12T14:26:15.261Z</time>
      </trkpt>
      <trkpt lat="43.97149" lon="3.81602">
        <ele>354</ele>
        <time>2019-03-12T14:26:20.251Z</time>
      </trkpt>
      <trkpt lat="43.97147" lon="3.81597">
        <ele>354</ele>
        <time>2019-03-12T14:26:24.260Z</time>
      </trkpt>
      <trkpt lat="43.97144" lon="3.8159">
        <ele>367</ele>
        <time>2019-03-12T14:26:29.260Z</time>
      </trkpt>
      <trkpt lat="43.97143" lon="3.81586">
        <ele>367</ele>
        <time>2019-03-12T14:26:33.265Z</time>
      </trkpt>
      <trkpt lat="43.9714" lon="3.81578">
        <ele>367</ele>
        <time>2019-03-12T14:26:38.267Z</time>
      </trkpt>
      <trkpt lat="43.97139" lon="3.81571">
        <ele>367</ele>
        <time>2019-03-12T14:26:42.294Z</time>
      </trkpt>
      <trkpt lat="43.97136" lon="3.81566">
        <ele>376</ele>
        <time>2019-03-12T14:26:47.267Z</time>
      </trkpt>
      <trkpt lat="43.97132" lon="3.81563">
        <ele>376</ele>
        <time>2019-03-12T14:26:52.263Z</time>
      </trkpt>
      <trkpt lat="43.9713" lon="3.81561">
        <ele>376</ele>
        <time>2019-03-12T14:26:57.262Z</time>
      </trkpt>
      <trkpt lat="43.97123" lon="3.81552">
        <ele>370</ele>
        <time>2019-03-12T14:27:11.292Z</time>
      </trkpt>
      <trkpt lat="43.97119" lon="3.81549">
        <ele>370</ele>
        <time>2019-03-12T14:27:15.294Z</time>
      </trkpt>
      <trkpt lat="43.97116" lon="3.81547">
        <ele>370</ele>
        <time>2019-03-12T14:27:20.271Z</time>
      </trkpt>
      <trkpt lat="43.97112" lon="3.81543">
        <ele>370</ele>
        <time>2019-03-12T14:27:25.270Z</time>
      </trkpt>
      <trkpt lat="43.97109" lon="3.81539">
        <ele>373</ele>
        <time>2019-03-12T14:27:29.293Z</time>
      </trkpt>
      <trkpt lat="43.97105" lon="3.81535">
        <ele>373</ele>
        <time>2019-03-12T14:27:34.260Z</time>
      </trkpt>
      <trkpt lat="43.971" lon="3.81532">
        <ele>373</ele>
        <time>2019-03-12T14:27:38.261Z</time>
      </trkpt>
      <trkpt lat="43.97097" lon="3.81529">
        <ele>363</ele>
        <time>2019-03-12T14:27:42.261Z</time>
      </trkpt>
      <trkpt lat="43.97091" lon="3.81524">
        <ele>363</ele>
        <time>2019-03-12T14:27:47.250Z</time>
      </trkpt>
      <trkpt lat="43.97089" lon="3.81521">
        <ele>363</ele>
        <time>2019-03-12T14:27:51.270Z</time>
      </trkpt>
      <trkpt lat="43.97084" lon="3.81515">
        <ele>363</ele>
        <time>2019-03-12T14:27:56.272Z</time>
      </trkpt>
      <trkpt lat="43.9708" lon="3.81509">
        <ele>365</ele>
        <time>2019-03-12T14:28:01.272Z</time>
      </trkpt>
      <trkpt lat="43.97076" lon="3.81506">
        <ele>365</ele>
        <time>2019-03-12T14:28:05.292Z</time>
      </trkpt>
      <trkpt lat="43.97073" lon="3.81503">
        <ele>365</ele>
        <time>2019-03-12T14:28:09.285Z</time>
      </trkpt>
      <trkpt lat="43.97069" lon="3.815">
        <ele>357</ele>
        <time>2019-03-12T14:28:14.294Z</time>
      </trkpt>
      <trkpt lat="43.97062" lon="3.81495">
        <ele>357</ele>
        <time>2019-03-12T14:28:27.262Z</time>
      </trkpt>
      <trkpt lat="43.97061" lon="3.81495">
        <ele>357</ele>
        <time>2019-03-12T14:28:50.267Z</time>
      </trkpt>
      <trkpt lat="43.97058" lon="3.81497">
        <ele>357</ele>
        <time>2019-03-12T14:28:54.293Z</time>
      </trkpt>
      <trkpt lat="43.97057" lon="3.81497">
        <ele>357</ele>
        <time>2019-03-12T14:28:59.259Z</time>
      </trkpt>
      <trkpt lat="43.97052" lon="3.81495">
        <ele>357</ele>
        <time>2019-03-12T14:29:22.299Z</time>
      </trkpt>
      <trkpt lat="43.97048" lon="3.81489">
        <ele>357</ele>
        <time>2019-03-12T14:29:27.252Z</time>
      </trkpt>
      <trkpt lat="43.97045" lon="3.81485">
        <ele>355</ele>
        <time>2019-03-12T14:29:31.274Z</time>
      </trkpt>
      <trkpt lat="43.97044" lon="3.81482">
        <ele>355</ele>
        <time>2019-03-12T14:29:35.294Z</time>
      </trkpt>
      <trkpt lat="43.97043" lon="3.81477">
        <ele>355</ele>
        <time>2019-03-12T14:29:40.269Z</time>
      </trkpt>
      <trkpt lat="43.97041" lon="3.81474">
        <ele>353</ele>
        <time>2019-03-12T14:29:45.271Z</time>
      </trkpt>
      <trkpt lat="43.97039" lon="3.81471">
        <ele>353</ele>
        <time>2019-03-12T14:29:49.301Z</time>
      </trkpt>
      <trkpt lat="43.97032" lon="3.81464">
        <ele>353</ele>
        <time>2019-03-12T14:29:54.287Z</time>
      </trkpt>
      <trkpt lat="43.97029" lon="3.81461">
        <ele>353</ele>
        <time>2019-03-12T14:29:59.301Z</time>
      </trkpt>
      <trkpt lat="43.97025" lon="3.81455">
        <ele>346</ele>
        <time>2019-03-12T14:30:04.291Z</time>
      </trkpt>
      <trkpt lat="43.97024" lon="3.81453">
        <ele>346</ele>
        <time>2019-03-12T14:30:08.295Z</time>
      </trkpt>
      <trkpt lat="43.97023" lon="3.81445">
        <ele>346</ele>
        <time>2019-03-12T14:30:13.263Z</time>
      </trkpt>
      <trkpt lat="43.97022" lon="3.81438">
        <ele>346</ele>
        <time>2019-03-12T14:30:17.277Z</time>
      </trkpt>
      <trkpt lat="43.97021" lon="3.81432">
        <ele>346</ele>
        <time>2019-03-12T14:30:22.276Z</time>
      </trkpt>
      <trkpt lat="43.97021" lon="3.81425">
        <ele>344</ele>
        <time>2019-03-12T14:30:27.262Z</time>
      </trkpt>
      <trkpt lat="43.97022" lon="3.81418">
        <ele>344</ele>
        <time>2019-03-12T14:30:32.264Z</time>
      </trkpt>
      <trkpt lat="43.97023" lon="3.81412">
        <ele>344</ele>
        <time>2019-03-12T14:30:37.264Z</time>
      </trkpt>
      <trkpt lat="43.97025" lon="3.81406">
        <ele>344</ele>
        <time>2019-03-12T14:30:42.262Z</time>
      </trkpt>
      <trkpt lat="43.97026" lon="3.81401">
        <ele>344</ele>
        <time>2019-03-12T14:30:46.262Z</time>
      </trkpt>
      <trkpt lat="43.97026" lon="3.81396">
        <ele>344</ele>
        <time>2019-03-12T14:30:50.273Z</time>
      </trkpt>
      <trkpt lat="43.97026" lon="3.81391">
        <ele>344</ele>
        <time>2019-03-12T14:30:55.270Z</time>
      </trkpt>
      <trkpt lat="43.97025" lon="3.81384">
        <ele>344</ele>
        <time>2019-03-12T14:30:59.293Z</time>
      </trkpt>
      <trkpt lat="43.97023" lon="3.81375">
        <ele>344</ele>
        <time>2019-03-12T14:31:04.261Z</time>
      </trkpt>
      <trkpt lat="43.97022" lon="3.81369">
        <ele>341</ele>
        <time>2019-03-12T14:31:08.262Z</time>
      </trkpt>
      <trkpt lat="43.97022" lon="3.81362">
        <ele>341</ele>
        <time>2019-03-12T14:31:12.262Z</time>
      </trkpt>
      <trkpt lat="43.97022" lon="3.81357">
        <ele>341</ele>
        <time>2019-03-12T14:31:16.290Z</time>
      </trkpt>
      <trkpt lat="43.97019" lon="3.81349">
        <ele>341</ele>
        <time>2019-03-12T14:31:21.310Z</time>
      </trkpt>
      <trkpt lat="43.97016" lon="3.81342">
        <ele>336</ele>
        <time>2019-03-12T14:31:26.275Z</time>
      </trkpt>
      <trkpt lat="43.97012" lon="3.81336">
        <ele>340</ele>
        <time>2019-03-12T14:31:31.294Z</time>
      </trkpt>
      <trkpt lat="43.97008" lon="3.81332">
        <ele>340</ele>
        <time>2019-03-12T14:31:35.304Z</time>
      </trkpt>
      <trkpt lat="43.97006" lon="3.81327">
        <ele>340</ele>
        <time>2019-03-12T14:31:40.294Z</time>
      </trkpt>
      <trkpt lat="43.97005" lon="3.81322">
        <ele>340</ele>
        <time>2019-03-12T14:31:45.293Z</time>
      </trkpt>
      <trkpt lat="43.97003" lon="3.81316">
        <ele>333</ele>
        <time>2019-03-12T14:31:50.272Z</time>
      </trkpt>
      <trkpt lat="43.97003" lon="3.81309">
        <ele>333</ele>
        <time>2019-03-12T14:31:55.262Z</time>
      </trkpt>
      <trkpt lat="43.97002" lon="3.81305">
        <ele>333</ele>
        <time>2019-03-12T14:31:59.276Z</time>
      </trkpt>
      <trkpt lat="43.97001" lon="3.81299">
        <ele>333</ele>
        <time>2019-03-12T14:32:03.279Z</time>
      </trkpt>
      <trkpt lat="43.97001" lon="3.81293">
        <ele>333</ele>
        <time>2019-03-12T14:32:07.301Z</time>
      </trkpt>
      <trkpt lat="43.97" lon="3.81288">
        <ele>328</ele>
        <time>2019-03-12T14:32:11.295Z</time>
      </trkpt>
      <trkpt lat="43.96998" lon="3.81282">
        <ele>328</ele>
        <time>2019-03-12T14:32:16.295Z</time>
      </trkpt>
      <trkpt lat="43.96997" lon="3.81277">
        <ele>328</ele>
        <time>2019-03-12T14:32:21.261Z</time>
      </trkpt>
      <trkpt lat="43.96993" lon="3.8127">
        <ele>328</ele>
        <time>2019-03-12T14:32:26.267Z</time>
      </trkpt>
      <trkpt lat="43.96991" lon="3.81265">
        <ele>328</ele>
        <time>2019-03-12T14:32:30.282Z</time>
      </trkpt>
      <trkpt lat="43.9699" lon="3.81258">
        <ele>324</ele>
        <time>2019-03-12T14:32:35.254Z</time>
      </trkpt>
      <trkpt lat="43.9699" lon="3.81253">
        <ele>324</ele>
        <time>2019-03-12T14:32:39.266Z</time>
      </trkpt>
      <trkpt lat="43.9699" lon="3.81251">
        <ele>324</ele>
        <time>2019-03-12T14:32:43.271Z</time>
      </trkpt>
      <trkpt lat="43.96989" lon="3.81246">
        <ele>324</ele>
        <time>2019-03-12T14:32:48.268Z</time>
      </trkpt>
      <trkpt lat="43.96987" lon="3.8124">
        <ele>324</ele>
        <time>2019-03-12T14:32:53.273Z</time>
      </trkpt>
      <trkpt lat="43.96985" lon="3.81234">
        <ele>322</ele>
        <time>2019-03-12T14:32:58.271Z</time>
      </trkpt>
      <trkpt lat="43.96983" lon="3.8123">
        <ele>322</ele>
        <time>2019-03-12T14:33:02.272Z</time>
      </trkpt>
      <trkpt lat="43.96982" lon="3.81223">
        <ele>322</ele>
        <time>2019-03-12T14:33:07.299Z</time>
      </trkpt>
      <trkpt lat="43.96982" lon="3.8122">
        <ele>322</ele>
        <time>2019-03-12T14:33:12.269Z</time>
      </trkpt>
      <trkpt lat="43.96981" lon="3.81217">
        <ele>322</ele>
        <time>2019-03-12T14:33:16.276Z</time>
      </trkpt>
      <trkpt lat="43.96981" lon="3.81216">
        <ele>322</ele>
        <time>2019-03-12T14:33:21.271Z</time>
      </trkpt>
      <trkpt lat="43.96979" lon="3.81209">
        <ele>322</ele>
        <time>2019-03-12T14:33:30.270Z</time>
      </trkpt>
      <trkpt lat="43.96976" lon="3.81201">
        <ele>321</ele>
        <time>2019-03-12T14:33:34.266Z</time>
      </trkpt>
      <trkpt lat="43.96974" lon="3.81193">
        <ele>321</ele>
        <time>2019-03-12T14:33:38.299Z</time>
      </trkpt>
      <trkpt lat="43.96969" lon="3.81176">
        <ele>326</ele>
        <time>2019-03-12T14:33:52.274Z</time>
      </trkpt>
      <trkpt lat="43.96965" lon="3.81166">
        <ele>326</ele>
        <time>2019-03-12T14:33:57.292Z</time>
      </trkpt>
      <trkpt lat="43.96963" lon="3.81162">
        <ele>326</ele>
        <time>2019-03-12T14:34:02.282Z</time>
      </trkpt>
      <trkpt lat="43.96961" lon="3.81156">
        <ele>326</ele>
        <time>2019-03-12T14:34:07.295Z</time>
      </trkpt>
      <trkpt lat="43.96958" lon="3.81149">
        <ele>320</ele>
        <time>2019-03-12T14:34:12.266Z</time>
      </trkpt>
      <trkpt lat="43.96955" lon="3.81142">
        <ele>320</ele>
        <time>2019-03-12T14:34:17.269Z</time>
      </trkpt>
      <trkpt lat="43.96954" lon="3.81137">
        <ele>320</ele>
        <time>2019-03-12T14:34:21.272Z</time>
      </trkpt>
      <trkpt lat="43.96953" lon="3.81132">
        <ele>320</ele>
        <time>2019-03-12T14:34:25.295Z</time>
      </trkpt>
      <trkpt lat="43.96951" lon="3.81125">
        <ele>320</ele>
        <time>2019-03-12T14:34:30.282Z</time>
      </trkpt>
      <trkpt lat="43.96948" lon="3.81119">
        <ele>324</ele>
        <time>2019-03-12T14:34:35.273Z</time>
      </trkpt>
      <trkpt lat="43.96946" lon="3.81112">
        <ele>324</ele>
        <time>2019-03-12T14:34:40.262Z</time>
      </trkpt>
      <trkpt lat="43.96944" lon="3.81107">
        <ele>324</ele>
        <time>2019-03-12T14:34:44.274Z</time>
      </trkpt>
      <trkpt lat="43.96942" lon="3.81103">
        <ele>324</ele>
        <time>2019-03-12T14:34:48.296Z</time>
      </trkpt>
      <trkpt lat="43.9694" lon="3.81098">
        <ele>324</ele>
        <time>2019-03-12T14:34:52.293Z</time>
      </trkpt>
      <trkpt lat="43.96938" lon="3.81092">
        <ele>327</ele>
        <time>2019-03-12T14:34:57.263Z</time>
      </trkpt>
      <trkpt lat="43.96936" lon="3.81087">
        <ele>327</ele>
        <time>2019-03-12T14:35:01.272Z</time>
      </trkpt>
      <trkpt lat="43.96933" lon="3.81081">
        <ele>327</ele>
        <time>2019-03-12T14:35:05.270Z</time>
      </trkpt>
      <trkpt lat="43.96931" lon="3.81077">
        <ele>327</ele>
        <time>2019-03-12T14:35:09.297Z</time>
      </trkpt>
      <trkpt lat="43.9693" lon="3.81072">
        <ele>321</ele>
        <time>2019-03-12T14:35:14.263Z</time>
      </trkpt>
      <trkpt lat="43.96929" lon="3.81066">
        <ele>323</ele>
        <time>2019-03-12T14:35:18.291Z</time>
      </trkpt>
      <trkpt lat="43.96928" lon="3.81057">
        <ele>323</ele>
        <time>2019-03-12T14:35:23.287Z</time>
      </trkpt>
      <trkpt lat="43.96927" lon="3.81047">
        <ele>323</ele>
        <time>2019-03-12T14:35:28.273Z</time>
      </trkpt>
      <trkpt lat="43.96928" lon="3.8104">
        <ele>322</ele>
        <time>2019-03-12T14:35:33.294Z</time>
      </trkpt>
      <trkpt lat="43.96927" lon="3.81032">
        <ele>322</ele>
        <time>2019-03-12T14:35:38.269Z</time>
      </trkpt>
      <trkpt lat="43.96923" lon="3.81029">
        <ele>322</ele>
        <time>2019-03-12T14:35:43.279Z</time>
      </trkpt>
      <trkpt lat="43.96919" lon="3.81026">
        <ele>322</ele>
        <time>2019-03-12T14:35:48.263Z</time>
      </trkpt>
      <trkpt lat="43.96918" lon="3.81025">
        <ele>322</ele>
        <time>2019-03-12T14:35:52.264Z</time>
      </trkpt>
      <trkpt lat="43.96915" lon="3.81021">
        <ele>322</ele>
        <time>2019-03-12T14:35:56.264Z</time>
      </trkpt>
      <trkpt lat="43.9691" lon="3.81019">
        <ele>322</ele>
        <time>2019-03-12T14:36:00.295Z</time>
      </trkpt>
      <trkpt lat="43.96904" lon="3.81015">
        <ele>322</ele>
        <time>2019-03-12T14:36:05.262Z</time>
      </trkpt>
      <trkpt lat="43.96899" lon="3.81009">
        <ele>322</ele>
        <time>2019-03-12T14:36:10.264Z</time>
      </trkpt>
      <trkpt lat="43.96895" lon="3.81004">
        <ele>322</ele>
        <time>2019-03-12T14:36:15.262Z</time>
      </trkpt>
      <trkpt lat="43.96892" lon="3.80999">
        <ele>322</ele>
        <time>2019-03-12T14:36:19.261Z</time>
      </trkpt>
      <trkpt lat="43.96889" lon="3.80996">
        <ele>322</ele>
        <time>2019-03-12T14:36:23.296Z</time>
      </trkpt>
      <trkpt lat="43.96884" lon="3.8099">
        <ele>322</ele>
        <time>2019-03-12T14:36:28.283Z</time>
      </trkpt>
      <trkpt lat="43.96879" lon="3.80985">
        <ele>321</ele>
        <time>2019-03-12T14:36:33.264Z</time>
      </trkpt>
      <trkpt lat="43.96874" lon="3.80981">
        <ele>316</ele>
        <time>2019-03-12T14:36:37.274Z</time>
      </trkpt>
      <trkpt lat="43.96869" lon="3.80975">
        <ele>316</ele>
        <time>2019-03-12T14:36:42.270Z</time>
      </trkpt>
      <trkpt lat="43.96863" lon="3.80975">
        <ele>316</ele>
        <time>2019-03-12T14:36:46.296Z</time>
      </trkpt>
      <trkpt lat="43.96857" lon="3.80974">
        <ele>316</ele>
        <time>2019-03-12T14:36:51.262Z</time>
      </trkpt>
      <trkpt lat="43.9685" lon="3.80975">
        <ele>316</ele>
        <time>2019-03-12T14:36:56.263Z</time>
      </trkpt>
      <trkpt lat="43.96844" lon="3.80974">
        <ele>312</ele>
        <time>2019-03-12T14:37:01.277Z</time>
      </trkpt>
      <trkpt lat="43.96838" lon="3.80972">
        <ele>312</ele>
        <time>2019-03-12T14:37:06.262Z</time>
      </trkpt>
      <trkpt lat="43.96832" lon="3.8097">
        <ele>312</ele>
        <time>2019-03-12T14:37:10.262Z</time>
      </trkpt>
      <trkpt lat="43.96828" lon="3.80967">
        <ele>312</ele>
        <time>2019-03-12T14:37:15.301Z</time>
      </trkpt>
      <trkpt lat="43.96825" lon="3.80965">
        <ele>312</ele>
        <time>2019-03-12T14:37:20.292Z</time>
      </trkpt>
      <trkpt lat="43.96818" lon="3.80962">
        <ele>310</ele>
        <time>2019-03-12T14:37:25.260Z</time>
      </trkpt>
      <trkpt lat="43.96814" lon="3.80961">
        <ele>310</ele>
        <time>2019-03-12T14:37:30.292Z</time>
      </trkpt>
      <trkpt lat="43.96806" lon="3.80958">
        <ele>306</ele>
        <time>2019-03-12T14:37:35.267Z</time>
      </trkpt>
      <trkpt lat="43.968" lon="3.80955">
        <ele>306</ele>
        <time>2019-03-12T14:37:39.296Z</time>
      </trkpt>
      <trkpt lat="43.96792" lon="3.80954">
        <ele>306</ele>
        <time>2019-03-12T14:37:53.298Z</time>
      </trkpt>
      <trkpt lat="43.96792" lon="3.80961">
        <ele>310</ele>
        <time>2019-03-12T14:37:58.291Z</time>
      </trkpt>
      <trkpt lat="43.9679" lon="3.80966">
        <ele>308</ele>
        <time>2019-03-12T14:38:02.284Z</time>
      </trkpt>
      <trkpt lat="43.96787" lon="3.80968">
        <ele>308</ele>
        <time>2019-03-12T14:38:07.284Z</time>
      </trkpt>
      <trkpt lat="43.96786" lon="3.80969">
        <ele>308</ele>
        <time>2019-03-12T14:38:12.253Z</time>
      </trkpt>
      <trkpt lat="43.96783" lon="3.80968">
        <ele>308</ele>
        <time>2019-03-12T14:38:16.301Z</time>
      </trkpt>
      <trkpt lat="43.96778" lon="3.80969">
        <ele>308</ele>
        <time>2019-03-12T14:38:21.268Z</time>
      </trkpt>
      <trkpt lat="43.96773" lon="3.8097">
        <ele>308</ele>
        <time>2019-03-12T14:38:25.298Z</time>
      </trkpt>
      <trkpt lat="43.96769" lon="3.80972">
        <ele>308</ele>
        <time>2019-03-12T14:38:30.262Z</time>
      </trkpt>
      <trkpt lat="43.96765" lon="3.80975">
        <ele>308</ele>
        <time>2019-03-12T14:38:34.273Z</time>
      </trkpt>
      <trkpt lat="43.96761" lon="3.8098">
        <ele>309</ele>
        <time>2019-03-12T14:38:39.270Z</time>
      </trkpt>
      <trkpt lat="43.96757" lon="3.80982">
        <ele>309</ele>
        <time>2019-03-12T14:38:43.267Z</time>
      </trkpt>
      <trkpt lat="43.96752" lon="3.80985">
        <ele>309</ele>
        <time>2019-03-12T14:38:48.272Z</time>
      </trkpt>
      <trkpt lat="43.96747" lon="3.8099">
        <ele>307</ele>
        <time>2019-03-12T14:38:53.266Z</time>
      </trkpt>
      <trkpt lat="43.96742" lon="3.80995">
        <ele>307</ele>
        <time>2019-03-12T14:38:58.261Z</time>
      </trkpt>
      <trkpt lat="43.96737" lon="3.80998">
        <ele>307</ele>
        <time>2019-03-12T14:39:02.286Z</time>
      </trkpt>
      <trkpt lat="43.96732" lon="3.81001">
        <ele>305</ele>
        <time>2019-03-12T14:39:06.300Z</time>
      </trkpt>
      <trkpt lat="43.96726" lon="3.81006">
        <ele>305</ele>
        <time>2019-03-12T14:39:11.262Z</time>
      </trkpt>
      <trkpt lat="43.96722" lon="3.8101">
        <ele>305</ele>
        <time>2019-03-12T14:39:15.262Z</time>
      </trkpt>
      <trkpt lat="43.96718" lon="3.81014">
        <ele>304</ele>
        <time>2019-03-12T14:39:20.261Z</time>
      </trkpt>
      <trkpt lat="43.96714" lon="3.81017">
        <ele>304</ele>
        <time>2019-03-12T14:39:24.294Z</time>
      </trkpt>
      <trkpt lat="43.9671" lon="3.81019">
        <ele>304</ele>
        <time>2019-03-12T14:39:29.272Z</time>
      </trkpt>
      <trkpt lat="43.96704" lon="3.81023">
        <ele>301</ele>
        <time>2019-03-12T14:39:34.272Z</time>
      </trkpt>
      <trkpt lat="43.96699" lon="3.81028">
        <ele>301</ele>
        <time>2019-03-12T14:39:39.275Z</time>
      </trkpt>
      <trkpt lat="43.96694" lon="3.81031">
        <ele>301</ele>
        <time>2019-03-12T14:39:44.302Z</time>
      </trkpt>
      <trkpt lat="43.96688" lon="3.81034">
        <ele>301</ele>
        <time>2019-03-12T14:39:49.261Z</time>
      </trkpt>
      <trkpt lat="43.96684" lon="3.81034">
        <ele>301</ele>
        <time>2019-03-12T14:39:53.270Z</time>
      </trkpt>
      <trkpt lat="43.9668" lon="3.81035">
        <ele>301</ele>
        <time>2019-03-12T14:39:57.301Z</time>
      </trkpt>
      <trkpt lat="43.96676" lon="3.81036">
        <ele>301</ele>
        <time>2019-03-12T14:40:02.255Z</time>
      </trkpt>
      <trkpt lat="43.96674" lon="3.81038">
        <ele>301</ele>
        <time>2019-03-12T14:40:07.250Z</time>
      </trkpt>
      <trkpt lat="43.96673" lon="3.8104">
        <ele>301</ele>
        <time>2019-03-12T14:40:11.291Z</time>
      </trkpt>
      <trkpt lat="43.96672" lon="3.81042">
        <ele>300</ele>
        <time>2019-03-12T14:40:43.277Z</time>
      </trkpt>
      <trkpt lat="43.96667" lon="3.81049">
        <ele>300</ele>
        <time>2019-03-12T14:40:48.271Z</time>
      </trkpt>
      <trkpt lat="43.96654" lon="3.81054">
        <ele>300</ele>
        <time>2019-03-12T14:41:05.293Z</time>
      </trkpt>
      <trkpt lat="43.96649" lon="3.81053">
        <ele>301</ele>
        <time>2019-03-12T14:41:10.302Z</time>
      </trkpt>
      <trkpt lat="43.96645" lon="3.81054">
        <ele>301</ele>
        <time>2019-03-12T14:41:15.261Z</time>
      </trkpt>
      <trkpt lat="43.9664" lon="3.81057">
        <ele>301</ele>
        <time>2019-03-12T14:41:19.294Z</time>
      </trkpt>
      <trkpt lat="43.96633" lon="3.81062">
        <ele>301</ele>
        <time>2019-03-12T14:41:24.250Z</time>
      </trkpt>
      <trkpt lat="43.9663" lon="3.81067">
        <ele>301</ele>
        <time>2019-03-12T14:41:28.254Z</time>
      </trkpt>
      <trkpt lat="43.96627" lon="3.81073">
        <ele>303</ele>
        <time>2019-03-12T14:41:32.287Z</time>
      </trkpt>
      <trkpt lat="43.96622" lon="3.81079">
        <ele>301</ele>
        <time>2019-03-12T14:41:36.296Z</time>
      </trkpt>
      <trkpt lat="43.96619" lon="3.81082">
        <ele>301</ele>
        <time>2019-03-12T14:41:40.295Z</time>
      </trkpt>
      <trkpt lat="43.96613" lon="3.8108">
        <ele>301</ele>
        <time>2019-03-12T14:41:45.287Z</time>
      </trkpt>
      <trkpt lat="43.96608" lon="3.81079">
        <ele>301</ele>
        <time>2019-03-12T14:41:50.273Z</time>
      </trkpt>
      <trkpt lat="43.96604" lon="3.81079">
        <ele>301</ele>
        <time>2019-03-12T14:41:54.290Z</time>
      </trkpt>
      <trkpt lat="43.966" lon="3.81077">
        <ele>301</ele>
        <time>2019-03-12T14:41:58.294Z</time>
      </trkpt>
      <trkpt lat="43.96596" lon="3.81076">
        <ele>300</ele>
        <time>2019-03-12T14:42:02.296Z</time>
      </trkpt>
      <trkpt lat="43.96592" lon="3.81073">
        <ele>300</ele>
        <time>2019-03-12T14:42:07.286Z</time>
      </trkpt>
      <trkpt lat="43.96591" lon="3.81068">
        <ele>305</ele>
        <time>2019-03-12T14:42:11.294Z</time>
      </trkpt>
      <trkpt lat="43.96585" lon="3.81065">
        <ele>305</ele>
        <time>2019-03-12T14:42:16.261Z</time>
      </trkpt>
      <trkpt lat="43.9658" lon="3.81065">
        <ele>305</ele>
        <time>2019-03-12T14:42:20.291Z</time>
      </trkpt>
      <trkpt lat="43.96577" lon="3.81065">
        <ele>305</ele>
        <time>2019-03-12T14:42:24.296Z</time>
      </trkpt>
      <trkpt lat="43.9657" lon="3.81064">
        <ele>305</ele>
        <time>2019-03-12T14:42:29.264Z</time>
      </trkpt>
      <trkpt lat="43.96565" lon="3.81064">
        <ele>301</ele>
        <time>2019-03-12T14:42:33.284Z</time>
      </trkpt>
      <trkpt lat="43.9656" lon="3.81062">
        <ele>301</ele>
        <time>2019-03-12T14:42:38.250Z</time>
      </trkpt>
      <trkpt lat="43.96556" lon="3.81063">
        <ele>301</ele>
        <time>2019-03-12T14:42:42.261Z</time>
      </trkpt>
      <trkpt lat="43.96554" lon="3.81063">
        <ele>301</ele>
        <time>2019-03-12T14:42:46.262Z</time>
      </trkpt>
      <trkpt lat="43.96547" lon="3.81066">
        <ele>301</ele>
        <time>2019-03-12T14:42:51.267Z</time>
      </trkpt>
      <trkpt lat="43.96542" lon="3.81065">
        <ele>301</ele>
        <time>2019-03-12T14:42:55.277Z</time>
      </trkpt>
      <trkpt lat="43.96535" lon="3.81064">
        <ele>298</ele>
        <time>2019-03-12T14:43:00.293Z</time>
      </trkpt>
      <trkpt lat="43.96528" lon="3.81062">
        <ele>298</ele>
        <time>2019-03-12T14:43:05.272Z</time>
      </trkpt>
      <trkpt lat="43.96521" lon="3.81062">
        <ele>298</ele>
        <time>2019-03-12T14:43:10.294Z</time>
      </trkpt>
      <trkpt lat="43.96515" lon="3.8106">
        <ele>298</ele>
        <time>2019-03-12T14:43:15.257Z</time>
      </trkpt>
      <trkpt lat="43.9651" lon="3.81058">
        <ele>295</ele>
        <time>2019-03-12T14:43:19.271Z</time>
      </trkpt>
      <trkpt lat="43.96506" lon="3.81055">
        <ele>295</ele>
        <time>2019-03-12T14:43:24.264Z</time>
      </trkpt>
      <trkpt lat="43.96502" lon="3.81055">
        <ele>295</ele>
        <time>2019-03-12T14:43:28.271Z</time>
      </trkpt>
      <trkpt lat="43.96498" lon="3.81052">
        <ele>295</ele>
        <time>2019-03-12T14:43:33.262Z</time>
      </trkpt>
      <trkpt lat="43.96493" lon="3.8105">
        <ele>295</ele>
        <time>2019-03-12T14:43:37.265Z</time>
      </trkpt>
      <trkpt lat="43.9649" lon="3.81044">
        <ele>295</ele>
        <time>2019-03-12T14:43:42.316Z</time>
      </trkpt>
      <trkpt lat="43.96484" lon="3.81041">
        <ele>294</ele>
        <time>2019-03-12T14:43:47.272Z</time>
      </trkpt>
      <trkpt lat="43.96479" lon="3.81038">
        <ele>294</ele>
        <time>2019-03-12T14:43:52.263Z</time>
      </trkpt>
      <trkpt lat="43.96476" lon="3.81035">
        <ele>294</ele>
        <time>2019-03-12T14:43:56.266Z</time>
      </trkpt>
      <trkpt lat="43.96471" lon="3.81033">
        <ele>294</ele>
        <time>2019-03-12T14:44:00.285Z</time>
      </trkpt>
      <trkpt lat="43.96466" lon="3.8103">
        <ele>294</ele>
        <time>2019-03-12T14:44:05.272Z</time>
      </trkpt>
      <trkpt lat="43.9646" lon="3.81026">
        <ele>294</ele>
        <time>2019-03-12T14:44:10.274Z</time>
      </trkpt>
      <trkpt lat="43.96455" lon="3.81022">
        <ele>293</ele>
        <time>2019-03-12T14:44:15.266Z</time>
      </trkpt>
      <trkpt lat="43.96451" lon="3.81019">
        <ele>293</ele>
        <time>2019-03-12T14:44:19.292Z</time>
      </trkpt>
      <trkpt lat="43.96447" lon="3.81016">
        <ele>293</ele>
        <time>2019-03-12T14:44:24.261Z</time>
      </trkpt>
      <trkpt lat="43.96443" lon="3.81013">
        <ele>299</ele>
        <time>2019-03-12T14:44:28.263Z</time>
      </trkpt>
      <trkpt lat="43.96437" lon="3.8101">
        <ele>299</ele>
        <time>2019-03-12T14:44:32.264Z</time>
      </trkpt>
      <trkpt lat="43.96433" lon="3.81008">
        <ele>299</ele>
        <time>2019-03-12T14:44:36.275Z</time>
      </trkpt>
      <trkpt lat="43.96428" lon="3.81007">
        <ele>294</ele>
        <time>2019-03-12T14:44:40.272Z</time>
      </trkpt>
      <trkpt lat="43.96421" lon="3.81006">
        <ele>294</ele>
        <time>2019-03-12T14:44:45.268Z</time>
      </trkpt>
      <trkpt lat="43.96417" lon="3.81005">
        <ele>294</ele>
        <time>2019-03-12T14:44:49.302Z</time>
      </trkpt>
      <trkpt lat="43.96411" lon="3.81005">
        <ele>294</ele>
        <time>2019-03-12T14:44:54.276Z</time>
      </trkpt>
      <trkpt lat="43.96406" lon="3.81004">
        <ele>294</ele>
        <time>2019-03-12T14:44:59.260Z</time>
      </trkpt>
      <trkpt lat="43.96402" lon="3.81">
        <ele>289</ele>
        <time>2019-03-12T14:45:03.263Z</time>
      </trkpt>
      <trkpt lat="43.96399" lon="3.80994">
        <ele>289</ele>
        <time>2019-03-12T14:45:07.292Z</time>
      </trkpt>
      <trkpt lat="43.96395" lon="3.80988">
        <ele>289</ele>
        <time>2019-03-12T14:45:12.272Z</time>
      </trkpt>
      <trkpt lat="43.96393" lon="3.80982">
        <ele>290</ele>
        <time>2019-03-12T14:45:16.303Z</time>
      </trkpt>
      <trkpt lat="43.96391" lon="3.80974">
        <ele>290</ele>
        <time>2019-03-12T14:45:21.261Z</time>
      </trkpt>
      <trkpt lat="43.96391" lon="3.80968">
        <ele>290</ele>
        <time>2019-03-12T14:45:25.270Z</time>
      </trkpt>
      <trkpt lat="43.96392" lon="3.80963">
        <ele>290</ele>
        <time>2019-03-12T14:45:29.279Z</time>
      </trkpt>
      <trkpt lat="43.96392" lon="3.80957">
        <ele>290</ele>
        <time>2019-03-12T14:45:34.272Z</time>
      </trkpt>
      <trkpt lat="43.96391" lon="3.80948">
        <ele>290</ele>
        <time>2019-03-12T14:45:39.261Z</time>
      </trkpt>
      <trkpt lat="43.9639" lon="3.80942">
        <ele>290</ele>
        <time>2019-03-12T14:45:43.291Z</time>
      </trkpt>
      <trkpt lat="43.9639" lon="3.80935">
        <ele>290</ele>
        <time>2019-03-12T14:45:47.299Z</time>
      </trkpt>
      <trkpt lat="43.9639" lon="3.80928">
        <ele>295</ele>
        <time>2019-03-12T14:45:52.262Z</time>
      </trkpt>
      <trkpt lat="43.9639" lon="3.80923">
        <ele>295</ele>
        <time>2019-03-12T14:45:56.270Z</time>
      </trkpt>
      <trkpt lat="43.96388" lon="3.80917">
        <ele>295</ele>
        <time>2019-03-12T14:46:01.262Z</time>
      </trkpt>
      <trkpt lat="43.96384" lon="3.80914">
        <ele>295</ele>
        <time>2019-03-12T14:46:05.297Z</time>
      </trkpt>
      <trkpt lat="43.96378" lon="3.80911">
        <ele>295</ele>
        <time>2019-03-12T14:46:10.265Z</time>
      </trkpt>
      <trkpt lat="43.96373" lon="3.80909">
        <ele>288</ele>
        <time>2019-03-12T14:46:14.287Z</time>
      </trkpt>
      <trkpt lat="43.96367" lon="3.80905">
        <ele>288</ele>
        <time>2019-03-12T14:46:19.250Z</time>
      </trkpt>
      <trkpt lat="43.96364" lon="3.80901">
        <ele>289</ele>
        <time>2019-03-12T14:46:23.273Z</time>
      </trkpt>
      <trkpt lat="43.9636" lon="3.80896">
        <ele>289</ele>
        <time>2019-03-12T14:46:27.295Z</time>
      </trkpt>
      <trkpt lat="43.96358" lon="3.80889">
        <ele>289</ele>
        <time>2019-03-12T14:46:32.263Z</time>
      </trkpt>
      <trkpt lat="43.96355" lon="3.80884">
        <ele>289</ele>
        <time>2019-03-12T14:46:36.262Z</time>
      </trkpt>
      <trkpt lat="43.96353" lon="3.80878">
        <ele>289</ele>
        <time>2019-03-12T14:46:40.291Z</time>
      </trkpt>
      <trkpt lat="43.96351" lon="3.8087">
        <ele>294</ele>
        <time>2019-03-12T14:46:45.291Z</time>
      </trkpt>
      <trkpt lat="43.9635" lon="3.80864">
        <ele>294</ele>
        <time>2019-03-12T14:46:49.292Z</time>
      </trkpt>
      <trkpt lat="43.96347" lon="3.80858">
        <ele>285</ele>
        <time>2019-03-12T14:46:54.263Z</time>
      </trkpt>
      <trkpt lat="43.96345" lon="3.80853">
        <ele>285</ele>
        <time>2019-03-12T14:46:58.292Z</time>
      </trkpt>
      <trkpt lat="43.96345" lon="3.80846">
        <ele>288</ele>
        <time>2019-03-12T14:47:03.262Z</time>
      </trkpt>
      <trkpt lat="43.96345" lon="3.80839">
        <ele>288</ele>
        <time>2019-03-12T14:47:07.265Z</time>
      </trkpt>
      <trkpt lat="43.96346" lon="3.80833">
        <ele>288</ele>
        <time>2019-03-12T14:47:11.293Z</time>
      </trkpt>
      <trkpt lat="43.96346" lon="3.80822">
        <ele>288</ele>
        <time>2019-03-12T14:47:16.263Z</time>
      </trkpt>
      <trkpt lat="43.96345" lon="3.80816">
        <ele>289</ele>
        <time>2019-03-12T14:47:20.267Z</time>
      </trkpt>
      <trkpt lat="43.96344" lon="3.80809">
        <ele>289</ele>
        <time>2019-03-12T14:47:24.290Z</time>
      </trkpt>
      <trkpt lat="43.96343" lon="3.80801">
        <ele>289</ele>
        <time>2019-03-12T14:47:28.276Z</time>
      </trkpt>
      <trkpt lat="43.9634" lon="3.80795">
        <ele>289</ele>
        <time>2019-03-12T14:47:32.305Z</time>
      </trkpt>
      <trkpt lat="43.96337" lon="3.80787">
        <ele>291</ele>
        <time>2019-03-12T14:47:37.293Z</time>
      </trkpt>
      <trkpt lat="43.96333" lon="3.80778">
        <ele>291</ele>
        <time>2019-03-12T14:47:42.259Z</time>
      </trkpt>
      <trkpt lat="43.9633" lon="3.80772">
        <ele>291</ele>
        <time>2019-03-12T14:47:46.266Z</time>
      </trkpt>
      <trkpt lat="43.96327" lon="3.80767">
        <ele>291</ele>
        <time>2019-03-12T14:47:50.305Z</time>
      </trkpt>
      <trkpt lat="43.9632" lon="3.80764">
        <ele>300</ele>
        <time>2019-03-12T14:47:55.268Z</time>
      </trkpt>
      <trkpt lat="43.96315" lon="3.80761">
        <ele>281</ele>
        <time>2019-03-12T14:47:59.302Z</time>
      </trkpt>
      <trkpt lat="43.96307" lon="3.8076">
        <ele>281</ele>
        <time>2019-03-12T14:48:04.270Z</time>
      </trkpt>
      <trkpt lat="43.96303" lon="3.80759">
        <ele>281</ele>
        <time>2019-03-12T14:48:08.291Z</time>
      </trkpt>
      <trkpt lat="43.96295" lon="3.80757">
        <ele>281</ele>
        <time>2019-03-12T14:48:13.263Z</time>
      </trkpt>
      <trkpt lat="43.96289" lon="3.80755">
        <ele>278</ele>
        <time>2019-03-12T14:48:17.272Z</time>
      </trkpt>
      <trkpt lat="43.96284" lon="3.80754">
        <ele>278</ele>
        <time>2019-03-12T14:48:21.292Z</time>
      </trkpt>
      <trkpt lat="43.96278" lon="3.8075">
        <ele>278</ele>
        <time>2019-03-12T14:48:26.268Z</time>
      </trkpt>
      <trkpt lat="43.96275" lon="3.80745">
        <ele>278</ele>
        <time>2019-03-12T14:48:30.297Z</time>
      </trkpt>
      <trkpt lat="43.96273" lon="3.80738">
        <ele>278</ele>
        <time>2019-03-12T14:48:35.302Z</time>
      </trkpt>
      <trkpt lat="43.96272" lon="3.8073">
        <ele>279</ele>
        <time>2019-03-12T14:48:40.261Z</time>
      </trkpt>
      <trkpt lat="43.96271" lon="3.80724">
        <ele>279</ele>
        <time>2019-03-12T14:48:44.290Z</time>
      </trkpt>
      <trkpt lat="43.9627" lon="3.80717">
        <ele>279</ele>
        <time>2019-03-12T14:48:49.261Z</time>
      </trkpt>
      <trkpt lat="43.9627" lon="3.8071">
        <ele>279</ele>
        <time>2019-03-12T14:48:54.268Z</time>
      </trkpt>
      <trkpt lat="43.96269" lon="3.80701">
        <ele>282</ele>
        <time>2019-03-12T14:48:59.261Z</time>
      </trkpt>
      <trkpt lat="43.96268" lon="3.80695">
        <ele>282</ele>
        <time>2019-03-12T14:49:03.294Z</time>
      </trkpt>
      <trkpt lat="43.96267" lon="3.80687">
        <ele>282</ele>
        <time>2019-03-12T14:49:08.260Z</time>
      </trkpt>
      <trkpt lat="43.96264" lon="3.80682">
        <ele>282</ele>
        <time>2019-03-12T14:49:12.262Z</time>
      </trkpt>
      <trkpt lat="43.96262" lon="3.80677">
        <ele>280</ele>
        <time>2019-03-12T14:49:16.263Z</time>
      </trkpt>
      <trkpt lat="43.96257" lon="3.8067">
        <ele>280</ele>
        <time>2019-03-12T14:49:21.275Z</time>
      </trkpt>
      <trkpt lat="43.96255" lon="3.80665">
        <ele>280</ele>
        <time>2019-03-12T14:49:25.298Z</time>
      </trkpt>
      <trkpt lat="43.96251" lon="3.80658">
        <ele>280</ele>
        <time>2019-03-12T14:49:30.261Z</time>
      </trkpt>
      <trkpt lat="43.96247" lon="3.80655">
        <ele>280</ele>
        <time>2019-03-12T14:49:34.274Z</time>
      </trkpt>
      <trkpt lat="43.9624" lon="3.80653">
        <ele>289</ele>
        <time>2019-03-12T14:49:39.262Z</time>
      </trkpt>
      <trkpt lat="43.96234" lon="3.80652">
        <ele>286</ele>
        <time>2019-03-12T14:49:43.275Z</time>
      </trkpt>
      <trkpt lat="43.96228" lon="3.80651">
        <ele>286</ele>
        <time>2019-03-12T14:49:47.274Z</time>
      </trkpt>
      <trkpt lat="43.96223" lon="3.8065">
        <ele>286</ele>
        <time>2019-03-12T14:49:51.290Z</time>
      </trkpt>
      <trkpt lat="43.96216" lon="3.80651">
        <ele>286</ele>
        <time>2019-03-12T14:49:56.263Z</time>
      </trkpt>
      <trkpt lat="43.96211" lon="3.8065">
        <ele>286</ele>
        <time>2019-03-12T14:50:00.293Z</time>
      </trkpt>
      <trkpt lat="43.96204" lon="3.80649">
        <ele>283</ele>
        <time>2019-03-12T14:50:05.294Z</time>
      </trkpt>
      <trkpt lat="43.96199" lon="3.8065">
        <ele>283</ele>
        <time>2019-03-12T14:50:10.288Z</time>
      </trkpt>
      <trkpt lat="43.96193" lon="3.8065">
        <ele>283</ele>
        <time>2019-03-12T14:50:15.272Z</time>
      </trkpt>
      <trkpt lat="43.96187" lon="3.80649">
        <ele>283</ele>
        <time>2019-03-12T14:50:20.302Z</time>
      </trkpt>
      <trkpt lat="43.9618" lon="3.80649">
        <ele>286</ele>
        <time>2019-03-12T14:50:25.260Z</time>
      </trkpt>
      <trkpt lat="43.96175" lon="3.80648">
        <ele>286</ele>
        <time>2019-03-12T14:50:29.295Z</time>
      </trkpt>
      <trkpt lat="43.96169" lon="3.80647">
        <ele>286</ele>
        <time>2019-03-12T14:50:34.266Z</time>
      </trkpt>
      <trkpt lat="43.96163" lon="3.80644">
        <ele>286</ele>
        <time>2019-03-12T14:50:38.272Z</time>
      </trkpt>
      <trkpt lat="43.96157" lon="3.80645">
        <ele>286</ele>
        <time>2019-03-12T14:50:43.273Z</time>
      </trkpt>
      <trkpt lat="43.96152" lon="3.80649">
        <ele>289</ele>
        <time>2019-03-12T14:50:48.289Z</time>
      </trkpt>
      <trkpt lat="43.96147" lon="3.80653">
        <ele>289</ele>
        <time>2019-03-12T14:50:53.270Z</time>
      </trkpt>
      <trkpt lat="43.96144" lon="3.80656">
        <ele>272</ele>
        <time>2019-03-12T14:50:57.302Z</time>
      </trkpt>
      <trkpt lat="43.96139" lon="3.80659">
        <ele>272</ele>
        <time>2019-03-12T14:51:02.297Z</time>
      </trkpt>
      <trkpt lat="43.96133" lon="3.80659">
        <ele>272</ele>
        <time>2019-03-12T14:51:07.275Z</time>
      </trkpt>
      <trkpt lat="43.96128" lon="3.80659">
        <ele>272</ele>
        <time>2019-03-12T14:51:11.293Z</time>
      </trkpt>
      <trkpt lat="43.96123" lon="3.80658">
        <ele>272</ele>
        <time>2019-03-12T14:51:16.260Z</time>
      </trkpt>
      <trkpt lat="43.96119" lon="3.80657">
        <ele>272</ele>
        <time>2019-03-12T14:51:20.266Z</time>
      </trkpt>
      <trkpt lat="43.96114" lon="3.80655">
        <ele>272</ele>
        <time>2019-03-12T14:51:25.276Z</time>
      </trkpt>
      <trkpt lat="43.96108" lon="3.80655">
        <ele>272</ele>
        <time>2019-03-12T14:51:30.262Z</time>
      </trkpt>
      <trkpt lat="43.96103" lon="3.80654">
        <ele>272</ele>
        <time>2019-03-12T14:51:34.292Z</time>
      </trkpt>
      <trkpt lat="43.96097" lon="3.80655">
        <ele>275</ele>
        <time>2019-03-12T14:51:39.260Z</time>
      </trkpt>
      <trkpt lat="43.96092" lon="3.80654">
        <ele>275</ele>
        <time>2019-03-12T14:51:43.261Z</time>
      </trkpt>
      <trkpt lat="43.96087" lon="3.80655">
        <ele>275</ele>
        <time>2019-03-12T14:51:47.291Z</time>
      </trkpt>
      <trkpt lat="43.96082" lon="3.80659">
        <ele>275</ele>
        <time>2019-03-12T14:51:52.266Z</time>
      </trkpt>
      <trkpt lat="43.96077" lon="3.80662">
        <ele>275</ele>
        <time>2019-03-12T14:51:57.273Z</time>
      </trkpt>
      <trkpt lat="43.96073" lon="3.8067">
        <ele>275</ele>
        <time>2019-03-12T14:52:02.272Z</time>
      </trkpt>
      <trkpt lat="43.96067" lon="3.80674">
        <ele>282</ele>
        <time>2019-03-12T14:52:07.279Z</time>
      </trkpt>
      <trkpt lat="43.96062" lon="3.80677">
        <ele>282</ele>
        <time>2019-03-12T14:52:12.264Z</time>
      </trkpt>
      <trkpt lat="43.96056" lon="3.80681">
        <ele>272</ele>
        <time>2019-03-12T14:52:17.259Z</time>
      </trkpt>
      <trkpt lat="43.96051" lon="3.80684">
        <ele>272</ele>
        <time>2019-03-12T14:52:21.299Z</time>
      </trkpt>
      <trkpt lat="43.96044" lon="3.80681">
        <ele>272</ele>
        <time>2019-03-12T14:52:26.290Z</time>
      </trkpt>
      <trkpt lat="43.96039" lon="3.80683">
        <ele>265</ele>
        <time>2019-03-12T14:52:31.261Z</time>
      </trkpt>
    </trkseg>
  </trk>
</gpx>